<?xml version="1.0" encoding="UTF-8"?>
<gpx version="1.1" creator="RoadTrp.org" xmlns="http://www.topografix.com/GPX/1/1">
<trk><name>Poe-Dogwood-Hawks-Lake — Enterprise South Nature Park — August 4, 2026</name><trkseg>
<trkpt lat="35.07863" lon="-85.125803"><ele>245.4</ele><time>2026-08-04T20:30:19Z</time></trkpt>
<trkpt lat="35.078649" lon="-85.125838"><ele>245.1</ele><time>2026-08-04T20:30:22Z</time></trkpt>
<trkpt lat="35.078664" lon="-85.125887"><ele>245.1</ele><time>2026-08-04T20:30:25Z</time></trkpt>
<trkpt lat="35.078679" lon="-85.125923"><ele>245.1</ele><time>2026-08-04T20:30:27Z</time></trkpt>
<trkpt lat="35.078693" lon="-85.125953"><ele>245.1</ele><time>2026-08-04T20:30:29Z</time></trkpt>
<trkpt lat="35.078721" lon="-85.125976"><ele>244.1</ele><time>2026-08-04T20:30:32Z</time></trkpt>
<trkpt lat="35.07875" lon="-85.125975"><ele>242.3</ele><time>2026-08-04T20:30:35Z</time></trkpt>
<trkpt lat="35.078785" lon="-85.125971"><ele>245.4</ele><time>2026-08-04T20:30:38Z</time></trkpt>
<trkpt lat="35.078813" lon="-85.125985"><ele>242.9</ele><time>2026-08-04T20:30:41Z</time></trkpt>
<trkpt lat="35.078838" lon="-85.126012"><ele>244.4</ele><time>2026-08-04T20:30:44Z</time></trkpt>
<trkpt lat="35.078866" lon="-85.12601"><ele>245.7</ele><time>2026-08-04T20:30:46Z</time></trkpt>
<trkpt lat="35.078895" lon="-85.126"><ele>246.9</ele><time>2026-08-04T20:30:48Z</time></trkpt>
<trkpt lat="35.078918" lon="-85.125962"><ele>247.2</ele><time>2026-08-04T20:30:51Z</time></trkpt>
<trkpt lat="35.078927" lon="-85.125928"><ele>246.3</ele><time>2026-08-04T20:30:53Z</time></trkpt>
<trkpt lat="35.078942" lon="-85.125899"><ele>245.7</ele><time>2026-08-04T20:30:55Z</time></trkpt>
<trkpt lat="35.078955" lon="-85.125852"><ele>246.3</ele><time>2026-08-04T20:30:58Z</time></trkpt>
<trkpt lat="35.078952" lon="-85.125817"><ele>245.7</ele><time>2026-08-04T20:31:00Z</time></trkpt>
<trkpt lat="35.078959" lon="-85.125772"><ele>244.8</ele><time>2026-08-04T20:31:03Z</time></trkpt>
<trkpt lat="35.078957" lon="-85.125725"><ele>246.0</ele><time>2026-08-04T20:31:06Z</time></trkpt>
<trkpt lat="35.07896" lon="-85.125684"><ele>246.3</ele><time>2026-08-04T20:31:09Z</time></trkpt>
<trkpt lat="35.078962" lon="-85.125641"><ele>246.9</ele><time>2026-08-04T20:31:12Z</time></trkpt>
<trkpt lat="35.078947" lon="-85.125598"><ele>248.4</ele><time>2026-08-04T20:31:15Z</time></trkpt>
<trkpt lat="35.078939" lon="-85.125565"><ele>250.2</ele><time>2026-08-04T20:31:17Z</time></trkpt>
<trkpt lat="35.078925" lon="-85.125518"><ele>250.5</ele><time>2026-08-04T20:31:20Z</time></trkpt>
<trkpt lat="35.078918" lon="-85.125485"><ele>251.5</ele><time>2026-08-04T20:31:22Z</time></trkpt>
<trkpt lat="35.078914" lon="-85.125452"><ele>251.8</ele><time>2026-08-04T20:31:24Z</time></trkpt>
<trkpt lat="35.078906" lon="-85.125417"><ele>251.8</ele><time>2026-08-04T20:31:26Z</time></trkpt>
<trkpt lat="35.078903" lon="-85.125381"><ele>253.6</ele><time>2026-08-04T20:31:28Z</time></trkpt>
<trkpt lat="35.078904" lon="-85.125332"><ele>253.6</ele><time>2026-08-04T20:31:31Z</time></trkpt>
<trkpt lat="35.078907" lon="-85.125298"><ele>253.0</ele><time>2026-08-04T20:31:33Z</time></trkpt>
<trkpt lat="35.078914" lon="-85.125255"><ele>254.2</ele><time>2026-08-04T20:31:36Z</time></trkpt>
<trkpt lat="35.07893" lon="-85.125216"><ele>255.1</ele><time>2026-08-04T20:31:39Z</time></trkpt>
<trkpt lat="35.078954" lon="-85.125179"><ele>255.4</ele><time>2026-08-04T20:31:42Z</time></trkpt>
<trkpt lat="35.078975" lon="-85.125138"><ele>256.6</ele><time>2026-08-04T20:31:45Z</time></trkpt>
<trkpt lat="35.078994" lon="-85.125095"><ele>256.0</ele><time>2026-08-04T20:31:48Z</time></trkpt>
<trkpt lat="35.079023" lon="-85.125068"><ele>254.5</ele><time>2026-08-04T20:31:51Z</time></trkpt>
<trkpt lat="35.079048" lon="-85.125051"><ele>256.0</ele><time>2026-08-04T20:31:53Z</time></trkpt>
<trkpt lat="35.079076" lon="-85.125045"><ele>257.6</ele><time>2026-08-04T20:31:55Z</time></trkpt>
<trkpt lat="35.079107" lon="-85.125033"><ele>258.8</ele><time>2026-08-04T20:31:58Z</time></trkpt>
<trkpt lat="35.079136" lon="-85.125009"><ele>260.3</ele><time>2026-08-04T20:32:01Z</time></trkpt>
<trkpt lat="35.079158" lon="-85.124973"><ele>261.2</ele><time>2026-08-04T20:32:04Z</time></trkpt>
<trkpt lat="35.079176" lon="-85.124938"><ele>260.9</ele><time>2026-08-04T20:32:07Z</time></trkpt>
<trkpt lat="35.079192" lon="-85.124909"><ele>264.3</ele><time>2026-08-04T20:32:10Z</time></trkpt>
<trkpt lat="35.079204" lon="-85.124871"><ele>264.6</ele><time>2026-08-04T20:32:13Z</time></trkpt>
<trkpt lat="35.079229" lon="-85.124837"><ele>264.6</ele><time>2026-08-04T20:32:16Z</time></trkpt>
<trkpt lat="35.079241" lon="-85.124788"><ele>265.8</ele><time>2026-08-04T20:32:19Z</time></trkpt>
<trkpt lat="35.079241" lon="-85.12475"><ele>264.3</ele><time>2026-08-04T20:32:21Z</time></trkpt>
<trkpt lat="35.079232" lon="-85.124715"><ele>264.3</ele><time>2026-08-04T20:32:23Z</time></trkpt>
<trkpt lat="35.079213" lon="-85.124687"><ele>263.0</ele><time>2026-08-04T20:32:25Z</time></trkpt>
<trkpt lat="35.079195" lon="-85.124655"><ele>262.4</ele><time>2026-08-04T20:32:27Z</time></trkpt>
<trkpt lat="35.07919" lon="-85.124611"><ele>261.8</ele><time>2026-08-04T20:32:29Z</time></trkpt>
<trkpt lat="35.079187" lon="-85.124575"><ele>262.4</ele><time>2026-08-04T20:32:31Z</time></trkpt>
<trkpt lat="35.0792" lon="-85.124532"><ele>259.7</ele><time>2026-08-04T20:32:34Z</time></trkpt>
<trkpt lat="35.079217" lon="-85.124495"><ele>260.3</ele><time>2026-08-04T20:32:37Z</time></trkpt>
<trkpt lat="35.07923" lon="-85.12445"><ele>261.5</ele><time>2026-08-04T20:32:40Z</time></trkpt>
<trkpt lat="35.07923" lon="-85.124401"><ele>261.5</ele><time>2026-08-04T20:32:43Z</time></trkpt>
<trkpt lat="35.07923" lon="-85.124367"><ele>261.2</ele><time>2026-08-04T20:32:45Z</time></trkpt>
<trkpt lat="35.079228" lon="-85.124333"><ele>260.9</ele><time>2026-08-04T20:32:47Z</time></trkpt>
<trkpt lat="35.079229" lon="-85.124299"><ele>260.3</ele><time>2026-08-04T20:32:49Z</time></trkpt>
<trkpt lat="35.07923" lon="-85.124251"><ele>260.3</ele><time>2026-08-04T20:32:52Z</time></trkpt>
<trkpt lat="35.079238" lon="-85.124207"><ele>260.9</ele><time>2026-08-04T20:32:55Z</time></trkpt>
<trkpt lat="35.079239" lon="-85.124167"><ele>259.1</ele><time>2026-08-04T20:32:58Z</time></trkpt>
<trkpt lat="35.079245" lon="-85.124134"><ele>257.6</ele><time>2026-08-04T20:33:00Z</time></trkpt>
<trkpt lat="35.079246" lon="-85.124091"><ele>258.5</ele><time>2026-08-04T20:33:03Z</time></trkpt>
<trkpt lat="35.079237" lon="-85.124048"><ele>260.0</ele><time>2026-08-04T20:33:06Z</time></trkpt>
<trkpt lat="35.079228" lon="-85.124004"><ele>260.0</ele><time>2026-08-04T20:33:09Z</time></trkpt>
<trkpt lat="35.079225" lon="-85.123963"><ele>262.1</ele><time>2026-08-04T20:33:12Z</time></trkpt>
<trkpt lat="35.079218" lon="-85.123919"><ele>262.7</ele><time>2026-08-04T20:33:15Z</time></trkpt>
<trkpt lat="35.079215" lon="-85.123877"><ele>260.6</ele><time>2026-08-04T20:33:18Z</time></trkpt>
<trkpt lat="35.079209" lon="-85.123843"><ele>258.8</ele><time>2026-08-04T20:33:21Z</time></trkpt>
<trkpt lat="35.079194" lon="-85.123806"><ele>257.9</ele><time>2026-08-04T20:33:24Z</time></trkpt>
<trkpt lat="35.079212" lon="-85.123769"><ele>257.9</ele><time>2026-08-04T20:33:27Z</time></trkpt>
<trkpt lat="35.079209" lon="-85.123726"><ele>256.6</ele><time>2026-08-04T20:33:30Z</time></trkpt>
<trkpt lat="35.079202" lon="-85.12368"><ele>256.9</ele><time>2026-08-04T20:33:33Z</time></trkpt>
<trkpt lat="35.079196" lon="-85.123634"><ele>257.3</ele><time>2026-08-04T20:33:36Z</time></trkpt>
<trkpt lat="35.079198" lon="-85.123588"><ele>258.8</ele><time>2026-08-04T20:33:39Z</time></trkpt>
<trkpt lat="35.079204" lon="-85.123543"><ele>260.0</ele><time>2026-08-04T20:33:42Z</time></trkpt>
<trkpt lat="35.079222" lon="-85.123503"><ele>259.7</ele><time>2026-08-04T20:33:45Z</time></trkpt>
<trkpt lat="35.079242" lon="-85.123477"><ele>260.0</ele><time>2026-08-04T20:33:47Z</time></trkpt>
<trkpt lat="35.079262" lon="-85.123453"><ele>260.0</ele><time>2026-08-04T20:33:49Z</time></trkpt>
<trkpt lat="35.079277" lon="-85.12341"><ele>260.9</ele><time>2026-08-04T20:33:52Z</time></trkpt>
<trkpt lat="35.079292" lon="-85.123378"><ele>262.1</ele><time>2026-08-04T20:33:55Z</time></trkpt>
<trkpt lat="35.07931" lon="-85.123339"><ele>262.1</ele><time>2026-08-04T20:33:58Z</time></trkpt>
<trkpt lat="35.079311" lon="-85.123294"><ele>260.6</ele><time>2026-08-04T20:34:01Z</time></trkpt>
<trkpt lat="35.079304" lon="-85.123249"><ele>260.3</ele><time>2026-08-04T20:34:04Z</time></trkpt>
<trkpt lat="35.079308" lon="-85.123206"><ele>259.4</ele><time>2026-08-04T20:34:07Z</time></trkpt>
<trkpt lat="35.079312" lon="-85.123161"><ele>258.5</ele><time>2026-08-04T20:34:10Z</time></trkpt>
<trkpt lat="35.079309" lon="-85.123113"><ele>257.6</ele><time>2026-08-04T20:34:13Z</time></trkpt>
<trkpt lat="35.079313" lon="-85.123079"><ele>257.6</ele><time>2026-08-04T20:34:15Z</time></trkpt>
<trkpt lat="35.079323" lon="-85.123031"><ele>255.7</ele><time>2026-08-04T20:34:18Z</time></trkpt>
<trkpt lat="35.079322" lon="-85.122983"><ele>256.3</ele><time>2026-08-04T20:34:21Z</time></trkpt>
<trkpt lat="35.079333" lon="-85.122937"><ele>256.0</ele><time>2026-08-04T20:34:24Z</time></trkpt>
<trkpt lat="35.07934" lon="-85.122904"><ele>256.0</ele><time>2026-08-04T20:34:26Z</time></trkpt>
<trkpt lat="35.079341" lon="-85.122867"><ele>256.6</ele><time>2026-08-04T20:34:28Z</time></trkpt>
<trkpt lat="35.079341" lon="-85.12282"><ele>258.8</ele><time>2026-08-04T20:34:30Z</time></trkpt>
<trkpt lat="35.079355" lon="-85.122783"><ele>260.9</ele><time>2026-08-04T20:34:32Z</time></trkpt>
<trkpt lat="35.079371" lon="-85.122737"><ele>261.2</ele><time>2026-08-04T20:34:35Z</time></trkpt>
<trkpt lat="35.079384" lon="-85.122699"><ele>260.9</ele><time>2026-08-04T20:34:38Z</time></trkpt>
<trkpt lat="35.079396" lon="-85.122656"><ele>259.4</ele><time>2026-08-04T20:34:41Z</time></trkpt>
<trkpt lat="35.079407" lon="-85.122608"><ele>260.6</ele><time>2026-08-04T20:34:44Z</time></trkpt>
<trkpt lat="35.079422" lon="-85.122563"><ele>261.8</ele><time>2026-08-04T20:34:47Z</time></trkpt>
<trkpt lat="35.079433" lon="-85.122521"><ele>262.7</ele><time>2026-08-04T20:34:51Z</time></trkpt>
<trkpt lat="35.079442" lon="-85.122476"><ele>263.0</ele><time>2026-08-04T20:34:54Z</time></trkpt>
<trkpt lat="35.079453" lon="-85.122431"><ele>264.9</ele><time>2026-08-04T20:34:57Z</time></trkpt>
<trkpt lat="35.079457" lon="-85.122386"><ele>264.0</ele><time>2026-08-04T20:35:00Z</time></trkpt>
<trkpt lat="35.079466" lon="-85.122348"><ele>263.0</ele><time>2026-08-04T20:35:03Z</time></trkpt>
<trkpt lat="35.079496" lon="-85.122328"><ele>262.1</ele><time>2026-08-04T20:35:05Z</time></trkpt>
<trkpt lat="35.079503" lon="-85.122288"><ele>262.1</ele><time>2026-08-04T20:35:08Z</time></trkpt>
<trkpt lat="35.079528" lon="-85.122263"><ele>261.8</ele><time>2026-08-04T20:35:10Z</time></trkpt>
<trkpt lat="35.079552" lon="-85.122244"><ele>261.2</ele><time>2026-08-04T20:35:12Z</time></trkpt>
<trkpt lat="35.079575" lon="-85.122216"><ele>261.2</ele><time>2026-08-04T20:35:15Z</time></trkpt>
<trkpt lat="35.07958" lon="-85.12217"><ele>261.2</ele><time>2026-08-04T20:35:18Z</time></trkpt>
<trkpt lat="35.079596" lon="-85.122129"><ele>260.3</ele><time>2026-08-04T20:35:21Z</time></trkpt>
<trkpt lat="35.079606" lon="-85.122086"><ele>260.3</ele><time>2026-08-04T20:35:24Z</time></trkpt>
<trkpt lat="35.079623" lon="-85.122056"><ele>260.9</ele><time>2026-08-04T20:35:26Z</time></trkpt>
<trkpt lat="35.079644" lon="-85.122023"><ele>261.5</ele><time>2026-08-04T20:35:29Z</time></trkpt>
<trkpt lat="35.079681" lon="-85.122006"><ele>261.5</ele><time>2026-08-04T20:35:32Z</time></trkpt>
<trkpt lat="35.079716" lon="-85.121986"><ele>263.3</ele><time>2026-08-04T20:35:35Z</time></trkpt>
<trkpt lat="35.079752" lon="-85.121968"><ele>264.3</ele><time>2026-08-04T20:35:38Z</time></trkpt>
<trkpt lat="35.079776" lon="-85.121943"><ele>265.8</ele><time>2026-08-04T20:35:41Z</time></trkpt>
<trkpt lat="35.079809" lon="-85.121917"><ele>267.0</ele><time>2026-08-04T20:35:44Z</time></trkpt>
<trkpt lat="35.079829" lon="-85.121881"><ele>266.1</ele><time>2026-08-04T20:35:47Z</time></trkpt>
<trkpt lat="35.079852" lon="-85.121849"><ele>266.1</ele><time>2026-08-04T20:35:50Z</time></trkpt>
<trkpt lat="35.079881" lon="-85.121825"><ele>265.8</ele><time>2026-08-04T20:35:53Z</time></trkpt>
<trkpt lat="35.079916" lon="-85.121816"><ele>266.4</ele><time>2026-08-04T20:35:56Z</time></trkpt>
<trkpt lat="35.079953" lon="-85.121806"><ele>267.6</ele><time>2026-08-04T20:35:59Z</time></trkpt>
<trkpt lat="35.079968" lon="-85.121775"><ele>268.5</ele><time>2026-08-04T20:36:02Z</time></trkpt>
<trkpt lat="35.079987" lon="-85.121736"><ele>269.1</ele><time>2026-08-04T20:36:05Z</time></trkpt>
<trkpt lat="35.079986" lon="-85.121691"><ele>268.8</ele><time>2026-08-04T20:36:08Z</time></trkpt>
<trkpt lat="35.079987" lon="-85.121653"><ele>265.5</ele><time>2026-08-04T20:36:11Z</time></trkpt>
<trkpt lat="35.079992" lon="-85.121611"><ele>267.3</ele><time>2026-08-04T20:36:14Z</time></trkpt>
<trkpt lat="35.080021" lon="-85.121581"><ele>265.2</ele><time>2026-08-04T20:36:17Z</time></trkpt>
<trkpt lat="35.080046" lon="-85.121545"><ele>266.1</ele><time>2026-08-04T20:36:20Z</time></trkpt>
<trkpt lat="35.080054" lon="-85.1215"><ele>265.8</ele><time>2026-08-04T20:36:23Z</time></trkpt>
<trkpt lat="35.080042" lon="-85.12147"><ele>265.8</ele><time>2026-08-04T20:36:25Z</time></trkpt>
<trkpt lat="35.080035" lon="-85.121432"><ele>265.2</ele><time>2026-08-04T20:36:28Z</time></trkpt>
<trkpt lat="35.080056" lon="-85.121396"><ele>265.2</ele><time>2026-08-04T20:36:31Z</time></trkpt>
<trkpt lat="35.080087" lon="-85.121386"><ele>263.0</ele><time>2026-08-04T20:36:33Z</time></trkpt>
<trkpt lat="35.080117" lon="-85.121381"><ele>262.1</ele><time>2026-08-04T20:36:35Z</time></trkpt>
<trkpt lat="35.080156" lon="-85.121372"><ele>262.7</ele><time>2026-08-04T20:36:38Z</time></trkpt>
<trkpt lat="35.080193" lon="-85.12136"><ele>263.3</ele><time>2026-08-04T20:36:41Z</time></trkpt>
<trkpt lat="35.080218" lon="-85.121325"><ele>263.7</ele><time>2026-08-04T20:36:44Z</time></trkpt>
<trkpt lat="35.08025" lon="-85.121311"><ele>265.2</ele><time>2026-08-04T20:36:47Z</time></trkpt>
<trkpt lat="35.080276" lon="-85.121297"><ele>265.8</ele><time>2026-08-04T20:36:49Z</time></trkpt>
<trkpt lat="35.080295" lon="-85.121269"><ele>265.5</ele><time>2026-08-04T20:36:51Z</time></trkpt>
<trkpt lat="35.080308" lon="-85.121235"><ele>265.2</ele><time>2026-08-04T20:36:53Z</time></trkpt>
<trkpt lat="35.080333" lon="-85.121199"><ele>266.1</ele><time>2026-08-04T20:36:56Z</time></trkpt>
<trkpt lat="35.080356" lon="-85.121166"><ele>266.7</ele><time>2026-08-04T20:36:59Z</time></trkpt>
<trkpt lat="35.080384" lon="-85.12113"><ele>265.2</ele><time>2026-08-04T20:37:02Z</time></trkpt>
<trkpt lat="35.080408" lon="-85.12111"><ele>264.6</ele><time>2026-08-04T20:37:04Z</time></trkpt>
<trkpt lat="35.080437" lon="-85.12108"><ele>264.3</ele><time>2026-08-04T20:37:07Z</time></trkpt>
<trkpt lat="35.080461" lon="-85.121045"><ele>263.7</ele><time>2026-08-04T20:37:10Z</time></trkpt>
<trkpt lat="35.080492" lon="-85.121015"><ele>263.0</ele><time>2026-08-04T20:37:13Z</time></trkpt>
<trkpt lat="35.080515" lon="-85.120974"><ele>263.3</ele><time>2026-08-04T20:37:16Z</time></trkpt>
<trkpt lat="35.08054" lon="-85.120955"><ele>262.7</ele><time>2026-08-04T20:37:18Z</time></trkpt>
<trkpt lat="35.080563" lon="-85.120934"><ele>262.7</ele><time>2026-08-04T20:37:20Z</time></trkpt>
<trkpt lat="35.080584" lon="-85.120909"><ele>264.6</ele><time>2026-08-04T20:37:22Z</time></trkpt>
<trkpt lat="35.080609" lon="-85.120892"><ele>264.6</ele><time>2026-08-04T20:37:24Z</time></trkpt>
<trkpt lat="35.080625" lon="-85.120862"><ele>264.9</ele><time>2026-08-04T20:37:26Z</time></trkpt>
<trkpt lat="35.080643" lon="-85.120821"><ele>264.6</ele><time>2026-08-04T20:37:29Z</time></trkpt>
<trkpt lat="35.080648" lon="-85.120774"><ele>263.3</ele><time>2026-08-04T20:37:32Z</time></trkpt>
<trkpt lat="35.080651" lon="-85.12073"><ele>264.6</ele><time>2026-08-04T20:37:35Z</time></trkpt>
<trkpt lat="35.080665" lon="-85.120687"><ele>264.0</ele><time>2026-08-04T20:37:38Z</time></trkpt>
<trkpt lat="35.080679" lon="-85.120642"><ele>264.3</ele><time>2026-08-04T20:37:41Z</time></trkpt>
<trkpt lat="35.080698" lon="-85.120616"><ele>264.9</ele><time>2026-08-04T20:37:43Z</time></trkpt>
<trkpt lat="35.080722" lon="-85.1206"><ele>263.3</ele><time>2026-08-04T20:37:45Z</time></trkpt>
<trkpt lat="35.080749" lon="-85.120586"><ele>261.5</ele><time>2026-08-04T20:37:47Z</time></trkpt>
<trkpt lat="35.080777" lon="-85.120569"><ele>261.5</ele><time>2026-08-04T20:37:49Z</time></trkpt>
<trkpt lat="35.080804" lon="-85.120554"><ele>261.2</ele><time>2026-08-04T20:37:51Z</time></trkpt>
<trkpt lat="35.080831" lon="-85.120537"><ele>261.5</ele><time>2026-08-04T20:37:53Z</time></trkpt>
<trkpt lat="35.080859" lon="-85.12052"><ele>260.9</ele><time>2026-08-04T20:37:55Z</time></trkpt>
<trkpt lat="35.08088" lon="-85.120497"><ele>261.8</ele><time>2026-08-04T20:37:57Z</time></trkpt>
<trkpt lat="35.080905" lon="-85.12048"><ele>260.6</ele><time>2026-08-04T20:37:59Z</time></trkpt>
<trkpt lat="35.080937" lon="-85.120451"><ele>260.3</ele><time>2026-08-04T20:38:02Z</time></trkpt>
<trkpt lat="35.080959" lon="-85.120412"><ele>260.0</ele><time>2026-08-04T20:38:05Z</time></trkpt>
<trkpt lat="35.080964" lon="-85.120371"><ele>261.8</ele><time>2026-08-04T20:38:07Z</time></trkpt>
<trkpt lat="35.080985" lon="-85.120329"><ele>264.3</ele><time>2026-08-04T20:38:10Z</time></trkpt>
<trkpt lat="35.081016" lon="-85.120302"><ele>264.3</ele><time>2026-08-04T20:38:13Z</time></trkpt>
<trkpt lat="35.081039" lon="-85.12027"><ele>265.5</ele><time>2026-08-04T20:38:16Z</time></trkpt>
<trkpt lat="35.081072" lon="-85.120247"><ele>265.2</ele><time>2026-08-04T20:38:19Z</time></trkpt>
<trkpt lat="35.081108" lon="-85.120221"><ele>263.3</ele><time>2026-08-04T20:38:22Z</time></trkpt>
<trkpt lat="35.081136" lon="-85.120204"><ele>261.2</ele><time>2026-08-04T20:38:24Z</time></trkpt>
<trkpt lat="35.081162" lon="-85.12019"><ele>260.9</ele><time>2026-08-04T20:38:26Z</time></trkpt>
<trkpt lat="35.081189" lon="-85.120176"><ele>260.3</ele><time>2026-08-04T20:38:28Z</time></trkpt>
<trkpt lat="35.081218" lon="-85.120148"><ele>261.5</ele><time>2026-08-04T20:38:31Z</time></trkpt>
<trkpt lat="35.081249" lon="-85.120116"><ele>262.4</ele><time>2026-08-04T20:38:34Z</time></trkpt>
<trkpt lat="35.081286" lon="-85.120095"><ele>263.7</ele><time>2026-08-04T20:38:37Z</time></trkpt>
<trkpt lat="35.081313" lon="-85.120063"><ele>263.7</ele><time>2026-08-04T20:38:40Z</time></trkpt>
<trkpt lat="35.081333" lon="-85.12004"><ele>264.3</ele><time>2026-08-04T20:38:42Z</time></trkpt>
<trkpt lat="35.081361" lon="-85.120008"><ele>263.7</ele><time>2026-08-04T20:38:45Z</time></trkpt>
<trkpt lat="35.081385" lon="-85.119992"><ele>264.3</ele><time>2026-08-04T20:38:47Z</time></trkpt>
<trkpt lat="35.08141" lon="-85.119977"><ele>263.3</ele><time>2026-08-04T20:38:49Z</time></trkpt>
<trkpt lat="35.081437" lon="-85.119965"><ele>263.7</ele><time>2026-08-04T20:38:51Z</time></trkpt>
<trkpt lat="35.081466" lon="-85.119957"><ele>263.3</ele><time>2026-08-04T20:38:53Z</time></trkpt>
<trkpt lat="35.081506" lon="-85.119947"><ele>264.0</ele><time>2026-08-04T20:38:56Z</time></trkpt>
<trkpt lat="35.081536" lon="-85.11991"><ele>266.4</ele><time>2026-08-04T20:38:59Z</time></trkpt>
<trkpt lat="35.081537" lon="-85.119869"><ele>266.4</ele><time>2026-08-04T20:39:01Z</time></trkpt>
<trkpt lat="35.08153" lon="-85.119832"><ele>267.0</ele><time>2026-08-04T20:39:03Z</time></trkpt>
<trkpt lat="35.081517" lon="-85.119786"><ele>265.8</ele><time>2026-08-04T20:39:06Z</time></trkpt>
<trkpt lat="35.08151" lon="-85.119742"><ele>265.2</ele><time>2026-08-04T20:39:09Z</time></trkpt>
<trkpt lat="35.081528" lon="-85.119698"><ele>265.8</ele><time>2026-08-04T20:39:12Z</time></trkpt>
<trkpt lat="35.081551" lon="-85.119677"><ele>265.2</ele><time>2026-08-04T20:39:14Z</time></trkpt>
<trkpt lat="35.081573" lon="-85.119642"><ele>265.2</ele><time>2026-08-04T20:39:17Z</time></trkpt>
<trkpt lat="35.081592" lon="-85.119602"><ele>265.5</ele><time>2026-08-04T20:39:20Z</time></trkpt>
<trkpt lat="35.081599" lon="-85.119558"><ele>266.1</ele><time>2026-08-04T20:39:23Z</time></trkpt>
<trkpt lat="35.081607" lon="-85.119513"><ele>268.5</ele><time>2026-08-04T20:39:26Z</time></trkpt>
<trkpt lat="35.081622" lon="-85.11947"><ele>268.8</ele><time>2026-08-04T20:39:29Z</time></trkpt>
<trkpt lat="35.081646" lon="-85.119435"><ele>268.5</ele><time>2026-08-04T20:39:32Z</time></trkpt>
<trkpt lat="35.081665" lon="-85.11941"><ele>268.5</ele><time>2026-08-04T20:39:34Z</time></trkpt>
<trkpt lat="35.081687" lon="-85.119375"><ele>268.2</ele><time>2026-08-04T20:39:37Z</time></trkpt>
<trkpt lat="35.081697" lon="-85.119334"><ele>267.9</ele><time>2026-08-04T20:39:40Z</time></trkpt>
<trkpt lat="35.081691" lon="-85.119289"><ele>268.2</ele><time>2026-08-04T20:39:43Z</time></trkpt>
<trkpt lat="35.081687" lon="-85.119241"><ele>268.8</ele><time>2026-08-04T20:39:46Z</time></trkpt>
<trkpt lat="35.081671" lon="-85.119212"><ele>269.4</ele><time>2026-08-04T20:39:48Z</time></trkpt>
<trkpt lat="35.081666" lon="-85.11916"><ele>270.4</ele><time>2026-08-04T20:39:51Z</time></trkpt>
<trkpt lat="35.081693" lon="-85.119134"><ele>270.4</ele><time>2026-08-04T20:39:53Z</time></trkpt>
<trkpt lat="35.081721" lon="-85.119123"><ele>271.6</ele><time>2026-08-04T20:39:56Z</time></trkpt>
<trkpt lat="35.081749" lon="-85.119094"><ele>269.1</ele><time>2026-08-04T20:39:59Z</time></trkpt>
<trkpt lat="35.081775" lon="-85.119065"><ele>268.5</ele><time>2026-08-04T20:40:02Z</time></trkpt>
<trkpt lat="35.081795" lon="-85.119031"><ele>266.1</ele><time>2026-08-04T20:40:05Z</time></trkpt>
<trkpt lat="35.081818" lon="-85.118991"><ele>265.8</ele><time>2026-08-04T20:40:08Z</time></trkpt>
<trkpt lat="35.081837" lon="-85.118953"><ele>264.3</ele><time>2026-08-04T20:40:11Z</time></trkpt>
<trkpt lat="35.081852" lon="-85.118914"><ele>263.3</ele><time>2026-08-04T20:40:14Z</time></trkpt>
<trkpt lat="35.081867" lon="-85.118874"><ele>262.4</ele><time>2026-08-04T20:40:17Z</time></trkpt>
<trkpt lat="35.081883" lon="-85.118845"><ele>261.5</ele><time>2026-08-04T20:40:19Z</time></trkpt>
<trkpt lat="35.081894" lon="-85.118803"><ele>262.7</ele><time>2026-08-04T20:40:22Z</time></trkpt>
<trkpt lat="35.081907" lon="-85.118773"><ele>263.7</ele><time>2026-08-04T20:40:24Z</time></trkpt>
<trkpt lat="35.081938" lon="-85.118736"><ele>263.7</ele><time>2026-08-04T20:40:27Z</time></trkpt>
<trkpt lat="35.08197" lon="-85.118705"><ele>264.6</ele><time>2026-08-04T20:40:30Z</time></trkpt>
<trkpt lat="35.082003" lon="-85.118679"><ele>264.3</ele><time>2026-08-04T20:40:33Z</time></trkpt>
<trkpt lat="35.082038" lon="-85.118646"><ele>265.5</ele><time>2026-08-04T20:40:36Z</time></trkpt>
<trkpt lat="35.08207" lon="-85.118619"><ele>264.6</ele><time>2026-08-04T20:40:39Z</time></trkpt>
<trkpt lat="35.082093" lon="-85.1186"><ele>265.2</ele><time>2026-08-04T20:40:41Z</time></trkpt>
<trkpt lat="35.082125" lon="-85.118581"><ele>266.4</ele><time>2026-08-04T20:40:44Z</time></trkpt>
<trkpt lat="35.082153" lon="-85.118555"><ele>267.0</ele><time>2026-08-04T20:40:47Z</time></trkpt>
<trkpt lat="35.082177" lon="-85.118517"><ele>267.9</ele><time>2026-08-04T20:40:50Z</time></trkpt>
<trkpt lat="35.082198" lon="-85.118476"><ele>265.5</ele><time>2026-08-04T20:40:53Z</time></trkpt>
<trkpt lat="35.082217" lon="-85.11845"><ele>264.9</ele><time>2026-08-04T20:40:55Z</time></trkpt>
<trkpt lat="35.08224" lon="-85.118426"><ele>267.3</ele><time>2026-08-04T20:40:57Z</time></trkpt>
<trkpt lat="35.082267" lon="-85.118411"><ele>269.1</ele><time>2026-08-04T20:40:59Z</time></trkpt>
<trkpt lat="35.082293" lon="-85.1184"><ele>267.6</ele><time>2026-08-04T20:41:01Z</time></trkpt>
<trkpt lat="35.082321" lon="-85.118387"><ele>267.0</ele><time>2026-08-04T20:41:03Z</time></trkpt>
<trkpt lat="35.082345" lon="-85.118366"><ele>266.7</ele><time>2026-08-04T20:41:05Z</time></trkpt>
<trkpt lat="35.08237" lon="-85.118344"><ele>267.6</ele><time>2026-08-04T20:41:07Z</time></trkpt>
<trkpt lat="35.082392" lon="-85.118323"><ele>267.0</ele><time>2026-08-04T20:41:09Z</time></trkpt>
<trkpt lat="35.082412" lon="-85.118296"><ele>268.5</ele><time>2026-08-04T20:41:11Z</time></trkpt>
<trkpt lat="35.082437" lon="-85.11826"><ele>269.4</ele><time>2026-08-04T20:41:14Z</time></trkpt>
<trkpt lat="35.082464" lon="-85.118224"><ele>268.5</ele><time>2026-08-04T20:41:17Z</time></trkpt>
<trkpt lat="35.082481" lon="-85.118181"><ele>270.4</ele><time>2026-08-04T20:41:20Z</time></trkpt>
<trkpt lat="35.082504" lon="-85.11814"><ele>269.4</ele><time>2026-08-04T20:41:23Z</time></trkpt>
<trkpt lat="35.08253" lon="-85.118126"><ele>269.7</ele><time>2026-08-04T20:41:25Z</time></trkpt>
<trkpt lat="35.082565" lon="-85.118107"><ele>269.4</ele><time>2026-08-04T20:41:28Z</time></trkpt>
<trkpt lat="35.082594" lon="-85.118101"><ele>270.1</ele><time>2026-08-04T20:41:30Z</time></trkpt>
<trkpt lat="35.08263" lon="-85.118078"><ele>270.1</ele><time>2026-08-04T20:41:33Z</time></trkpt>
<trkpt lat="35.082656" lon="-85.118065"><ele>269.4</ele><time>2026-08-04T20:41:35Z</time></trkpt>
<trkpt lat="35.082688" lon="-85.118045"><ele>268.5</ele><time>2026-08-04T20:41:38Z</time></trkpt>
<trkpt lat="35.082721" lon="-85.118017"><ele>268.8</ele><time>2026-08-04T20:41:41Z</time></trkpt>
<trkpt lat="35.082743" lon="-85.117996"><ele>270.7</ele><time>2026-08-04T20:41:43Z</time></trkpt>
<trkpt lat="35.082768" lon="-85.117981"><ele>271.3</ele><time>2026-08-04T20:41:45Z</time></trkpt>
<trkpt lat="35.082802" lon="-85.117954"><ele>272.2</ele><time>2026-08-04T20:41:48Z</time></trkpt>
<trkpt lat="35.082831" lon="-85.11792"><ele>271.6</ele><time>2026-08-04T20:41:51Z</time></trkpt>
<trkpt lat="35.082851" lon="-85.117898"><ele>272.5</ele><time>2026-08-04T20:41:53Z</time></trkpt>
<trkpt lat="35.082886" lon="-85.117884"><ele>271.9</ele><time>2026-08-04T20:41:56Z</time></trkpt>
<trkpt lat="35.082916" lon="-85.117863"><ele>273.1</ele><time>2026-08-04T20:41:59Z</time></trkpt>
<trkpt lat="35.082944" lon="-85.117834"><ele>274.3</ele><time>2026-08-04T20:42:02Z</time></trkpt>
<trkpt lat="35.082978" lon="-85.117808"><ele>273.1</ele><time>2026-08-04T20:42:05Z</time></trkpt>
<trkpt lat="35.083013" lon="-85.11779"><ele>273.4</ele><time>2026-08-04T20:42:08Z</time></trkpt>
<trkpt lat="35.08305" lon="-85.117781"><ele>274.0</ele><time>2026-08-04T20:42:11Z</time></trkpt>
<trkpt lat="35.083082" lon="-85.117791"><ele>271.3</ele><time>2026-08-04T20:42:14Z</time></trkpt>
<trkpt lat="35.083116" lon="-85.117799"><ele>272.8</ele><time>2026-08-04T20:42:17Z</time></trkpt>
<trkpt lat="35.083143" lon="-85.117814"><ele>274.9</ele><time>2026-08-04T20:42:19Z</time></trkpt>
<trkpt lat="35.083184" lon="-85.117825"><ele>274.9</ele><time>2026-08-04T20:42:22Z</time></trkpt>
<trkpt lat="35.083215" lon="-85.117815"><ele>275.5</ele><time>2026-08-04T20:42:24Z</time></trkpt>
<trkpt lat="35.083244" lon="-85.117804"><ele>274.6</ele><time>2026-08-04T20:42:26Z</time></trkpt>
<trkpt lat="35.08327" lon="-85.117786"><ele>273.7</ele><time>2026-08-04T20:42:28Z</time></trkpt>
<trkpt lat="35.0833" lon="-85.117759"><ele>272.5</ele><time>2026-08-04T20:42:31Z</time></trkpt>
<trkpt lat="35.083321" lon="-85.117733"><ele>272.2</ele><time>2026-08-04T20:42:33Z</time></trkpt>
<trkpt lat="35.083341" lon="-85.117706"><ele>271.3</ele><time>2026-08-04T20:42:35Z</time></trkpt>
<trkpt lat="35.083363" lon="-85.117669"><ele>271.6</ele><time>2026-08-04T20:42:38Z</time></trkpt>
<trkpt lat="35.083378" lon="-85.117621"><ele>270.4</ele><time>2026-08-04T20:42:41Z</time></trkpt>
<trkpt lat="35.08339" lon="-85.117587"><ele>270.4</ele><time>2026-08-04T20:42:43Z</time></trkpt>
<trkpt lat="35.083416" lon="-85.117568"><ele>270.1</ele><time>2026-08-04T20:42:45Z</time></trkpt>
<trkpt lat="35.083442" lon="-85.117556"><ele>269.1</ele><time>2026-08-04T20:42:47Z</time></trkpt>
<trkpt lat="35.083468" lon="-85.117543"><ele>268.2</ele><time>2026-08-04T20:42:49Z</time></trkpt>
<trkpt lat="35.083502" lon="-85.117549"><ele>269.4</ele><time>2026-08-04T20:42:52Z</time></trkpt>
<trkpt lat="35.083531" lon="-85.117556"><ele>269.1</ele><time>2026-08-04T20:42:55Z</time></trkpt>
<trkpt lat="35.083565" lon="-85.11755"><ele>270.4</ele><time>2026-08-04T20:42:58Z</time></trkpt>
<trkpt lat="35.083594" lon="-85.117526"><ele>271.6</ele><time>2026-08-04T20:43:01Z</time></trkpt>
<trkpt lat="35.083629" lon="-85.117504"><ele>271.9</ele><time>2026-08-04T20:43:04Z</time></trkpt>
<trkpt lat="35.083663" lon="-85.117483"><ele>273.7</ele><time>2026-08-04T20:43:07Z</time></trkpt>
<trkpt lat="35.083699" lon="-85.117468"><ele>273.1</ele><time>2026-08-04T20:43:10Z</time></trkpt>
<trkpt lat="35.083733" lon="-85.117474"><ele>271.3</ele><time>2026-08-04T20:43:13Z</time></trkpt>
<trkpt lat="35.083772" lon="-85.117466"><ele>272.2</ele><time>2026-08-04T20:43:16Z</time></trkpt>
<trkpt lat="35.083807" lon="-85.117474"><ele>272.8</ele><time>2026-08-04T20:43:19Z</time></trkpt>
<trkpt lat="35.083847" lon="-85.117462"><ele>271.0</ele><time>2026-08-04T20:43:22Z</time></trkpt>
<trkpt lat="35.083888" lon="-85.117467"><ele>271.3</ele><time>2026-08-04T20:43:25Z</time></trkpt>
<trkpt lat="35.083916" lon="-85.117464"><ele>271.3</ele><time>2026-08-04T20:43:27Z</time></trkpt>
<trkpt lat="35.083942" lon="-85.117453"><ele>271.0</ele><time>2026-08-04T20:43:29Z</time></trkpt>
<trkpt lat="35.083964" lon="-85.11743"><ele>271.6</ele><time>2026-08-04T20:43:31Z</time></trkpt>
<trkpt lat="35.083976" lon="-85.117399"><ele>271.3</ele><time>2026-08-04T20:43:33Z</time></trkpt>
<trkpt lat="35.083987" lon="-85.117367"><ele>271.6</ele><time>2026-08-04T20:43:35Z</time></trkpt>
<trkpt lat="35.084004" lon="-85.117325"><ele>271.0</ele><time>2026-08-04T20:43:38Z</time></trkpt>
<trkpt lat="35.084033" lon="-85.117294"><ele>271.3</ele><time>2026-08-04T20:43:41Z</time></trkpt>
<trkpt lat="35.084061" lon="-85.117263"><ele>274.6</ele><time>2026-08-04T20:43:44Z</time></trkpt>
<trkpt lat="35.084096" lon="-85.117244"><ele>276.1</ele><time>2026-08-04T20:43:47Z</time></trkpt>
<trkpt lat="35.084122" lon="-85.117228"><ele>274.3</ele><time>2026-08-04T20:43:49Z</time></trkpt>
<trkpt lat="35.084147" lon="-85.117215"><ele>274.3</ele><time>2026-08-04T20:43:51Z</time></trkpt>
<trkpt lat="35.084175" lon="-85.117206"><ele>272.5</ele><time>2026-08-04T20:43:53Z</time></trkpt>
<trkpt lat="35.084206" lon="-85.117204"><ele>272.5</ele><time>2026-08-04T20:43:55Z</time></trkpt>
<trkpt lat="35.084234" lon="-85.117204"><ele>273.1</ele><time>2026-08-04T20:43:57Z</time></trkpt>
<trkpt lat="35.084267" lon="-85.117215"><ele>270.7</ele><time>2026-08-04T20:44:00Z</time></trkpt>
<trkpt lat="35.084305" lon="-85.117216"><ele>272.8</ele><time>2026-08-04T20:44:03Z</time></trkpt>
<trkpt lat="35.084341" lon="-85.117198"><ele>274.6</ele><time>2026-08-04T20:44:06Z</time></trkpt>
<trkpt lat="35.084366" lon="-85.117183"><ele>274.3</ele><time>2026-08-04T20:44:08Z</time></trkpt>
<trkpt lat="35.084394" lon="-85.117152"><ele>274.0</ele><time>2026-08-04T20:44:11Z</time></trkpt>
<trkpt lat="35.084415" lon="-85.11713"><ele>273.1</ele><time>2026-08-04T20:44:13Z</time></trkpt>
<trkpt lat="35.084449" lon="-85.117103"><ele>270.7</ele><time>2026-08-04T20:44:16Z</time></trkpt>
<trkpt lat="35.084473" lon="-85.117083"><ele>271.9</ele><time>2026-08-04T20:44:18Z</time></trkpt>
<trkpt lat="35.084509" lon="-85.117054"><ele>272.5</ele><time>2026-08-04T20:44:21Z</time></trkpt>
<trkpt lat="35.084534" lon="-85.11704"><ele>271.6</ele><time>2026-08-04T20:44:23Z</time></trkpt>
<trkpt lat="35.08456" lon="-85.117028"><ele>272.2</ele><time>2026-08-04T20:44:25Z</time></trkpt>
<trkpt lat="35.084598" lon="-85.117024"><ele>272.5</ele><time>2026-08-04T20:44:28Z</time></trkpt>
<trkpt lat="35.084625" lon="-85.117032"><ele>273.1</ele><time>2026-08-04T20:44:30Z</time></trkpt>
<trkpt lat="35.084663" lon="-85.117045"><ele>273.7</ele><time>2026-08-04T20:44:33Z</time></trkpt>
<trkpt lat="35.084691" lon="-85.117053"><ele>274.3</ele><time>2026-08-04T20:44:35Z</time></trkpt>
<trkpt lat="35.084728" lon="-85.117059"><ele>274.9</ele><time>2026-08-04T20:44:38Z</time></trkpt>
<trkpt lat="35.084762" lon="-85.117047"><ele>274.9</ele><time>2026-08-04T20:44:41Z</time></trkpt>
<trkpt lat="35.084791" lon="-85.117036"><ele>274.3</ele><time>2026-08-04T20:44:43Z</time></trkpt>
<trkpt lat="35.084814" lon="-85.117014"><ele>275.2</ele><time>2026-08-04T20:44:45Z</time></trkpt>
<trkpt lat="35.084847" lon="-85.116986"><ele>274.0</ele><time>2026-08-04T20:44:48Z</time></trkpt>
<trkpt lat="35.084869" lon="-85.116965"><ele>276.5</ele><time>2026-08-04T20:44:50Z</time></trkpt>
<trkpt lat="35.084893" lon="-85.116949"><ele>276.8</ele><time>2026-08-04T20:44:52Z</time></trkpt>
<trkpt lat="35.084919" lon="-85.116938"><ele>276.5</ele><time>2026-08-04T20:44:54Z</time></trkpt>
<trkpt lat="35.08496" lon="-85.116933"><ele>273.4</ele><time>2026-08-04T20:44:57Z</time></trkpt>
<trkpt lat="35.084992" lon="-85.116928"><ele>273.1</ele><time>2026-08-04T20:45:00Z</time></trkpt>
<trkpt lat="35.085023" lon="-85.116938"><ele>273.7</ele><time>2026-08-04T20:45:03Z</time></trkpt>
<trkpt lat="35.085059" lon="-85.11694"><ele>274.6</ele><time>2026-08-04T20:45:06Z</time></trkpt>
<trkpt lat="35.085098" lon="-85.116926"><ele>275.8</ele><time>2026-08-04T20:45:09Z</time></trkpt>
<trkpt lat="35.085134" lon="-85.116902"><ele>275.8</ele><time>2026-08-04T20:45:12Z</time></trkpt>
<trkpt lat="35.085168" lon="-85.116879"><ele>274.6</ele><time>2026-08-04T20:45:15Z</time></trkpt>
<trkpt lat="35.085198" lon="-85.116856"><ele>274.3</ele><time>2026-08-04T20:45:18Z</time></trkpt>
<trkpt lat="35.085232" lon="-85.116832"><ele>274.9</ele><time>2026-08-04T20:45:21Z</time></trkpt>
<trkpt lat="35.085261" lon="-85.116798"><ele>276.5</ele><time>2026-08-04T20:45:24Z</time></trkpt>
<trkpt lat="35.085295" lon="-85.11678"><ele>275.5</ele><time>2026-08-04T20:45:27Z</time></trkpt>
<trkpt lat="35.085328" lon="-85.116757"><ele>274.9</ele><time>2026-08-04T20:45:30Z</time></trkpt>
<trkpt lat="35.085357" lon="-85.116731"><ele>272.2</ele><time>2026-08-04T20:45:33Z</time></trkpt>
<trkpt lat="35.08539" lon="-85.116707"><ele>275.5</ele><time>2026-08-04T20:45:36Z</time></trkpt>
<trkpt lat="35.085427" lon="-85.116693"><ele>275.8</ele><time>2026-08-04T20:45:39Z</time></trkpt>
<trkpt lat="35.085469" lon="-85.116693"><ele>277.1</ele><time>2026-08-04T20:45:42Z</time></trkpt>
<trkpt lat="35.085503" lon="-85.116696"><ele>278.0</ele><time>2026-08-04T20:45:45Z</time></trkpt>
<trkpt lat="35.085541" lon="-85.116709"><ele>276.8</ele><time>2026-08-04T20:45:48Z</time></trkpt>
<trkpt lat="35.085567" lon="-85.116719"><ele>277.1</ele><time>2026-08-04T20:45:50Z</time></trkpt>
<trkpt lat="35.085609" lon="-85.11672"><ele>277.7</ele><time>2026-08-04T20:45:53Z</time></trkpt>
<trkpt lat="35.085647" lon="-85.116718"><ele>274.6</ele><time>2026-08-04T20:45:56Z</time></trkpt>
<trkpt lat="35.085679" lon="-85.116684"><ele>274.3</ele><time>2026-08-04T20:45:59Z</time></trkpt>
<trkpt lat="35.085696" lon="-85.116656"><ele>274.0</ele><time>2026-08-04T20:46:01Z</time></trkpt>
<trkpt lat="35.085714" lon="-85.116626"><ele>274.6</ele><time>2026-08-04T20:46:03Z</time></trkpt>
<trkpt lat="35.085728" lon="-85.116582"><ele>274.0</ele><time>2026-08-04T20:46:06Z</time></trkpt>
<trkpt lat="35.085751" lon="-85.116544"><ele>273.4</ele><time>2026-08-04T20:46:09Z</time></trkpt>
<trkpt lat="35.085776" lon="-85.116507"><ele>274.0</ele><time>2026-08-04T20:46:12Z</time></trkpt>
<trkpt lat="35.085798" lon="-85.116485"><ele>274.6</ele><time>2026-08-04T20:46:14Z</time></trkpt>
<trkpt lat="35.085821" lon="-85.116466"><ele>274.6</ele><time>2026-08-04T20:46:16Z</time></trkpt>
<trkpt lat="35.085859" lon="-85.11645"><ele>273.7</ele><time>2026-08-04T20:46:19Z</time></trkpt>
<trkpt lat="35.085897" lon="-85.116464"><ele>273.7</ele><time>2026-08-04T20:46:22Z</time></trkpt>
<trkpt lat="35.085922" lon="-85.116481"><ele>274.6</ele><time>2026-08-04T20:46:24Z</time></trkpt>
<trkpt lat="35.085945" lon="-85.11652"><ele>274.9</ele><time>2026-08-04T20:46:27Z</time></trkpt>
<trkpt lat="35.085968" lon="-85.116552"><ele>274.9</ele><time>2026-08-04T20:46:30Z</time></trkpt>
<trkpt lat="35.086" lon="-85.116564"><ele>276.1</ele><time>2026-08-04T20:46:33Z</time></trkpt>
<trkpt lat="35.086037" lon="-85.116558"><ele>279.8</ele><time>2026-08-04T20:46:36Z</time></trkpt>
<trkpt lat="35.086066" lon="-85.116559"><ele>281.0</ele><time>2026-08-04T20:46:38Z</time></trkpt>
<trkpt lat="35.086101" lon="-85.116575"><ele>281.9</ele><time>2026-08-04T20:46:41Z</time></trkpt>
<trkpt lat="35.086126" lon="-85.116605"><ele>280.4</ele><time>2026-08-04T20:46:44Z</time></trkpt>
<trkpt lat="35.086157" lon="-85.116631"><ele>279.2</ele><time>2026-08-04T20:46:47Z</time></trkpt>
<trkpt lat="35.086189" lon="-85.116645"><ele>278.3</ele><time>2026-08-04T20:46:50Z</time></trkpt>
<trkpt lat="35.08623" lon="-85.116646"><ele>278.6</ele><time>2026-08-04T20:46:53Z</time></trkpt>
<trkpt lat="35.086263" lon="-85.116635"><ele>277.1</ele><time>2026-08-04T20:46:55Z</time></trkpt>
<trkpt lat="35.086286" lon="-85.116616"><ele>276.8</ele><time>2026-08-04T20:46:57Z</time></trkpt>
<trkpt lat="35.086314" lon="-85.116584"><ele>278.0</ele><time>2026-08-04T20:47:00Z</time></trkpt>
<trkpt lat="35.086332" lon="-85.116539"><ele>278.6</ele><time>2026-08-04T20:47:03Z</time></trkpt>
<trkpt lat="35.086359" lon="-85.116501"><ele>279.8</ele><time>2026-08-04T20:47:06Z</time></trkpt>
<trkpt lat="35.086382" lon="-85.116479"><ele>280.1</ele><time>2026-08-04T20:47:08Z</time></trkpt>
<trkpt lat="35.086406" lon="-85.116462"><ele>281.0</ele><time>2026-08-04T20:47:10Z</time></trkpt>
<trkpt lat="35.086442" lon="-85.116441"><ele>281.0</ele><time>2026-08-04T20:47:13Z</time></trkpt>
<trkpt lat="35.086467" lon="-85.116413"><ele>279.8</ele><time>2026-08-04T20:47:16Z</time></trkpt>
<trkpt lat="35.086508" lon="-85.1164"><ele>281.9</ele><time>2026-08-04T20:47:19Z</time></trkpt>
<trkpt lat="35.086539" lon="-85.116396"><ele>281.3</ele><time>2026-08-04T20:47:21Z</time></trkpt>
<trkpt lat="35.086573" lon="-85.11639"><ele>283.2</ele><time>2026-08-04T20:47:24Z</time></trkpt>
<trkpt lat="35.086608" lon="-85.116368"><ele>284.1</ele><time>2026-08-04T20:47:27Z</time></trkpt>
<trkpt lat="35.086644" lon="-85.116354"><ele>282.9</ele><time>2026-08-04T20:47:30Z</time></trkpt>
<trkpt lat="35.086681" lon="-85.116341"><ele>283.5</ele><time>2026-08-04T20:47:33Z</time></trkpt>
<trkpt lat="35.086713" lon="-85.11632"><ele>283.2</ele><time>2026-08-04T20:47:36Z</time></trkpt>
<trkpt lat="35.086745" lon="-85.116309"><ele>284.1</ele><time>2026-08-04T20:47:39Z</time></trkpt>
<trkpt lat="35.08678" lon="-85.116288"><ele>286.8</ele><time>2026-08-04T20:47:42Z</time></trkpt>
<trkpt lat="35.086818" lon="-85.116278"><ele>286.2</ele><time>2026-08-04T20:47:45Z</time></trkpt>
<trkpt lat="35.086852" lon="-85.116263"><ele>285.6</ele><time>2026-08-04T20:47:48Z</time></trkpt>
<trkpt lat="35.086887" lon="-85.116237"><ele>286.2</ele><time>2026-08-04T20:47:51Z</time></trkpt>
<trkpt lat="35.086911" lon="-85.116219"><ele>285.6</ele><time>2026-08-04T20:47:53Z</time></trkpt>
<trkpt lat="35.086937" lon="-85.116204"><ele>285.3</ele><time>2026-08-04T20:47:55Z</time></trkpt>
<trkpt lat="35.086961" lon="-85.116186"><ele>284.1</ele><time>2026-08-04T20:47:57Z</time></trkpt>
<trkpt lat="35.086999" lon="-85.116171"><ele>283.2</ele><time>2026-08-04T20:48:00Z</time></trkpt>
<trkpt lat="35.087036" lon="-85.116153"><ele>280.1</ele><time>2026-08-04T20:48:03Z</time></trkpt>
<trkpt lat="35.087074" lon="-85.11615"><ele>279.2</ele><time>2026-08-04T20:48:06Z</time></trkpt>
<trkpt lat="35.087111" lon="-85.116133"><ele>278.3</ele><time>2026-08-04T20:48:09Z</time></trkpt>
<trkpt lat="35.087148" lon="-85.116113"><ele>280.1</ele><time>2026-08-04T20:48:12Z</time></trkpt>
<trkpt lat="35.087174" lon="-85.116099"><ele>281.6</ele><time>2026-08-04T20:48:14Z</time></trkpt>
<trkpt lat="35.087187" lon="-85.116065"><ele>284.7</ele><time>2026-08-04T20:48:16Z</time></trkpt>
<trkpt lat="35.087168" lon="-85.116039"><ele>284.4</ele><time>2026-08-04T20:48:17Z</time></trkpt>
<trkpt lat="35.087136" lon="-85.116027"><ele>285.3</ele><time>2026-08-04T20:48:19Z</time></trkpt>
<trkpt lat="35.087139" lon="-85.115993"><ele>284.7</ele><time>2026-08-04T20:48:21Z</time></trkpt>
<trkpt lat="35.087156" lon="-85.115963"><ele>281.6</ele><time>2026-08-04T20:48:23Z</time></trkpt>
<trkpt lat="35.08718" lon="-85.115943"><ele>281.9</ele><time>2026-08-04T20:48:25Z</time></trkpt>
<trkpt lat="35.087218" lon="-85.115929"><ele>282.9</ele><time>2026-08-04T20:48:28Z</time></trkpt>
<trkpt lat="35.087245" lon="-85.115921"><ele>283.8</ele><time>2026-08-04T20:48:30Z</time></trkpt>
<trkpt lat="35.087268" lon="-85.1159"><ele>283.8</ele><time>2026-08-04T20:48:32Z</time></trkpt>
<trkpt lat="35.087293" lon="-85.115881"><ele>282.5</ele><time>2026-08-04T20:48:34Z</time></trkpt>
<trkpt lat="35.087328" lon="-85.115856"><ele>281.0</ele><time>2026-08-04T20:48:37Z</time></trkpt>
<trkpt lat="35.087346" lon="-85.115828"><ele>282.2</ele><time>2026-08-04T20:48:39Z</time></trkpt>
<trkpt lat="35.087374" lon="-85.115796"><ele>281.3</ele><time>2026-08-04T20:48:42Z</time></trkpt>
<trkpt lat="35.087404" lon="-85.115788"><ele>280.7</ele><time>2026-08-04T20:48:44Z</time></trkpt>
<trkpt lat="35.087422" lon="-85.115737"><ele>279.8</ele><time>2026-08-04T20:48:46Z</time></trkpt>
<trkpt lat="35.087448" lon="-85.115697"><ele>282.2</ele><time>2026-08-04T20:48:48Z</time></trkpt>
<trkpt lat="35.08747" lon="-85.115668"><ele>280.1</ele><time>2026-08-04T20:48:51Z</time></trkpt>
<trkpt lat="35.0875" lon="-85.115644"><ele>279.2</ele><time>2026-08-04T20:48:55Z</time></trkpt>
<trkpt lat="35.08753" lon="-85.115626"><ele>279.8</ele><time>2026-08-04T20:48:57Z</time></trkpt>
<trkpt lat="35.087557" lon="-85.115607"><ele>277.7</ele><time>2026-08-04T20:48:59Z</time></trkpt>
<trkpt lat="35.087587" lon="-85.115603"><ele>276.8</ele><time>2026-08-04T20:49:02Z</time></trkpt>
<trkpt lat="35.08761" lon="-85.115569"><ele>276.8</ele><time>2026-08-04T20:49:05Z</time></trkpt>
<trkpt lat="35.08761" lon="-85.115523"><ele>277.4</ele><time>2026-08-04T20:49:08Z</time></trkpt>
<trkpt lat="35.087628" lon="-85.115484"><ele>277.7</ele><time>2026-08-04T20:49:11Z</time></trkpt>
<trkpt lat="35.087657" lon="-85.115452"><ele>278.6</ele><time>2026-08-04T20:49:14Z</time></trkpt>
<trkpt lat="35.087681" lon="-85.115423"><ele>281.3</ele><time>2026-08-04T20:49:17Z</time></trkpt>
<trkpt lat="35.087709" lon="-85.115388"><ele>280.4</ele><time>2026-08-04T20:49:20Z</time></trkpt>
<trkpt lat="35.087724" lon="-85.115357"><ele>279.8</ele><time>2026-08-04T20:49:22Z</time></trkpt>
<trkpt lat="35.087741" lon="-85.115327"><ele>280.1</ele><time>2026-08-04T20:49:24Z</time></trkpt>
<trkpt lat="35.087758" lon="-85.1153"><ele>279.8</ele><time>2026-08-04T20:49:26Z</time></trkpt>
<trkpt lat="35.087776" lon="-85.115258"><ele>281.3</ele><time>2026-08-04T20:49:29Z</time></trkpt>
<trkpt lat="35.087796" lon="-85.115227"><ele>282.5</ele><time>2026-08-04T20:49:32Z</time></trkpt>
<trkpt lat="35.087827" lon="-85.115201"><ele>281.0</ele><time>2026-08-04T20:49:35Z</time></trkpt>
<trkpt lat="35.08784" lon="-85.115168"><ele>278.3</ele><time>2026-08-04T20:49:38Z</time></trkpt>
<trkpt lat="35.08785" lon="-85.115122"><ele>278.6</ele><time>2026-08-04T20:49:41Z</time></trkpt>
<trkpt lat="35.087862" lon="-85.115077"><ele>278.9</ele><time>2026-08-04T20:49:44Z</time></trkpt>
<trkpt lat="35.08785" lon="-85.115044"><ele>278.6</ele><time>2026-08-04T20:49:46Z</time></trkpt>
<trkpt lat="35.087838" lon="-85.115003"><ele>279.5</ele><time>2026-08-04T20:49:49Z</time></trkpt>
<trkpt lat="35.087819" lon="-85.114967"><ele>278.3</ele><time>2026-08-04T20:49:52Z</time></trkpt>
<trkpt lat="35.087803" lon="-85.114928"><ele>279.5</ele><time>2026-08-04T20:49:55Z</time></trkpt>
<trkpt lat="35.0878" lon="-85.114891"><ele>276.8</ele><time>2026-08-04T20:49:57Z</time></trkpt>
<trkpt lat="35.0878" lon="-85.114848"><ele>277.1</ele><time>2026-08-04T20:50:00Z</time></trkpt>
<trkpt lat="35.087799" lon="-85.1148"><ele>276.1</ele><time>2026-08-04T20:50:03Z</time></trkpt>
<trkpt lat="35.0878" lon="-85.114766"><ele>277.4</ele><time>2026-08-04T20:50:05Z</time></trkpt>
<trkpt lat="35.087796" lon="-85.114717"><ele>277.4</ele><time>2026-08-04T20:50:08Z</time></trkpt>
<trkpt lat="35.087799" lon="-85.114678"><ele>275.8</ele><time>2026-08-04T20:50:11Z</time></trkpt>
<trkpt lat="35.087819" lon="-85.114639"><ele>275.5</ele><time>2026-08-04T20:50:14Z</time></trkpt>
<trkpt lat="35.087852" lon="-85.114614"><ele>275.5</ele><time>2026-08-04T20:50:17Z</time></trkpt>
<trkpt lat="35.087872" lon="-85.114569"><ele>275.8</ele><time>2026-08-04T20:50:20Z</time></trkpt>
<trkpt lat="35.087888" lon="-85.114534"><ele>275.5</ele><time>2026-08-04T20:50:22Z</time></trkpt>
<trkpt lat="35.087905" lon="-85.114506"><ele>276.1</ele><time>2026-08-04T20:50:24Z</time></trkpt>
<trkpt lat="35.087928" lon="-85.114481"><ele>276.8</ele><time>2026-08-04T20:50:26Z</time></trkpt>
<trkpt lat="35.087953" lon="-85.114448"><ele>276.8</ele><time>2026-08-04T20:50:29Z</time></trkpt>
<trkpt lat="35.087958" lon="-85.114406"><ele>278.6</ele><time>2026-08-04T20:50:32Z</time></trkpt>
<trkpt lat="35.087959" lon="-85.114363"><ele>278.6</ele><time>2026-08-04T20:50:35Z</time></trkpt>
<trkpt lat="35.087959" lon="-85.114316"><ele>280.1</ele><time>2026-08-04T20:50:38Z</time></trkpt>
<trkpt lat="35.087963" lon="-85.114272"><ele>279.5</ele><time>2026-08-04T20:50:41Z</time></trkpt>
<trkpt lat="35.087967" lon="-85.114236"><ele>279.2</ele><time>2026-08-04T20:50:43Z</time></trkpt>
<trkpt lat="35.087963" lon="-85.114195"><ele>280.7</ele><time>2026-08-04T20:50:46Z</time></trkpt>
<trkpt lat="35.087981" lon="-85.114157"><ele>283.8</ele><time>2026-08-04T20:50:50Z</time></trkpt>
<trkpt lat="35.087992" lon="-85.114147"><ele>284.1</ele><time>2026-08-04T20:50:51Z</time></trkpt>
<trkpt lat="35.087995" lon="-85.11414"><ele>283.8</ele><time>2026-08-04T20:50:52Z</time></trkpt>
<trkpt lat="35.087995" lon="-85.114138"><ele>283.8</ele><time>2026-08-04T20:50:53Z</time></trkpt>
<trkpt lat="35.087997" lon="-85.114138"><ele>284.1</ele><time>2026-08-04T20:50:54Z</time></trkpt>
<trkpt lat="35.088032" lon="-85.114147"><ele>284.1</ele><time>2026-08-04T20:50:57Z</time></trkpt>
<trkpt lat="35.088053" lon="-85.114173"><ele>281.9</ele><time>2026-08-04T20:50:59Z</time></trkpt>
<trkpt lat="35.088082" lon="-85.114199"><ele>282.2</ele><time>2026-08-04T20:51:02Z</time></trkpt>
<trkpt lat="35.088104" lon="-85.114228"><ele>284.4</ele><time>2026-08-04T20:51:07Z</time></trkpt>
<trkpt lat="35.088129" lon="-85.114254"><ele>284.7</ele><time>2026-08-04T20:51:11Z</time></trkpt>
<trkpt lat="35.088154" lon="-85.114278"><ele>286.5</ele><time>2026-08-04T20:51:14Z</time></trkpt>
<trkpt lat="35.088183" lon="-85.11428"><ele>286.5</ele><time>2026-08-04T20:51:16Z</time></trkpt>
<trkpt lat="35.088221" lon="-85.114276"><ele>285.3</ele><time>2026-08-04T20:51:19Z</time></trkpt>
<trkpt lat="35.088257" lon="-85.114269"><ele>283.8</ele><time>2026-08-04T20:51:22Z</time></trkpt>
<trkpt lat="35.088286" lon="-85.114272"><ele>284.1</ele><time>2026-08-04T20:51:24Z</time></trkpt>
<trkpt lat="35.088316" lon="-85.114285"><ele>284.4</ele><time>2026-08-04T20:51:26Z</time></trkpt>
<trkpt lat="35.088333" lon="-85.114325"><ele>282.2</ele><time>2026-08-04T20:51:28Z</time></trkpt>
<trkpt lat="35.088332" lon="-85.114363"><ele>282.2</ele><time>2026-08-04T20:51:30Z</time></trkpt>
<trkpt lat="35.088325" lon="-85.114396"><ele>283.5</ele><time>2026-08-04T20:51:32Z</time></trkpt>
<trkpt lat="35.088313" lon="-85.114432"><ele>284.1</ele><time>2026-08-04T20:51:34Z</time></trkpt>
<trkpt lat="35.088299" lon="-85.114466"><ele>284.1</ele><time>2026-08-04T20:51:36Z</time></trkpt>
<trkpt lat="35.088284" lon="-85.114503"><ele>286.2</ele><time>2026-08-04T20:51:38Z</time></trkpt>
<trkpt lat="35.088275" lon="-85.114543"><ele>288.0</ele><time>2026-08-04T20:51:40Z</time></trkpt>
<trkpt lat="35.088266" lon="-85.114576"><ele>288.3</ele><time>2026-08-04T20:51:42Z</time></trkpt>
<trkpt lat="35.088259" lon="-85.11462"><ele>288.6</ele><time>2026-08-04T20:51:45Z</time></trkpt>
<trkpt lat="35.088274" lon="-85.11466"><ele>289.3</ele><time>2026-08-04T20:51:48Z</time></trkpt>
<trkpt lat="35.088291" lon="-85.114703"><ele>289.0</ele><time>2026-08-04T20:51:51Z</time></trkpt>
<trkpt lat="35.088317" lon="-85.114719"><ele>287.1</ele><time>2026-08-04T20:51:53Z</time></trkpt>
<trkpt lat="35.088345" lon="-85.114723"><ele>288.0</ele><time>2026-08-04T20:51:55Z</time></trkpt>
<trkpt lat="35.08838" lon="-85.1147"><ele>287.4</ele><time>2026-08-04T20:51:58Z</time></trkpt>
<trkpt lat="35.088408" lon="-85.114698"><ele>286.5</ele><time>2026-08-04T20:52:00Z</time></trkpt>
<trkpt lat="35.088443" lon="-85.114718"><ele>285.6</ele><time>2026-08-04T20:52:03Z</time></trkpt>
<trkpt lat="35.088479" lon="-85.114732"><ele>286.8</ele><time>2026-08-04T20:52:06Z</time></trkpt>
<trkpt lat="35.088509" lon="-85.114718"><ele>286.8</ele><time>2026-08-04T20:52:08Z</time></trkpt>
<trkpt lat="35.088535" lon="-85.114681"><ele>286.8</ele><time>2026-08-04T20:52:10Z</time></trkpt>
<trkpt lat="35.088562" lon="-85.11466"><ele>286.2</ele><time>2026-08-04T20:52:12Z</time></trkpt>
<trkpt lat="35.088597" lon="-85.114637"><ele>286.2</ele><time>2026-08-04T20:52:15Z</time></trkpt>
<trkpt lat="35.088629" lon="-85.114617"><ele>285.3</ele><time>2026-08-04T20:52:18Z</time></trkpt>
<trkpt lat="35.088654" lon="-85.114587"><ele>285.9</ele><time>2026-08-04T20:52:21Z</time></trkpt>
<trkpt lat="35.088681" lon="-85.114561"><ele>284.4</ele><time>2026-08-04T20:52:24Z</time></trkpt>
<trkpt lat="35.088699" lon="-85.114525"><ele>285.9</ele><time>2026-08-04T20:52:27Z</time></trkpt>
<trkpt lat="35.088717" lon="-85.114483"><ele>289.6</ele><time>2026-08-04T20:52:30Z</time></trkpt>
<trkpt lat="35.088735" lon="-85.114449"><ele>289.9</ele><time>2026-08-04T20:52:33Z</time></trkpt>
<trkpt lat="35.088753" lon="-85.114412"><ele>289.3</ele><time>2026-08-04T20:52:36Z</time></trkpt>
<trkpt lat="35.088777" lon="-85.11438"><ele>289.3</ele><time>2026-08-04T20:52:39Z</time></trkpt>
<trkpt lat="35.088804" lon="-85.114366"><ele>289.6</ele><time>2026-08-04T20:52:41Z</time></trkpt>
<trkpt lat="35.088831" lon="-85.114351"><ele>289.0</ele><time>2026-08-04T20:52:43Z</time></trkpt>
<trkpt lat="35.08886" lon="-85.114343"><ele>288.6</ele><time>2026-08-04T20:52:45Z</time></trkpt>
<trkpt lat="35.088891" lon="-85.114329"><ele>290.2</ele><time>2026-08-04T20:52:48Z</time></trkpt>
<trkpt lat="35.088926" lon="-85.114329"><ele>291.7</ele><time>2026-08-04T20:52:51Z</time></trkpt>
<trkpt lat="35.088961" lon="-85.114324"><ele>294.1</ele><time>2026-08-04T20:52:54Z</time></trkpt>
<trkpt lat="35.088998" lon="-85.114322"><ele>292.9</ele><time>2026-08-04T20:52:57Z</time></trkpt>
<trkpt lat="35.089034" lon="-85.11431"><ele>292.3</ele><time>2026-08-04T20:53:00Z</time></trkpt>
<trkpt lat="35.089072" lon="-85.11432"><ele>294.4</ele><time>2026-08-04T20:53:03Z</time></trkpt>
<trkpt lat="35.089087" lon="-85.114358"><ele>292.9</ele><time>2026-08-04T20:53:05Z</time></trkpt>
<trkpt lat="35.089092" lon="-85.114392"><ele>295.0</ele><time>2026-08-04T20:53:07Z</time></trkpt>
<trkpt lat="35.089108" lon="-85.114433"><ele>296.3</ele><time>2026-08-04T20:53:10Z</time></trkpt>
<trkpt lat="35.089122" lon="-85.114462"><ele>296.6</ele><time>2026-08-04T20:53:12Z</time></trkpt>
<trkpt lat="35.089132" lon="-85.114506"><ele>296.3</ele><time>2026-08-04T20:53:15Z</time></trkpt>
<trkpt lat="35.089131" lon="-85.11454"><ele>296.9</ele><time>2026-08-04T20:53:17Z</time></trkpt>
<trkpt lat="35.089119" lon="-85.114572"><ele>296.3</ele><time>2026-08-04T20:53:19Z</time></trkpt>
<trkpt lat="35.089098" lon="-85.114599"><ele>297.5</ele><time>2026-08-04T20:53:21Z</time></trkpt>
<trkpt lat="35.089073" lon="-85.114636"><ele>298.7</ele><time>2026-08-04T20:53:24Z</time></trkpt>
<trkpt lat="35.089051" lon="-85.114672"><ele>299.0</ele><time>2026-08-04T20:53:27Z</time></trkpt>
<trkpt lat="35.089049" lon="-85.114707"><ele>297.5</ele><time>2026-08-04T20:53:29Z</time></trkpt>
<trkpt lat="35.089044" lon="-85.114741"><ele>297.2</ele><time>2026-08-04T20:53:31Z</time></trkpt>
<trkpt lat="35.089023" lon="-85.114779"><ele>297.2</ele><time>2026-08-04T20:53:34Z</time></trkpt>
<trkpt lat="35.088994" lon="-85.114785"><ele>297.2</ele><time>2026-08-04T20:53:36Z</time></trkpt>
<trkpt lat="35.088963" lon="-85.114811"><ele>297.5</ele><time>2026-08-04T20:53:39Z</time></trkpt>
<trkpt lat="35.08893" lon="-85.114834"><ele>298.1</ele><time>2026-08-04T20:53:42Z</time></trkpt>
<trkpt lat="35.088908" lon="-85.114853"><ele>297.5</ele><time>2026-08-04T20:53:44Z</time></trkpt>
<trkpt lat="35.088898" lon="-85.114896"><ele>296.3</ele><time>2026-08-04T20:53:47Z</time></trkpt>
<trkpt lat="35.088892" lon="-85.114941"><ele>294.7</ele><time>2026-08-04T20:53:50Z</time></trkpt>
<trkpt lat="35.088884" lon="-85.114986"><ele>297.2</ele><time>2026-08-04T20:53:53Z</time></trkpt>
<trkpt lat="35.088869" lon="-85.115029"><ele>297.2</ele><time>2026-08-04T20:53:56Z</time></trkpt>
<trkpt lat="35.088851" lon="-85.115074"><ele>297.5</ele><time>2026-08-04T20:53:59Z</time></trkpt>
<trkpt lat="35.088839" lon="-85.115122"><ele>294.7</ele><time>2026-08-04T20:54:02Z</time></trkpt>
<trkpt lat="35.088836" lon="-85.115155"><ele>295.0</ele><time>2026-08-04T20:54:04Z</time></trkpt>
<trkpt lat="35.088816" lon="-85.115184"><ele>294.4</ele><time>2026-08-04T20:54:06Z</time></trkpt>
<trkpt lat="35.088799" lon="-85.11523"><ele>294.7</ele><time>2026-08-04T20:54:09Z</time></trkpt>
<trkpt lat="35.08878" lon="-85.115255"><ele>294.1</ele><time>2026-08-04T20:54:11Z</time></trkpt>
<trkpt lat="35.088767" lon="-85.115285"><ele>295.4</ele><time>2026-08-04T20:54:13Z</time></trkpt>
<trkpt lat="35.08876" lon="-85.115318"><ele>295.7</ele><time>2026-08-04T20:54:15Z</time></trkpt>
<trkpt lat="35.088761" lon="-85.115355"><ele>295.4</ele><time>2026-08-04T20:54:17Z</time></trkpt>
<trkpt lat="35.088773" lon="-85.115388"><ele>295.7</ele><time>2026-08-04T20:54:19Z</time></trkpt>
<trkpt lat="35.088794" lon="-85.115414"><ele>296.6</ele><time>2026-08-04T20:54:21Z</time></trkpt>
<trkpt lat="35.088819" lon="-85.115449"><ele>296.0</ele><time>2026-08-04T20:54:24Z</time></trkpt>
<trkpt lat="35.088846" lon="-85.11548"><ele>296.0</ele><time>2026-08-04T20:54:27Z</time></trkpt>
<trkpt lat="35.088882" lon="-85.115499"><ele>296.0</ele><time>2026-08-04T20:54:30Z</time></trkpt>
<trkpt lat="35.088909" lon="-85.115505"><ele>296.3</ele><time>2026-08-04T20:54:32Z</time></trkpt>
<trkpt lat="35.088937" lon="-85.115517"><ele>295.7</ele><time>2026-08-04T20:54:34Z</time></trkpt>
<trkpt lat="35.08897" lon="-85.115527"><ele>295.0</ele><time>2026-08-04T20:54:37Z</time></trkpt>
<trkpt lat="35.089002" lon="-85.115513"><ele>297.2</ele><time>2026-08-04T20:54:40Z</time></trkpt>
<trkpt lat="35.089027" lon="-85.11548"><ele>297.8</ele><time>2026-08-04T20:54:43Z</time></trkpt>
<trkpt lat="35.089051" lon="-85.115445"><ele>297.8</ele><time>2026-08-04T20:54:46Z</time></trkpt>
<trkpt lat="35.089071" lon="-85.11541"><ele>297.5</ele><time>2026-08-04T20:54:49Z</time></trkpt>
<trkpt lat="35.089089" lon="-85.115376"><ele>299.0</ele><time>2026-08-04T20:54:52Z</time></trkpt>
<trkpt lat="35.089113" lon="-85.115358"><ele>299.0</ele><time>2026-08-04T20:54:54Z</time></trkpt>
<trkpt lat="35.089152" lon="-85.115349"><ele>301.4</ele><time>2026-08-04T20:54:57Z</time></trkpt>
<trkpt lat="35.089188" lon="-85.115345"><ele>302.4</ele><time>2026-08-04T20:55:00Z</time></trkpt>
<trkpt lat="35.089222" lon="-85.115354"><ele>301.1</ele><time>2026-08-04T20:55:03Z</time></trkpt>
<trkpt lat="35.089258" lon="-85.115359"><ele>299.9</ele><time>2026-08-04T20:55:06Z</time></trkpt>
<trkpt lat="35.089293" lon="-85.115354"><ele>301.4</ele><time>2026-08-04T20:55:09Z</time></trkpt>
<trkpt lat="35.089325" lon="-85.115361"><ele>303.0</ele><time>2026-08-04T20:55:12Z</time></trkpt>
<trkpt lat="35.089359" lon="-85.115376"><ele>300.8</ele><time>2026-08-04T20:55:14Z</time></trkpt>
<trkpt lat="35.089377" lon="-85.115406"><ele>297.5</ele><time>2026-08-04T20:55:16Z</time></trkpt>
<trkpt lat="35.089391" lon="-85.11544"><ele>296.3</ele><time>2026-08-04T20:55:18Z</time></trkpt>
<trkpt lat="35.089426" lon="-85.115464"><ele>296.9</ele><time>2026-08-04T20:55:21Z</time></trkpt>
<trkpt lat="35.089455" lon="-85.115475"><ele>299.3</ele><time>2026-08-04T20:55:23Z</time></trkpt>
<trkpt lat="35.089485" lon="-85.115473"><ele>300.5</ele><time>2026-08-04T20:55:25Z</time></trkpt>
<trkpt lat="35.089516" lon="-85.115457"><ele>302.1</ele><time>2026-08-04T20:55:27Z</time></trkpt>
<trkpt lat="35.089549" lon="-85.115467"><ele>302.4</ele><time>2026-08-04T20:55:29Z</time></trkpt>
<trkpt lat="35.089591" lon="-85.115469"><ele>304.5</ele><time>2026-08-04T20:55:32Z</time></trkpt>
<trkpt lat="35.089624" lon="-85.115488"><ele>301.4</ele><time>2026-08-04T20:55:34Z</time></trkpt>
<trkpt lat="35.089658" lon="-85.115497"><ele>302.4</ele><time>2026-08-04T20:55:37Z</time></trkpt>
<trkpt lat="35.089689" lon="-85.115481"><ele>302.7</ele><time>2026-08-04T20:55:40Z</time></trkpt>
<trkpt lat="35.089718" lon="-85.115455"><ele>302.1</ele><time>2026-08-04T20:55:43Z</time></trkpt>
<trkpt lat="35.089746" lon="-85.115429"><ele>303.0</ele><time>2026-08-04T20:55:46Z</time></trkpt>
<trkpt lat="35.089777" lon="-85.115408"><ele>302.4</ele><time>2026-08-04T20:55:49Z</time></trkpt>
<trkpt lat="35.089801" lon="-85.115371"><ele>302.1</ele><time>2026-08-04T20:55:52Z</time></trkpt>
<trkpt lat="35.089823" lon="-85.115334"><ele>301.4</ele><time>2026-08-04T20:55:55Z</time></trkpt>
<trkpt lat="35.089845" lon="-85.115294"><ele>301.4</ele><time>2026-08-04T20:55:58Z</time></trkpt>
<trkpt lat="35.089863" lon="-85.115251"><ele>301.1</ele><time>2026-08-04T20:56:01Z</time></trkpt>
<trkpt lat="35.089863" lon="-85.115217"><ele>300.5</ele><time>2026-08-04T20:56:03Z</time></trkpt>
<trkpt lat="35.089866" lon="-85.115183"><ele>299.9</ele><time>2026-08-04T20:56:05Z</time></trkpt>
<trkpt lat="35.089866" lon="-85.115149"><ele>300.5</ele><time>2026-08-04T20:56:07Z</time></trkpt>
<trkpt lat="35.08989" lon="-85.115106"><ele>303.6</ele><time>2026-08-04T20:56:10Z</time></trkpt>
<trkpt lat="35.089917" lon="-85.115095"><ele>301.1</ele><time>2026-08-04T20:56:12Z</time></trkpt>
<trkpt lat="35.089952" lon="-85.115075"><ele>303.0</ele><time>2026-08-04T20:56:15Z</time></trkpt>
<trkpt lat="35.089991" lon="-85.115067"><ele>303.0</ele><time>2026-08-04T20:56:18Z</time></trkpt>
<trkpt lat="35.090029" lon="-85.11507"><ele>301.4</ele><time>2026-08-04T20:56:21Z</time></trkpt>
<trkpt lat="35.090058" lon="-85.115087"><ele>298.7</ele><time>2026-08-04T20:56:23Z</time></trkpt>
<trkpt lat="35.09008" lon="-85.11511"><ele>299.0</ele><time>2026-08-04T20:56:25Z</time></trkpt>
<trkpt lat="35.090098" lon="-85.115142"><ele>298.7</ele><time>2026-08-04T20:56:27Z</time></trkpt>
<trkpt lat="35.090111" lon="-85.11518"><ele>297.5</ele><time>2026-08-04T20:56:29Z</time></trkpt>
<trkpt lat="35.090126" lon="-85.115215"><ele>296.0</ele><time>2026-08-04T20:56:31Z</time></trkpt>
<trkpt lat="35.09014" lon="-85.11525"><ele>295.0</ele><time>2026-08-04T20:56:33Z</time></trkpt>
<trkpt lat="35.09017" lon="-85.115282"><ele>295.7</ele><time>2026-08-04T20:56:36Z</time></trkpt>
<trkpt lat="35.090208" lon="-85.115284"><ele>295.0</ele><time>2026-08-04T20:56:39Z</time></trkpt>
<trkpt lat="35.090237" lon="-85.115251"><ele>296.9</ele><time>2026-08-04T20:56:42Z</time></trkpt>
<trkpt lat="35.090251" lon="-85.115212"><ele>293.8</ele><time>2026-08-04T20:56:45Z</time></trkpt>
<trkpt lat="35.090282" lon="-85.115182"><ele>294.7</ele><time>2026-08-04T20:56:48Z</time></trkpt>
<trkpt lat="35.090304" lon="-85.115145"><ele>294.1</ele><time>2026-08-04T20:56:51Z</time></trkpt>
<trkpt lat="35.090312" lon="-85.115109"><ele>293.5</ele><time>2026-08-04T20:56:54Z</time></trkpt>
<trkpt lat="35.090314" lon="-85.115106"><ele>293.8</ele><time>2026-08-04T20:56:55Z</time></trkpt>
<trkpt lat="35.090312" lon="-85.115116"><ele>293.8</ele><time>2026-08-04T20:56:56Z</time></trkpt>
<trkpt lat="35.090311" lon="-85.115121"><ele>293.8</ele><time>2026-08-04T20:57:14Z</time></trkpt>
<trkpt lat="35.090312" lon="-85.115115"><ele>293.2</ele><time>2026-08-04T20:57:15Z</time></trkpt>
<trkpt lat="35.09028" lon="-85.115116"><ele>291.1</ele><time>2026-08-04T20:57:18Z</time></trkpt>
<trkpt lat="35.090253" lon="-85.115089"><ele>292.0</ele><time>2026-08-04T20:57:20Z</time></trkpt>
<trkpt lat="35.090236" lon="-85.115047"><ele>292.3</ele><time>2026-08-04T20:57:22Z</time></trkpt>
<trkpt lat="35.09022" lon="-85.115013"><ele>292.6</ele><time>2026-08-04T20:57:25Z</time></trkpt>
<trkpt lat="35.090205" lon="-85.114983"><ele>292.0</ele><time>2026-08-04T20:57:27Z</time></trkpt>
<trkpt lat="35.090184" lon="-85.11496"><ele>291.7</ele><time>2026-08-04T20:57:29Z</time></trkpt>
<trkpt lat="35.090156" lon="-85.114954"><ele>290.8</ele><time>2026-08-04T20:57:31Z</time></trkpt>
<trkpt lat="35.090126" lon="-85.11493"><ele>290.8</ele><time>2026-08-04T20:57:34Z</time></trkpt>
<trkpt lat="35.090095" lon="-85.114903"><ele>291.4</ele><time>2026-08-04T20:57:37Z</time></trkpt>
<trkpt lat="35.090066" lon="-85.114873"><ele>292.9</ele><time>2026-08-04T20:57:40Z</time></trkpt>
<trkpt lat="35.090037" lon="-85.114844"><ele>292.9</ele><time>2026-08-04T20:57:43Z</time></trkpt>
<trkpt lat="35.090011" lon="-85.114819"><ele>292.3</ele><time>2026-08-04T20:57:46Z</time></trkpt>
<trkpt lat="35.08998" lon="-85.114797"><ele>291.1</ele><time>2026-08-04T20:57:49Z</time></trkpt>
<trkpt lat="35.089946" lon="-85.114783"><ele>290.5</ele><time>2026-08-04T20:57:52Z</time></trkpt>
<trkpt lat="35.089909" lon="-85.114769"><ele>290.8</ele><time>2026-08-04T20:57:55Z</time></trkpt>
<trkpt lat="35.089877" lon="-85.114737"><ele>292.6</ele><time>2026-08-04T20:57:58Z</time></trkpt>
<trkpt lat="35.089857" lon="-85.114714"><ele>292.6</ele><time>2026-08-04T20:58:00Z</time></trkpt>
<trkpt lat="35.089844" lon="-85.114684"><ele>292.6</ele><time>2026-08-04T20:58:02Z</time></trkpt>
<trkpt lat="35.089831" lon="-85.114653"><ele>292.6</ele><time>2026-08-04T20:58:04Z</time></trkpt>
<trkpt lat="35.089818" lon="-85.11462"><ele>293.2</ele><time>2026-08-04T20:58:06Z</time></trkpt>
<trkpt lat="35.089808" lon="-85.114583"><ele>293.2</ele><time>2026-08-04T20:58:08Z</time></trkpt>
<trkpt lat="35.089798" lon="-85.114549"><ele>294.4</ele><time>2026-08-04T20:58:10Z</time></trkpt>
<trkpt lat="35.089791" lon="-85.114506"><ele>293.2</ele><time>2026-08-04T20:58:13Z</time></trkpt>
<trkpt lat="35.089782" lon="-85.114459"><ele>295.4</ele><time>2026-08-04T20:58:16Z</time></trkpt>
<trkpt lat="35.089766" lon="-85.11443"><ele>295.7</ele><time>2026-08-04T20:58:18Z</time></trkpt>
<trkpt lat="35.089751" lon="-85.114386"><ele>296.3</ele><time>2026-08-04T20:58:21Z</time></trkpt>
<trkpt lat="35.08974" lon="-85.114344"><ele>297.2</ele><time>2026-08-04T20:58:24Z</time></trkpt>
<trkpt lat="35.089737" lon="-85.114311"><ele>298.4</ele><time>2026-08-04T20:58:26Z</time></trkpt>
<trkpt lat="35.089742" lon="-85.114274"><ele>298.4</ele><time>2026-08-04T20:58:28Z</time></trkpt>
<trkpt lat="35.089765" lon="-85.114244"><ele>298.7</ele><time>2026-08-04T20:58:30Z</time></trkpt>
<trkpt lat="35.089796" lon="-85.11421"><ele>299.6</ele><time>2026-08-04T20:58:33Z</time></trkpt>
<trkpt lat="35.089824" lon="-85.114198"><ele>297.8</ele><time>2026-08-04T20:58:35Z</time></trkpt>
<trkpt lat="35.089847" lon="-85.114179"><ele>297.5</ele><time>2026-08-04T20:58:37Z</time></trkpt>
<trkpt lat="35.089875" lon="-85.114145"><ele>299.0</ele><time>2026-08-04T20:58:40Z</time></trkpt>
<trkpt lat="35.089893" lon="-85.114105"><ele>298.7</ele><time>2026-08-04T20:58:43Z</time></trkpt>
<trkpt lat="35.089878" lon="-85.114064"><ele>299.9</ele><time>2026-08-04T20:58:46Z</time></trkpt>
<trkpt lat="35.089858" lon="-85.114041"><ele>299.3</ele><time>2026-08-04T20:58:48Z</time></trkpt>
<trkpt lat="35.08985" lon="-85.114001"><ele>299.3</ele><time>2026-08-04T20:58:51Z</time></trkpt>
<trkpt lat="35.089855" lon="-85.113967"><ele>299.0</ele><time>2026-08-04T20:58:53Z</time></trkpt>
<trkpt lat="35.089875" lon="-85.113936"><ele>299.9</ele><time>2026-08-04T20:58:55Z</time></trkpt>
<trkpt lat="35.089896" lon="-85.113907"><ele>300.2</ele><time>2026-08-04T20:58:57Z</time></trkpt>
<trkpt lat="35.089917" lon="-85.113884"><ele>300.2</ele><time>2026-08-04T20:58:59Z</time></trkpt>
<trkpt lat="35.089942" lon="-85.113848"><ele>301.1</ele><time>2026-08-04T20:59:02Z</time></trkpt>
<trkpt lat="35.089962" lon="-85.113805"><ele>301.1</ele><time>2026-08-04T20:59:05Z</time></trkpt>
<trkpt lat="35.089975" lon="-85.113761"><ele>302.4</ele><time>2026-08-04T20:59:08Z</time></trkpt>
<trkpt lat="35.089982" lon="-85.113729"><ele>303.3</ele><time>2026-08-04T20:59:10Z</time></trkpt>
<trkpt lat="35.08999" lon="-85.11368"><ele>302.4</ele><time>2026-08-04T20:59:13Z</time></trkpt>
<trkpt lat="35.089994" lon="-85.113635"><ele>302.7</ele><time>2026-08-04T20:59:16Z</time></trkpt>
<trkpt lat="35.089996" lon="-85.113595"><ele>303.9</ele><time>2026-08-04T20:59:19Z</time></trkpt>
<trkpt lat="35.090004" lon="-85.113558"><ele>302.4</ele><time>2026-08-04T20:59:22Z</time></trkpt>
<trkpt lat="35.090003" lon="-85.113515"><ele>300.2</ele><time>2026-08-04T20:59:25Z</time></trkpt>
<trkpt lat="35.090023" lon="-85.113474"><ele>300.5</ele><time>2026-08-04T20:59:28Z</time></trkpt>
<trkpt lat="35.09005" lon="-85.113447"><ele>299.9</ele><time>2026-08-04T20:59:31Z</time></trkpt>
<trkpt lat="35.090084" lon="-85.113451"><ele>301.4</ele><time>2026-08-04T20:59:35Z</time></trkpt>
<trkpt lat="35.090113" lon="-85.113467"><ele>301.8</ele><time>2026-08-04T20:59:38Z</time></trkpt>
<trkpt lat="35.090139" lon="-85.113486"><ele>300.5</ele><time>2026-08-04T20:59:41Z</time></trkpt>
<trkpt lat="35.090177" lon="-85.113493"><ele>299.9</ele><time>2026-08-04T20:59:45Z</time></trkpt>
<trkpt lat="35.090209" lon="-85.113476"><ele>299.0</ele><time>2026-08-04T20:59:48Z</time></trkpt>
<trkpt lat="35.090229" lon="-85.113451"><ele>300.5</ele><time>2026-08-04T20:59:50Z</time></trkpt>
<trkpt lat="35.090256" lon="-85.113438"><ele>301.8</ele><time>2026-08-04T20:59:52Z</time></trkpt>
<trkpt lat="35.090291" lon="-85.113439"><ele>303.6</ele><time>2026-08-04T20:59:54Z</time></trkpt>
<trkpt lat="35.09032" lon="-85.11346"><ele>301.1</ele><time>2026-08-04T20:59:56Z</time></trkpt>
<trkpt lat="35.090352" lon="-85.113493"><ele>298.4</ele><time>2026-08-04T20:59:58Z</time></trkpt>
<trkpt lat="35.090367" lon="-85.113527"><ele>295.7</ele><time>2026-08-04T21:00:00Z</time></trkpt>
<trkpt lat="35.090367" lon="-85.113571"><ele>295.4</ele><time>2026-08-04T21:00:02Z</time></trkpt>
<trkpt lat="35.090356" lon="-85.113608"><ele>296.0</ele><time>2026-08-04T21:00:04Z</time></trkpt>
<trkpt lat="35.090346" lon="-85.113651"><ele>295.7</ele><time>2026-08-04T21:00:07Z</time></trkpt>
<trkpt lat="35.09034" lon="-85.113693"><ele>295.0</ele><time>2026-08-04T21:00:10Z</time></trkpt>
<trkpt lat="35.090353" lon="-85.113732"><ele>295.4</ele><time>2026-08-04T21:00:13Z</time></trkpt>
<trkpt lat="35.090385" lon="-85.113755"><ele>295.0</ele><time>2026-08-04T21:00:16Z</time></trkpt>
<trkpt lat="35.090426" lon="-85.113754"><ele>291.7</ele><time>2026-08-04T21:00:19Z</time></trkpt>
<trkpt lat="35.090455" lon="-85.113747"><ele>291.7</ele><time>2026-08-04T21:00:21Z</time></trkpt>
<trkpt lat="35.090491" lon="-85.113735"><ele>293.2</ele><time>2026-08-04T21:00:24Z</time></trkpt>
<trkpt lat="35.090523" lon="-85.113739"><ele>294.7</ele><time>2026-08-04T21:00:27Z</time></trkpt>
<trkpt lat="35.09056" lon="-85.113734"><ele>297.5</ele><time>2026-08-04T21:00:30Z</time></trkpt>
<trkpt lat="35.090597" lon="-85.113722"><ele>298.4</ele><time>2026-08-04T21:00:33Z</time></trkpt>
<trkpt lat="35.090635" lon="-85.11372"><ele>297.8</ele><time>2026-08-04T21:00:36Z</time></trkpt>
<trkpt lat="35.090671" lon="-85.113707"><ele>297.8</ele><time>2026-08-04T21:00:39Z</time></trkpt>
<trkpt lat="35.090704" lon="-85.113722"><ele>298.7</ele><time>2026-08-04T21:00:42Z</time></trkpt>
<trkpt lat="35.090735" lon="-85.113754"><ele>299.0</ele><time>2026-08-04T21:00:45Z</time></trkpt>
<trkpt lat="35.090747" lon="-85.113787"><ele>299.0</ele><time>2026-08-04T21:00:47Z</time></trkpt>
<trkpt lat="35.090758" lon="-85.113818"><ele>297.8</ele><time>2026-08-04T21:00:49Z</time></trkpt>
<trkpt lat="35.090775" lon="-85.113861"><ele>296.9</ele><time>2026-08-04T21:00:52Z</time></trkpt>
<trkpt lat="35.090801" lon="-85.113894"><ele>296.3</ele><time>2026-08-04T21:00:55Z</time></trkpt>
<trkpt lat="35.090832" lon="-85.113922"><ele>298.1</ele><time>2026-08-04T21:00:58Z</time></trkpt>
<trkpt lat="35.090849" lon="-85.113961"><ele>297.8</ele><time>2026-08-04T21:01:01Z</time></trkpt>
<trkpt lat="35.09088" lon="-85.113991"><ele>295.4</ele><time>2026-08-04T21:01:04Z</time></trkpt>
<trkpt lat="35.090908" lon="-85.114019"><ele>296.9</ele><time>2026-08-04T21:01:07Z</time></trkpt>
<trkpt lat="35.090944" lon="-85.114038"><ele>298.7</ele><time>2026-08-04T21:01:10Z</time></trkpt>
<trkpt lat="35.09097" lon="-85.114055"><ele>299.9</ele><time>2026-08-04T21:01:12Z</time></trkpt>
<trkpt lat="35.090989" lon="-85.11408"><ele>298.7</ele><time>2026-08-04T21:01:14Z</time></trkpt>
<trkpt lat="35.091024" lon="-85.114094"><ele>299.6</ele><time>2026-08-04T21:01:17Z</time></trkpt>
<trkpt lat="35.091052" lon="-85.114116"><ele>302.1</ele><time>2026-08-04T21:01:20Z</time></trkpt>
<trkpt lat="35.09108" lon="-85.114139"><ele>303.3</ele><time>2026-08-04T21:01:23Z</time></trkpt>
<trkpt lat="35.091113" lon="-85.114134"><ele>303.9</ele><time>2026-08-04T21:01:26Z</time></trkpt>
<trkpt lat="35.091151" lon="-85.114138"><ele>303.9</ele><time>2026-08-04T21:01:29Z</time></trkpt>
<trkpt lat="35.091184" lon="-85.114166"><ele>298.1</ele><time>2026-08-04T21:01:32Z</time></trkpt>
<trkpt lat="35.091207" lon="-85.114208"><ele>295.7</ele><time>2026-08-04T21:01:35Z</time></trkpt>
<trkpt lat="35.091225" lon="-85.114251"><ele>296.0</ele><time>2026-08-04T21:01:38Z</time></trkpt>
<trkpt lat="35.09123" lon="-85.114287"><ele>296.9</ele><time>2026-08-04T21:01:40Z</time></trkpt>
<trkpt lat="35.091236" lon="-85.114321"><ele>297.8</ele><time>2026-08-04T21:01:42Z</time></trkpt>
<trkpt lat="35.091249" lon="-85.114366"><ele>297.5</ele><time>2026-08-04T21:01:45Z</time></trkpt>
<trkpt lat="35.091259" lon="-85.114399"><ele>296.6</ele><time>2026-08-04T21:01:47Z</time></trkpt>
<trkpt lat="35.091276" lon="-85.114445"><ele>295.7</ele><time>2026-08-04T21:01:50Z</time></trkpt>
<trkpt lat="35.091292" lon="-85.114489"><ele>293.8</ele><time>2026-08-04T21:01:53Z</time></trkpt>
<trkpt lat="35.091288" lon="-85.114538"><ele>292.0</ele><time>2026-08-04T21:01:56Z</time></trkpt>
<trkpt lat="35.091292" lon="-85.114574"><ele>291.4</ele><time>2026-08-04T21:01:58Z</time></trkpt>
<trkpt lat="35.0913" lon="-85.114608"><ele>289.9</ele><time>2026-08-04T21:02:00Z</time></trkpt>
<trkpt lat="35.091328" lon="-85.114641"><ele>291.4</ele><time>2026-08-04T21:02:03Z</time></trkpt>
<trkpt lat="35.091363" lon="-85.114646"><ele>289.9</ele><time>2026-08-04T21:02:06Z</time></trkpt>
<trkpt lat="35.091397" lon="-85.114621"><ele>288.6</ele><time>2026-08-04T21:02:09Z</time></trkpt>
<trkpt lat="35.091427" lon="-85.114586"><ele>289.9</ele><time>2026-08-04T21:02:12Z</time></trkpt>
<trkpt lat="35.091458" lon="-85.11455"><ele>290.5</ele><time>2026-08-04T21:02:15Z</time></trkpt>
<trkpt lat="35.091489" lon="-85.114522"><ele>292.6</ele><time>2026-08-04T21:02:18Z</time></trkpt>
<trkpt lat="35.091523" lon="-85.114499"><ele>294.7</ele><time>2026-08-04T21:02:21Z</time></trkpt>
<trkpt lat="35.09156" lon="-85.114495"><ele>296.3</ele><time>2026-08-04T21:02:24Z</time></trkpt>
<trkpt lat="35.091596" lon="-85.114478"><ele>295.4</ele><time>2026-08-04T21:02:27Z</time></trkpt>
<trkpt lat="35.091631" lon="-85.11446"><ele>297.5</ele><time>2026-08-04T21:02:30Z</time></trkpt>
<trkpt lat="35.091666" lon="-85.114442"><ele>297.2</ele><time>2026-08-04T21:02:33Z</time></trkpt>
<trkpt lat="35.091703" lon="-85.114428"><ele>298.4</ele><time>2026-08-04T21:02:36Z</time></trkpt>
<trkpt lat="35.091739" lon="-85.114408"><ele>295.7</ele><time>2026-08-04T21:02:39Z</time></trkpt>
<trkpt lat="35.09176" lon="-85.114371"><ele>292.0</ele><time>2026-08-04T21:02:42Z</time></trkpt>
<trkpt lat="35.091765" lon="-85.114338"><ele>292.9</ele><time>2026-08-04T21:02:44Z</time></trkpt>
<trkpt lat="35.091783" lon="-85.114299"><ele>291.4</ele><time>2026-08-04T21:02:47Z</time></trkpt>
<trkpt lat="35.091801" lon="-85.114259"><ele>291.7</ele><time>2026-08-04T21:02:50Z</time></trkpt>
<trkpt lat="35.091816" lon="-85.114213"><ele>291.4</ele><time>2026-08-04T21:02:53Z</time></trkpt>
<trkpt lat="35.091821" lon="-85.114179"><ele>291.4</ele><time>2026-08-04T21:02:55Z</time></trkpt>
<trkpt lat="35.091829" lon="-85.114135"><ele>293.2</ele><time>2026-08-04T21:02:58Z</time></trkpt>
<trkpt lat="35.091837" lon="-85.114085"><ele>293.5</ele><time>2026-08-04T21:03:01Z</time></trkpt>
<trkpt lat="35.09184" lon="-85.11405"><ele>294.1</ele><time>2026-08-04T21:03:03Z</time></trkpt>
<trkpt lat="35.091846" lon="-85.11401"><ele>293.8</ele><time>2026-08-04T21:03:06Z</time></trkpt>
<trkpt lat="35.091839" lon="-85.11397"><ele>294.7</ele><time>2026-08-04T21:03:09Z</time></trkpt>
<trkpt lat="35.09183" lon="-85.113923"><ele>294.7</ele><time>2026-08-04T21:03:12Z</time></trkpt>
<trkpt lat="35.091824" lon="-85.113877"><ele>295.0</ele><time>2026-08-04T21:03:15Z</time></trkpt>
<trkpt lat="35.091833" lon="-85.113828"><ele>297.8</ele><time>2026-08-04T21:03:18Z</time></trkpt>
<trkpt lat="35.091838" lon="-85.113792"><ele>297.2</ele><time>2026-08-04T21:03:20Z</time></trkpt>
<trkpt lat="35.091848" lon="-85.113757"><ele>296.0</ele><time>2026-08-04T21:03:22Z</time></trkpt>
<trkpt lat="35.091859" lon="-85.113723"><ele>295.4</ele><time>2026-08-04T21:03:24Z</time></trkpt>
<trkpt lat="35.091875" lon="-85.11369"><ele>296.0</ele><time>2026-08-04T21:03:26Z</time></trkpt>
<trkpt lat="35.091899" lon="-85.113667"><ele>295.4</ele><time>2026-08-04T21:03:28Z</time></trkpt>
<trkpt lat="35.091931" lon="-85.113648"><ele>295.4</ele><time>2026-08-04T21:03:31Z</time></trkpt>
<trkpt lat="35.091964" lon="-85.113641"><ele>296.6</ele><time>2026-08-04T21:03:34Z</time></trkpt>
<trkpt lat="35.091996" lon="-85.113623"><ele>299.3</ele><time>2026-08-04T21:03:37Z</time></trkpt>
<trkpt lat="35.092025" lon="-85.113599"><ele>296.6</ele><time>2026-08-04T21:03:40Z</time></trkpt>
<trkpt lat="35.092057" lon="-85.113571"><ele>298.4</ele><time>2026-08-04T21:03:43Z</time></trkpt>
<trkpt lat="35.092089" lon="-85.113545"><ele>296.9</ele><time>2026-08-04T21:03:46Z</time></trkpt>
<trkpt lat="35.092113" lon="-85.113528"><ele>297.5</ele><time>2026-08-04T21:03:48Z</time></trkpt>
<trkpt lat="35.092138" lon="-85.113513"><ele>298.1</ele><time>2026-08-04T21:03:50Z</time></trkpt>
<trkpt lat="35.092167" lon="-85.113513"><ele>297.2</ele><time>2026-08-04T21:03:52Z</time></trkpt>
<trkpt lat="35.092186" lon="-85.113538"><ele>299.3</ele><time>2026-08-04T21:03:54Z</time></trkpt>
<trkpt lat="35.092224" lon="-85.113545"><ele>299.3</ele><time>2026-08-04T21:03:57Z</time></trkpt>
<trkpt lat="35.092247" lon="-85.113562"><ele>298.1</ele><time>2026-08-04T21:03:59Z</time></trkpt>
<trkpt lat="35.092284" lon="-85.113586"><ele>296.0</ele><time>2026-08-04T21:04:02Z</time></trkpt>
<trkpt lat="35.092308" lon="-85.113604"><ele>297.2</ele><time>2026-08-04T21:04:04Z</time></trkpt>
<trkpt lat="35.092344" lon="-85.113621"><ele>297.5</ele><time>2026-08-04T21:04:07Z</time></trkpt>
<trkpt lat="35.092376" lon="-85.113643"><ele>296.9</ele><time>2026-08-04T21:04:10Z</time></trkpt>
<trkpt lat="35.092384" lon="-85.113678"><ele>296.0</ele><time>2026-08-04T21:04:12Z</time></trkpt>
<trkpt lat="35.092389" lon="-85.113714"><ele>296.6</ele><time>2026-08-04T21:04:14Z</time></trkpt>
<trkpt lat="35.092414" lon="-85.113749"><ele>296.3</ele><time>2026-08-04T21:04:17Z</time></trkpt>
<trkpt lat="35.092435" lon="-85.113787"><ele>297.5</ele><time>2026-08-04T21:04:20Z</time></trkpt>
<trkpt lat="35.092464" lon="-85.113808"><ele>298.1</ele><time>2026-08-04T21:04:23Z</time></trkpt>
<trkpt lat="35.092494" lon="-85.113836"><ele>297.5</ele><time>2026-08-04T21:04:26Z</time></trkpt>
<trkpt lat="35.092525" lon="-85.113861"><ele>297.8</ele><time>2026-08-04T21:04:29Z</time></trkpt>
<trkpt lat="35.092557" lon="-85.113884"><ele>299.6</ele><time>2026-08-04T21:04:32Z</time></trkpt>
<trkpt lat="35.092589" lon="-85.113904"><ele>299.9</ele><time>2026-08-04T21:04:35Z</time></trkpt>
<trkpt lat="35.092619" lon="-85.113936"><ele>298.4</ele><time>2026-08-04T21:04:38Z</time></trkpt>
<trkpt lat="35.09263" lon="-85.11397"><ele>299.9</ele><time>2026-08-04T21:04:40Z</time></trkpt>
<trkpt lat="35.092637" lon="-85.114003"><ele>299.6</ele><time>2026-08-04T21:04:42Z</time></trkpt>
<trkpt lat="35.09264" lon="-85.114059"><ele>298.1</ele><time>2026-08-04T21:04:45Z</time></trkpt>
<trkpt lat="35.092636" lon="-85.114093"><ele>298.1</ele><time>2026-08-04T21:04:47Z</time></trkpt>
<trkpt lat="35.092624" lon="-85.114139"><ele>296.3</ele><time>2026-08-04T21:04:50Z</time></trkpt>
<trkpt lat="35.092608" lon="-85.114178"><ele>297.8</ele><time>2026-08-04T21:04:53Z</time></trkpt>
<trkpt lat="35.09259" lon="-85.114219"><ele>297.5</ele><time>2026-08-04T21:04:56Z</time></trkpt>
<trkpt lat="35.092578" lon="-85.114252"><ele>295.4</ele><time>2026-08-04T21:04:58Z</time></trkpt>
<trkpt lat="35.092588" lon="-85.114288"><ele>295.7</ele><time>2026-08-04T21:05:00Z</time></trkpt>
<trkpt lat="35.092605" lon="-85.114317"><ele>296.0</ele><time>2026-08-04T21:05:02Z</time></trkpt>
<trkpt lat="35.092632" lon="-85.11435"><ele>297.2</ele><time>2026-08-04T21:05:05Z</time></trkpt>
<trkpt lat="35.092658" lon="-85.114384"><ele>299.0</ele><time>2026-08-04T21:05:08Z</time></trkpt>
<trkpt lat="35.092685" lon="-85.114417"><ele>297.5</ele><time>2026-08-04T21:05:11Z</time></trkpt>
<trkpt lat="35.092715" lon="-85.114449"><ele>296.9</ele><time>2026-08-04T21:05:14Z</time></trkpt>
<trkpt lat="35.09273" lon="-85.114479"><ele>297.5</ele><time>2026-08-04T21:05:16Z</time></trkpt>
<trkpt lat="35.092721" lon="-85.114515"><ele>297.2</ele><time>2026-08-04T21:05:18Z</time></trkpt>
<trkpt lat="35.092744" lon="-85.114555"><ele>299.9</ele><time>2026-08-04T21:05:21Z</time></trkpt>
<trkpt lat="35.092758" lon="-85.114598"><ele>298.4</ele><time>2026-08-04T21:05:24Z</time></trkpt>
<trkpt lat="35.092761" lon="-85.114642"><ele>298.4</ele><time>2026-08-04T21:05:27Z</time></trkpt>
<trkpt lat="35.09276" lon="-85.114691"><ele>296.3</ele><time>2026-08-04T21:05:30Z</time></trkpt>
<trkpt lat="35.09277" lon="-85.114738"><ele>296.3</ele><time>2026-08-04T21:05:33Z</time></trkpt>
<trkpt lat="35.092774" lon="-85.114786"><ele>295.0</ele><time>2026-08-04T21:05:36Z</time></trkpt>
<trkpt lat="35.092786" lon="-85.114816"><ele>295.4</ele><time>2026-08-04T21:05:38Z</time></trkpt>
<trkpt lat="35.092797" lon="-85.114862"><ele>295.7</ele><time>2026-08-04T21:05:41Z</time></trkpt>
<trkpt lat="35.092819" lon="-85.114886"><ele>296.0</ele><time>2026-08-04T21:05:43Z</time></trkpt>
<trkpt lat="35.09284" lon="-85.114907"><ele>296.0</ele><time>2026-08-04T21:05:45Z</time></trkpt>
<trkpt lat="35.092871" lon="-85.11492"><ele>295.7</ele><time>2026-08-04T21:05:47Z</time></trkpt>
<trkpt lat="35.092909" lon="-85.114939"><ele>295.0</ele><time>2026-08-04T21:05:50Z</time></trkpt>
<trkpt lat="35.092941" lon="-85.114963"><ele>294.4</ele><time>2026-08-04T21:05:53Z</time></trkpt>
<trkpt lat="35.09297" lon="-85.114968"><ele>292.6</ele><time>2026-08-04T21:05:55Z</time></trkpt>
<trkpt lat="35.093007" lon="-85.114973"><ele>292.3</ele><time>2026-08-04T21:05:58Z</time></trkpt>
<trkpt lat="35.093046" lon="-85.114971"><ele>291.4</ele><time>2026-08-04T21:06:01Z</time></trkpt>
<trkpt lat="35.093072" lon="-85.114961"><ele>290.8</ele><time>2026-08-04T21:06:03Z</time></trkpt>
<trkpt lat="35.093099" lon="-85.114956"><ele>291.4</ele><time>2026-08-04T21:06:05Z</time></trkpt>
<trkpt lat="35.093137" lon="-85.114935"><ele>293.2</ele><time>2026-08-04T21:06:08Z</time></trkpt>
<trkpt lat="35.093156" lon="-85.114907"><ele>293.2</ele><time>2026-08-04T21:06:10Z</time></trkpt>
<trkpt lat="35.093165" lon="-85.114873"><ele>293.8</ele><time>2026-08-04T21:06:12Z</time></trkpt>
<trkpt lat="35.093168" lon="-85.114826"><ele>294.4</ele><time>2026-08-04T21:06:15Z</time></trkpt>
<trkpt lat="35.09317" lon="-85.114781"><ele>295.4</ele><time>2026-08-04T21:06:18Z</time></trkpt>
<trkpt lat="35.093157" lon="-85.11474"><ele>296.0</ele><time>2026-08-04T21:06:21Z</time></trkpt>
<trkpt lat="35.09314" lon="-85.114701"><ele>294.4</ele><time>2026-08-04T21:06:24Z</time></trkpt>
<trkpt lat="35.093127" lon="-85.114662"><ele>294.4</ele><time>2026-08-04T21:06:27Z</time></trkpt>
<trkpt lat="35.093115" lon="-85.114618"><ele>295.0</ele><time>2026-08-04T21:06:30Z</time></trkpt>
<trkpt lat="35.093115" lon="-85.114568"><ele>296.3</ele><time>2026-08-04T21:06:33Z</time></trkpt>
<trkpt lat="35.093122" lon="-85.114518"><ele>297.5</ele><time>2026-08-04T21:06:36Z</time></trkpt>
<trkpt lat="35.093132" lon="-85.114483"><ele>297.2</ele><time>2026-08-04T21:06:38Z</time></trkpt>
<trkpt lat="35.093133" lon="-85.114448"><ele>298.4</ele><time>2026-08-04T21:06:40Z</time></trkpt>
<trkpt lat="35.093144" lon="-85.114398"><ele>299.6</ele><time>2026-08-04T21:06:43Z</time></trkpt>
<trkpt lat="35.09316" lon="-85.114354"><ele>298.4</ele><time>2026-08-04T21:06:46Z</time></trkpt>
<trkpt lat="35.093169" lon="-85.11432"><ele>298.1</ele><time>2026-08-04T21:06:48Z</time></trkpt>
<trkpt lat="35.093185" lon="-85.11429"><ele>297.8</ele><time>2026-08-04T21:06:50Z</time></trkpt>
<trkpt lat="35.093205" lon="-85.114265"><ele>297.5</ele><time>2026-08-04T21:06:52Z</time></trkpt>
<trkpt lat="35.09323" lon="-85.114246"><ele>296.3</ele><time>2026-08-04T21:06:54Z</time></trkpt>
<trkpt lat="35.093253" lon="-85.114229"><ele>295.0</ele><time>2026-08-04T21:06:56Z</time></trkpt>
<trkpt lat="35.09328" lon="-85.114216"><ele>295.7</ele><time>2026-08-04T21:06:58Z</time></trkpt>
<trkpt lat="35.093316" lon="-85.114197"><ele>295.4</ele><time>2026-08-04T21:07:01Z</time></trkpt>
<trkpt lat="35.093353" lon="-85.114178"><ele>295.4</ele><time>2026-08-04T21:07:04Z</time></trkpt>
<trkpt lat="35.093388" lon="-85.11416"><ele>295.4</ele><time>2026-08-04T21:07:07Z</time></trkpt>
<trkpt lat="35.093408" lon="-85.114119"><ele>296.0</ele><time>2026-08-04T21:07:10Z</time></trkpt>
<trkpt lat="35.093427" lon="-85.114083"><ele>295.7</ele><time>2026-08-04T21:07:13Z</time></trkpt>
<trkpt lat="35.093446" lon="-85.114045"><ele>298.1</ele><time>2026-08-04T21:07:16Z</time></trkpt>
<trkpt lat="35.093456" lon="-85.113998"><ele>298.7</ele><time>2026-08-04T21:07:19Z</time></trkpt>
<trkpt lat="35.093465" lon="-85.113965"><ele>299.0</ele><time>2026-08-04T21:07:21Z</time></trkpt>
<trkpt lat="35.093486" lon="-85.113927"><ele>297.5</ele><time>2026-08-04T21:07:24Z</time></trkpt>
<trkpt lat="35.093509" lon="-85.113893"><ele>299.0</ele><time>2026-08-04T21:07:27Z</time></trkpt>
<trkpt lat="35.093525" lon="-85.113849"><ele>300.2</ele><time>2026-08-04T21:07:30Z</time></trkpt>
<trkpt lat="35.093543" lon="-85.113809"><ele>299.6</ele><time>2026-08-04T21:07:33Z</time></trkpt>
<trkpt lat="35.093561" lon="-85.113771"><ele>299.0</ele><time>2026-08-04T21:07:36Z</time></trkpt>
<trkpt lat="35.093565" lon="-85.113726"><ele>299.6</ele><time>2026-08-04T21:07:39Z</time></trkpt>
<trkpt lat="35.093572" lon="-85.113687"><ele>299.0</ele><time>2026-08-04T21:07:42Z</time></trkpt>
<trkpt lat="35.093575" lon="-85.113642"><ele>298.1</ele><time>2026-08-04T21:07:45Z</time></trkpt>
<trkpt lat="35.09359" lon="-85.113612"><ele>299.0</ele><time>2026-08-04T21:07:47Z</time></trkpt>
<trkpt lat="35.093608" lon="-85.113581"><ele>298.1</ele><time>2026-08-04T21:07:49Z</time></trkpt>
<trkpt lat="35.093619" lon="-85.11355"><ele>298.1</ele><time>2026-08-04T21:07:51Z</time></trkpt>
<trkpt lat="35.093644" lon="-85.113524"><ele>298.1</ele><time>2026-08-04T21:07:53Z</time></trkpt>
<trkpt lat="35.093661" lon="-85.113497"><ele>297.8</ele><time>2026-08-04T21:07:55Z</time></trkpt>
<trkpt lat="35.093665" lon="-85.11345"><ele>296.9</ele><time>2026-08-04T21:07:58Z</time></trkpt>
<trkpt lat="35.093658" lon="-85.113412"><ele>296.9</ele><time>2026-08-04T21:08:01Z</time></trkpt>
<trkpt lat="35.093648" lon="-85.113373"><ele>296.3</ele><time>2026-08-04T21:08:04Z</time></trkpt>
<trkpt lat="35.093654" lon="-85.113326"><ele>299.0</ele><time>2026-08-04T21:08:07Z</time></trkpt>
<trkpt lat="35.093663" lon="-85.113294"><ele>300.2</ele><time>2026-08-04T21:08:09Z</time></trkpt>
<trkpt lat="35.093654" lon="-85.113247"><ele>300.2</ele><time>2026-08-04T21:08:12Z</time></trkpt>
<trkpt lat="35.093645" lon="-85.113204"><ele>299.9</ele><time>2026-08-04T21:08:15Z</time></trkpt>
<trkpt lat="35.093649" lon="-85.113154"><ele>298.1</ele><time>2026-08-04T21:08:18Z</time></trkpt>
<trkpt lat="35.093652" lon="-85.113103"><ele>298.7</ele><time>2026-08-04T21:08:21Z</time></trkpt>
<trkpt lat="35.09365" lon="-85.113056"><ele>297.2</ele><time>2026-08-04T21:08:24Z</time></trkpt>
<trkpt lat="35.093653" lon="-85.113022"><ele>296.9</ele><time>2026-08-04T21:08:26Z</time></trkpt>
<trkpt lat="35.093668" lon="-85.112985"><ele>296.3</ele><time>2026-08-04T21:08:29Z</time></trkpt>
<trkpt lat="35.093686" lon="-85.112942"><ele>296.3</ele><time>2026-08-04T21:08:32Z</time></trkpt>
<trkpt lat="35.093694" lon="-85.112909"><ele>295.7</ele><time>2026-08-04T21:08:34Z</time></trkpt>
<trkpt lat="35.093707" lon="-85.112877"><ele>295.7</ele><time>2026-08-04T21:08:36Z</time></trkpt>
<trkpt lat="35.093716" lon="-85.112844"><ele>295.7</ele><time>2026-08-04T21:08:38Z</time></trkpt>
<trkpt lat="35.093715" lon="-85.11281"><ele>296.9</ele><time>2026-08-04T21:08:40Z</time></trkpt>
<trkpt lat="35.09372" lon="-85.112777"><ele>295.7</ele><time>2026-08-04T21:08:42Z</time></trkpt>
<trkpt lat="35.093717" lon="-85.11273"><ele>296.9</ele><time>2026-08-04T21:08:45Z</time></trkpt>
<trkpt lat="35.09371" lon="-85.112697"><ele>297.2</ele><time>2026-08-04T21:08:47Z</time></trkpt>
<trkpt lat="35.093706" lon="-85.11265"><ele>298.7</ele><time>2026-08-04T21:08:50Z</time></trkpt>
<trkpt lat="35.093713" lon="-85.112609"><ele>296.9</ele><time>2026-08-04T21:08:53Z</time></trkpt>
<trkpt lat="35.093735" lon="-85.112567"><ele>295.7</ele><time>2026-08-04T21:08:56Z</time></trkpt>
<trkpt lat="35.093753" lon="-85.112522"><ele>294.4</ele><time>2026-08-04T21:08:59Z</time></trkpt>
<trkpt lat="35.09377" lon="-85.112496"><ele>293.2</ele><time>2026-08-04T21:09:01Z</time></trkpt>
<trkpt lat="35.093779" lon="-85.112451"><ele>293.2</ele><time>2026-08-04T21:09:04Z</time></trkpt>
<trkpt lat="35.093781" lon="-85.112402"><ele>293.5</ele><time>2026-08-04T21:09:07Z</time></trkpt>
<trkpt lat="35.093776" lon="-85.112369"><ele>293.5</ele><time>2026-08-04T21:09:09Z</time></trkpt>
<trkpt lat="35.093771" lon="-85.112328"><ele>292.9</ele><time>2026-08-04T21:09:12Z</time></trkpt>
<trkpt lat="35.093761" lon="-85.112286"><ele>291.4</ele><time>2026-08-04T21:09:15Z</time></trkpt>
<trkpt lat="35.093744" lon="-85.112247"><ele>289.9</ele><time>2026-08-04T21:09:18Z</time></trkpt>
<trkpt lat="35.093719" lon="-85.112229"><ele>289.9</ele><time>2026-08-04T21:09:20Z</time></trkpt>
<trkpt lat="35.093683" lon="-85.112204"><ele>290.2</ele><time>2026-08-04T21:09:23Z</time></trkpt>
<trkpt lat="35.093654" lon="-85.112202"><ele>287.4</ele><time>2026-08-04T21:09:25Z</time></trkpt>
<trkpt lat="35.093617" lon="-85.112188"><ele>282.9</ele><time>2026-08-04T21:09:28Z</time></trkpt>
<trkpt lat="35.093589" lon="-85.112159"><ele>284.1</ele><time>2026-08-04T21:09:31Z</time></trkpt>
<trkpt lat="35.093562" lon="-85.112125"><ele>284.7</ele><time>2026-08-04T21:09:34Z</time></trkpt>
<trkpt lat="35.093539" lon="-85.112103"><ele>285.9</ele><time>2026-08-04T21:09:36Z</time></trkpt>
<trkpt lat="35.093516" lon="-85.112083"><ele>286.5</ele><time>2026-08-04T21:09:38Z</time></trkpt>
<trkpt lat="35.093482" lon="-85.112059"><ele>287.4</ele><time>2026-08-04T21:09:41Z</time></trkpt>
<trkpt lat="35.093457" lon="-85.11203"><ele>289.9</ele><time>2026-08-04T21:09:44Z</time></trkpt>
<trkpt lat="35.093452" lon="-85.11198"><ele>290.5</ele><time>2026-08-04T21:09:47Z</time></trkpt>
<trkpt lat="35.093455" lon="-85.111944"><ele>289.3</ele><time>2026-08-04T21:09:49Z</time></trkpt>
<trkpt lat="35.093449" lon="-85.111911"><ele>291.1</ele><time>2026-08-04T21:09:51Z</time></trkpt>
<trkpt lat="35.093447" lon="-85.111876"><ele>290.5</ele><time>2026-08-04T21:09:53Z</time></trkpt>
<trkpt lat="35.093434" lon="-85.111832"><ele>289.6</ele><time>2026-08-04T21:09:56Z</time></trkpt>
<trkpt lat="35.093407" lon="-85.111794"><ele>290.5</ele><time>2026-08-04T21:09:59Z</time></trkpt>
<trkpt lat="35.093385" lon="-85.111772"><ele>292.3</ele><time>2026-08-04T21:10:01Z</time></trkpt>
<trkpt lat="35.093366" lon="-85.111734"><ele>290.5</ele><time>2026-08-04T21:10:04Z</time></trkpt>
<trkpt lat="35.093347" lon="-85.11169"><ele>290.5</ele><time>2026-08-04T21:10:07Z</time></trkpt>
<trkpt lat="35.093325" lon="-85.111652"><ele>289.3</ele><time>2026-08-04T21:10:10Z</time></trkpt>
<trkpt lat="35.093307" lon="-85.111624"><ele>290.2</ele><time>2026-08-04T21:10:12Z</time></trkpt>
<trkpt lat="35.093288" lon="-85.111598"><ele>291.1</ele><time>2026-08-04T21:10:14Z</time></trkpt>
<trkpt lat="35.093281" lon="-85.111565"><ele>291.7</ele><time>2026-08-04T21:10:16Z</time></trkpt>
<trkpt lat="35.093276" lon="-85.11153"><ele>292.6</ele><time>2026-08-04T21:10:18Z</time></trkpt>
<trkpt lat="35.093284" lon="-85.111492"><ele>292.9</ele><time>2026-08-04T21:10:20Z</time></trkpt>
<trkpt lat="35.0933" lon="-85.111458"><ele>292.3</ele><time>2026-08-04T21:10:22Z</time></trkpt>
<trkpt lat="35.093313" lon="-85.111425"><ele>294.1</ele><time>2026-08-04T21:10:24Z</time></trkpt>
<trkpt lat="35.093334" lon="-85.111394"><ele>293.8</ele><time>2026-08-04T21:10:26Z</time></trkpt>
<trkpt lat="35.093355" lon="-85.111365"><ele>294.1</ele><time>2026-08-04T21:10:28Z</time></trkpt>
<trkpt lat="35.093376" lon="-85.111337"><ele>295.0</ele><time>2026-08-04T21:10:30Z</time></trkpt>
<trkpt lat="35.093401" lon="-85.111313"><ele>295.4</ele><time>2026-08-04T21:10:32Z</time></trkpt>
<trkpt lat="35.093431" lon="-85.111299"><ele>297.5</ele><time>2026-08-04T21:10:34Z</time></trkpt>
<trkpt lat="35.093458" lon="-85.111287"><ele>299.0</ele><time>2026-08-04T21:10:36Z</time></trkpt>
<trkpt lat="35.093497" lon="-85.111277"><ele>298.4</ele><time>2026-08-04T21:10:39Z</time></trkpt>
<trkpt lat="35.093525" lon="-85.111271"><ele>299.6</ele><time>2026-08-04T21:10:41Z</time></trkpt>
<trkpt lat="35.093553" lon="-85.11126"><ele>298.1</ele><time>2026-08-04T21:10:43Z</time></trkpt>
<trkpt lat="35.093581" lon="-85.111257"><ele>297.2</ele><time>2026-08-04T21:10:45Z</time></trkpt>
<trkpt lat="35.093609" lon="-85.111244"><ele>297.5</ele><time>2026-08-04T21:10:47Z</time></trkpt>
<trkpt lat="35.093629" lon="-85.111222"><ele>296.3</ele><time>2026-08-04T21:10:49Z</time></trkpt>
<trkpt lat="35.093664" lon="-85.111202"><ele>297.5</ele><time>2026-08-04T21:10:52Z</time></trkpt>
<trkpt lat="35.093696" lon="-85.111183"><ele>296.6</ele><time>2026-08-04T21:10:55Z</time></trkpt>
<trkpt lat="35.093717" lon="-85.11116"><ele>296.3</ele><time>2026-08-04T21:10:57Z</time></trkpt>
<trkpt lat="35.093753" lon="-85.111147"><ele>299.3</ele><time>2026-08-04T21:11:00Z</time></trkpt>
<trkpt lat="35.093795" lon="-85.111155"><ele>301.4</ele><time>2026-08-04T21:11:03Z</time></trkpt>
<trkpt lat="35.093821" lon="-85.111165"><ele>301.8</ele><time>2026-08-04T21:11:05Z</time></trkpt>
<trkpt lat="35.093859" lon="-85.111164"><ele>300.5</ele><time>2026-08-04T21:11:08Z</time></trkpt>
<trkpt lat="35.093897" lon="-85.111172"><ele>299.0</ele><time>2026-08-04T21:11:11Z</time></trkpt>
<trkpt lat="35.093936" lon="-85.111173"><ele>299.6</ele><time>2026-08-04T21:11:14Z</time></trkpt>
<trkpt lat="35.093973" lon="-85.111186"><ele>300.8</ele><time>2026-08-04T21:11:17Z</time></trkpt>
<trkpt lat="35.094013" lon="-85.111198"><ele>298.4</ele><time>2026-08-04T21:11:20Z</time></trkpt>
<trkpt lat="35.094051" lon="-85.111214"><ele>296.6</ele><time>2026-08-04T21:11:23Z</time></trkpt>
<trkpt lat="35.094079" lon="-85.111202"><ele>296.0</ele><time>2026-08-04T21:11:25Z</time></trkpt>
<trkpt lat="35.094113" lon="-85.11119"><ele>298.4</ele><time>2026-08-04T21:11:28Z</time></trkpt>
<trkpt lat="35.094143" lon="-85.111172"><ele>293.5</ele><time>2026-08-04T21:11:31Z</time></trkpt>
<trkpt lat="35.094155" lon="-85.111172"><ele>289.6</ele><time>2026-08-04T21:11:32Z</time></trkpt>
<trkpt lat="35.094156" lon="-85.111177"><ele>289.6</ele><time>2026-08-04T21:11:33Z</time></trkpt>
<trkpt lat="35.094176" lon="-85.111179"><ele>289.9</ele><time>2026-08-04T21:11:34Z</time></trkpt>
<trkpt lat="35.094205" lon="-85.111196"><ele>289.6</ele><time>2026-08-04T21:11:36Z</time></trkpt>
<trkpt lat="35.094231" lon="-85.111209"><ele>290.5</ele><time>2026-08-04T21:11:38Z</time></trkpt>
<trkpt lat="35.094259" lon="-85.111224"><ele>291.4</ele><time>2026-08-04T21:11:40Z</time></trkpt>
<trkpt lat="35.094291" lon="-85.111236"><ele>290.2</ele><time>2026-08-04T21:11:42Z</time></trkpt>
<trkpt lat="35.09432" lon="-85.111269"><ele>289.9</ele><time>2026-08-04T21:11:44Z</time></trkpt>
<trkpt lat="35.094346" lon="-85.111297"><ele>289.6</ele><time>2026-08-04T21:11:46Z</time></trkpt>
<trkpt lat="35.09437" lon="-85.111321"><ele>289.3</ele><time>2026-08-04T21:11:48Z</time></trkpt>
<trkpt lat="35.094398" lon="-85.111319"><ele>289.6</ele><time>2026-08-04T21:11:50Z</time></trkpt>
<trkpt lat="35.094435" lon="-85.111304"><ele>289.9</ele><time>2026-08-04T21:11:53Z</time></trkpt>
<trkpt lat="35.094466" lon="-85.111277"><ele>290.2</ele><time>2026-08-04T21:11:56Z</time></trkpt>
<trkpt lat="35.094482" lon="-85.111242"><ele>290.8</ele><time>2026-08-04T21:11:59Z</time></trkpt>
<trkpt lat="35.094498" lon="-85.111202"><ele>289.3</ele><time>2026-08-04T21:12:02Z</time></trkpt>
<trkpt lat="35.094507" lon="-85.111156"><ele>290.2</ele><time>2026-08-04T21:12:05Z</time></trkpt>
<trkpt lat="35.09452" lon="-85.111115"><ele>289.0</ele><time>2026-08-04T21:12:08Z</time></trkpt>
<trkpt lat="35.094527" lon="-85.111075"><ele>289.9</ele><time>2026-08-04T21:12:11Z</time></trkpt>
<trkpt lat="35.094544" lon="-85.111036"><ele>289.6</ele><time>2026-08-04T21:12:14Z</time></trkpt>
<trkpt lat="35.094556" lon="-85.111006"><ele>288.6</ele><time>2026-08-04T21:12:16Z</time></trkpt>
<trkpt lat="35.094569" lon="-85.110974"><ele>290.2</ele><time>2026-08-04T21:12:18Z</time></trkpt>
<trkpt lat="35.094581" lon="-85.110932"><ele>288.6</ele><time>2026-08-04T21:12:21Z</time></trkpt>
<trkpt lat="35.094599" lon="-85.110885"><ele>288.0</ele><time>2026-08-04T21:12:24Z</time></trkpt>
<trkpt lat="35.094624" lon="-85.110845"><ele>287.1</ele><time>2026-08-04T21:12:27Z</time></trkpt>
<trkpt lat="35.094644" lon="-85.1108"><ele>287.4</ele><time>2026-08-04T21:12:30Z</time></trkpt>
<trkpt lat="35.094655" lon="-85.110769"><ele>287.4</ele><time>2026-08-04T21:12:32Z</time></trkpt>
<trkpt lat="35.094669" lon="-85.11074"><ele>287.4</ele><time>2026-08-04T21:12:34Z</time></trkpt>
<trkpt lat="35.094692" lon="-85.110703"><ele>286.8</ele><time>2026-08-04T21:12:37Z</time></trkpt>
<trkpt lat="35.094712" lon="-85.110661"><ele>286.5</ele><time>2026-08-04T21:12:40Z</time></trkpt>
<trkpt lat="35.094735" lon="-85.110619"><ele>287.1</ele><time>2026-08-04T21:12:43Z</time></trkpt>
<trkpt lat="35.094755" lon="-85.110578"><ele>285.3</ele><time>2026-08-04T21:12:46Z</time></trkpt>
<trkpt lat="35.094744" lon="-85.110545"><ele>285.0</ele><time>2026-08-04T21:12:48Z</time></trkpt>
<trkpt lat="35.094724" lon="-85.110508"><ele>285.0</ele><time>2026-08-04T21:12:51Z</time></trkpt>
<trkpt lat="35.094708" lon="-85.110468"><ele>286.5</ele><time>2026-08-04T21:12:54Z</time></trkpt>
<trkpt lat="35.094706" lon="-85.110435"><ele>286.8</ele><time>2026-08-04T21:12:56Z</time></trkpt>
<trkpt lat="35.094709" lon="-85.110399"><ele>288.0</ele><time>2026-08-04T21:12:58Z</time></trkpt>
<trkpt lat="35.094699" lon="-85.110353"><ele>290.5</ele><time>2026-08-04T21:13:01Z</time></trkpt>
<trkpt lat="35.094692" lon="-85.110308"><ele>289.3</ele><time>2026-08-04T21:13:04Z</time></trkpt>
<trkpt lat="35.094684" lon="-85.110267"><ele>288.6</ele><time>2026-08-04T21:13:07Z</time></trkpt>
<trkpt lat="35.094667" lon="-85.110239"><ele>289.0</ele><time>2026-08-04T21:13:09Z</time></trkpt>
<trkpt lat="35.094643" lon="-85.11022"><ele>289.3</ele><time>2026-08-04T21:13:11Z</time></trkpt>
<trkpt lat="35.094618" lon="-85.110202"><ele>290.5</ele><time>2026-08-04T21:13:13Z</time></trkpt>
<trkpt lat="35.094591" lon="-85.110175"><ele>286.8</ele><time>2026-08-04T21:13:16Z</time></trkpt>
<trkpt lat="35.094571" lon="-85.110152"><ele>286.2</ele><time>2026-08-04T21:13:18Z</time></trkpt>
<trkpt lat="35.094552" lon="-85.110125"><ele>286.5</ele><time>2026-08-04T21:13:20Z</time></trkpt>
<trkpt lat="35.094524" lon="-85.110092"><ele>285.3</ele><time>2026-08-04T21:13:23Z</time></trkpt>
<trkpt lat="35.094503" lon="-85.110047"><ele>283.5</ele><time>2026-08-04T21:13:26Z</time></trkpt>
<trkpt lat="35.094496" lon="-85.110011"><ele>284.1</ele><time>2026-08-04T21:13:28Z</time></trkpt>
<trkpt lat="35.094489" lon="-85.109978"><ele>285.0</ele><time>2026-08-04T21:13:30Z</time></trkpt>
<trkpt lat="35.09449" lon="-85.109939"><ele>287.7</ele><time>2026-08-04T21:13:32Z</time></trkpt>
<trkpt lat="35.094506" lon="-85.109901"><ele>288.0</ele><time>2026-08-04T21:13:34Z</time></trkpt>
<trkpt lat="35.094526" lon="-85.109872"><ele>289.6</ele><time>2026-08-04T21:13:36Z</time></trkpt>
<trkpt lat="35.094557" lon="-85.109866"><ele>290.8</ele><time>2026-08-04T21:13:38Z</time></trkpt>
<trkpt lat="35.094585" lon="-85.109852"><ele>292.0</ele><time>2026-08-04T21:13:40Z</time></trkpt>
<trkpt lat="35.094611" lon="-85.109837"><ele>290.5</ele><time>2026-08-04T21:13:42Z</time></trkpt>
<trkpt lat="35.094636" lon="-85.109819"><ele>289.3</ele><time>2026-08-04T21:13:44Z</time></trkpt>
<trkpt lat="35.09467" lon="-85.109791"><ele>288.3</ele><time>2026-08-04T21:13:47Z</time></trkpt>
<trkpt lat="35.094706" lon="-85.109759"><ele>289.3</ele><time>2026-08-04T21:13:50Z</time></trkpt>
<trkpt lat="35.094742" lon="-85.109743"><ele>287.4</ele><time>2026-08-04T21:13:53Z</time></trkpt>
<trkpt lat="35.094769" lon="-85.109724"><ele>287.1</ele><time>2026-08-04T21:13:55Z</time></trkpt>
<trkpt lat="35.094791" lon="-85.109694"><ele>287.7</ele><time>2026-08-04T21:13:58Z</time></trkpt>
<trkpt lat="35.094814" lon="-85.109657"><ele>289.9</ele><time>2026-08-04T21:14:01Z</time></trkpt>
<trkpt lat="35.094842" lon="-85.109644"><ele>289.9</ele><time>2026-08-04T21:14:03Z</time></trkpt>
<trkpt lat="35.094865" lon="-85.109622"><ele>289.9</ele><time>2026-08-04T21:14:05Z</time></trkpt>
<trkpt lat="35.094886" lon="-85.109583"><ele>290.2</ele><time>2026-08-04T21:14:08Z</time></trkpt>
<trkpt lat="35.094892" lon="-85.10955"><ele>288.6</ele><time>2026-08-04T21:14:10Z</time></trkpt>
<trkpt lat="35.094904" lon="-85.109511"><ele>286.8</ele><time>2026-08-04T21:14:13Z</time></trkpt>
<trkpt lat="35.094914" lon="-85.109464"><ele>287.7</ele><time>2026-08-04T21:14:16Z</time></trkpt>
<trkpt lat="35.094922" lon="-85.109416"><ele>287.7</ele><time>2026-08-04T21:14:19Z</time></trkpt>
<trkpt lat="35.094931" lon="-85.10938"><ele>285.9</ele><time>2026-08-04T21:14:21Z</time></trkpt>
<trkpt lat="35.094941" lon="-85.109349"><ele>285.0</ele><time>2026-08-04T21:14:23Z</time></trkpt>
<trkpt lat="35.094953" lon="-85.109315"><ele>286.2</ele><time>2026-08-04T21:14:25Z</time></trkpt>
<trkpt lat="35.094968" lon="-85.109285"><ele>285.6</ele><time>2026-08-04T21:14:27Z</time></trkpt>
<trkpt lat="35.094976" lon="-85.109236"><ele>285.3</ele><time>2026-08-04T21:14:30Z</time></trkpt>
<trkpt lat="35.094981" lon="-85.109187"><ele>285.3</ele><time>2026-08-04T21:14:33Z</time></trkpt>
<trkpt lat="35.094982" lon="-85.109138"><ele>284.1</ele><time>2026-08-04T21:14:36Z</time></trkpt>
<trkpt lat="35.094961" lon="-85.109113"><ele>284.7</ele><time>2026-08-04T21:14:38Z</time></trkpt>
<trkpt lat="35.094937" lon="-85.109074"><ele>285.6</ele><time>2026-08-04T21:14:41Z</time></trkpt>
<trkpt lat="35.094932" lon="-85.10904"><ele>286.5</ele><time>2026-08-04T21:14:43Z</time></trkpt>
<trkpt lat="35.094937" lon="-85.109006"><ele>287.4</ele><time>2026-08-04T21:14:45Z</time></trkpt>
<trkpt lat="35.094945" lon="-85.108975"><ele>286.5</ele><time>2026-08-04T21:14:47Z</time></trkpt>
<trkpt lat="35.094932" lon="-85.108936"><ele>286.2</ele><time>2026-08-04T21:14:49Z</time></trkpt>
<trkpt lat="35.094931" lon="-85.108901"><ele>286.2</ele><time>2026-08-04T21:14:51Z</time></trkpt>
<trkpt lat="35.094934" lon="-85.108866"><ele>286.2</ele><time>2026-08-04T21:14:53Z</time></trkpt>
<trkpt lat="35.094959" lon="-85.108839"><ele>285.0</ele><time>2026-08-04T21:14:55Z</time></trkpt>
<trkpt lat="35.094983" lon="-85.108822"><ele>283.5</ele><time>2026-08-04T21:14:57Z</time></trkpt>
<trkpt lat="35.095017" lon="-85.108838"><ele>280.7</ele><time>2026-08-04T21:14:59Z</time></trkpt>
<trkpt lat="35.095044" lon="-85.108856"><ele>279.2</ele><time>2026-08-04T21:15:01Z</time></trkpt>
<trkpt lat="35.095075" lon="-85.108863"><ele>279.8</ele><time>2026-08-04T21:15:04Z</time></trkpt>
<trkpt lat="35.095106" lon="-85.108854"><ele>282.5</ele><time>2026-08-04T21:15:08Z</time></trkpt>
<trkpt lat="35.095138" lon="-85.108852"><ele>282.5</ele><time>2026-08-04T21:15:11Z</time></trkpt>
<trkpt lat="35.09517" lon="-85.108844"><ele>280.4</ele><time>2026-08-04T21:15:14Z</time></trkpt>
<trkpt lat="35.0952" lon="-85.108831"><ele>281.6</ele><time>2026-08-04T21:15:17Z</time></trkpt>
<trkpt lat="35.095227" lon="-85.108812"><ele>282.5</ele><time>2026-08-04T21:15:20Z</time></trkpt>
<trkpt lat="35.09525" lon="-85.108793"><ele>282.9</ele><time>2026-08-04T21:15:22Z</time></trkpt>
<trkpt lat="35.095277" lon="-85.108772"><ele>285.0</ele><time>2026-08-04T21:15:24Z</time></trkpt>
<trkpt lat="35.095298" lon="-85.108748"><ele>285.3</ele><time>2026-08-04T21:15:26Z</time></trkpt>
<trkpt lat="35.095325" lon="-85.108734"><ele>284.7</ele><time>2026-08-04T21:15:28Z</time></trkpt>
<trkpt lat="35.095358" lon="-85.108707"><ele>283.5</ele><time>2026-08-04T21:15:31Z</time></trkpt>
<trkpt lat="35.095379" lon="-85.108671"><ele>282.9</ele><time>2026-08-04T21:15:34Z</time></trkpt>
<trkpt lat="35.095388" lon="-85.108635"><ele>280.1</ele><time>2026-08-04T21:15:37Z</time></trkpt>
<trkpt lat="35.095388" lon="-85.108597"><ele>277.7</ele><time>2026-08-04T21:15:40Z</time></trkpt>
<trkpt lat="35.095363" lon="-85.108574"><ele>276.5</ele><time>2026-08-04T21:15:43Z</time></trkpt>
<trkpt lat="35.095335" lon="-85.10856"><ele>276.8</ele><time>2026-08-04T21:15:46Z</time></trkpt>
<trkpt lat="35.095322" lon="-85.108523"><ele>277.1</ele><time>2026-08-04T21:15:49Z</time></trkpt>
<trkpt lat="35.095305" lon="-85.10848"><ele>276.1</ele><time>2026-08-04T21:15:52Z</time></trkpt>
<trkpt lat="35.095286" lon="-85.108443"><ele>277.1</ele><time>2026-08-04T21:15:55Z</time></trkpt>
<trkpt lat="35.095261" lon="-85.108411"><ele>275.8</ele><time>2026-08-04T21:15:58Z</time></trkpt>
<trkpt lat="35.095256" lon="-85.108378"><ele>275.2</ele><time>2026-08-04T21:16:00Z</time></trkpt>
<trkpt lat="35.09526" lon="-85.108345"><ele>275.5</ele><time>2026-08-04T21:16:02Z</time></trkpt>
<trkpt lat="35.095268" lon="-85.108308"><ele>276.8</ele><time>2026-08-04T21:16:04Z</time></trkpt>
<trkpt lat="35.095281" lon="-85.108276"><ele>277.4</ele><time>2026-08-04T21:16:06Z</time></trkpt>
<trkpt lat="35.095295" lon="-85.108245"><ele>277.7</ele><time>2026-08-04T21:16:08Z</time></trkpt>
<trkpt lat="35.095319" lon="-85.108217"><ele>277.1</ele><time>2026-08-04T21:16:10Z</time></trkpt>
<trkpt lat="35.095354" lon="-85.108198"><ele>275.8</ele><time>2026-08-04T21:16:13Z</time></trkpt>
<trkpt lat="35.095383" lon="-85.108193"><ele>276.5</ele><time>2026-08-04T21:16:15Z</time></trkpt>
<trkpt lat="35.09541" lon="-85.108179"><ele>276.5</ele><time>2026-08-04T21:16:17Z</time></trkpt>
<trkpt lat="35.095424" lon="-85.108146"><ele>276.8</ele><time>2026-08-04T21:16:19Z</time></trkpt>
<trkpt lat="35.095429" lon="-85.108105"><ele>277.1</ele><time>2026-08-04T21:16:21Z</time></trkpt>
<trkpt lat="35.095445" lon="-85.108077"><ele>278.3</ele><time>2026-08-04T21:16:23Z</time></trkpt>
<trkpt lat="35.095474" lon="-85.108054"><ele>278.0</ele><time>2026-08-04T21:16:26Z</time></trkpt>
<trkpt lat="35.095504" lon="-85.108053"><ele>276.8</ele><time>2026-08-04T21:16:29Z</time></trkpt>
<trkpt lat="35.095521" lon="-85.108017"><ele>278.0</ele><time>2026-08-04T21:16:31Z</time></trkpt>
<trkpt lat="35.095546" lon="-85.107999"><ele>277.7</ele><time>2026-08-04T21:16:33Z</time></trkpt>
<trkpt lat="35.09557" lon="-85.107965"><ele>278.3</ele><time>2026-08-04T21:16:36Z</time></trkpt>
<trkpt lat="35.095598" lon="-85.107942"><ele>279.5</ele><time>2026-08-04T21:16:38Z</time></trkpt>
<trkpt lat="35.095624" lon="-85.107929"><ele>278.9</ele><time>2026-08-04T21:16:40Z</time></trkpt>
<trkpt lat="35.095652" lon="-85.107897"><ele>277.7</ele><time>2026-08-04T21:16:43Z</time></trkpt>
<trkpt lat="35.095659" lon="-85.107864"><ele>277.7</ele><time>2026-08-04T21:16:45Z</time></trkpt>
<trkpt lat="35.095656" lon="-85.107826"><ele>276.1</ele><time>2026-08-04T21:16:48Z</time></trkpt>
<trkpt lat="35.095685" lon="-85.107787"><ele>276.1</ele><time>2026-08-04T21:16:51Z</time></trkpt>
<trkpt lat="35.095717" lon="-85.107769"><ele>274.9</ele><time>2026-08-04T21:16:53Z</time></trkpt>
<trkpt lat="35.095738" lon="-85.107741"><ele>275.2</ele><time>2026-08-04T21:16:55Z</time></trkpt>
<trkpt lat="35.095765" lon="-85.107709"><ele>274.6</ele><time>2026-08-04T21:16:58Z</time></trkpt>
<trkpt lat="35.095789" lon="-85.107674"><ele>275.2</ele><time>2026-08-04T21:17:01Z</time></trkpt>
<trkpt lat="35.095814" lon="-85.107638"><ele>274.9</ele><time>2026-08-04T21:17:04Z</time></trkpt>
<trkpt lat="35.095831" lon="-85.107595"><ele>275.2</ele><time>2026-08-04T21:17:07Z</time></trkpt>
<trkpt lat="35.095842" lon="-85.107555"><ele>277.1</ele><time>2026-08-04T21:17:10Z</time></trkpt>
<trkpt lat="35.095869" lon="-85.107537"><ele>276.5</ele><time>2026-08-04T21:17:12Z</time></trkpt>
<trkpt lat="35.095896" lon="-85.10752"><ele>274.3</ele><time>2026-08-04T21:17:14Z</time></trkpt>
<trkpt lat="35.095916" lon="-85.107495"><ele>273.7</ele><time>2026-08-04T21:17:16Z</time></trkpt>
<trkpt lat="35.095949" lon="-85.107464"><ele>271.0</ele><time>2026-08-04T21:17:19Z</time></trkpt>
<trkpt lat="35.095968" lon="-85.107431"><ele>270.7</ele><time>2026-08-04T21:17:22Z</time></trkpt>
<trkpt lat="35.09597" lon="-85.107389"><ele>269.7</ele><time>2026-08-04T21:17:25Z</time></trkpt>
<trkpt lat="35.095968" lon="-85.107353"><ele>269.4</ele><time>2026-08-04T21:17:27Z</time></trkpt>
<trkpt lat="35.095958" lon="-85.107308"><ele>267.9</ele><time>2026-08-04T21:17:30Z</time></trkpt>
<trkpt lat="35.095975" lon="-85.107263"><ele>267.9</ele><time>2026-08-04T21:17:33Z</time></trkpt>
<trkpt lat="35.095991" lon="-85.107232"><ele>269.1</ele><time>2026-08-04T21:17:35Z</time></trkpt>
<trkpt lat="35.095997" lon="-85.107198"><ele>269.1</ele><time>2026-08-04T21:17:37Z</time></trkpt>
<trkpt lat="35.095999" lon="-85.107163"><ele>269.4</ele><time>2026-08-04T21:17:39Z</time></trkpt>
<trkpt lat="35.096002" lon="-85.107128"><ele>271.0</ele><time>2026-08-04T21:17:41Z</time></trkpt>
<trkpt lat="35.096004" lon="-85.107092"><ele>271.9</ele><time>2026-08-04T21:17:43Z</time></trkpt>
<trkpt lat="35.095992" lon="-85.107055"><ele>272.8</ele><time>2026-08-04T21:17:45Z</time></trkpt>
<trkpt lat="35.096003" lon="-85.107023"><ele>271.9</ele><time>2026-08-04T21:17:47Z</time></trkpt>
<trkpt lat="35.096" lon="-85.106975"><ele>271.3</ele><time>2026-08-04T21:17:50Z</time></trkpt>
<trkpt lat="35.096" lon="-85.10693"><ele>271.9</ele><time>2026-08-04T21:17:53Z</time></trkpt>
<trkpt lat="35.096012" lon="-85.106896"><ele>270.7</ele><time>2026-08-04T21:17:55Z</time></trkpt>
<trkpt lat="35.09602" lon="-85.106851"><ele>269.4</ele><time>2026-08-04T21:17:58Z</time></trkpt>
<trkpt lat="35.096024" lon="-85.106803"><ele>268.5</ele><time>2026-08-04T21:18:01Z</time></trkpt>
<trkpt lat="35.096023" lon="-85.106757"><ele>271.0</ele><time>2026-08-04T21:18:04Z</time></trkpt>
<trkpt lat="35.096011" lon="-85.106712"><ele>271.3</ele><time>2026-08-04T21:18:07Z</time></trkpt>
<trkpt lat="35.095998" lon="-85.106677"><ele>266.7</ele><time>2026-08-04T21:18:11Z</time></trkpt>
<trkpt lat="35.095987" lon="-85.106639"><ele>267.0</ele><time>2026-08-04T21:18:14Z</time></trkpt>
<trkpt lat="35.095977" lon="-85.106604"><ele>266.7</ele><time>2026-08-04T21:18:17Z</time></trkpt>
<trkpt lat="35.09599" lon="-85.106573"><ele>267.0</ele><time>2026-08-04T21:18:19Z</time></trkpt>
<trkpt lat="35.096001" lon="-85.106537"><ele>267.0</ele><time>2026-08-04T21:18:21Z</time></trkpt>
<trkpt lat="35.096008" lon="-85.106493"><ele>267.0</ele><time>2026-08-04T21:18:24Z</time></trkpt>
<trkpt lat="35.096024" lon="-85.106455"><ele>266.7</ele><time>2026-08-04T21:18:26Z</time></trkpt>
<trkpt lat="35.096043" lon="-85.106423"><ele>265.2</ele><time>2026-08-04T21:18:29Z</time></trkpt>
<trkpt lat="35.096067" lon="-85.106392"><ele>264.6</ele><time>2026-08-04T21:18:32Z</time></trkpt>
<trkpt lat="35.096103" lon="-85.106375"><ele>263.7</ele><time>2026-08-04T21:18:35Z</time></trkpt>
<trkpt lat="35.09614" lon="-85.106364"><ele>264.0</ele><time>2026-08-04T21:18:38Z</time></trkpt>
<trkpt lat="35.096173" lon="-85.106366"><ele>265.5</ele><time>2026-08-04T21:18:41Z</time></trkpt>
<trkpt lat="35.096207" lon="-85.106365"><ele>266.7</ele><time>2026-08-04T21:18:44Z</time></trkpt>
<trkpt lat="35.096241" lon="-85.106353"><ele>267.9</ele><time>2026-08-04T21:18:47Z</time></trkpt>
<trkpt lat="35.096266" lon="-85.106339"><ele>269.7</ele><time>2026-08-04T21:18:49Z</time></trkpt>
<trkpt lat="35.096298" lon="-85.106316"><ele>269.1</ele><time>2026-08-04T21:18:52Z</time></trkpt>
<trkpt lat="35.096329" lon="-85.106291"><ele>269.4</ele><time>2026-08-04T21:18:55Z</time></trkpt>
<trkpt lat="35.096359" lon="-85.106274"><ele>270.1</ele><time>2026-08-04T21:18:58Z</time></trkpt>
<trkpt lat="35.096386" lon="-85.106253"><ele>270.7</ele><time>2026-08-04T21:19:01Z</time></trkpt>
<trkpt lat="35.096416" lon="-85.106242"><ele>269.7</ele><time>2026-08-04T21:19:04Z</time></trkpt>
<trkpt lat="35.09645" lon="-85.106229"><ele>270.1</ele><time>2026-08-04T21:19:07Z</time></trkpt>
<trkpt lat="35.096479" lon="-85.106208"><ele>271.3</ele><time>2026-08-04T21:19:10Z</time></trkpt>
<trkpt lat="35.096511" lon="-85.10618"><ele>271.6</ele><time>2026-08-04T21:19:13Z</time></trkpt>
<trkpt lat="35.096535" lon="-85.106142"><ele>270.7</ele><time>2026-08-04T21:19:16Z</time></trkpt>
<trkpt lat="35.096561" lon="-85.106122"><ele>270.1</ele><time>2026-08-04T21:19:18Z</time></trkpt>
<trkpt lat="35.09659" lon="-85.106113"><ele>271.3</ele><time>2026-08-04T21:19:20Z</time></trkpt>
<trkpt lat="35.096629" lon="-85.106123"><ele>271.9</ele><time>2026-08-04T21:19:23Z</time></trkpt>
<trkpt lat="35.096663" lon="-85.106131"><ele>272.8</ele><time>2026-08-04T21:19:26Z</time></trkpt>
<trkpt lat="35.096684" lon="-85.106162"><ele>273.4</ele><time>2026-08-04T21:19:28Z</time></trkpt>
<trkpt lat="35.096709" lon="-85.106186"><ele>273.7</ele><time>2026-08-04T21:19:31Z</time></trkpt>
<trkpt lat="35.096734" lon="-85.106189"><ele>272.8</ele><time>2026-08-04T21:19:33Z</time></trkpt>
<trkpt lat="35.096737" lon="-85.106189"><ele>272.8</ele><time>2026-08-04T21:19:34Z</time></trkpt>
<trkpt lat="35.096737" lon="-85.106189"><ele>272.8</ele><time>2026-08-04T21:19:35Z</time></trkpt>
<trkpt lat="35.096742" lon="-85.106185"><ele>273.4</ele><time>2026-08-04T21:19:36Z</time></trkpt>
<trkpt lat="35.096768" lon="-85.106166"><ele>273.1</ele><time>2026-08-04T21:19:39Z</time></trkpt>
<trkpt lat="35.096798" lon="-85.10617"><ele>270.4</ele><time>2026-08-04T21:19:42Z</time></trkpt>
<trkpt lat="35.096823" lon="-85.106199"><ele>271.0</ele><time>2026-08-04T21:19:45Z</time></trkpt>
<trkpt lat="35.096804" lon="-85.106239"><ele>274.9</ele><time>2026-08-04T21:19:48Z</time></trkpt>
<trkpt lat="35.096792" lon="-85.106273"><ele>274.6</ele><time>2026-08-04T21:19:50Z</time></trkpt>
<trkpt lat="35.096805" lon="-85.106302"><ele>275.5</ele><time>2026-08-04T21:19:53Z</time></trkpt>
<trkpt lat="35.096829" lon="-85.106324"><ele>277.1</ele><time>2026-08-04T21:19:57Z</time></trkpt>
<trkpt lat="35.096854" lon="-85.106339"><ele>276.8</ele><time>2026-08-04T21:20:00Z</time></trkpt>
<trkpt lat="35.096877" lon="-85.106358"><ele>277.1</ele><time>2026-08-04T21:20:03Z</time></trkpt>
<trkpt lat="35.096893" lon="-85.106388"><ele>276.8</ele><time>2026-08-04T21:20:06Z</time></trkpt>
<trkpt lat="35.096907" lon="-85.106431"><ele>278.9</ele><time>2026-08-04T21:20:10Z</time></trkpt>
<trkpt lat="35.096933" lon="-85.106446"><ele>278.6</ele><time>2026-08-04T21:20:13Z</time></trkpt>
<trkpt lat="35.096963" lon="-85.10646"><ele>278.0</ele><time>2026-08-04T21:20:16Z</time></trkpt>
<trkpt lat="35.09699" lon="-85.10649"><ele>276.8</ele><time>2026-08-04T21:20:19Z</time></trkpt>
<trkpt lat="35.096989" lon="-85.106529"><ele>277.4</ele><time>2026-08-04T21:20:22Z</time></trkpt>
<trkpt lat="35.096968" lon="-85.106564"><ele>279.8</ele><time>2026-08-04T21:20:25Z</time></trkpt>
<trkpt lat="35.096945" lon="-85.106601"><ele>279.8</ele><time>2026-08-04T21:20:28Z</time></trkpt>
<trkpt lat="35.096919" lon="-85.10664"><ele>280.7</ele><time>2026-08-04T21:20:31Z</time></trkpt>
<trkpt lat="35.096904" lon="-85.106682"><ele>280.7</ele><time>2026-08-04T21:20:34Z</time></trkpt>
<trkpt lat="35.096916" lon="-85.106728"><ele>282.5</ele><time>2026-08-04T21:20:37Z</time></trkpt>
<trkpt lat="35.09694" lon="-85.10676"><ele>285.0</ele><time>2026-08-04T21:20:40Z</time></trkpt>
<trkpt lat="35.096971" lon="-85.106781"><ele>285.6</ele><time>2026-08-04T21:20:43Z</time></trkpt>
<trkpt lat="35.097009" lon="-85.106797"><ele>284.4</ele><time>2026-08-04T21:20:46Z</time></trkpt>
<trkpt lat="35.097038" lon="-85.10681"><ele>285.9</ele><time>2026-08-04T21:20:48Z</time></trkpt>
<trkpt lat="35.097066" lon="-85.106817"><ele>284.4</ele><time>2026-08-04T21:20:50Z</time></trkpt>
<trkpt lat="35.097092" lon="-85.106831"><ele>285.3</ele><time>2026-08-04T21:20:52Z</time></trkpt>
<trkpt lat="35.097126" lon="-85.106855"><ele>285.0</ele><time>2026-08-04T21:20:55Z</time></trkpt>
<trkpt lat="35.097161" lon="-85.106877"><ele>284.1</ele><time>2026-08-04T21:20:58Z</time></trkpt>
<trkpt lat="35.097198" lon="-85.106886"><ele>284.1</ele><time>2026-08-04T21:21:01Z</time></trkpt>
<trkpt lat="35.097237" lon="-85.106883"><ele>283.8</ele><time>2026-08-04T21:21:04Z</time></trkpt>
<trkpt lat="35.097272" lon="-85.106894"><ele>283.5</ele><time>2026-08-04T21:21:07Z</time></trkpt>
<trkpt lat="35.097298" lon="-85.106931"><ele>284.1</ele><time>2026-08-04T21:21:10Z</time></trkpt>
<trkpt lat="35.097313" lon="-85.106963"><ele>283.8</ele><time>2026-08-04T21:21:12Z</time></trkpt>
<trkpt lat="35.097323" lon="-85.107007"><ele>284.1</ele><time>2026-08-04T21:21:15Z</time></trkpt>
<trkpt lat="35.097338" lon="-85.107046"><ele>285.9</ele><time>2026-08-04T21:21:18Z</time></trkpt>
<trkpt lat="35.097361" lon="-85.107081"><ele>286.8</ele><time>2026-08-04T21:21:21Z</time></trkpt>
<trkpt lat="35.097383" lon="-85.107103"><ele>287.1</ele><time>2026-08-04T21:21:23Z</time></trkpt>
<trkpt lat="35.097407" lon="-85.107135"><ele>288.6</ele><time>2026-08-04T21:21:26Z</time></trkpt>
<trkpt lat="35.097439" lon="-85.107163"><ele>287.7</ele><time>2026-08-04T21:21:29Z</time></trkpt>
<trkpt lat="35.097466" lon="-85.107175"><ele>286.5</ele><time>2026-08-04T21:21:31Z</time></trkpt>
<trkpt lat="35.097503" lon="-85.107189"><ele>285.0</ele><time>2026-08-04T21:21:34Z</time></trkpt>
<trkpt lat="35.097527" lon="-85.107207"><ele>284.1</ele><time>2026-08-04T21:21:36Z</time></trkpt>
<trkpt lat="35.097559" lon="-85.107237"><ele>283.2</ele><time>2026-08-04T21:21:39Z</time></trkpt>
<trkpt lat="35.097583" lon="-85.107259"><ele>283.2</ele><time>2026-08-04T21:21:41Z</time></trkpt>
<trkpt lat="35.097619" lon="-85.107281"><ele>283.2</ele><time>2026-08-04T21:21:44Z</time></trkpt>
<trkpt lat="35.097644" lon="-85.107299"><ele>282.9</ele><time>2026-08-04T21:21:46Z</time></trkpt>
<trkpt lat="35.097663" lon="-85.107325"><ele>281.9</ele><time>2026-08-04T21:21:48Z</time></trkpt>
<trkpt lat="35.09767" lon="-85.107361"><ele>280.4</ele><time>2026-08-04T21:21:50Z</time></trkpt>
<trkpt lat="35.097677" lon="-85.107396"><ele>280.1</ele><time>2026-08-04T21:21:52Z</time></trkpt>
<trkpt lat="35.097687" lon="-85.107442"><ele>281.3</ele><time>2026-08-04T21:21:55Z</time></trkpt>
<trkpt lat="35.097707" lon="-85.107481"><ele>280.7</ele><time>2026-08-04T21:21:58Z</time></trkpt>
<trkpt lat="35.097733" lon="-85.107514"><ele>281.0</ele><time>2026-08-04T21:22:01Z</time></trkpt>
<trkpt lat="35.097758" lon="-85.107546"><ele>282.9</ele><time>2026-08-04T21:22:04Z</time></trkpt>
<trkpt lat="35.097772" lon="-85.107588"><ele>284.7</ele><time>2026-08-04T21:22:07Z</time></trkpt>
<trkpt lat="35.097775" lon="-85.107629"><ele>285.0</ele><time>2026-08-04T21:22:10Z</time></trkpt>
<trkpt lat="35.097784" lon="-85.107671"><ele>287.4</ele><time>2026-08-04T21:22:13Z</time></trkpt>
<trkpt lat="35.097801" lon="-85.107706"><ele>287.7</ele><time>2026-08-04T21:22:16Z</time></trkpt>
<trkpt lat="35.097821" lon="-85.10774"><ele>287.4</ele><time>2026-08-04T21:22:19Z</time></trkpt>
<trkpt lat="35.097848" lon="-85.107771"><ele>289.0</ele><time>2026-08-04T21:22:22Z</time></trkpt>
<trkpt lat="35.097875" lon="-85.107802"><ele>289.3</ele><time>2026-08-04T21:22:25Z</time></trkpt>
<trkpt lat="35.097896" lon="-85.107823"><ele>289.0</ele><time>2026-08-04T21:22:27Z</time></trkpt>
<trkpt lat="35.09791" lon="-85.107867"><ele>288.3</ele><time>2026-08-04T21:22:30Z</time></trkpt>
<trkpt lat="35.097914" lon="-85.107915"><ele>289.0</ele><time>2026-08-04T21:22:33Z</time></trkpt>
<trkpt lat="35.097937" lon="-85.107947"><ele>288.6</ele><time>2026-08-04T21:22:36Z</time></trkpt>
<trkpt lat="35.097969" lon="-85.107973"><ele>291.4</ele><time>2026-08-04T21:22:39Z</time></trkpt>
<trkpt lat="35.098006" lon="-85.107989"><ele>292.6</ele><time>2026-08-04T21:22:42Z</time></trkpt>
<trkpt lat="35.098042" lon="-85.108001"><ele>292.3</ele><time>2026-08-04T21:22:45Z</time></trkpt>
<trkpt lat="35.098061" lon="-85.108026"><ele>290.8</ele><time>2026-08-04T21:22:47Z</time></trkpt>
<trkpt lat="35.098073" lon="-85.108056"><ele>290.5</ele><time>2026-08-04T21:22:49Z</time></trkpt>
<trkpt lat="35.098089" lon="-85.108087"><ele>289.9</ele><time>2026-08-04T21:22:51Z</time></trkpt>
<trkpt lat="35.098109" lon="-85.10811"><ele>290.8</ele><time>2026-08-04T21:22:53Z</time></trkpt>
<trkpt lat="35.09814" lon="-85.108138"><ele>291.1</ele><time>2026-08-04T21:22:56Z</time></trkpt>
<trkpt lat="35.098165" lon="-85.108176"><ele>291.4</ele><time>2026-08-04T21:22:59Z</time></trkpt>
<trkpt lat="35.098172" lon="-85.108211"><ele>290.8</ele><time>2026-08-04T21:23:01Z</time></trkpt>
<trkpt lat="35.098183" lon="-85.108255"><ele>289.0</ele><time>2026-08-04T21:23:04Z</time></trkpt>
<trkpt lat="35.098198" lon="-85.108296"><ele>289.3</ele><time>2026-08-04T21:23:07Z</time></trkpt>
<trkpt lat="35.098225" lon="-85.10833"><ele>289.6</ele><time>2026-08-04T21:23:10Z</time></trkpt>
<trkpt lat="35.09826" lon="-85.108354"><ele>289.6</ele><time>2026-08-04T21:23:13Z</time></trkpt>
<trkpt lat="35.098293" lon="-85.108372"><ele>289.6</ele><time>2026-08-04T21:23:16Z</time></trkpt>
<trkpt lat="35.098327" lon="-85.108391"><ele>289.9</ele><time>2026-08-04T21:23:19Z</time></trkpt>
<trkpt lat="35.098358" lon="-85.108412"><ele>289.3</ele><time>2026-08-04T21:23:22Z</time></trkpt>
<trkpt lat="35.098383" lon="-85.108448"><ele>290.5</ele><time>2026-08-04T21:23:25Z</time></trkpt>
<trkpt lat="35.098403" lon="-85.108483"><ele>290.5</ele><time>2026-08-04T21:23:28Z</time></trkpt>
<trkpt lat="35.098423" lon="-85.108519"><ele>291.4</ele><time>2026-08-04T21:23:31Z</time></trkpt>
<trkpt lat="35.098453" lon="-85.108554"><ele>291.7</ele><time>2026-08-04T21:23:34Z</time></trkpt>
<trkpt lat="35.098473" lon="-85.108599"><ele>291.7</ele><time>2026-08-04T21:23:37Z</time></trkpt>
<trkpt lat="35.098485" lon="-85.108632"><ele>292.9</ele><time>2026-08-04T21:23:39Z</time></trkpt>
<trkpt lat="35.098502" lon="-85.108661"><ele>292.0</ele><time>2026-08-04T21:23:41Z</time></trkpt>
<trkpt lat="35.098524" lon="-85.108682"><ele>292.0</ele><time>2026-08-04T21:23:43Z</time></trkpt>
<trkpt lat="35.098562" lon="-85.108697"><ele>291.1</ele><time>2026-08-04T21:23:46Z</time></trkpt>
<trkpt lat="35.098603" lon="-85.108698"><ele>289.9</ele><time>2026-08-04T21:23:49Z</time></trkpt>
<trkpt lat="35.098636" lon="-85.108725"><ele>291.1</ele><time>2026-08-04T21:23:52Z</time></trkpt>
<trkpt lat="35.098632" lon="-85.108763"><ele>291.4</ele><time>2026-08-04T21:23:54Z</time></trkpt>
<trkpt lat="35.098617" lon="-85.108795"><ele>292.9</ele><time>2026-08-04T21:23:56Z</time></trkpt>
<trkpt lat="35.098603" lon="-85.108841"><ele>292.9</ele><time>2026-08-04T21:23:59Z</time></trkpt>
<trkpt lat="35.098583" lon="-85.108884"><ele>292.6</ele><time>2026-08-04T21:24:02Z</time></trkpt>
<trkpt lat="35.098575" lon="-85.108917"><ele>295.7</ele><time>2026-08-04T21:24:04Z</time></trkpt>
<trkpt lat="35.098564" lon="-85.108949"><ele>295.0</ele><time>2026-08-04T21:24:06Z</time></trkpt>
<trkpt lat="35.098543" lon="-85.108993"><ele>297.2</ele><time>2026-08-04T21:24:09Z</time></trkpt>
<trkpt lat="35.098532" lon="-85.109027"><ele>298.1</ele><time>2026-08-04T21:24:11Z</time></trkpt>
<trkpt lat="35.098519" lon="-85.109075"><ele>298.1</ele><time>2026-08-04T21:24:14Z</time></trkpt>
<trkpt lat="35.098507" lon="-85.10912"><ele>296.6</ele><time>2026-08-04T21:24:17Z</time></trkpt>
<trkpt lat="35.098494" lon="-85.109167"><ele>296.3</ele><time>2026-08-04T21:24:20Z</time></trkpt>
<trkpt lat="35.098468" lon="-85.109205"><ele>296.9</ele><time>2026-08-04T21:24:23Z</time></trkpt>
<trkpt lat="35.098442" lon="-85.109239"><ele>299.0</ele><time>2026-08-04T21:24:26Z</time></trkpt>
<trkpt lat="35.098441" lon="-85.109247"><ele>298.1</ele><time>2026-08-04T21:24:27Z</time></trkpt>
<trkpt lat="35.09844" lon="-85.109251"><ele>298.4</ele><time>2026-08-04T21:24:29Z</time></trkpt>
<trkpt lat="35.098438" lon="-85.109257"><ele>298.1</ele><time>2026-08-04T21:24:30Z</time></trkpt>
<trkpt lat="35.098405" lon="-85.109265"><ele>297.5</ele><time>2026-08-04T21:24:33Z</time></trkpt>
<trkpt lat="35.098371" lon="-85.109269"><ele>294.1</ele><time>2026-08-04T21:24:36Z</time></trkpt>
<trkpt lat="35.098352" lon="-85.10931"><ele>294.1</ele><time>2026-08-04T21:24:39Z</time></trkpt>
<trkpt lat="35.09837" lon="-85.109336"><ele>294.1</ele><time>2026-08-04T21:24:41Z</time></trkpt>
<trkpt lat="35.098394" lon="-85.10937"><ele>294.1</ele><time>2026-08-04T21:24:44Z</time></trkpt>
<trkpt lat="35.098396" lon="-85.109407"><ele>294.1</ele><time>2026-08-04T21:24:46Z</time></trkpt>
<trkpt lat="35.09838" lon="-85.109447"><ele>294.4</ele><time>2026-08-04T21:24:49Z</time></trkpt>
<trkpt lat="35.098343" lon="-85.109453"><ele>294.4</ele><time>2026-08-04T21:24:52Z</time></trkpt>
<trkpt lat="35.098313" lon="-85.109444"><ele>290.2</ele><time>2026-08-04T21:24:55Z</time></trkpt>
<trkpt lat="35.098281" lon="-85.109455"><ele>290.8</ele><time>2026-08-04T21:24:58Z</time></trkpt>
<trkpt lat="35.098244" lon="-85.109474"><ele>290.8</ele><time>2026-08-04T21:25:01Z</time></trkpt>
<trkpt lat="35.098206" lon="-85.109468"><ele>290.2</ele><time>2026-08-04T21:25:04Z</time></trkpt>
<trkpt lat="35.09817" lon="-85.109455"><ele>290.8</ele><time>2026-08-04T21:25:07Z</time></trkpt>
<trkpt lat="35.098134" lon="-85.109441"><ele>290.8</ele><time>2026-08-04T21:25:10Z</time></trkpt>
<trkpt lat="35.098095" lon="-85.109451"><ele>292.6</ele><time>2026-08-04T21:25:13Z</time></trkpt>
<trkpt lat="35.09808" lon="-85.109483"><ele>292.3</ele><time>2026-08-04T21:25:15Z</time></trkpt>
<trkpt lat="35.098076" lon="-85.109524"><ele>290.2</ele><time>2026-08-04T21:25:17Z</time></trkpt>
<trkpt lat="35.098066" lon="-85.109559"><ele>289.0</ele><time>2026-08-04T21:25:19Z</time></trkpt>
<trkpt lat="35.098044" lon="-85.109581"><ele>287.1</ele><time>2026-08-04T21:25:21Z</time></trkpt>
<trkpt lat="35.098008" lon="-85.109588"><ele>288.3</ele><time>2026-08-04T21:25:24Z</time></trkpt>
<trkpt lat="35.097983" lon="-85.109571"><ele>289.0</ele><time>2026-08-04T21:25:26Z</time></trkpt>
<trkpt lat="35.097956" lon="-85.109546"><ele>289.6</ele><time>2026-08-04T21:25:29Z</time></trkpt>
<trkpt lat="35.097925" lon="-85.109533"><ele>288.6</ele><time>2026-08-04T21:25:32Z</time></trkpt>
<trkpt lat="35.097889" lon="-85.109537"><ele>288.6</ele><time>2026-08-04T21:25:35Z</time></trkpt>
<trkpt lat="35.097867" lon="-85.109566"><ele>288.6</ele><time>2026-08-04T21:25:37Z</time></trkpt>
<trkpt lat="35.097844" lon="-85.109589"><ele>289.6</ele><time>2026-08-04T21:25:39Z</time></trkpt>
<trkpt lat="35.097804" lon="-85.109587"><ele>289.6</ele><time>2026-08-04T21:25:42Z</time></trkpt>
<trkpt lat="35.097771" lon="-85.109565"><ele>289.9</ele><time>2026-08-04T21:25:45Z</time></trkpt>
<trkpt lat="35.09774" lon="-85.109535"><ele>289.6</ele><time>2026-08-04T21:25:48Z</time></trkpt>
<trkpt lat="35.097704" lon="-85.109518"><ele>290.8</ele><time>2026-08-04T21:25:51Z</time></trkpt>
<trkpt lat="35.097666" lon="-85.109521"><ele>289.0</ele><time>2026-08-04T21:25:54Z</time></trkpt>
<trkpt lat="35.097639" lon="-85.109531"><ele>287.4</ele><time>2026-08-04T21:25:56Z</time></trkpt>
<trkpt lat="35.097613" lon="-85.109546"><ele>285.9</ele><time>2026-08-04T21:25:58Z</time></trkpt>
<trkpt lat="35.097577" lon="-85.109568"><ele>285.9</ele><time>2026-08-04T21:26:01Z</time></trkpt>
<trkpt lat="35.097539" lon="-85.109581"><ele>285.6</ele><time>2026-08-04T21:26:04Z</time></trkpt>
<trkpt lat="35.097511" lon="-85.109578"><ele>285.9</ele><time>2026-08-04T21:26:06Z</time></trkpt>
<trkpt lat="35.097485" lon="-85.109568"><ele>286.5</ele><time>2026-08-04T21:26:08Z</time></trkpt>
<trkpt lat="35.097456" lon="-85.109572"><ele>285.6</ele><time>2026-08-04T21:26:10Z</time></trkpt>
<trkpt lat="35.097429" lon="-85.109584"><ele>287.1</ele><time>2026-08-04T21:26:12Z</time></trkpt>
<trkpt lat="35.097409" lon="-85.109612"><ele>286.5</ele><time>2026-08-04T21:26:14Z</time></trkpt>
<trkpt lat="35.097399" lon="-85.109648"><ele>285.0</ele><time>2026-08-04T21:26:16Z</time></trkpt>
<trkpt lat="35.097414" lon="-85.109694"><ele>282.5</ele><time>2026-08-04T21:26:18Z</time></trkpt>
<trkpt lat="35.097428" lon="-85.109731"><ele>281.3</ele><time>2026-08-04T21:26:20Z</time></trkpt>
<trkpt lat="35.097443" lon="-85.109764"><ele>279.8</ele><time>2026-08-04T21:26:22Z</time></trkpt>
<trkpt lat="35.097457" lon="-85.109795"><ele>279.2</ele><time>2026-08-04T21:26:24Z</time></trkpt>
<trkpt lat="35.097466" lon="-85.109827"><ele>280.1</ele><time>2026-08-04T21:26:26Z</time></trkpt>
<trkpt lat="35.097481" lon="-85.109869"><ele>281.3</ele><time>2026-08-04T21:26:29Z</time></trkpt>
<trkpt lat="35.097498" lon="-85.109912"><ele>281.3</ele><time>2026-08-04T21:26:32Z</time></trkpt>
<trkpt lat="35.097502" lon="-85.109961"><ele>282.5</ele><time>2026-08-04T21:26:35Z</time></trkpt>
<trkpt lat="35.097499" lon="-85.109998"><ele>281.9</ele><time>2026-08-04T21:26:37Z</time></trkpt>
<trkpt lat="35.097514" lon="-85.11003"><ele>281.0</ele><time>2026-08-04T21:26:39Z</time></trkpt>
<trkpt lat="35.097544" lon="-85.110059"><ele>279.2</ele><time>2026-08-04T21:26:42Z</time></trkpt>
<trkpt lat="35.097565" lon="-85.110097"><ele>278.3</ele><time>2026-08-04T21:26:45Z</time></trkpt>
<trkpt lat="35.097557" lon="-85.110134"><ele>279.2</ele><time>2026-08-04T21:26:47Z</time></trkpt>
<trkpt lat="35.097542" lon="-85.110163"><ele>279.2</ele><time>2026-08-04T21:26:49Z</time></trkpt>
<trkpt lat="35.097531" lon="-85.110194"><ele>280.7</ele><time>2026-08-04T21:26:51Z</time></trkpt>
<trkpt lat="35.097522" lon="-85.110227"><ele>282.9</ele><time>2026-08-04T21:26:53Z</time></trkpt>
<trkpt lat="35.097521" lon="-85.110261"><ele>283.8</ele><time>2026-08-04T21:26:55Z</time></trkpt>
<trkpt lat="35.09752" lon="-85.110309"><ele>284.7</ele><time>2026-08-04T21:26:58Z</time></trkpt>
<trkpt lat="35.097515" lon="-85.110342"><ele>286.2</ele><time>2026-08-04T21:27:00Z</time></trkpt>
<trkpt lat="35.097509" lon="-85.110376"><ele>286.8</ele><time>2026-08-04T21:27:02Z</time></trkpt>
<trkpt lat="35.097498" lon="-85.110409"><ele>287.4</ele><time>2026-08-04T21:27:04Z</time></trkpt>
<trkpt lat="35.09748" lon="-85.110454"><ele>289.6</ele><time>2026-08-04T21:27:07Z</time></trkpt>
<trkpt lat="35.097452" lon="-85.110483"><ele>289.0</ele><time>2026-08-04T21:27:10Z</time></trkpt>
<trkpt lat="35.097421" lon="-85.110463"><ele>289.6</ele><time>2026-08-04T21:27:13Z</time></trkpt>
<trkpt lat="35.097397" lon="-85.110424"><ele>291.4</ele><time>2026-08-04T21:27:16Z</time></trkpt>
<trkpt lat="35.097382" lon="-85.110377"><ele>289.9</ele><time>2026-08-04T21:27:19Z</time></trkpt>
<trkpt lat="35.097354" lon="-85.110351"><ele>290.2</ele><time>2026-08-04T21:27:22Z</time></trkpt>
<trkpt lat="35.097326" lon="-85.110384"><ele>289.9</ele><time>2026-08-04T21:27:25Z</time></trkpt>
<trkpt lat="35.097327" lon="-85.110423"><ele>289.3</ele><time>2026-08-04T21:27:27Z</time></trkpt>
<trkpt lat="35.09733" lon="-85.110461"><ele>288.6</ele><time>2026-08-04T21:27:29Z</time></trkpt>
<trkpt lat="35.097329" lon="-85.110495"><ele>289.9</ele><time>2026-08-04T21:27:31Z</time></trkpt>
<trkpt lat="35.097332" lon="-85.110529"><ele>289.9</ele><time>2026-08-04T21:27:33Z</time></trkpt>
<trkpt lat="35.097312" lon="-85.110601"><ele>291.4</ele><time>2026-08-04T21:27:35Z</time></trkpt>
<trkpt lat="35.097287" lon="-85.110625"><ele>292.0</ele><time>2026-08-04T21:27:39Z</time></trkpt>
<trkpt lat="35.097249" lon="-85.110638"><ele>291.4</ele><time>2026-08-04T21:27:42Z</time></trkpt>
<trkpt lat="35.097211" lon="-85.11064"><ele>292.3</ele><time>2026-08-04T21:27:45Z</time></trkpt>
<trkpt lat="35.097174" lon="-85.11062"><ele>293.2</ele><time>2026-08-04T21:27:47Z</time></trkpt>
<trkpt lat="35.097148" lon="-85.110607"><ele>292.6</ele><time>2026-08-04T21:27:49Z</time></trkpt>
<trkpt lat="35.097121" lon="-85.110639"><ele>290.8</ele><time>2026-08-04T21:27:52Z</time></trkpt>
<trkpt lat="35.097086" lon="-85.110662"><ele>288.6</ele><time>2026-08-04T21:27:55Z</time></trkpt>
<trkpt lat="35.09705" lon="-85.110679"><ele>290.2</ele><time>2026-08-04T21:27:58Z</time></trkpt>
<trkpt lat="35.097035" lon="-85.110713"><ele>290.8</ele><time>2026-08-04T21:28:00Z</time></trkpt>
<trkpt lat="35.097032" lon="-85.11075"><ele>291.4</ele><time>2026-08-04T21:28:02Z</time></trkpt>
<trkpt lat="35.097036" lon="-85.11079"><ele>288.6</ele><time>2026-08-04T21:28:04Z</time></trkpt>
<trkpt lat="35.097035" lon="-85.110825"><ele>288.3</ele><time>2026-08-04T21:28:06Z</time></trkpt>
<trkpt lat="35.097025" lon="-85.110861"><ele>288.0</ele><time>2026-08-04T21:28:08Z</time></trkpt>
<trkpt lat="35.096998" lon="-85.110889"><ele>288.0</ele><time>2026-08-04T21:28:11Z</time></trkpt>
<trkpt lat="35.096963" lon="-85.110888"><ele>289.0</ele><time>2026-08-04T21:28:14Z</time></trkpt>
<trkpt lat="35.096936" lon="-85.110915"><ele>290.2</ele><time>2026-08-04T21:28:17Z</time></trkpt>
<trkpt lat="35.096928" lon="-85.11096"><ele>290.5</ele><time>2026-08-04T21:28:20Z</time></trkpt>
<trkpt lat="35.096944" lon="-85.110992"><ele>288.0</ele><time>2026-08-04T21:28:22Z</time></trkpt>
<trkpt lat="35.096957" lon="-85.111024"><ele>286.5</ele><time>2026-08-04T21:28:24Z</time></trkpt>
<trkpt lat="35.096973" lon="-85.111054"><ele>285.0</ele><time>2026-08-04T21:28:26Z</time></trkpt>
<trkpt lat="35.096999" lon="-85.111068"><ele>284.1</ele><time>2026-08-04T21:28:28Z</time></trkpt>
<trkpt lat="35.097032" lon="-85.111077"><ele>283.5</ele><time>2026-08-04T21:28:31Z</time></trkpt>
<trkpt lat="35.097027" lon="-85.111055"><ele>280.7</ele><time>2026-08-04T21:28:32Z</time></trkpt>
<trkpt lat="35.097025" lon="-85.111047"><ele>280.7</ele><time>2026-08-04T21:28:34Z</time></trkpt>
<trkpt lat="35.09703" lon="-85.111047"><ele>280.4</ele><time>2026-08-04T21:28:35Z</time></trkpt>
<trkpt lat="35.097061" lon="-85.111038"><ele>280.7</ele><time>2026-08-04T21:28:37Z</time></trkpt>
<trkpt lat="35.097092" lon="-85.111034"><ele>279.8</ele><time>2026-08-04T21:28:40Z</time></trkpt>
<trkpt lat="35.097119" lon="-85.111027"><ele>279.5</ele><time>2026-08-04T21:28:43Z</time></trkpt>
<trkpt lat="35.097154" lon="-85.11103"><ele>279.5</ele><time>2026-08-04T21:28:46Z</time></trkpt>
<trkpt lat="35.097194" lon="-85.111032"><ele>279.8</ele><time>2026-08-04T21:28:49Z</time></trkpt>
<trkpt lat="35.097225" lon="-85.111034"><ele>280.4</ele><time>2026-08-04T21:28:52Z</time></trkpt>
<trkpt lat="35.097258" lon="-85.11103"><ele>280.4</ele><time>2026-08-04T21:28:55Z</time></trkpt>
<trkpt lat="35.097291" lon="-85.111043"><ele>282.2</ele><time>2026-08-04T21:28:58Z</time></trkpt>
<trkpt lat="35.097297" lon="-85.111093"><ele>282.9</ele><time>2026-08-04T21:29:01Z</time></trkpt>
<trkpt lat="35.097293" lon="-85.111126"><ele>284.4</ele><time>2026-08-04T21:29:03Z</time></trkpt>
<trkpt lat="35.097274" lon="-85.111169"><ele>286.5</ele><time>2026-08-04T21:29:06Z</time></trkpt>
<trkpt lat="35.097257" lon="-85.111209"><ele>286.8</ele><time>2026-08-04T21:29:09Z</time></trkpt>
<trkpt lat="35.097249" lon="-85.111258"><ele>289.6</ele><time>2026-08-04T21:29:12Z</time></trkpt>
<trkpt lat="35.097251" lon="-85.111308"><ele>291.4</ele><time>2026-08-04T21:29:15Z</time></trkpt>
<trkpt lat="35.097268" lon="-85.111335"><ele>290.5</ele><time>2026-08-04T21:29:17Z</time></trkpt>
<trkpt lat="35.09729" lon="-85.111373"><ele>288.3</ele><time>2026-08-04T21:29:20Z</time></trkpt>
<trkpt lat="35.097294" lon="-85.111409"><ele>289.3</ele><time>2026-08-04T21:29:22Z</time></trkpt>
<trkpt lat="35.097299" lon="-85.111457"><ele>287.7</ele><time>2026-08-04T21:29:25Z</time></trkpt>
<trkpt lat="35.097298" lon="-85.111495"><ele>288.3</ele><time>2026-08-04T21:29:27Z</time></trkpt>
<trkpt lat="35.097293" lon="-85.111531"><ele>289.3</ele><time>2026-08-04T21:29:29Z</time></trkpt>
<trkpt lat="35.097286" lon="-85.111568"><ele>289.6</ele><time>2026-08-04T21:29:31Z</time></trkpt>
<trkpt lat="35.097287" lon="-85.111606"><ele>289.6</ele><time>2026-08-04T21:29:33Z</time></trkpt>
<trkpt lat="35.097287" lon="-85.111642"><ele>291.1</ele><time>2026-08-04T21:29:35Z</time></trkpt>
<trkpt lat="35.0973" lon="-85.111684"><ele>289.9</ele><time>2026-08-04T21:29:38Z</time></trkpt>
<trkpt lat="35.097317" lon="-85.111713"><ele>289.3</ele><time>2026-08-04T21:29:40Z</time></trkpt>
<trkpt lat="35.097337" lon="-85.111739"><ele>288.6</ele><time>2026-08-04T21:29:42Z</time></trkpt>
<trkpt lat="35.097374" lon="-85.111748"><ele>286.8</ele><time>2026-08-04T21:29:45Z</time></trkpt>
<trkpt lat="35.097412" lon="-85.111741"><ele>287.1</ele><time>2026-08-04T21:29:48Z</time></trkpt>
<trkpt lat="35.097446" lon="-85.111759"><ele>287.4</ele><time>2026-08-04T21:29:51Z</time></trkpt>
<trkpt lat="35.097485" lon="-85.111761"><ele>286.8</ele><time>2026-08-04T21:29:54Z</time></trkpt>
<trkpt lat="35.097522" lon="-85.111752"><ele>287.7</ele><time>2026-08-04T21:29:57Z</time></trkpt>
<trkpt lat="35.097559" lon="-85.111753"><ele>287.7</ele><time>2026-08-04T21:30:00Z</time></trkpt>
<trkpt lat="35.097587" lon="-85.111761"><ele>287.4</ele><time>2026-08-04T21:30:02Z</time></trkpt>
<trkpt lat="35.097613" lon="-85.11178"><ele>287.4</ele><time>2026-08-04T21:30:04Z</time></trkpt>
<trkpt lat="35.097637" lon="-85.111797"><ele>286.2</ele><time>2026-08-04T21:30:06Z</time></trkpt>
<trkpt lat="35.097654" lon="-85.111824"><ele>286.2</ele><time>2026-08-04T21:30:08Z</time></trkpt>
<trkpt lat="35.097683" lon="-85.111858"><ele>285.9</ele><time>2026-08-04T21:30:11Z</time></trkpt>
<trkpt lat="35.097711" lon="-85.111882"><ele>285.9</ele><time>2026-08-04T21:30:14Z</time></trkpt>
<trkpt lat="35.097741" lon="-85.111915"><ele>284.4</ele><time>2026-08-04T21:30:17Z</time></trkpt>
<trkpt lat="35.097765" lon="-85.111935"><ele>283.8</ele><time>2026-08-04T21:30:19Z</time></trkpt>
<trkpt lat="35.097792" lon="-85.111949"><ele>286.2</ele><time>2026-08-04T21:30:21Z</time></trkpt>
<trkpt lat="35.097822" lon="-85.111951"><ele>285.9</ele><time>2026-08-04T21:30:23Z</time></trkpt>
<trkpt lat="35.09785" lon="-85.111956"><ele>286.5</ele><time>2026-08-04T21:30:25Z</time></trkpt>
<trkpt lat="35.097878" lon="-85.111964"><ele>285.9</ele><time>2026-08-04T21:30:27Z</time></trkpt>
<trkpt lat="35.097916" lon="-85.111977"><ele>286.5</ele><time>2026-08-04T21:30:30Z</time></trkpt>
<trkpt lat="35.09794" lon="-85.112"><ele>286.8</ele><time>2026-08-04T21:30:32Z</time></trkpt>
<trkpt lat="35.097959" lon="-85.11203"><ele>283.2</ele><time>2026-08-04T21:30:35Z</time></trkpt>
<trkpt lat="35.097989" lon="-85.11206"><ele>282.9</ele><time>2026-08-04T21:30:39Z</time></trkpt>
<trkpt lat="35.098024" lon="-85.112045"><ele>283.5</ele><time>2026-08-04T21:30:42Z</time></trkpt>
<trkpt lat="35.098062" lon="-85.112069"><ele>281.0</ele><time>2026-08-04T21:30:45Z</time></trkpt>
<trkpt lat="35.098081" lon="-85.112099"><ele>278.9</ele><time>2026-08-04T21:30:47Z</time></trkpt>
<trkpt lat="35.098112" lon="-85.11213"><ele>280.4</ele><time>2026-08-04T21:30:50Z</time></trkpt>
<trkpt lat="35.098128" lon="-85.112159"><ele>280.1</ele><time>2026-08-04T21:30:52Z</time></trkpt>
<trkpt lat="35.098112" lon="-85.112192"><ele>280.4</ele><time>2026-08-04T21:30:54Z</time></trkpt>
<trkpt lat="35.098084" lon="-85.11221"><ele>280.4</ele><time>2026-08-04T21:30:56Z</time></trkpt>
<trkpt lat="35.098056" lon="-85.112217"><ele>281.3</ele><time>2026-08-04T21:30:58Z</time></trkpt>
<trkpt lat="35.098033" lon="-85.112237"><ele>283.2</ele><time>2026-08-04T21:31:00Z</time></trkpt>
<trkpt lat="35.098015" lon="-85.112265"><ele>283.5</ele><time>2026-08-04T21:31:02Z</time></trkpt>
<trkpt lat="35.097996" lon="-85.112297"><ele>284.1</ele><time>2026-08-04T21:31:04Z</time></trkpt>
<trkpt lat="35.098003" lon="-85.112337"><ele>285.6</ele><time>2026-08-04T21:31:06Z</time></trkpt>
<trkpt lat="35.09803" lon="-85.11237"><ele>285.3</ele><time>2026-08-04T21:31:09Z</time></trkpt>
<trkpt lat="35.098036" lon="-85.112415"><ele>285.6</ele><time>2026-08-04T21:31:12Z</time></trkpt>
<trkpt lat="35.098014" lon="-85.112456"><ele>287.4</ele><time>2026-08-04T21:31:15Z</time></trkpt>
<trkpt lat="35.097987" lon="-85.11247"><ele>287.7</ele><time>2026-08-04T21:31:17Z</time></trkpt>
<trkpt lat="35.097961" lon="-85.112483"><ele>285.9</ele><time>2026-08-04T21:31:19Z</time></trkpt>
<trkpt lat="35.097927" lon="-85.112507"><ele>286.2</ele><time>2026-08-04T21:31:22Z</time></trkpt>
<trkpt lat="35.097894" lon="-85.112533"><ele>287.4</ele><time>2026-08-04T21:31:25Z</time></trkpt>
<trkpt lat="35.097877" lon="-85.112573"><ele>286.8</ele><time>2026-08-04T21:31:28Z</time></trkpt>
<trkpt lat="35.097892" lon="-85.112619"><ele>286.8</ele><time>2026-08-04T21:31:31Z</time></trkpt>
<trkpt lat="35.097906" lon="-85.112649"><ele>288.3</ele><time>2026-08-04T21:31:33Z</time></trkpt>
<trkpt lat="35.097917" lon="-85.112682"><ele>287.1</ele><time>2026-08-04T21:31:35Z</time></trkpt>
<trkpt lat="35.097929" lon="-85.112724"><ele>287.1</ele><time>2026-08-04T21:31:38Z</time></trkpt>
<trkpt lat="35.097924" lon="-85.112773"><ele>290.2</ele><time>2026-08-04T21:31:41Z</time></trkpt>
<trkpt lat="35.097908" lon="-85.112801"><ele>290.8</ele><time>2026-08-04T21:31:43Z</time></trkpt>
<trkpt lat="35.097883" lon="-85.112828"><ele>291.7</ele><time>2026-08-04T21:31:46Z</time></trkpt>
<trkpt lat="35.097848" lon="-85.112854"><ele>292.6</ele><time>2026-08-04T21:31:49Z</time></trkpt>
<trkpt lat="35.097825" lon="-85.112876"><ele>294.1</ele><time>2026-08-04T21:31:51Z</time></trkpt>
<trkpt lat="35.097804" lon="-85.1129"><ele>293.5</ele><time>2026-08-04T21:31:53Z</time></trkpt>
<trkpt lat="35.097773" lon="-85.112932"><ele>293.8</ele><time>2026-08-04T21:31:56Z</time></trkpt>
<trkpt lat="35.097752" lon="-85.112953"><ele>294.1</ele><time>2026-08-04T21:31:58Z</time></trkpt>
<trkpt lat="35.097727" lon="-85.112969"><ele>295.0</ele><time>2026-08-04T21:32:00Z</time></trkpt>
<trkpt lat="35.097704" lon="-85.112989"><ele>296.6</ele><time>2026-08-04T21:32:02Z</time></trkpt>
<trkpt lat="35.097677" lon="-85.113"><ele>297.2</ele><time>2026-08-04T21:32:04Z</time></trkpt>
<trkpt lat="35.097642" lon="-85.113004"><ele>297.2</ele><time>2026-08-04T21:32:07Z</time></trkpt>
<trkpt lat="35.097607" lon="-85.113"><ele>294.7</ele><time>2026-08-04T21:32:10Z</time></trkpt>
<trkpt lat="35.097573" lon="-85.112986"><ele>293.2</ele><time>2026-08-04T21:32:13Z</time></trkpt>
<trkpt lat="35.097537" lon="-85.112961"><ele>294.1</ele><time>2026-08-04T21:32:16Z</time></trkpt>
<trkpt lat="35.097505" lon="-85.11294"><ele>292.6</ele><time>2026-08-04T21:32:19Z</time></trkpt>
<trkpt lat="35.097473" lon="-85.11297"><ele>291.1</ele><time>2026-08-04T21:32:22Z</time></trkpt>
<trkpt lat="35.097462" lon="-85.113003"><ele>289.3</ele><time>2026-08-04T21:32:24Z</time></trkpt>
<trkpt lat="35.097455" lon="-85.113042"><ele>289.0</ele><time>2026-08-04T21:32:26Z</time></trkpt>
<trkpt lat="35.097447" lon="-85.113076"><ele>287.7</ele><time>2026-08-04T21:32:28Z</time></trkpt>
<trkpt lat="35.097439" lon="-85.113112"><ele>289.6</ele><time>2026-08-04T21:32:30Z</time></trkpt>
<trkpt lat="35.097427" lon="-85.113144"><ele>290.2</ele><time>2026-08-04T21:32:32Z</time></trkpt>
<trkpt lat="35.097427" lon="-85.11318"><ele>290.5</ele><time>2026-08-04T21:32:34Z</time></trkpt>
<trkpt lat="35.097435" lon="-85.113219"><ele>288.0</ele><time>2026-08-04T21:32:36Z</time></trkpt>
<trkpt lat="35.09743" lon="-85.113257"><ele>287.7</ele><time>2026-08-04T21:32:38Z</time></trkpt>
<trkpt lat="35.097407" lon="-85.113293"><ele>288.3</ele><time>2026-08-04T21:32:41Z</time></trkpt>
<trkpt lat="35.097375" lon="-85.11332"><ele>290.5</ele><time>2026-08-04T21:32:44Z</time></trkpt>
<trkpt lat="35.097349" lon="-85.113337"><ele>290.2</ele><time>2026-08-04T21:32:46Z</time></trkpt>
<trkpt lat="35.097313" lon="-85.113349"><ele>291.1</ele><time>2026-08-04T21:32:49Z</time></trkpt>
<trkpt lat="35.097292" lon="-85.113371"><ele>292.0</ele><time>2026-08-04T21:32:51Z</time></trkpt>
<trkpt lat="35.097276" lon="-85.113399"><ele>291.1</ele><time>2026-08-04T21:32:53Z</time></trkpt>
<trkpt lat="35.097265" lon="-85.11343"><ele>290.5</ele><time>2026-08-04T21:32:55Z</time></trkpt>
<trkpt lat="35.097256" lon="-85.113464"><ele>291.1</ele><time>2026-08-04T21:32:57Z</time></trkpt>
<trkpt lat="35.097252" lon="-85.113499"><ele>290.8</ele><time>2026-08-04T21:32:59Z</time></trkpt>
<trkpt lat="35.097246" lon="-85.113534"><ele>291.1</ele><time>2026-08-04T21:33:01Z</time></trkpt>
<trkpt lat="35.097232" lon="-85.113563"><ele>291.4</ele><time>2026-08-04T21:33:03Z</time></trkpt>
<trkpt lat="35.097236" lon="-85.113608"><ele>291.4</ele><time>2026-08-04T21:33:06Z</time></trkpt>
<trkpt lat="35.097266" lon="-85.113595"><ele>290.2</ele><time>2026-08-04T21:33:07Z</time></trkpt>
<trkpt lat="35.097289" lon="-85.113563"><ele>288.3</ele><time>2026-08-04T21:33:09Z</time></trkpt>
<trkpt lat="35.097317" lon="-85.113568"><ele>287.1</ele><time>2026-08-04T21:33:11Z</time></trkpt>
<trkpt lat="35.097345" lon="-85.113593"><ele>289.3</ele><time>2026-08-04T21:33:14Z</time></trkpt>
<trkpt lat="35.097385" lon="-85.113607"><ele>289.0</ele><time>2026-08-04T21:33:17Z</time></trkpt>
<trkpt lat="35.09741" lon="-85.113621"><ele>288.0</ele><time>2026-08-04T21:33:19Z</time></trkpt>
<trkpt lat="35.097427" lon="-85.113663"><ele>285.6</ele><time>2026-08-04T21:33:22Z</time></trkpt>
<trkpt lat="35.097411" lon="-85.113696"><ele>286.8</ele><time>2026-08-04T21:33:24Z</time></trkpt>
<trkpt lat="35.097393" lon="-85.113722"><ele>283.5</ele><time>2026-08-04T21:33:26Z</time></trkpt>
<trkpt lat="35.097382" lon="-85.113766"><ele>281.6</ele><time>2026-08-04T21:33:29Z</time></trkpt>
<trkpt lat="35.097389" lon="-85.113814"><ele>281.9</ele><time>2026-08-04T21:33:32Z</time></trkpt>
<trkpt lat="35.097402" lon="-85.113847"><ele>281.9</ele><time>2026-08-04T21:33:34Z</time></trkpt>
<trkpt lat="35.097418" lon="-85.113876"><ele>282.9</ele><time>2026-08-04T21:33:36Z</time></trkpt>
<trkpt lat="35.097436" lon="-85.113921"><ele>282.5</ele><time>2026-08-04T21:33:39Z</time></trkpt>
<trkpt lat="35.097429" lon="-85.113967"><ele>282.5</ele><time>2026-08-04T21:33:42Z</time></trkpt>
<trkpt lat="35.097435" lon="-85.114007"><ele>281.0</ele><time>2026-08-04T21:33:45Z</time></trkpt>
<trkpt lat="35.097435" lon="-85.11405"><ele>280.7</ele><time>2026-08-04T21:33:48Z</time></trkpt>
<trkpt lat="35.097432" lon="-85.114095"><ele>280.4</ele><time>2026-08-04T21:33:51Z</time></trkpt>
<trkpt lat="35.097424" lon="-85.114139"><ele>281.3</ele><time>2026-08-04T21:33:54Z</time></trkpt>
<trkpt lat="35.097413" lon="-85.114177"><ele>282.2</ele><time>2026-08-04T21:33:57Z</time></trkpt>
<trkpt lat="35.097393" lon="-85.114212"><ele>283.2</ele><time>2026-08-04T21:34:00Z</time></trkpt>
<trkpt lat="35.097365" lon="-85.114248"><ele>284.4</ele><time>2026-08-04T21:34:03Z</time></trkpt>
<trkpt lat="35.097342" lon="-85.114284"><ele>283.5</ele><time>2026-08-04T21:34:06Z</time></trkpt>
<trkpt lat="35.097318" lon="-85.114316"><ele>283.8</ele><time>2026-08-04T21:34:09Z</time></trkpt>
<trkpt lat="35.097295" lon="-85.11435"><ele>284.7</ele><time>2026-08-04T21:34:12Z</time></trkpt>
<trkpt lat="35.097279" lon="-85.114377"><ele>283.8</ele><time>2026-08-04T21:34:14Z</time></trkpt>
<trkpt lat="35.097264" lon="-85.114424"><ele>281.0</ele><time>2026-08-04T21:34:17Z</time></trkpt>
<trkpt lat="35.097255" lon="-85.114473"><ele>280.7</ele><time>2026-08-04T21:34:20Z</time></trkpt>
<trkpt lat="35.097252" lon="-85.114522"><ele>281.3</ele><time>2026-08-04T21:34:23Z</time></trkpt>
<trkpt lat="35.097235" lon="-85.11455"><ele>282.5</ele><time>2026-08-04T21:34:25Z</time></trkpt>
<trkpt lat="35.097209" lon="-85.114559"><ele>284.1</ele><time>2026-08-04T21:34:27Z</time></trkpt>
<trkpt lat="35.097171" lon="-85.114556"><ele>283.5</ele><time>2026-08-04T21:34:30Z</time></trkpt>
<trkpt lat="35.097135" lon="-85.114559"><ele>283.5</ele><time>2026-08-04T21:34:33Z</time></trkpt>
<trkpt lat="35.097112" lon="-85.11458"><ele>283.5</ele><time>2026-08-04T21:34:35Z</time></trkpt>
<trkpt lat="35.097097" lon="-85.114609"><ele>282.5</ele><time>2026-08-04T21:34:37Z</time></trkpt>
<trkpt lat="35.097084" lon="-85.114638"><ele>282.2</ele><time>2026-08-04T21:34:39Z</time></trkpt>
<trkpt lat="35.097061" lon="-85.114679"><ele>282.5</ele><time>2026-08-04T21:34:42Z</time></trkpt>
<trkpt lat="35.097038" lon="-85.114701"><ele>281.9</ele><time>2026-08-04T21:34:44Z</time></trkpt>
<trkpt lat="35.096997" lon="-85.1147"><ele>281.6</ele><time>2026-08-04T21:34:47Z</time></trkpt>
<trkpt lat="35.096973" lon="-85.114682"><ele>281.6</ele><time>2026-08-04T21:34:49Z</time></trkpt>
<trkpt lat="35.096951" lon="-85.114662"><ele>282.2</ele><time>2026-08-04T21:34:51Z</time></trkpt>
<trkpt lat="35.096937" lon="-85.114632"><ele>282.9</ele><time>2026-08-04T21:34:53Z</time></trkpt>
<trkpt lat="35.096916" lon="-85.114589"><ele>281.9</ele><time>2026-08-04T21:34:56Z</time></trkpt>
<trkpt lat="35.096895" lon="-85.114567"><ele>281.3</ele><time>2026-08-04T21:34:58Z</time></trkpt>
<trkpt lat="35.096858" lon="-85.114533"><ele>282.9</ele><time>2026-08-04T21:35:00Z</time></trkpt>
<trkpt lat="35.09683" lon="-85.114544"><ele>282.9</ele><time>2026-08-04T21:35:02Z</time></trkpt>
<trkpt lat="35.096804" lon="-85.114575"><ele>282.2</ele><time>2026-08-04T21:35:04Z</time></trkpt>
<trkpt lat="35.096781" lon="-85.114604"><ele>283.2</ele><time>2026-08-04T21:35:06Z</time></trkpt>
<trkpt lat="35.096766" lon="-85.114648"><ele>283.8</ele><time>2026-08-04T21:35:08Z</time></trkpt>
<trkpt lat="35.096744" lon="-85.11469"><ele>282.5</ele><time>2026-08-04T21:35:10Z</time></trkpt>
<trkpt lat="35.096725" lon="-85.114721"><ele>280.7</ele><time>2026-08-04T21:35:12Z</time></trkpt>
<trkpt lat="35.096693" lon="-85.114752"><ele>281.9</ele><time>2026-08-04T21:35:15Z</time></trkpt>
<trkpt lat="35.096662" lon="-85.114734"><ele>279.2</ele><time>2026-08-04T21:35:18Z</time></trkpt>
<trkpt lat="35.096629" lon="-85.114716"><ele>277.7</ele><time>2026-08-04T21:35:21Z</time></trkpt>
<trkpt lat="35.0966" lon="-85.114685"><ele>277.1</ele><time>2026-08-04T21:35:24Z</time></trkpt>
<trkpt lat="35.096571" lon="-85.114654"><ele>275.5</ele><time>2026-08-04T21:35:27Z</time></trkpt>
<trkpt lat="35.09653" lon="-85.114645"><ele>275.5</ele><time>2026-08-04T21:35:30Z</time></trkpt>
<trkpt lat="35.096504" lon="-85.114664"><ele>274.3</ele><time>2026-08-04T21:35:32Z</time></trkpt>
<trkpt lat="35.096483" lon="-85.11469"><ele>273.7</ele><time>2026-08-04T21:35:34Z</time></trkpt>
<trkpt lat="35.096447" lon="-85.114707"><ele>274.6</ele><time>2026-08-04T21:35:37Z</time></trkpt>
<trkpt lat="35.096413" lon="-85.114698"><ele>275.8</ele><time>2026-08-04T21:35:40Z</time></trkpt>
<trkpt lat="35.096381" lon="-85.114674"><ele>276.8</ele><time>2026-08-04T21:35:43Z</time></trkpt>
<trkpt lat="35.09635" lon="-85.114652"><ele>277.1</ele><time>2026-08-04T21:35:46Z</time></trkpt>
<trkpt lat="35.09632" lon="-85.114627"><ele>276.8</ele><time>2026-08-04T21:35:49Z</time></trkpt>
<trkpt lat="35.096281" lon="-85.114636"><ele>277.4</ele><time>2026-08-04T21:35:52Z</time></trkpt>
<trkpt lat="35.096264" lon="-85.114672"><ele>274.3</ele><time>2026-08-04T21:35:54Z</time></trkpt>
<trkpt lat="35.096255" lon="-85.114715"><ele>273.1</ele><time>2026-08-04T21:35:56Z</time></trkpt>
<trkpt lat="35.096253" lon="-85.114754"><ele>272.5</ele><time>2026-08-04T21:35:58Z</time></trkpt>
<trkpt lat="35.096261" lon="-85.114793"><ele>270.1</ele><time>2026-08-04T21:36:00Z</time></trkpt>
<trkpt lat="35.09627" lon="-85.114828"><ele>270.4</ele><time>2026-08-04T21:36:02Z</time></trkpt>
<trkpt lat="35.096277" lon="-85.114876"><ele>271.3</ele><time>2026-08-04T21:36:05Z</time></trkpt>
<trkpt lat="35.096293" lon="-85.114907"><ele>272.2</ele><time>2026-08-04T21:36:07Z</time></trkpt>
<trkpt lat="35.096302" lon="-85.114956"><ele>274.9</ele><time>2026-08-04T21:36:10Z</time></trkpt>
<trkpt lat="35.096315" lon="-85.115001"><ele>273.4</ele><time>2026-08-04T21:36:13Z</time></trkpt>
<trkpt lat="35.096318" lon="-85.115046"><ele>274.3</ele><time>2026-08-04T21:36:16Z</time></trkpt>
<trkpt lat="35.096324" lon="-85.11509"><ele>272.8</ele><time>2026-08-04T21:36:19Z</time></trkpt>
<trkpt lat="35.096338" lon="-85.115129"><ele>272.2</ele><time>2026-08-04T21:36:22Z</time></trkpt>
<trkpt lat="35.096364" lon="-85.115166"><ele>272.8</ele><time>2026-08-04T21:36:25Z</time></trkpt>
<trkpt lat="35.096381" lon="-85.115193"><ele>272.8</ele><time>2026-08-04T21:36:27Z</time></trkpt>
<trkpt lat="35.096399" lon="-85.115235"><ele>272.5</ele><time>2026-08-04T21:36:30Z</time></trkpt>
<trkpt lat="35.09642" lon="-85.115278"><ele>272.2</ele><time>2026-08-04T21:36:33Z</time></trkpt>
<trkpt lat="35.096435" lon="-85.115314"><ele>271.9</ele><time>2026-08-04T21:36:35Z</time></trkpt>
<trkpt lat="35.096444" lon="-85.11535"><ele>272.5</ele><time>2026-08-04T21:36:37Z</time></trkpt>
<trkpt lat="35.096458" lon="-85.115385"><ele>271.3</ele><time>2026-08-04T21:36:39Z</time></trkpt>
<trkpt lat="35.096475" lon="-85.115419"><ele>269.1</ele><time>2026-08-04T21:36:41Z</time></trkpt>
<trkpt lat="35.096485" lon="-85.115453"><ele>269.7</ele><time>2026-08-04T21:36:43Z</time></trkpt>
<trkpt lat="35.096497" lon="-85.115485"><ele>270.4</ele><time>2026-08-04T21:36:45Z</time></trkpt>
<trkpt lat="35.096523" lon="-85.115517"><ele>271.3</ele><time>2026-08-04T21:36:48Z</time></trkpt>
<trkpt lat="35.096558" lon="-85.115536"><ele>272.5</ele><time>2026-08-04T21:36:51Z</time></trkpt>
<trkpt lat="35.096586" lon="-85.115542"><ele>271.3</ele><time>2026-08-04T21:36:53Z</time></trkpt>
<trkpt lat="35.096626" lon="-85.115545"><ele>270.4</ele><time>2026-08-04T21:36:56Z</time></trkpt>
<trkpt lat="35.096654" lon="-85.115544"><ele>269.4</ele><time>2026-08-04T21:36:58Z</time></trkpt>
<trkpt lat="35.096682" lon="-85.115537"><ele>267.0</ele><time>2026-08-04T21:37:00Z</time></trkpt>
<trkpt lat="35.096723" lon="-85.115535"><ele>265.8</ele><time>2026-08-04T21:37:03Z</time></trkpt>
<trkpt lat="35.096751" lon="-85.115526"><ele>264.9</ele><time>2026-08-04T21:37:05Z</time></trkpt>
<trkpt lat="35.09678" lon="-85.11552"><ele>264.9</ele><time>2026-08-04T21:37:07Z</time></trkpt>
<trkpt lat="35.096808" lon="-85.115517"><ele>267.3</ele><time>2026-08-04T21:37:09Z</time></trkpt>
<trkpt lat="35.096841" lon="-85.115525"><ele>265.2</ele><time>2026-08-04T21:37:12Z</time></trkpt>
<trkpt lat="35.09685" lon="-85.115569"><ele>267.6</ele><time>2026-08-04T21:37:15Z</time></trkpt>
<trkpt lat="35.096832" lon="-85.115604"><ele>267.9</ele><time>2026-08-04T21:37:18Z</time></trkpt>
<trkpt lat="35.096813" lon="-85.115646"><ele>270.4</ele><time>2026-08-04T21:37:21Z</time></trkpt>
<trkpt lat="35.09681" lon="-85.115692"><ele>270.4</ele><time>2026-08-04T21:37:24Z</time></trkpt>
<trkpt lat="35.096809" lon="-85.115725"><ele>271.0</ele><time>2026-08-04T21:37:26Z</time></trkpt>
<trkpt lat="35.0968" lon="-85.115775"><ele>272.5</ele><time>2026-08-04T21:37:29Z</time></trkpt>
<trkpt lat="35.096791" lon="-85.115807"><ele>273.4</ele><time>2026-08-04T21:37:31Z</time></trkpt>
<trkpt lat="35.096801" lon="-85.11586"><ele>271.9</ele><time>2026-08-04T21:37:34Z</time></trkpt>
<trkpt lat="35.096823" lon="-85.115885"><ele>270.4</ele><time>2026-08-04T21:37:36Z</time></trkpt>
<trkpt lat="35.096848" lon="-85.1159"><ele>268.8</ele><time>2026-08-04T21:37:38Z</time></trkpt>
<trkpt lat="35.096873" lon="-85.115918"><ele>267.0</ele><time>2026-08-04T21:37:40Z</time></trkpt>
<trkpt lat="35.096899" lon="-85.115934"><ele>267.6</ele><time>2026-08-04T21:37:42Z</time></trkpt>
<trkpt lat="35.096932" lon="-85.115961"><ele>268.5</ele><time>2026-08-04T21:37:45Z</time></trkpt>
<trkpt lat="35.096957" lon="-85.115979"><ele>267.9</ele><time>2026-08-04T21:37:47Z</time></trkpt>
<trkpt lat="35.096991" lon="-85.116006"><ele>268.5</ele><time>2026-08-04T21:37:50Z</time></trkpt>
<trkpt lat="35.097026" lon="-85.11603"><ele>269.7</ele><time>2026-08-04T21:37:53Z</time></trkpt>
<trkpt lat="35.097052" lon="-85.116046"><ele>271.0</ele><time>2026-08-04T21:37:55Z</time></trkpt>
<trkpt lat="35.097078" lon="-85.116058"><ele>271.9</ele><time>2026-08-04T21:37:57Z</time></trkpt>
<trkpt lat="35.097104" lon="-85.116071"><ele>271.9</ele><time>2026-08-04T21:37:59Z</time></trkpt>
<trkpt lat="35.097138" lon="-85.116088"><ele>271.3</ele><time>2026-08-04T21:38:02Z</time></trkpt>
<trkpt lat="35.097161" lon="-85.116105"><ele>271.0</ele><time>2026-08-04T21:38:04Z</time></trkpt>
<trkpt lat="35.097188" lon="-85.116122"><ele>270.4</ele><time>2026-08-04T21:38:06Z</time></trkpt>
<trkpt lat="35.097217" lon="-85.116123"><ele>270.4</ele><time>2026-08-04T21:38:08Z</time></trkpt>
<trkpt lat="35.097255" lon="-85.116131"><ele>270.1</ele><time>2026-08-04T21:38:11Z</time></trkpt>
<trkpt lat="35.097293" lon="-85.11614"><ele>271.6</ele><time>2026-08-04T21:38:14Z</time></trkpt>
<trkpt lat="35.097325" lon="-85.116169"><ele>270.4</ele><time>2026-08-04T21:38:17Z</time></trkpt>
<trkpt lat="35.097341" lon="-85.116198"><ele>270.1</ele><time>2026-08-04T21:38:19Z</time></trkpt>
<trkpt lat="35.097339" lon="-85.116235"><ele>268.8</ele><time>2026-08-04T21:38:21Z</time></trkpt>
<trkpt lat="35.097329" lon="-85.116283"><ele>268.8</ele><time>2026-08-04T21:38:24Z</time></trkpt>
<trkpt lat="35.097327" lon="-85.116317"><ele>270.7</ele><time>2026-08-04T21:38:26Z</time></trkpt>
<trkpt lat="35.09732" lon="-85.116351"><ele>271.0</ele><time>2026-08-04T21:38:28Z</time></trkpt>
<trkpt lat="35.09731" lon="-85.116385"><ele>271.3</ele><time>2026-08-04T21:38:30Z</time></trkpt>
<trkpt lat="35.097296" lon="-85.116416"><ele>272.2</ele><time>2026-08-04T21:38:32Z</time></trkpt>
<trkpt lat="35.097268" lon="-85.116449"><ele>274.3</ele><time>2026-08-04T21:38:35Z</time></trkpt>
<trkpt lat="35.097235" lon="-85.116466"><ele>275.8</ele><time>2026-08-04T21:38:38Z</time></trkpt>
<trkpt lat="35.097203" lon="-85.116484"><ele>278.6</ele><time>2026-08-04T21:38:41Z</time></trkpt>
<trkpt lat="35.097175" lon="-85.116509"><ele>280.1</ele><time>2026-08-04T21:38:44Z</time></trkpt>
<trkpt lat="35.097157" lon="-85.116549"><ele>279.2</ele><time>2026-08-04T21:38:47Z</time></trkpt>
<trkpt lat="35.097134" lon="-85.11657"><ele>280.4</ele><time>2026-08-04T21:38:49Z</time></trkpt>
<trkpt lat="35.097108" lon="-85.116604"><ele>281.6</ele><time>2026-08-04T21:38:52Z</time></trkpt>
<trkpt lat="35.09708" lon="-85.116639"><ele>282.5</ele><time>2026-08-04T21:38:55Z</time></trkpt>
<trkpt lat="35.097057" lon="-85.116674"><ele>285.6</ele><time>2026-08-04T21:38:58Z</time></trkpt>
<trkpt lat="35.097043" lon="-85.11671"><ele>285.3</ele><time>2026-08-04T21:39:01Z</time></trkpt>
<trkpt lat="35.097031" lon="-85.116749"><ele>285.6</ele><time>2026-08-04T21:39:04Z</time></trkpt>
<trkpt lat="35.097014" lon="-85.116787"><ele>285.6</ele><time>2026-08-04T21:39:07Z</time></trkpt>
<trkpt lat="35.09699" lon="-85.116821"><ele>285.9</ele><time>2026-08-04T21:39:10Z</time></trkpt>
<trkpt lat="35.096981" lon="-85.116868"><ele>283.8</ele><time>2026-08-04T21:39:13Z</time></trkpt>
<trkpt lat="35.096988" lon="-85.116905"><ele>280.7</ele><time>2026-08-04T21:39:15Z</time></trkpt>
<trkpt lat="35.096997" lon="-85.116941"><ele>278.9</ele><time>2026-08-04T21:39:17Z</time></trkpt>
<trkpt lat="35.096991" lon="-85.116984"><ele>279.8</ele><time>2026-08-04T21:39:20Z</time></trkpt>
<trkpt lat="35.097011" lon="-85.117021"><ele>281.0</ele><time>2026-08-04T21:39:23Z</time></trkpt>
<trkpt lat="35.09703" lon="-85.117052"><ele>280.7</ele><time>2026-08-04T21:39:26Z</time></trkpt>
<trkpt lat="35.097044" lon="-85.117093"><ele>280.4</ele><time>2026-08-04T21:39:29Z</time></trkpt>
<trkpt lat="35.097037" lon="-85.117134"><ele>278.6</ele><time>2026-08-04T21:39:32Z</time></trkpt>
<trkpt lat="35.097025" lon="-85.117172"><ele>278.9</ele><time>2026-08-04T21:39:35Z</time></trkpt>
<trkpt lat="35.097012" lon="-85.11721"><ele>279.5</ele><time>2026-08-04T21:39:38Z</time></trkpt>
<trkpt lat="35.096999" lon="-85.11725"><ele>280.4</ele><time>2026-08-04T21:39:41Z</time></trkpt>
<trkpt lat="35.096986" lon="-85.117287"><ele>279.5</ele><time>2026-08-04T21:39:44Z</time></trkpt>
<trkpt lat="35.096972" lon="-85.11732"><ele>281.6</ele><time>2026-08-04T21:39:47Z</time></trkpt>
<trkpt lat="35.096947" lon="-85.11735"><ele>284.7</ele><time>2026-08-04T21:39:50Z</time></trkpt>
<trkpt lat="35.09692" lon="-85.117382"><ele>285.3</ele><time>2026-08-04T21:39:53Z</time></trkpt>
<trkpt lat="35.096897" lon="-85.117414"><ele>286.8</ele><time>2026-08-04T21:39:56Z</time></trkpt>
<trkpt lat="35.096878" lon="-85.117451"><ele>288.6</ele><time>2026-08-04T21:39:59Z</time></trkpt>
<trkpt lat="35.096861" lon="-85.117479"><ele>289.9</ele><time>2026-08-04T21:40:01Z</time></trkpt>
<trkpt lat="35.096847" lon="-85.117508"><ele>290.8</ele><time>2026-08-04T21:40:03Z</time></trkpt>
<trkpt lat="35.096832" lon="-85.117552"><ele>290.8</ele><time>2026-08-04T21:40:06Z</time></trkpt>
<trkpt lat="35.096809" lon="-85.117585"><ele>291.1</ele><time>2026-08-04T21:40:09Z</time></trkpt>
<trkpt lat="35.09678" lon="-85.117605"><ele>291.1</ele><time>2026-08-04T21:40:12Z</time></trkpt>
<trkpt lat="35.096754" lon="-85.117633"><ele>290.2</ele><time>2026-08-04T21:40:15Z</time></trkpt>
<trkpt lat="35.09673" lon="-85.117664"><ele>291.1</ele><time>2026-08-04T21:40:18Z</time></trkpt>
<trkpt lat="35.096709" lon="-85.117703"><ele>291.4</ele><time>2026-08-04T21:40:21Z</time></trkpt>
<trkpt lat="35.096687" lon="-85.11774"><ele>292.0</ele><time>2026-08-04T21:40:24Z</time></trkpt>
<trkpt lat="35.096654" lon="-85.117758"><ele>291.4</ele><time>2026-08-04T21:40:27Z</time></trkpt>
<trkpt lat="35.096622" lon="-85.117753"><ele>289.3</ele><time>2026-08-04T21:40:30Z</time></trkpt>
<trkpt lat="35.096594" lon="-85.117755"><ele>289.6</ele><time>2026-08-04T21:40:33Z</time></trkpt>
<trkpt lat="35.096567" lon="-85.117728"><ele>288.6</ele><time>2026-08-04T21:40:37Z</time></trkpt>
<trkpt lat="35.096545" lon="-85.117701"><ele>288.3</ele><time>2026-08-04T21:40:40Z</time></trkpt>
<trkpt lat="35.096523" lon="-85.117658"><ele>288.6</ele><time>2026-08-04T21:40:43Z</time></trkpt>
<trkpt lat="35.096508" lon="-85.117619"><ele>289.3</ele><time>2026-08-04T21:40:46Z</time></trkpt>
<trkpt lat="35.096497" lon="-85.117585"><ele>288.3</ele><time>2026-08-04T21:40:49Z</time></trkpt>
<trkpt lat="35.096492" lon="-85.117549"><ele>288.6</ele><time>2026-08-04T21:40:52Z</time></trkpt>
<trkpt lat="35.096493" lon="-85.117503"><ele>288.3</ele><time>2026-08-04T21:40:55Z</time></trkpt>
<trkpt lat="35.096485" lon="-85.117461"><ele>288.3</ele><time>2026-08-04T21:40:58Z</time></trkpt>
<trkpt lat="35.096465" lon="-85.117431"><ele>288.0</ele><time>2026-08-04T21:41:01Z</time></trkpt>
<trkpt lat="35.096432" lon="-85.117405"><ele>287.7</ele><time>2026-08-04T21:41:04Z</time></trkpt>
<trkpt lat="35.096396" lon="-85.117384"><ele>289.6</ele><time>2026-08-04T21:41:07Z</time></trkpt>
<trkpt lat="35.096367" lon="-85.117355"><ele>291.7</ele><time>2026-08-04T21:41:10Z</time></trkpt>
<trkpt lat="35.096336" lon="-85.117329"><ele>291.7</ele><time>2026-08-04T21:41:13Z</time></trkpt>
<trkpt lat="35.096296" lon="-85.117322"><ele>291.4</ele><time>2026-08-04T21:41:16Z</time></trkpt>
<trkpt lat="35.096265" lon="-85.117341"><ele>291.7</ele><time>2026-08-04T21:41:18Z</time></trkpt>
<trkpt lat="35.096246" lon="-85.117372"><ele>292.6</ele><time>2026-08-04T21:41:20Z</time></trkpt>
<trkpt lat="35.096232" lon="-85.117404"><ele>292.3</ele><time>2026-08-04T21:41:22Z</time></trkpt>
<trkpt lat="35.096226" lon="-85.117445"><ele>293.5</ele><time>2026-08-04T21:41:24Z</time></trkpt>
<trkpt lat="35.096211" lon="-85.117483"><ele>293.8</ele><time>2026-08-04T21:41:26Z</time></trkpt>
<trkpt lat="35.09619" lon="-85.117521"><ele>293.8</ele><time>2026-08-04T21:41:29Z</time></trkpt>
<trkpt lat="35.096161" lon="-85.117549"><ele>296.3</ele><time>2026-08-04T21:41:32Z</time></trkpt>
<trkpt lat="35.096141" lon="-85.117573"><ele>297.2</ele><time>2026-08-04T21:41:34Z</time></trkpt>
<trkpt lat="35.096115" lon="-85.117594"><ele>297.2</ele><time>2026-08-04T21:41:36Z</time></trkpt>
<trkpt lat="35.09609" lon="-85.117614"><ele>297.5</ele><time>2026-08-04T21:41:38Z</time></trkpt>
<trkpt lat="35.096057" lon="-85.117643"><ele>299.9</ele><time>2026-08-04T21:41:41Z</time></trkpt>
<trkpt lat="35.096036" lon="-85.117684"><ele>299.9</ele><time>2026-08-04T21:41:44Z</time></trkpt>
<trkpt lat="35.09602" lon="-85.117714"><ele>301.4</ele><time>2026-08-04T21:41:46Z</time></trkpt>
<trkpt lat="35.096004" lon="-85.117744"><ele>300.8</ele><time>2026-08-04T21:41:48Z</time></trkpt>
<trkpt lat="35.095983" lon="-85.117786"><ele>299.6</ele><time>2026-08-04T21:41:51Z</time></trkpt>
<trkpt lat="35.095946" lon="-85.117795"><ele>299.9</ele><time>2026-08-04T21:41:54Z</time></trkpt>
<trkpt lat="35.095909" lon="-85.117789"><ele>301.8</ele><time>2026-08-04T21:41:57Z</time></trkpt>
<trkpt lat="35.095871" lon="-85.117791"><ele>302.7</ele><time>2026-08-04T21:42:00Z</time></trkpt>
<trkpt lat="35.095836" lon="-85.117785"><ele>301.4</ele><time>2026-08-04T21:42:03Z</time></trkpt>
<trkpt lat="35.095803" lon="-85.117771"><ele>301.4</ele><time>2026-08-04T21:42:06Z</time></trkpt>
<trkpt lat="35.095772" lon="-85.117757"><ele>299.6</ele><time>2026-08-04T21:42:09Z</time></trkpt>
<trkpt lat="35.095746" lon="-85.117723"><ele>299.9</ele><time>2026-08-04T21:42:12Z</time></trkpt>
<trkpt lat="35.095736" lon="-85.117685"><ele>300.5</ele><time>2026-08-04T21:42:15Z</time></trkpt>
<trkpt lat="35.095723" lon="-85.117646"><ele>299.6</ele><time>2026-08-04T21:42:18Z</time></trkpt>
<trkpt lat="35.095715" lon="-85.117605"><ele>298.7</ele><time>2026-08-04T21:42:21Z</time></trkpt>
<trkpt lat="35.09572" lon="-85.117565"><ele>297.5</ele><time>2026-08-04T21:42:24Z</time></trkpt>
<trkpt lat="35.095715" lon="-85.117525"><ele>297.2</ele><time>2026-08-04T21:42:27Z</time></trkpt>
<trkpt lat="35.09571" lon="-85.117481"><ele>297.8</ele><time>2026-08-04T21:42:30Z</time></trkpt>
<trkpt lat="35.095691" lon="-85.117444"><ele>298.7</ele><time>2026-08-04T21:42:33Z</time></trkpt>
<trkpt lat="35.095671" lon="-85.117419"><ele>298.7</ele><time>2026-08-04T21:42:35Z</time></trkpt>
<trkpt lat="35.095641" lon="-85.117383"><ele>296.9</ele><time>2026-08-04T21:42:38Z</time></trkpt>
<trkpt lat="35.095622" lon="-85.117358"><ele>296.3</ele><time>2026-08-04T21:42:40Z</time></trkpt>
<trkpt lat="35.095602" lon="-85.117333"><ele>295.4</ele><time>2026-08-04T21:42:42Z</time></trkpt>
<trkpt lat="35.095576" lon="-85.117294"><ele>296.6</ele><time>2026-08-04T21:42:45Z</time></trkpt>
<trkpt lat="35.095552" lon="-85.117251"><ele>296.6</ele><time>2026-08-04T21:42:48Z</time></trkpt>
<trkpt lat="35.095532" lon="-85.117225"><ele>296.9</ele><time>2026-08-04T21:42:50Z</time></trkpt>
<trkpt lat="35.095517" lon="-85.117194"><ele>296.3</ele><time>2026-08-04T21:42:52Z</time></trkpt>
<trkpt lat="35.095499" lon="-85.117148"><ele>297.8</ele><time>2026-08-04T21:42:55Z</time></trkpt>
<trkpt lat="35.095483" lon="-85.11712"><ele>297.8</ele><time>2026-08-04T21:42:57Z</time></trkpt>
<trkpt lat="35.09545" lon="-85.11709"><ele>297.2</ele><time>2026-08-04T21:43:00Z</time></trkpt>
<trkpt lat="35.095419" lon="-85.117077"><ele>295.7</ele><time>2026-08-04T21:43:02Z</time></trkpt>
<trkpt lat="35.095389" lon="-85.117071"><ele>295.0</ele><time>2026-08-04T21:43:04Z</time></trkpt>
<trkpt lat="35.09536" lon="-85.117062"><ele>295.7</ele><time>2026-08-04T21:43:06Z</time></trkpt>
<trkpt lat="35.095329" lon="-85.11706"><ele>295.0</ele><time>2026-08-04T21:43:08Z</time></trkpt>
<trkpt lat="35.095298" lon="-85.117059"><ele>294.7</ele><time>2026-08-04T21:43:10Z</time></trkpt>
<trkpt lat="35.095268" lon="-85.117054"><ele>294.7</ele><time>2026-08-04T21:43:12Z</time></trkpt>
<trkpt lat="35.095238" lon="-85.117052"><ele>294.1</ele><time>2026-08-04T21:43:14Z</time></trkpt>
<trkpt lat="35.09521" lon="-85.117059"><ele>292.9</ele><time>2026-08-04T21:43:16Z</time></trkpt>
<trkpt lat="35.09518" lon="-85.117054"><ele>293.8</ele><time>2026-08-04T21:43:18Z</time></trkpt>
<trkpt lat="35.095145" lon="-85.117035"><ele>293.5</ele><time>2026-08-04T21:43:21Z</time></trkpt>
<trkpt lat="35.095112" lon="-85.117003"><ele>295.7</ele><time>2026-08-04T21:43:24Z</time></trkpt>
<trkpt lat="35.095094" lon="-85.116976"><ele>295.7</ele><time>2026-08-04T21:43:26Z</time></trkpt>
<trkpt lat="35.095072" lon="-85.116942"><ele>294.7</ele><time>2026-08-04T21:43:29Z</time></trkpt>
<trkpt lat="35.095036" lon="-85.116919"><ele>294.4</ele><time>2026-08-04T21:43:32Z</time></trkpt>
<trkpt lat="35.094998" lon="-85.116913"><ele>294.1</ele><time>2026-08-04T21:43:35Z</time></trkpt>
<trkpt lat="35.094969" lon="-85.116912"><ele>292.6</ele><time>2026-08-04T21:43:37Z</time></trkpt>
<trkpt lat="35.094927" lon="-85.116919"><ele>291.7</ele><time>2026-08-04T21:43:40Z</time></trkpt>
<trkpt lat="35.094898" lon="-85.116923"><ele>291.7</ele><time>2026-08-04T21:43:42Z</time></trkpt>
<trkpt lat="35.09487" lon="-85.116932"><ele>292.6</ele><time>2026-08-04T21:43:44Z</time></trkpt>
<trkpt lat="35.094832" lon="-85.116921"><ele>292.3</ele><time>2026-08-04T21:43:47Z</time></trkpt>
<trkpt lat="35.094797" lon="-85.116897"><ele>292.0</ele><time>2026-08-04T21:43:50Z</time></trkpt>
<trkpt lat="35.09476" lon="-85.116879"><ele>292.0</ele><time>2026-08-04T21:43:53Z</time></trkpt>
<trkpt lat="35.09472" lon="-85.11687"><ele>292.0</ele><time>2026-08-04T21:43:56Z</time></trkpt>
<trkpt lat="35.094683" lon="-85.116858"><ele>292.9</ele><time>2026-08-04T21:43:59Z</time></trkpt>
<trkpt lat="35.094646" lon="-85.11685"><ele>291.7</ele><time>2026-08-04T21:44:02Z</time></trkpt>
<trkpt lat="35.094608" lon="-85.11686"><ele>291.7</ele><time>2026-08-04T21:44:05Z</time></trkpt>
<trkpt lat="35.094573" lon="-85.116867"><ele>290.5</ele><time>2026-08-04T21:44:08Z</time></trkpt>
<trkpt lat="35.094536" lon="-85.116882"><ele>289.6</ele><time>2026-08-04T21:44:11Z</time></trkpt>
<trkpt lat="35.09451" lon="-85.116896"><ele>287.1</ele><time>2026-08-04T21:44:13Z</time></trkpt>
<trkpt lat="35.094482" lon="-85.116911"><ele>285.6</ele><time>2026-08-04T21:44:15Z</time></trkpt>
<trkpt lat="35.094455" lon="-85.116929"><ele>287.1</ele><time>2026-08-04T21:44:17Z</time></trkpt>
<trkpt lat="35.094428" lon="-85.116946"><ele>287.7</ele><time>2026-08-04T21:44:19Z</time></trkpt>
<trkpt lat="35.094394" lon="-85.116973"><ele>288.3</ele><time>2026-08-04T21:44:22Z</time></trkpt>
<trkpt lat="35.094361" lon="-85.117002"><ele>287.1</ele><time>2026-08-04T21:44:25Z</time></trkpt>
<trkpt lat="35.094339" lon="-85.117025"><ele>286.2</ele><time>2026-08-04T21:44:27Z</time></trkpt>
<trkpt lat="35.094318" lon="-85.117051"><ele>285.6</ele><time>2026-08-04T21:44:29Z</time></trkpt>
<trkpt lat="35.094296" lon="-85.117076"><ele>284.1</ele><time>2026-08-04T21:44:31Z</time></trkpt>
<trkpt lat="35.09427" lon="-85.117094"><ele>285.0</ele><time>2026-08-04T21:44:33Z</time></trkpt>
<trkpt lat="35.094238" lon="-85.117124"><ele>285.6</ele><time>2026-08-04T21:44:36Z</time></trkpt>
<trkpt lat="35.094206" lon="-85.117151"><ele>285.0</ele><time>2026-08-04T21:44:39Z</time></trkpt>
<trkpt lat="35.094184" lon="-85.117176"><ele>285.6</ele><time>2026-08-04T21:44:41Z</time></trkpt>
<trkpt lat="35.094152" lon="-85.117203"><ele>287.7</ele><time>2026-08-04T21:44:44Z</time></trkpt>
<trkpt lat="35.094122" lon="-85.117226"><ele>285.9</ele><time>2026-08-04T21:44:47Z</time></trkpt>
<trkpt lat="35.094089" lon="-85.117246"><ele>284.4</ele><time>2026-08-04T21:44:50Z</time></trkpt>
<trkpt lat="35.094061" lon="-85.117273"><ele>283.5</ele><time>2026-08-04T21:44:53Z</time></trkpt>
<trkpt lat="35.09404" lon="-85.117296"><ele>283.8</ele><time>2026-08-04T21:44:55Z</time></trkpt>
<trkpt lat="35.094022" lon="-85.117322"><ele>283.8</ele><time>2026-08-04T21:44:57Z</time></trkpt>
<trkpt lat="35.093996" lon="-85.117357"><ele>284.4</ele><time>2026-08-04T21:45:00Z</time></trkpt>
<trkpt lat="35.093967" lon="-85.117392"><ele>284.4</ele><time>2026-08-04T21:45:03Z</time></trkpt>
<trkpt lat="35.093943" lon="-85.11741"><ele>285.3</ele><time>2026-08-04T21:45:05Z</time></trkpt>
<trkpt lat="35.093914" lon="-85.117416"><ele>285.6</ele><time>2026-08-04T21:45:07Z</time></trkpt>
<trkpt lat="35.093878" lon="-85.117412"><ele>285.0</ele><time>2026-08-04T21:45:10Z</time></trkpt>
<trkpt lat="35.093843" lon="-85.117398"><ele>283.2</ele><time>2026-08-04T21:45:13Z</time></trkpt>
<trkpt lat="35.093818" lon="-85.117362"><ele>281.6</ele><time>2026-08-04T21:45:16Z</time></trkpt>
<trkpt lat="35.093808" lon="-85.117328"><ele>280.4</ele><time>2026-08-04T21:45:18Z</time></trkpt>
<trkpt lat="35.093808" lon="-85.117284"><ele>281.6</ele><time>2026-08-04T21:45:21Z</time></trkpt>
<trkpt lat="35.093811" lon="-85.117238"><ele>283.5</ele><time>2026-08-04T21:45:24Z</time></trkpt>
<trkpt lat="35.093804" lon="-85.117188"><ele>282.5</ele><time>2026-08-04T21:45:27Z</time></trkpt>
<trkpt lat="35.093798" lon="-85.117156"><ele>281.3</ele><time>2026-08-04T21:45:29Z</time></trkpt>
<trkpt lat="35.09378" lon="-85.117114"><ele>282.2</ele><time>2026-08-04T21:45:32Z</time></trkpt>
<trkpt lat="35.093746" lon="-85.117113"><ele>282.5</ele><time>2026-08-04T21:45:34Z</time></trkpt>
<trkpt lat="35.09371" lon="-85.117128"><ele>281.0</ele><time>2026-08-04T21:45:36Z</time></trkpt>
<trkpt lat="35.093675" lon="-85.117149"><ele>283.8</ele><time>2026-08-04T21:45:39Z</time></trkpt>
<trkpt lat="35.093655" lon="-85.117174"><ele>282.2</ele><time>2026-08-04T21:45:41Z</time></trkpt>
<trkpt lat="35.093625" lon="-85.117204"><ele>284.1</ele><time>2026-08-04T21:45:44Z</time></trkpt>
<trkpt lat="35.0936" lon="-85.117234"><ele>285.0</ele><time>2026-08-04T21:45:47Z</time></trkpt>
<trkpt lat="35.093569" lon="-85.117262"><ele>284.7</ele><time>2026-08-04T21:45:50Z</time></trkpt>
<trkpt lat="35.093539" lon="-85.117296"><ele>285.9</ele><time>2026-08-04T21:45:53Z</time></trkpt>
<trkpt lat="35.093518" lon="-85.117317"><ele>285.6</ele><time>2026-08-04T21:45:55Z</time></trkpt>
<trkpt lat="35.093494" lon="-85.11734"><ele>286.5</ele><time>2026-08-04T21:45:57Z</time></trkpt>
<trkpt lat="35.093467" lon="-85.117355"><ele>288.3</ele><time>2026-08-04T21:45:59Z</time></trkpt>
<trkpt lat="35.093439" lon="-85.117364"><ele>290.8</ele><time>2026-08-04T21:46:01Z</time></trkpt>
<trkpt lat="35.093412" lon="-85.117376"><ele>292.0</ele><time>2026-08-04T21:46:03Z</time></trkpt>
<trkpt lat="35.09339" lon="-85.117398"><ele>295.0</ele><time>2026-08-04T21:46:05Z</time></trkpt>
<trkpt lat="35.093358" lon="-85.117427"><ele>298.7</ele><time>2026-08-04T21:46:08Z</time></trkpt>
<trkpt lat="35.093326" lon="-85.117443"><ele>296.9</ele><time>2026-08-04T21:46:11Z</time></trkpt>
<trkpt lat="35.093289" lon="-85.117452"><ele>296.0</ele><time>2026-08-04T21:46:14Z</time></trkpt>
<trkpt lat="35.09326" lon="-85.117456"><ele>294.1</ele><time>2026-08-04T21:46:17Z</time></trkpt>
<trkpt lat="35.093229" lon="-85.117479"><ele>292.9</ele><time>2026-08-04T21:46:20Z</time></trkpt>
<trkpt lat="35.09319" lon="-85.117472"><ele>294.4</ele><time>2026-08-04T21:46:23Z</time></trkpt>
<trkpt lat="35.093152" lon="-85.117475"><ele>294.1</ele><time>2026-08-04T21:46:26Z</time></trkpt>
<trkpt lat="35.093115" lon="-85.117476"><ele>294.4</ele><time>2026-08-04T21:46:29Z</time></trkpt>
<trkpt lat="35.093079" lon="-85.11748"><ele>295.0</ele><time>2026-08-04T21:46:32Z</time></trkpt>
<trkpt lat="35.093035" lon="-85.117472"><ele>294.4</ele><time>2026-08-04T21:46:35Z</time></trkpt>
<trkpt lat="35.093" lon="-85.117474"><ele>293.5</ele><time>2026-08-04T21:46:38Z</time></trkpt>
<trkpt lat="35.092961" lon="-85.117479"><ele>295.4</ele><time>2026-08-04T21:46:41Z</time></trkpt>
<trkpt lat="35.09292" lon="-85.117489"><ele>298.7</ele><time>2026-08-04T21:46:44Z</time></trkpt>
<trkpt lat="35.092892" lon="-85.117493"><ele>297.8</ele><time>2026-08-04T21:46:46Z</time></trkpt>
<trkpt lat="35.092863" lon="-85.117495"><ele>298.4</ele><time>2026-08-04T21:46:48Z</time></trkpt>
<trkpt lat="35.092835" lon="-85.117493"><ele>298.7</ele><time>2026-08-04T21:46:50Z</time></trkpt>
<trkpt lat="35.092798" lon="-85.117477"><ele>299.3</ele><time>2026-08-04T21:46:53Z</time></trkpt>
<trkpt lat="35.09276" lon="-85.11747"><ele>300.2</ele><time>2026-08-04T21:46:56Z</time></trkpt>
<trkpt lat="35.092722" lon="-85.117464"><ele>301.4</ele><time>2026-08-04T21:46:59Z</time></trkpt>
<trkpt lat="35.092683" lon="-85.117462"><ele>301.4</ele><time>2026-08-04T21:47:02Z</time></trkpt>
<trkpt lat="35.092655" lon="-85.117464"><ele>301.8</ele><time>2026-08-04T21:47:04Z</time></trkpt>
<trkpt lat="35.092617" lon="-85.117454"><ele>302.4</ele><time>2026-08-04T21:47:07Z</time></trkpt>
<trkpt lat="35.092583" lon="-85.117432"><ele>302.1</ele><time>2026-08-04T21:47:10Z</time></trkpt>
<trkpt lat="35.092559" lon="-85.117408"><ele>297.8</ele><time>2026-08-04T21:47:13Z</time></trkpt>
<trkpt lat="35.092572" lon="-85.117379"><ele>295.0</ele><time>2026-08-04T21:47:15Z</time></trkpt>
<trkpt lat="35.092611" lon="-85.117374"><ele>291.1</ele><time>2026-08-04T21:47:18Z</time></trkpt>
<trkpt lat="35.092651" lon="-85.11737"><ele>291.4</ele><time>2026-08-04T21:47:21Z</time></trkpt>
<trkpt lat="35.09269" lon="-85.117384"><ele>294.1</ele><time>2026-08-04T21:47:24Z</time></trkpt>
<trkpt lat="35.092728" lon="-85.117402"><ele>292.0</ele><time>2026-08-04T21:47:27Z</time></trkpt>
<trkpt lat="35.092766" lon="-85.117409"><ele>291.7</ele><time>2026-08-04T21:47:30Z</time></trkpt>
<trkpt lat="35.092794" lon="-85.117414"><ele>291.1</ele><time>2026-08-04T21:47:32Z</time></trkpt>
<trkpt lat="35.092832" lon="-85.117414"><ele>290.8</ele><time>2026-08-04T21:47:35Z</time></trkpt>
<trkpt lat="35.09287" lon="-85.117402"><ele>290.2</ele><time>2026-08-04T21:47:38Z</time></trkpt>
<trkpt lat="35.092895" lon="-85.117386"><ele>291.1</ele><time>2026-08-04T21:47:40Z</time></trkpt>
<trkpt lat="35.092923" lon="-85.117371"><ele>291.1</ele><time>2026-08-04T21:47:42Z</time></trkpt>
<trkpt lat="35.092959" lon="-85.117347"><ele>292.6</ele><time>2026-08-04T21:47:45Z</time></trkpt>
<trkpt lat="35.092994" lon="-85.117321"><ele>292.0</ele><time>2026-08-04T21:47:48Z</time></trkpt>
<trkpt lat="35.093018" lon="-85.117303"><ele>291.7</ele><time>2026-08-04T21:47:50Z</time></trkpt>
<trkpt lat="35.09304" lon="-85.117281"><ele>292.9</ele><time>2026-08-04T21:47:52Z</time></trkpt>
<trkpt lat="35.093058" lon="-85.117251"><ele>293.2</ele><time>2026-08-04T21:47:54Z</time></trkpt>
<trkpt lat="35.093077" lon="-85.117222"><ele>293.5</ele><time>2026-08-04T21:47:56Z</time></trkpt>
<trkpt lat="35.093096" lon="-85.117193"><ele>293.2</ele><time>2026-08-04T21:47:58Z</time></trkpt>
<trkpt lat="35.09312" lon="-85.11717"><ele>293.5</ele><time>2026-08-04T21:48:00Z</time></trkpt>
<trkpt lat="35.093137" lon="-85.117142"><ele>294.1</ele><time>2026-08-04T21:48:02Z</time></trkpt>
<trkpt lat="35.093148" lon="-85.11711"><ele>294.1</ele><time>2026-08-04T21:48:04Z</time></trkpt>
<trkpt lat="35.093161" lon="-85.117079"><ele>294.7</ele><time>2026-08-04T21:48:06Z</time></trkpt>
<trkpt lat="35.093175" lon="-85.117048"><ele>294.7</ele><time>2026-08-04T21:48:08Z</time></trkpt>
<trkpt lat="35.093184" lon="-85.117001"><ele>294.7</ele><time>2026-08-04T21:48:11Z</time></trkpt>
<trkpt lat="35.093196" lon="-85.116954"><ele>296.0</ele><time>2026-08-04T21:48:14Z</time></trkpt>
<trkpt lat="35.093199" lon="-85.11692"><ele>295.7</ele><time>2026-08-04T21:48:16Z</time></trkpt>
<trkpt lat="35.09321" lon="-85.116888"><ele>296.3</ele><time>2026-08-04T21:48:18Z</time></trkpt>
<trkpt lat="35.093215" lon="-85.116854"><ele>295.7</ele><time>2026-08-04T21:48:20Z</time></trkpt>
<trkpt lat="35.093217" lon="-85.116821"><ele>294.4</ele><time>2026-08-04T21:48:22Z</time></trkpt>
<trkpt lat="35.093206" lon="-85.116788"><ele>294.1</ele><time>2026-08-04T21:48:24Z</time></trkpt>
<trkpt lat="35.093179" lon="-85.116752"><ele>294.1</ele><time>2026-08-04T21:48:27Z</time></trkpt>
<trkpt lat="35.093154" lon="-85.116714"><ele>294.7</ele><time>2026-08-04T21:48:30Z</time></trkpt>
<trkpt lat="35.093132" lon="-85.116672"><ele>295.4</ele><time>2026-08-04T21:48:33Z</time></trkpt>
<trkpt lat="35.093118" lon="-85.116628"><ele>295.4</ele><time>2026-08-04T21:48:36Z</time></trkpt>
<trkpt lat="35.093105" lon="-85.116588"><ele>295.4</ele><time>2026-08-04T21:48:39Z</time></trkpt>
<trkpt lat="35.093103" lon="-85.116541"><ele>296.6</ele><time>2026-08-04T21:48:42Z</time></trkpt>
<trkpt lat="35.093093" lon="-85.116494"><ele>296.3</ele><time>2026-08-04T21:48:45Z</time></trkpt>
<trkpt lat="35.093079" lon="-85.116464"><ele>296.9</ele><time>2026-08-04T21:48:47Z</time></trkpt>
<trkpt lat="35.093062" lon="-85.116437"><ele>296.0</ele><time>2026-08-04T21:48:49Z</time></trkpt>
<trkpt lat="35.093039" lon="-85.116399"><ele>295.4</ele><time>2026-08-04T21:48:52Z</time></trkpt>
<trkpt lat="35.093026" lon="-85.116358"><ele>294.7</ele><time>2026-08-04T21:48:55Z</time></trkpt>
<trkpt lat="35.093006" lon="-85.116334"><ele>295.0</ele><time>2026-08-04T21:48:57Z</time></trkpt>
<trkpt lat="35.09298" lon="-85.116315"><ele>294.4</ele><time>2026-08-04T21:48:59Z</time></trkpt>
<trkpt lat="35.092949" lon="-85.116301"><ele>294.1</ele><time>2026-08-04T21:49:01Z</time></trkpt>
<trkpt lat="35.092922" lon="-85.116287"><ele>292.9</ele><time>2026-08-04T21:49:03Z</time></trkpt>
<trkpt lat="35.092885" lon="-85.116273"><ele>291.7</ele><time>2026-08-04T21:49:06Z</time></trkpt>
<trkpt lat="35.092848" lon="-85.116261"><ele>290.8</ele><time>2026-08-04T21:49:09Z</time></trkpt>
<trkpt lat="35.092813" lon="-85.11625"><ele>291.1</ele><time>2026-08-04T21:49:12Z</time></trkpt>
<trkpt lat="35.092777" lon="-85.116242"><ele>290.2</ele><time>2026-08-04T21:49:15Z</time></trkpt>
<trkpt lat="35.092741" lon="-85.116227"><ele>290.2</ele><time>2026-08-04T21:49:18Z</time></trkpt>
<trkpt lat="35.092701" lon="-85.116219"><ele>291.1</ele><time>2026-08-04T21:49:21Z</time></trkpt>
<trkpt lat="35.092661" lon="-85.116225"><ele>292.9</ele><time>2026-08-04T21:49:24Z</time></trkpt>
<trkpt lat="35.092625" lon="-85.116233"><ele>292.3</ele><time>2026-08-04T21:49:27Z</time></trkpt>
<trkpt lat="35.092589" lon="-85.116224"><ele>291.1</ele><time>2026-08-04T21:49:30Z</time></trkpt>
<trkpt lat="35.092558" lon="-85.116205"><ele>291.7</ele><time>2026-08-04T21:49:33Z</time></trkpt>
<trkpt lat="35.092521" lon="-85.116188"><ele>292.6</ele><time>2026-08-04T21:49:36Z</time></trkpt>
<trkpt lat="35.092494" lon="-85.11618"><ele>294.1</ele><time>2026-08-04T21:49:38Z</time></trkpt>
<trkpt lat="35.092465" lon="-85.116173"><ele>294.1</ele><time>2026-08-04T21:49:40Z</time></trkpt>
<trkpt lat="35.092434" lon="-85.116176"><ele>295.0</ele><time>2026-08-04T21:49:42Z</time></trkpt>
<trkpt lat="35.092406" lon="-85.116183"><ele>294.1</ele><time>2026-08-04T21:49:44Z</time></trkpt>
<trkpt lat="35.092378" lon="-85.116187"><ele>294.4</ele><time>2026-08-04T21:49:46Z</time></trkpt>
<trkpt lat="35.092351" lon="-85.116193"><ele>295.4</ele><time>2026-08-04T21:49:48Z</time></trkpt>
<trkpt lat="35.092312" lon="-85.116202"><ele>296.3</ele><time>2026-08-04T21:49:51Z</time></trkpt>
<trkpt lat="35.092273" lon="-85.116209"><ele>297.5</ele><time>2026-08-04T21:49:54Z</time></trkpt>
<trkpt lat="35.092247" lon="-85.116221"><ele>298.1</ele><time>2026-08-04T21:49:56Z</time></trkpt>
<trkpt lat="35.092218" lon="-85.11623"><ele>297.5</ele><time>2026-08-04T21:49:58Z</time></trkpt>
<trkpt lat="35.092191" lon="-85.11624"><ele>298.7</ele><time>2026-08-04T21:50:00Z</time></trkpt>
<trkpt lat="35.09215" lon="-85.116254"><ele>299.3</ele><time>2026-08-04T21:50:03Z</time></trkpt>
<trkpt lat="35.09212" lon="-85.116262"><ele>299.0</ele><time>2026-08-04T21:50:05Z</time></trkpt>
<trkpt lat="35.092092" lon="-85.116265"><ele>299.0</ele><time>2026-08-04T21:50:07Z</time></trkpt>
<trkpt lat="35.092064" lon="-85.116268"><ele>299.0</ele><time>2026-08-04T21:50:09Z</time></trkpt>
<trkpt lat="35.092024" lon="-85.116269"><ele>297.8</ele><time>2026-08-04T21:50:12Z</time></trkpt>
<trkpt lat="35.091983" lon="-85.116263"><ele>298.4</ele><time>2026-08-04T21:50:15Z</time></trkpt>
<trkpt lat="35.091945" lon="-85.116252"><ele>299.3</ele><time>2026-08-04T21:50:18Z</time></trkpt>
<trkpt lat="35.091918" lon="-85.116244"><ele>299.6</ele><time>2026-08-04T21:50:20Z</time></trkpt>
<trkpt lat="35.091881" lon="-85.116233"><ele>298.7</ele><time>2026-08-04T21:50:23Z</time></trkpt>
<trkpt lat="35.091855" lon="-85.116224"><ele>298.4</ele><time>2026-08-04T21:50:25Z</time></trkpt>
<trkpt lat="35.091826" lon="-85.116218"><ele>298.1</ele><time>2026-08-04T21:50:27Z</time></trkpt>
<trkpt lat="35.091795" lon="-85.11622"><ele>298.4</ele><time>2026-08-04T21:50:29Z</time></trkpt>
<trkpt lat="35.091766" lon="-85.116229"><ele>299.6</ele><time>2026-08-04T21:50:31Z</time></trkpt>
<trkpt lat="35.091725" lon="-85.116238"><ele>300.8</ele><time>2026-08-04T21:50:34Z</time></trkpt>
<trkpt lat="35.091699" lon="-85.116225"><ele>300.2</ele><time>2026-08-04T21:50:36Z</time></trkpt>
<trkpt lat="35.09166" lon="-85.11621"><ele>300.2</ele><time>2026-08-04T21:50:39Z</time></trkpt>
<trkpt lat="35.091636" lon="-85.116195"><ele>300.2</ele><time>2026-08-04T21:50:41Z</time></trkpt>
<trkpt lat="35.091612" lon="-85.116177"><ele>300.8</ele><time>2026-08-04T21:50:43Z</time></trkpt>
<trkpt lat="35.091574" lon="-85.116169"><ele>298.4</ele><time>2026-08-04T21:50:46Z</time></trkpt>
<trkpt lat="35.091535" lon="-85.116161"><ele>297.5</ele><time>2026-08-04T21:50:49Z</time></trkpt>
<trkpt lat="35.091497" lon="-85.116145"><ele>298.1</ele><time>2026-08-04T21:50:52Z</time></trkpt>
<trkpt lat="35.09146" lon="-85.11613"><ele>298.4</ele><time>2026-08-04T21:50:55Z</time></trkpt>
<trkpt lat="35.091425" lon="-85.116112"><ele>299.0</ele><time>2026-08-04T21:50:58Z</time></trkpt>
<trkpt lat="35.091399" lon="-85.116094"><ele>299.0</ele><time>2026-08-04T21:51:00Z</time></trkpt>
<trkpt lat="35.091365" lon="-85.116068"><ele>299.0</ele><time>2026-08-04T21:51:03Z</time></trkpt>
<trkpt lat="35.091337" lon="-85.116036"><ele>299.3</ele><time>2026-08-04T21:51:06Z</time></trkpt>
<trkpt lat="35.091326" lon="-85.115988"><ele>298.7</ele><time>2026-08-04T21:51:09Z</time></trkpt>
<trkpt lat="35.091336" lon="-85.11595"><ele>298.1</ele><time>2026-08-04T21:51:11Z</time></trkpt>
<trkpt lat="35.091332" lon="-85.115913"><ele>298.7</ele><time>2026-08-04T21:51:13Z</time></trkpt>
<trkpt lat="35.091314" lon="-85.11587"><ele>298.4</ele><time>2026-08-04T21:51:16Z</time></trkpt>
<trkpt lat="35.091301" lon="-85.11584"><ele>298.4</ele><time>2026-08-04T21:51:18Z</time></trkpt>
<trkpt lat="35.091277" lon="-85.1158"><ele>297.8</ele><time>2026-08-04T21:51:21Z</time></trkpt>
<trkpt lat="35.091261" lon="-85.11577"><ele>299.0</ele><time>2026-08-04T21:51:23Z</time></trkpt>
<trkpt lat="35.091244" lon="-85.115744"><ele>299.0</ele><time>2026-08-04T21:51:25Z</time></trkpt>
<trkpt lat="35.091231" lon="-85.115714"><ele>298.7</ele><time>2026-08-04T21:51:27Z</time></trkpt>
<trkpt lat="35.091211" lon="-85.115689"><ele>298.4</ele><time>2026-08-04T21:51:29Z</time></trkpt>
<trkpt lat="35.091198" lon="-85.115647"><ele>300.2</ele><time>2026-08-04T21:51:31Z</time></trkpt>
<trkpt lat="35.091191" lon="-85.115614"><ele>300.8</ele><time>2026-08-04T21:51:33Z</time></trkpt>
<trkpt lat="35.09119" lon="-85.115568"><ele>299.0</ele><time>2026-08-04T21:51:36Z</time></trkpt>
<trkpt lat="35.091172" lon="-85.115533"><ele>296.0</ele><time>2026-08-04T21:51:39Z</time></trkpt>
<trkpt lat="35.091136" lon="-85.115512"><ele>293.8</ele><time>2026-08-04T21:51:42Z</time></trkpt>
<trkpt lat="35.091096" lon="-85.115517"><ele>293.2</ele><time>2026-08-04T21:51:45Z</time></trkpt>
<trkpt lat="35.091068" lon="-85.115526"><ele>292.6</ele><time>2026-08-04T21:51:47Z</time></trkpt>
<trkpt lat="35.091038" lon="-85.115537"><ele>292.6</ele><time>2026-08-04T21:51:49Z</time></trkpt>
<trkpt lat="35.09101" lon="-85.115548"><ele>293.5</ele><time>2026-08-04T21:51:51Z</time></trkpt>
<trkpt lat="35.090984" lon="-85.115564"><ele>292.0</ele><time>2026-08-04T21:51:53Z</time></trkpt>
<trkpt lat="35.090954" lon="-85.115563"><ele>290.8</ele><time>2026-08-04T21:51:55Z</time></trkpt>
<trkpt lat="35.090932" lon="-85.115538"><ele>290.2</ele><time>2026-08-04T21:51:57Z</time></trkpt>
<trkpt lat="35.09092" lon="-85.115506"><ele>289.6</ele><time>2026-08-04T21:51:59Z</time></trkpt>
<trkpt lat="35.090913" lon="-85.115463"><ele>288.3</ele><time>2026-08-04T21:52:02Z</time></trkpt>
<trkpt lat="35.090916" lon="-85.115414"><ele>289.3</ele><time>2026-08-04T21:52:05Z</time></trkpt>
<trkpt lat="35.090913" lon="-85.115368"><ele>290.8</ele><time>2026-08-04T21:52:08Z</time></trkpt>
<trkpt lat="35.0909" lon="-85.115326"><ele>290.8</ele><time>2026-08-04T21:52:11Z</time></trkpt>
<trkpt lat="35.090902" lon="-85.115283"><ele>291.1</ele><time>2026-08-04T21:52:13Z</time></trkpt>
<trkpt lat="35.090889" lon="-85.115239"><ele>290.5</ele><time>2026-08-04T21:52:16Z</time></trkpt>
<trkpt lat="35.09087" lon="-85.115205"><ele>289.9</ele><time>2026-08-04T21:52:19Z</time></trkpt>
<trkpt lat="35.090841" lon="-85.115182"><ele>289.0</ele><time>2026-08-04T21:52:22Z</time></trkpt>
<trkpt lat="35.090814" lon="-85.115165"><ele>289.3</ele><time>2026-08-04T21:52:24Z</time></trkpt>
<trkpt lat="35.090782" lon="-85.115137"><ele>288.3</ele><time>2026-08-04T21:52:27Z</time></trkpt>
<trkpt lat="35.090744" lon="-85.115131"><ele>288.3</ele><time>2026-08-04T21:52:30Z</time></trkpt>
<trkpt lat="35.090717" lon="-85.11514"><ele>288.6</ele><time>2026-08-04T21:52:32Z</time></trkpt>
<trkpt lat="35.09068" lon="-85.115159"><ele>290.2</ele><time>2026-08-04T21:52:35Z</time></trkpt>
<trkpt lat="35.090646" lon="-85.115144"><ele>290.8</ele><time>2026-08-04T21:52:38Z</time></trkpt>
<trkpt lat="35.090628" lon="-85.115117"><ele>291.1</ele><time>2026-08-04T21:52:40Z</time></trkpt>
<trkpt lat="35.090603" lon="-85.115078"><ele>289.9</ele><time>2026-08-04T21:52:43Z</time></trkpt>
<trkpt lat="35.090577" lon="-85.11505"><ele>289.6</ele><time>2026-08-04T21:52:46Z</time></trkpt>
<trkpt lat="35.090548" lon="-85.115023"><ele>289.0</ele><time>2026-08-04T21:52:49Z</time></trkpt>
<trkpt lat="35.090518" lon="-85.114998"><ele>288.6</ele><time>2026-08-04T21:52:52Z</time></trkpt>
<trkpt lat="35.090486" lon="-85.114978"><ele>287.7</ele><time>2026-08-04T21:52:55Z</time></trkpt>
<trkpt lat="35.090453" lon="-85.114961"><ele>288.6</ele><time>2026-08-04T21:52:58Z</time></trkpt>
<trkpt lat="35.090425" lon="-85.114964"><ele>289.6</ele><time>2026-08-04T21:53:00Z</time></trkpt>
<trkpt lat="35.090404" lon="-85.114987"><ele>289.3</ele><time>2026-08-04T21:53:02Z</time></trkpt>
<trkpt lat="35.090389" lon="-85.115018"><ele>288.0</ele><time>2026-08-04T21:53:04Z</time></trkpt>
<trkpt lat="35.090368" lon="-85.115061"><ele>289.6</ele><time>2026-08-04T21:53:07Z</time></trkpt>
<trkpt lat="35.090353" lon="-85.115091"><ele>290.5</ele><time>2026-08-04T21:53:09Z</time></trkpt>
<trkpt lat="35.090326" lon="-85.115128"><ele>292.0</ele><time>2026-08-04T21:53:12Z</time></trkpt>
<trkpt lat="35.090305" lon="-85.115151"><ele>292.0</ele><time>2026-08-04T21:53:14Z</time></trkpt>
<trkpt lat="35.090281" lon="-85.11519"><ele>292.0</ele><time>2026-08-04T21:53:17Z</time></trkpt>
<trkpt lat="35.090255" lon="-85.115222"><ele>293.8</ele><time>2026-08-04T21:53:20Z</time></trkpt>
<trkpt lat="35.090232" lon="-85.115261"><ele>294.1</ele><time>2026-08-04T21:53:23Z</time></trkpt>
<trkpt lat="35.090207" lon="-85.115297"><ele>294.4</ele><time>2026-08-04T21:53:26Z</time></trkpt>
<trkpt lat="35.09018" lon="-85.11531"><ele>296.0</ele><time>2026-08-04T21:53:28Z</time></trkpt>
<trkpt lat="35.090148" lon="-85.115294"><ele>295.0</ele><time>2026-08-04T21:53:31Z</time></trkpt>
<trkpt lat="35.090131" lon="-85.115254"><ele>294.7</ele><time>2026-08-04T21:53:34Z</time></trkpt>
<trkpt lat="35.090121" lon="-85.115206"><ele>295.0</ele><time>2026-08-04T21:53:37Z</time></trkpt>
<trkpt lat="35.090097" lon="-85.115166"><ele>295.4</ele><time>2026-08-04T21:53:40Z</time></trkpt>
<trkpt lat="35.090063" lon="-85.115138"><ele>295.0</ele><time>2026-08-04T21:53:43Z</time></trkpt>
<trkpt lat="35.090036" lon="-85.115127"><ele>294.1</ele><time>2026-08-04T21:53:45Z</time></trkpt>
<trkpt lat="35.090008" lon="-85.115125"><ele>295.0</ele><time>2026-08-04T21:53:47Z</time></trkpt>
<trkpt lat="35.08997" lon="-85.115131"><ele>295.7</ele><time>2026-08-04T21:53:50Z</time></trkpt>
<trkpt lat="35.089942" lon="-85.115138"><ele>296.9</ele><time>2026-08-04T21:53:52Z</time></trkpt>
<trkpt lat="35.089905" lon="-85.115157"><ele>296.9</ele><time>2026-08-04T21:53:55Z</time></trkpt>
<trkpt lat="35.089873" lon="-85.115184"><ele>298.1</ele><time>2026-08-04T21:53:58Z</time></trkpt>
<trkpt lat="35.089857" lon="-85.115225"><ele>298.7</ele><time>2026-08-04T21:54:01Z</time></trkpt>
<trkpt lat="35.089847" lon="-85.115269"><ele>299.3</ele><time>2026-08-04T21:54:04Z</time></trkpt>
<trkpt lat="35.089839" lon="-85.115302"><ele>299.6</ele><time>2026-08-04T21:54:06Z</time></trkpt>
<trkpt lat="35.089824" lon="-85.115349"><ele>299.9</ele><time>2026-08-04T21:54:09Z</time></trkpt>
<trkpt lat="35.089807" lon="-85.115376"><ele>299.9</ele><time>2026-08-04T21:54:11Z</time></trkpt>
<trkpt lat="35.089775" lon="-85.115408"><ele>300.8</ele><time>2026-08-04T21:54:14Z</time></trkpt>
<trkpt lat="35.089756" lon="-85.115432"><ele>301.8</ele><time>2026-08-04T21:54:16Z</time></trkpt>
<trkpt lat="35.089734" lon="-85.115456"><ele>302.1</ele><time>2026-08-04T21:54:18Z</time></trkpt>
<trkpt lat="35.089714" lon="-85.115479"><ele>302.1</ele><time>2026-08-04T21:54:20Z</time></trkpt>
<trkpt lat="35.089687" lon="-85.115498"><ele>302.4</ele><time>2026-08-04T21:54:22Z</time></trkpt>
<trkpt lat="35.089657" lon="-85.115516"><ele>303.0</ele><time>2026-08-04T21:54:24Z</time></trkpt>
<trkpt lat="35.089631" lon="-85.115528"><ele>302.4</ele><time>2026-08-04T21:54:26Z</time></trkpt>
<trkpt lat="35.089592" lon="-85.115531"><ele>302.7</ele><time>2026-08-04T21:54:29Z</time></trkpt>
<trkpt lat="35.089554" lon="-85.115527"><ele>302.4</ele><time>2026-08-04T21:54:32Z</time></trkpt>
<trkpt lat="35.089527" lon="-85.115518"><ele>303.0</ele><time>2026-08-04T21:54:34Z</time></trkpt>
<trkpt lat="35.089502" lon="-85.115501"><ele>303.3</ele><time>2026-08-04T21:54:36Z</time></trkpt>
<trkpt lat="35.089465" lon="-85.115483"><ele>303.0</ele><time>2026-08-04T21:54:39Z</time></trkpt>
<trkpt lat="35.08944" lon="-85.115467"><ele>301.8</ele><time>2026-08-04T21:54:41Z</time></trkpt>
<trkpt lat="35.08942" lon="-85.115444"><ele>300.8</ele><time>2026-08-04T21:54:43Z</time></trkpt>
<trkpt lat="35.089396" lon="-85.115401"><ele>302.4</ele><time>2026-08-04T21:54:46Z</time></trkpt>
<trkpt lat="35.089379" lon="-85.115372"><ele>303.0</ele><time>2026-08-04T21:54:48Z</time></trkpt>
<trkpt lat="35.089344" lon="-85.115349"><ele>301.8</ele><time>2026-08-04T21:54:51Z</time></trkpt>
<trkpt lat="35.089314" lon="-85.115351"><ele>302.4</ele><time>2026-08-04T21:54:53Z</time></trkpt>
<trkpt lat="35.089286" lon="-85.11536"><ele>302.4</ele><time>2026-08-04T21:54:55Z</time></trkpt>
<trkpt lat="35.089256" lon="-85.115365"><ele>302.7</ele><time>2026-08-04T21:54:57Z</time></trkpt>
<trkpt lat="35.089224" lon="-85.115363"><ele>302.1</ele><time>2026-08-04T21:54:59Z</time></trkpt>
<trkpt lat="35.089195" lon="-85.115359"><ele>302.1</ele><time>2026-08-04T21:55:01Z</time></trkpt>
<trkpt lat="35.089167" lon="-85.115357"><ele>301.8</ele><time>2026-08-04T21:55:03Z</time></trkpt>
<trkpt lat="35.089127" lon="-85.115353"><ele>301.1</ele><time>2026-08-04T21:55:06Z</time></trkpt>
<trkpt lat="35.089102" lon="-85.115369"><ele>300.5</ele><time>2026-08-04T21:55:08Z</time></trkpt>
<trkpt lat="35.089085" lon="-85.1154"><ele>299.6</ele><time>2026-08-04T21:55:10Z</time></trkpt>
<trkpt lat="35.08907" lon="-85.11543"><ele>299.9</ele><time>2026-08-04T21:55:12Z</time></trkpt>
<trkpt lat="35.089058" lon="-85.115462"><ele>299.3</ele><time>2026-08-04T21:55:14Z</time></trkpt>
<trkpt lat="35.089038" lon="-85.115491"><ele>299.0</ele><time>2026-08-04T21:55:16Z</time></trkpt>
<trkpt lat="35.089016" lon="-85.115517"><ele>299.3</ele><time>2026-08-04T21:55:18Z</time></trkpt>
<trkpt lat="35.088993" lon="-85.115542"><ele>298.4</ele><time>2026-08-04T21:55:20Z</time></trkpt>
<trkpt lat="35.088963" lon="-85.115554"><ele>298.1</ele><time>2026-08-04T21:55:22Z</time></trkpt>
<trkpt lat="35.088935" lon="-85.115546"><ele>297.5</ele><time>2026-08-04T21:55:24Z</time></trkpt>
<trkpt lat="35.088907" lon="-85.115534"><ele>297.5</ele><time>2026-08-04T21:55:26Z</time></trkpt>
<trkpt lat="35.088881" lon="-85.115511"><ele>297.8</ele><time>2026-08-04T21:55:28Z</time></trkpt>
<trkpt lat="35.088857" lon="-85.115494"><ele>296.9</ele><time>2026-08-04T21:55:30Z</time></trkpt>
<trkpt lat="35.088835" lon="-85.115473"><ele>296.9</ele><time>2026-08-04T21:55:32Z</time></trkpt>
<trkpt lat="35.088813" lon="-85.115453"><ele>296.3</ele><time>2026-08-04T21:55:34Z</time></trkpt>
<trkpt lat="35.088795" lon="-85.115424"><ele>296.9</ele><time>2026-08-04T21:55:36Z</time></trkpt>
<trkpt lat="35.088779" lon="-85.115394"><ele>296.9</ele><time>2026-08-04T21:55:38Z</time></trkpt>
<trkpt lat="35.088769" lon="-85.11536"><ele>297.8</ele><time>2026-08-04T21:55:40Z</time></trkpt>
<trkpt lat="35.088766" lon="-85.115326"><ele>298.7</ele><time>2026-08-04T21:55:42Z</time></trkpt>
<trkpt lat="35.088768" lon="-85.11529"><ele>299.3</ele><time>2026-08-04T21:55:44Z</time></trkpt>
<trkpt lat="35.088786" lon="-85.115252"><ele>298.1</ele><time>2026-08-04T21:55:47Z</time></trkpt>
<trkpt lat="35.08881" lon="-85.115212"><ele>298.1</ele><time>2026-08-04T21:55:50Z</time></trkpt>
<trkpt lat="35.088825" lon="-85.115181"><ele>297.8</ele><time>2026-08-04T21:55:52Z</time></trkpt>
<trkpt lat="35.088838" lon="-85.115149"><ele>298.1</ele><time>2026-08-04T21:55:54Z</time></trkpt>
<trkpt lat="35.088857" lon="-85.115105"><ele>297.5</ele><time>2026-08-04T21:55:57Z</time></trkpt>
<trkpt lat="35.088871" lon="-85.115058"><ele>296.6</ele><time>2026-08-04T21:56:00Z</time></trkpt>
<trkpt lat="35.088887" lon="-85.115014"><ele>296.9</ele><time>2026-08-04T21:56:03Z</time></trkpt>
<trkpt lat="35.0889" lon="-85.114982"><ele>296.6</ele><time>2026-08-04T21:56:05Z</time></trkpt>
<trkpt lat="35.088906" lon="-85.114948"><ele>296.6</ele><time>2026-08-04T21:56:07Z</time></trkpt>
<trkpt lat="35.088911" lon="-85.114913"><ele>295.0</ele><time>2026-08-04T21:56:09Z</time></trkpt>
<trkpt lat="35.088922" lon="-85.114881"><ele>294.1</ele><time>2026-08-04T21:56:11Z</time></trkpt>
<trkpt lat="35.088934" lon="-85.114848"><ele>293.8</ele><time>2026-08-04T21:56:13Z</time></trkpt>
<trkpt lat="35.088949" lon="-85.114818"><ele>295.0</ele><time>2026-08-04T21:56:15Z</time></trkpt>
<trkpt lat="35.088974" lon="-85.114801"><ele>295.0</ele><time>2026-08-04T21:56:17Z</time></trkpt>
<trkpt lat="35.089" lon="-85.114788"><ele>295.0</ele><time>2026-08-04T21:56:19Z</time></trkpt>
<trkpt lat="35.089029" lon="-85.114778"><ele>295.4</ele><time>2026-08-04T21:56:21Z</time></trkpt>
<trkpt lat="35.089051" lon="-85.114756"><ele>295.7</ele><time>2026-08-04T21:56:23Z</time></trkpt>
<trkpt lat="35.08906" lon="-85.114706"><ele>295.4</ele><time>2026-08-04T21:56:26Z</time></trkpt>
<trkpt lat="35.089072" lon="-85.114674"><ele>295.0</ele><time>2026-08-04T21:56:28Z</time></trkpt>
<trkpt lat="35.089093" lon="-85.114648"><ele>294.1</ele><time>2026-08-04T21:56:30Z</time></trkpt>
<trkpt lat="35.089114" lon="-85.114624"><ele>294.7</ele><time>2026-08-04T21:56:32Z</time></trkpt>
<trkpt lat="35.089128" lon="-85.114595"><ele>294.4</ele><time>2026-08-04T21:56:34Z</time></trkpt>
<trkpt lat="35.08914" lon="-85.114565"><ele>294.7</ele><time>2026-08-04T21:56:36Z</time></trkpt>
<trkpt lat="35.089137" lon="-85.114516"><ele>296.0</ele><time>2026-08-04T21:56:39Z</time></trkpt>
<trkpt lat="35.089133" lon="-85.114483"><ele>295.0</ele><time>2026-08-04T21:56:41Z</time></trkpt>
<trkpt lat="35.089113" lon="-85.114438"><ele>295.4</ele><time>2026-08-04T21:56:44Z</time></trkpt>
<trkpt lat="35.089104" lon="-85.114404"><ele>294.7</ele><time>2026-08-04T21:56:46Z</time></trkpt>
<trkpt lat="35.089097" lon="-85.114371"><ele>295.0</ele><time>2026-08-04T21:56:48Z</time></trkpt>
<trkpt lat="35.089082" lon="-85.114339"><ele>293.2</ele><time>2026-08-04T21:56:50Z</time></trkpt>
<trkpt lat="35.089052" lon="-85.11433"><ele>293.2</ele><time>2026-08-04T21:56:52Z</time></trkpt>
<trkpt lat="35.089018" lon="-85.11434"><ele>293.5</ele><time>2026-08-04T21:56:54Z</time></trkpt>
<trkpt lat="35.088987" lon="-85.11434"><ele>292.9</ele><time>2026-08-04T21:56:56Z</time></trkpt>
<trkpt lat="35.088955" lon="-85.114336"><ele>293.2</ele><time>2026-08-04T21:56:58Z</time></trkpt>
<trkpt lat="35.088925" lon="-85.114335"><ele>291.7</ele><time>2026-08-04T21:57:00Z</time></trkpt>
<trkpt lat="35.088898" lon="-85.114332"><ele>291.4</ele><time>2026-08-04T21:57:02Z</time></trkpt>
<trkpt lat="35.088868" lon="-85.114335"><ele>290.5</ele><time>2026-08-04T21:57:04Z</time></trkpt>
<trkpt lat="35.088838" lon="-85.11434"><ele>290.2</ele><time>2026-08-04T21:57:06Z</time></trkpt>
<trkpt lat="35.088811" lon="-85.114346"><ele>289.6</ele><time>2026-08-04T21:57:08Z</time></trkpt>
<trkpt lat="35.088782" lon="-85.114357"><ele>288.3</ele><time>2026-08-04T21:57:10Z</time></trkpt>
<trkpt lat="35.088756" lon="-85.114377"><ele>289.6</ele><time>2026-08-04T21:57:12Z</time></trkpt>
<trkpt lat="35.088734" lon="-85.114405"><ele>289.3</ele><time>2026-08-04T21:57:14Z</time></trkpt>
<trkpt lat="35.088718" lon="-85.114443"><ele>289.0</ele><time>2026-08-04T21:57:16Z</time></trkpt>
<trkpt lat="35.088703" lon="-85.114483"><ele>289.3</ele><time>2026-08-04T21:57:18Z</time></trkpt>
<trkpt lat="35.088687" lon="-85.114518"><ele>289.0</ele><time>2026-08-04T21:57:20Z</time></trkpt>
<trkpt lat="35.088669" lon="-85.114549"><ele>289.9</ele><time>2026-08-04T21:57:22Z</time></trkpt>
<trkpt lat="35.088648" lon="-85.114575"><ele>289.9</ele><time>2026-08-04T21:57:24Z</time></trkpt>
<trkpt lat="35.08861" lon="-85.114596"><ele>292.0</ele><time>2026-08-04T21:57:27Z</time></trkpt>
<trkpt lat="35.088572" lon="-85.11461"><ele>292.6</ele><time>2026-08-04T21:57:30Z</time></trkpt>
<trkpt lat="35.088545" lon="-85.11463"><ele>292.6</ele><time>2026-08-04T21:57:32Z</time></trkpt>
<trkpt lat="35.088514" lon="-85.114633"><ele>291.7</ele><time>2026-08-04T21:57:34Z</time></trkpt>
<trkpt lat="35.088487" lon="-85.114654"><ele>293.2</ele><time>2026-08-04T21:57:36Z</time></trkpt>
<trkpt lat="35.088456" lon="-85.114683"><ele>290.2</ele><time>2026-08-04T21:57:39Z</time></trkpt>
<trkpt lat="35.08843" lon="-85.114693"><ele>291.1</ele><time>2026-08-04T21:57:41Z</time></trkpt>
<trkpt lat="35.088403" lon="-85.114681"><ele>291.1</ele><time>2026-08-04T21:57:43Z</time></trkpt>
<trkpt lat="35.088373" lon="-85.11467"><ele>289.6</ele><time>2026-08-04T21:57:45Z</time></trkpt>
<trkpt lat="35.088344" lon="-85.114683"><ele>289.0</ele><time>2026-08-04T21:57:47Z</time></trkpt>
<trkpt lat="35.088319" lon="-85.114704"><ele>290.2</ele><time>2026-08-04T21:57:49Z</time></trkpt>
<trkpt lat="35.08829" lon="-85.11471"><ele>291.1</ele><time>2026-08-04T21:57:51Z</time></trkpt>
<trkpt lat="35.088261" lon="-85.11469"><ele>291.7</ele><time>2026-08-04T21:57:53Z</time></trkpt>
<trkpt lat="35.088247" lon="-85.11466"><ele>292.6</ele><time>2026-08-04T21:57:55Z</time></trkpt>
<trkpt lat="35.088234" lon="-85.114617"><ele>290.8</ele><time>2026-08-04T21:57:58Z</time></trkpt>
<trkpt lat="35.088242" lon="-85.114567"><ele>288.6</ele><time>2026-08-04T21:58:01Z</time></trkpt>
<trkpt lat="35.088251" lon="-85.114533"><ele>289.0</ele><time>2026-08-04T21:58:03Z</time></trkpt>
<trkpt lat="35.088265" lon="-85.114501"><ele>290.2</ele><time>2026-08-04T21:58:05Z</time></trkpt>
<trkpt lat="35.088281" lon="-85.114468"><ele>288.3</ele><time>2026-08-04T21:58:07Z</time></trkpt>
<trkpt lat="35.088299" lon="-85.114439"><ele>286.8</ele><time>2026-08-04T21:58:09Z</time></trkpt>
<trkpt lat="35.088316" lon="-85.114411"><ele>286.5</ele><time>2026-08-04T21:58:11Z</time></trkpt>
<trkpt lat="35.08833" lon="-85.114379"><ele>285.9</ele><time>2026-08-04T21:58:13Z</time></trkpt>
<trkpt lat="35.088341" lon="-85.114346"><ele>285.0</ele><time>2026-08-04T21:58:15Z</time></trkpt>
<trkpt lat="35.088319" lon="-85.114305"><ele>283.2</ele><time>2026-08-04T21:58:18Z</time></trkpt>
<trkpt lat="35.088288" lon="-85.114287"><ele>283.8</ele><time>2026-08-04T21:58:20Z</time></trkpt>
<trkpt lat="35.088259" lon="-85.114277"><ele>285.0</ele><time>2026-08-04T21:58:22Z</time></trkpt>
<trkpt lat="35.088228" lon="-85.114272"><ele>285.9</ele><time>2026-08-04T21:58:24Z</time></trkpt>
<trkpt lat="35.088194" lon="-85.114271"><ele>285.6</ele><time>2026-08-04T21:58:26Z</time></trkpt>
<trkpt lat="35.088164" lon="-85.114257"><ele>288.0</ele><time>2026-08-04T21:58:28Z</time></trkpt>
<trkpt lat="35.088135" lon="-85.114248"><ele>287.1</ele><time>2026-08-04T21:58:30Z</time></trkpt>
<trkpt lat="35.08811" lon="-85.11423"><ele>286.5</ele><time>2026-08-04T21:58:32Z</time></trkpt>
<trkpt lat="35.088083" lon="-85.114191"><ele>285.9</ele><time>2026-08-04T21:58:35Z</time></trkpt>
<trkpt lat="35.088064" lon="-85.114166"><ele>286.5</ele><time>2026-08-04T21:58:37Z</time></trkpt>
<trkpt lat="35.088053" lon="-85.114133"><ele>284.1</ele><time>2026-08-04T21:58:40Z</time></trkpt>
<trkpt lat="35.088018" lon="-85.114114"><ele>284.7</ele><time>2026-08-04T21:58:43Z</time></trkpt>
<trkpt lat="35.087984" lon="-85.114099"><ele>284.7</ele><time>2026-08-04T21:58:46Z</time></trkpt>
<trkpt lat="35.087976" lon="-85.114066"><ele>282.5</ele><time>2026-08-04T21:58:49Z</time></trkpt>
<trkpt lat="35.087979" lon="-85.11402"><ele>281.6</ele><time>2026-08-04T21:58:52Z</time></trkpt>
<trkpt lat="35.087976" lon="-85.113975"><ele>281.3</ele><time>2026-08-04T21:58:55Z</time></trkpt>
<trkpt lat="35.087971" lon="-85.113925"><ele>281.0</ele><time>2026-08-04T21:58:58Z</time></trkpt>
<trkpt lat="35.087963" lon="-85.113891"><ele>281.3</ele><time>2026-08-04T21:59:00Z</time></trkpt>
<trkpt lat="35.087953" lon="-85.113845"><ele>281.6</ele><time>2026-08-04T21:59:03Z</time></trkpt>
<trkpt lat="35.087942" lon="-85.113815"><ele>283.2</ele><time>2026-08-04T21:59:05Z</time></trkpt>
<trkpt lat="35.087933" lon="-85.113781"><ele>281.6</ele><time>2026-08-04T21:59:07Z</time></trkpt>
<trkpt lat="35.08792" lon="-85.113751"><ele>282.2</ele><time>2026-08-04T21:59:09Z</time></trkpt>
<trkpt lat="35.087907" lon="-85.113719"><ele>281.9</ele><time>2026-08-04T21:59:11Z</time></trkpt>
<trkpt lat="35.087889" lon="-85.113694"><ele>281.3</ele><time>2026-08-04T21:59:13Z</time></trkpt>
<trkpt lat="35.087866" lon="-85.113674"><ele>279.8</ele><time>2026-08-04T21:59:15Z</time></trkpt>
<trkpt lat="35.087841" lon="-85.113656"><ele>278.9</ele><time>2026-08-04T21:59:17Z</time></trkpt>
<trkpt lat="35.087811" lon="-85.113635"><ele>281.0</ele><time>2026-08-04T21:59:19Z</time></trkpt>
<trkpt lat="35.087791" lon="-85.113606"><ele>282.2</ele><time>2026-08-04T21:59:21Z</time></trkpt>
<trkpt lat="35.087773" lon="-85.113578"><ele>281.3</ele><time>2026-08-04T21:59:23Z</time></trkpt>
<trkpt lat="35.087758" lon="-85.113541"><ele>279.2</ele><time>2026-08-04T21:59:26Z</time></trkpt>
<trkpt lat="35.087755" lon="-85.113494"><ele>279.5</ele><time>2026-08-04T21:59:29Z</time></trkpt>
<trkpt lat="35.087763" lon="-85.113443"><ele>280.4</ele><time>2026-08-04T21:59:32Z</time></trkpt>
<trkpt lat="35.087764" lon="-85.113409"><ele>281.0</ele><time>2026-08-04T21:59:34Z</time></trkpt>
<trkpt lat="35.087769" lon="-85.113374"><ele>281.3</ele><time>2026-08-04T21:59:36Z</time></trkpt>
<trkpt lat="35.087777" lon="-85.113324"><ele>280.7</ele><time>2026-08-04T21:59:39Z</time></trkpt>
<trkpt lat="35.087805" lon="-85.1133"><ele>279.2</ele><time>2026-08-04T21:59:41Z</time></trkpt>
<trkpt lat="35.087833" lon="-85.113319"><ele>278.6</ele><time>2026-08-04T21:59:43Z</time></trkpt>
<trkpt lat="35.087841" lon="-85.113351"><ele>278.0</ele><time>2026-08-04T21:59:45Z</time></trkpt>
<trkpt lat="35.087856" lon="-85.113395"><ele>278.0</ele><time>2026-08-04T21:59:48Z</time></trkpt>
<trkpt lat="35.087877" lon="-85.113428"><ele>278.0</ele><time>2026-08-04T21:59:51Z</time></trkpt>
<trkpt lat="35.087909" lon="-85.113452"><ele>280.1</ele><time>2026-08-04T21:59:54Z</time></trkpt>
<trkpt lat="35.087936" lon="-85.113433"><ele>281.9</ele><time>2026-08-04T21:59:56Z</time></trkpt>
<trkpt lat="35.087948" lon="-85.113399"><ele>281.3</ele><time>2026-08-04T21:59:58Z</time></trkpt>
<trkpt lat="35.087938" lon="-85.113354"><ele>281.9</ele><time>2026-08-04T22:00:01Z</time></trkpt>
<trkpt lat="35.087933" lon="-85.11332"><ele>282.2</ele><time>2026-08-04T22:00:03Z</time></trkpt>
<trkpt lat="35.087929" lon="-85.113286"><ele>281.9</ele><time>2026-08-04T22:00:05Z</time></trkpt>
<trkpt lat="35.087934" lon="-85.11324"><ele>281.9</ele><time>2026-08-04T22:00:08Z</time></trkpt>
<trkpt lat="35.087959" lon="-85.11321"><ele>284.1</ele><time>2026-08-04T22:00:11Z</time></trkpt>
<trkpt lat="35.087997" lon="-85.113201"><ele>284.4</ele><time>2026-08-04T22:00:14Z</time></trkpt>
<trkpt lat="35.088031" lon="-85.113206"><ele>285.9</ele><time>2026-08-04T22:00:17Z</time></trkpt>
<trkpt lat="35.088072" lon="-85.113206"><ele>283.8</ele><time>2026-08-04T22:00:20Z</time></trkpt>
<trkpt lat="35.088101" lon="-85.113203"><ele>283.8</ele><time>2026-08-04T22:00:22Z</time></trkpt>
<trkpt lat="35.088139" lon="-85.113187"><ele>284.4</ele><time>2026-08-04T22:00:25Z</time></trkpt>
<trkpt lat="35.088172" lon="-85.113156"><ele>285.3</ele><time>2026-08-04T22:00:28Z</time></trkpt>
<trkpt lat="35.08819" lon="-85.113128"><ele>286.2</ele><time>2026-08-04T22:00:30Z</time></trkpt>
<trkpt lat="35.088204" lon="-85.113094"><ele>284.7</ele><time>2026-08-04T22:00:32Z</time></trkpt>
<trkpt lat="35.088216" lon="-85.113064"><ele>285.6</ele><time>2026-08-04T22:00:34Z</time></trkpt>
<trkpt lat="35.088229" lon="-85.113017"><ele>287.4</ele><time>2026-08-04T22:00:37Z</time></trkpt>
<trkpt lat="35.088229" lon="-85.112983"><ele>285.9</ele><time>2026-08-04T22:00:39Z</time></trkpt>
<trkpt lat="35.088236" lon="-85.112949"><ele>286.8</ele><time>2026-08-04T22:00:41Z</time></trkpt>
<trkpt lat="35.088244" lon="-85.112916"><ele>286.5</ele><time>2026-08-04T22:00:43Z</time></trkpt>
<trkpt lat="35.088263" lon="-85.112876"><ele>288.6</ele><time>2026-08-04T22:00:46Z</time></trkpt>
<trkpt lat="35.088272" lon="-85.112843"><ele>289.0</ele><time>2026-08-04T22:00:48Z</time></trkpt>
<trkpt lat="35.088267" lon="-85.112806"><ele>287.7</ele><time>2026-08-04T22:00:50Z</time></trkpt>
<trkpt lat="35.088263" lon="-85.112768"><ele>288.6</ele><time>2026-08-04T22:00:52Z</time></trkpt>
<trkpt lat="35.088252" lon="-85.112732"><ele>288.0</ele><time>2026-08-04T22:00:54Z</time></trkpt>
<trkpt lat="35.088251" lon="-85.112696"><ele>286.8</ele><time>2026-08-04T22:00:56Z</time></trkpt>
<trkpt lat="35.088263" lon="-85.112664"><ele>285.6</ele><time>2026-08-04T22:00:58Z</time></trkpt>
<trkpt lat="35.088277" lon="-85.112634"><ele>286.5</ele><time>2026-08-04T22:01:00Z</time></trkpt>
<trkpt lat="35.088303" lon="-85.112608"><ele>288.6</ele><time>2026-08-04T22:01:02Z</time></trkpt>
<trkpt lat="35.088326" lon="-85.112588"><ele>289.3</ele><time>2026-08-04T22:01:04Z</time></trkpt>
<trkpt lat="35.088352" lon="-85.112572"><ele>288.6</ele><time>2026-08-04T22:01:06Z</time></trkpt>
<trkpt lat="35.088375" lon="-85.112553"><ele>289.3</ele><time>2026-08-04T22:01:08Z</time></trkpt>
<trkpt lat="35.088396" lon="-85.112531"><ele>289.0</ele><time>2026-08-04T22:01:10Z</time></trkpt>
<trkpt lat="35.088414" lon="-85.112501"><ele>288.6</ele><time>2026-08-04T22:01:12Z</time></trkpt>
<trkpt lat="35.088435" lon="-85.112477"><ele>289.3</ele><time>2026-08-04T22:01:14Z</time></trkpt>
<trkpt lat="35.088474" lon="-85.112465"><ele>289.3</ele><time>2026-08-04T22:01:17Z</time></trkpt>
<trkpt lat="35.088504" lon="-85.112496"><ele>288.0</ele><time>2026-08-04T22:01:20Z</time></trkpt>
<trkpt lat="35.088523" lon="-85.112539"><ele>287.7</ele><time>2026-08-04T22:01:23Z</time></trkpt>
<trkpt lat="35.088536" lon="-85.11257"><ele>288.0</ele><time>2026-08-04T22:01:25Z</time></trkpt>
<trkpt lat="35.08854" lon="-85.112606"><ele>289.3</ele><time>2026-08-04T22:01:27Z</time></trkpt>
<trkpt lat="35.088542" lon="-85.112643"><ele>290.5</ele><time>2026-08-04T22:01:29Z</time></trkpt>
<trkpt lat="35.088538" lon="-85.11268"><ele>291.1</ele><time>2026-08-04T22:01:31Z</time></trkpt>
<trkpt lat="35.088525" lon="-85.112713"><ele>289.9</ele><time>2026-08-04T22:01:33Z</time></trkpt>
<trkpt lat="35.088513" lon="-85.112744"><ele>290.5</ele><time>2026-08-04T22:01:35Z</time></trkpt>
<trkpt lat="35.088501" lon="-85.112776"><ele>291.4</ele><time>2026-08-04T22:01:37Z</time></trkpt>
<trkpt lat="35.088508" lon="-85.112811"><ele>291.7</ele><time>2026-08-04T22:01:39Z</time></trkpt>
<trkpt lat="35.088538" lon="-85.112842"><ele>292.6</ele><time>2026-08-04T22:01:42Z</time></trkpt>
<trkpt lat="35.088564" lon="-85.112857"><ele>292.9</ele><time>2026-08-04T22:01:44Z</time></trkpt>
<trkpt lat="35.08859" lon="-85.112871"><ele>292.9</ele><time>2026-08-04T22:01:46Z</time></trkpt>
<trkpt lat="35.088617" lon="-85.112882"><ele>293.2</ele><time>2026-08-04T22:01:48Z</time></trkpt>
<trkpt lat="35.088644" lon="-85.112892"><ele>292.0</ele><time>2026-08-04T22:01:50Z</time></trkpt>
<trkpt lat="35.088684" lon="-85.112905"><ele>293.5</ele><time>2026-08-04T22:01:53Z</time></trkpt>
<trkpt lat="35.088707" lon="-85.112932"><ele>292.6</ele><time>2026-08-04T22:01:55Z</time></trkpt>
<trkpt lat="35.088724" lon="-85.112964"><ele>293.5</ele><time>2026-08-04T22:01:57Z</time></trkpt>
<trkpt lat="35.088743" lon="-85.112992"><ele>294.4</ele><time>2026-08-04T22:01:59Z</time></trkpt>
<trkpt lat="35.088774" lon="-85.113017"><ele>296.3</ele><time>2026-08-04T22:02:02Z</time></trkpt>
<trkpt lat="35.088803" lon="-85.113037"><ele>296.3</ele><time>2026-08-04T22:02:05Z</time></trkpt>
<trkpt lat="35.088829" lon="-85.113064"><ele>296.9</ele><time>2026-08-04T22:02:08Z</time></trkpt>
<trkpt lat="35.088858" lon="-85.113087"><ele>296.9</ele><time>2026-08-04T22:02:11Z</time></trkpt>
<trkpt lat="35.088881" lon="-85.113109"><ele>296.9</ele><time>2026-08-04T22:02:13Z</time></trkpt>
<trkpt lat="35.088908" lon="-85.11312"><ele>296.0</ele><time>2026-08-04T22:02:15Z</time></trkpt>
<trkpt lat="35.088947" lon="-85.113128"><ele>297.5</ele><time>2026-08-04T22:02:18Z</time></trkpt>
<trkpt lat="35.088984" lon="-85.113139"><ele>299.6</ele><time>2026-08-04T22:02:21Z</time></trkpt>
<trkpt lat="35.08901" lon="-85.113153"><ele>299.6</ele><time>2026-08-04T22:02:23Z</time></trkpt>
<trkpt lat="35.089049" lon="-85.113153"><ele>298.7</ele><time>2026-08-04T22:02:26Z</time></trkpt>
<trkpt lat="35.089078" lon="-85.113145"><ele>297.8</ele><time>2026-08-04T22:02:28Z</time></trkpt>
<trkpt lat="35.089106" lon="-85.113146"><ele>299.0</ele><time>2026-08-04T22:02:30Z</time></trkpt>
<trkpt lat="35.089135" lon="-85.113142"><ele>299.3</ele><time>2026-08-04T22:02:32Z</time></trkpt>
<trkpt lat="35.089177" lon="-85.113133"><ele>299.3</ele><time>2026-08-04T22:02:35Z</time></trkpt>
<trkpt lat="35.089209" lon="-85.113111"><ele>300.8</ele><time>2026-08-04T22:02:38Z</time></trkpt>
<trkpt lat="35.089225" lon="-85.113075"><ele>300.8</ele><time>2026-08-04T22:02:41Z</time></trkpt>
<trkpt lat="35.089224" lon="-85.113028"><ele>301.1</ele><time>2026-08-04T22:02:44Z</time></trkpt>
<trkpt lat="35.089218" lon="-85.112984"><ele>301.8</ele><time>2026-08-04T22:02:47Z</time></trkpt>
<trkpt lat="35.089209" lon="-85.112941"><ele>302.1</ele><time>2026-08-04T22:02:50Z</time></trkpt>
<trkpt lat="35.089214" lon="-85.112891"><ele>303.6</ele><time>2026-08-04T22:02:53Z</time></trkpt>
<trkpt lat="35.089229" lon="-85.112861"><ele>304.2</ele><time>2026-08-04T22:02:55Z</time></trkpt>
<trkpt lat="35.089249" lon="-85.112821"><ele>305.7</ele><time>2026-08-04T22:02:58Z</time></trkpt>
<trkpt lat="35.089269" lon="-85.112782"><ele>305.4</ele><time>2026-08-04T22:03:01Z</time></trkpt>
<trkpt lat="35.089288" lon="-85.112756"><ele>305.1</ele><time>2026-08-04T22:03:03Z</time></trkpt>
<trkpt lat="35.089307" lon="-85.112712"><ele>306.3</ele><time>2026-08-04T22:03:06Z</time></trkpt>
<trkpt lat="35.089333" lon="-85.1127"><ele>306.3</ele><time>2026-08-04T22:03:08Z</time></trkpt>
<trkpt lat="35.089369" lon="-85.112717"><ele>305.4</ele><time>2026-08-04T22:03:11Z</time></trkpt>
<trkpt lat="35.089394" lon="-85.112744"><ele>305.4</ele><time>2026-08-04T22:03:14Z</time></trkpt>
<trkpt lat="35.08943" lon="-85.112757"><ele>306.9</ele><time>2026-08-04T22:03:17Z</time></trkpt>
<trkpt lat="35.089459" lon="-85.112755"><ele>306.9</ele><time>2026-08-04T22:03:19Z</time></trkpt>
<trkpt lat="35.089488" lon="-85.112748"><ele>307.5</ele><time>2026-08-04T22:03:21Z</time></trkpt>
<trkpt lat="35.089517" lon="-85.112754"><ele>307.8</ele><time>2026-08-04T22:03:23Z</time></trkpt>
<trkpt lat="35.089542" lon="-85.112775"><ele>307.8</ele><time>2026-08-04T22:03:25Z</time></trkpt>
<trkpt lat="35.089567" lon="-85.112795"><ele>306.9</ele><time>2026-08-04T22:03:27Z</time></trkpt>
<trkpt lat="35.089593" lon="-85.112812"><ele>306.9</ele><time>2026-08-04T22:03:29Z</time></trkpt>
<trkpt lat="35.089613" lon="-85.112834"><ele>308.5</ele><time>2026-08-04T22:03:31Z</time></trkpt>
<trkpt lat="35.08964" lon="-85.112852"><ele>310.3</ele><time>2026-08-04T22:03:33Z</time></trkpt>
<trkpt lat="35.08967" lon="-85.112846"><ele>310.3</ele><time>2026-08-04T22:03:35Z</time></trkpt>
<trkpt lat="35.0897" lon="-85.112834"><ele>309.7</ele><time>2026-08-04T22:03:37Z</time></trkpt>
<trkpt lat="35.089729" lon="-85.112823"><ele>310.0</ele><time>2026-08-04T22:03:39Z</time></trkpt>
<trkpt lat="35.089757" lon="-85.112811"><ele>310.0</ele><time>2026-08-04T22:03:41Z</time></trkpt>
<trkpt lat="35.089786" lon="-85.112811"><ele>309.7</ele><time>2026-08-04T22:03:43Z</time></trkpt>
<trkpt lat="35.089811" lon="-85.112835"><ele>309.4</ele><time>2026-08-04T22:03:45Z</time></trkpt>
<trkpt lat="35.089828" lon="-85.112866"><ele>308.2</ele><time>2026-08-04T22:03:47Z</time></trkpt>
<trkpt lat="35.089847" lon="-85.112895"><ele>307.8</ele><time>2026-08-04T22:03:49Z</time></trkpt>
<trkpt lat="35.089871" lon="-85.11292"><ele>306.3</ele><time>2026-08-04T22:03:51Z</time></trkpt>
<trkpt lat="35.089899" lon="-85.11293"><ele>307.2</ele><time>2026-08-04T22:03:53Z</time></trkpt>
<trkpt lat="35.089927" lon="-85.112928"><ele>307.2</ele><time>2026-08-04T22:03:55Z</time></trkpt>
<trkpt lat="35.089953" lon="-85.112915"><ele>305.7</ele><time>2026-08-04T22:03:57Z</time></trkpt>
<trkpt lat="35.089977" lon="-85.112894"><ele>304.8</ele><time>2026-08-04T22:03:59Z</time></trkpt>
<trkpt lat="35.090001" lon="-85.112871"><ele>304.8</ele><time>2026-08-04T22:04:01Z</time></trkpt>
<trkpt lat="35.090018" lon="-85.112844"><ele>305.1</ele><time>2026-08-04T22:04:03Z</time></trkpt>
<trkpt lat="35.090029" lon="-85.112812"><ele>304.8</ele><time>2026-08-04T22:04:05Z</time></trkpt>
<trkpt lat="35.09004" lon="-85.11278"><ele>304.5</ele><time>2026-08-04T22:04:07Z</time></trkpt>
<trkpt lat="35.090053" lon="-85.112749"><ele>303.9</ele><time>2026-08-04T22:04:09Z</time></trkpt>
<trkpt lat="35.090072" lon="-85.112723"><ele>303.0</ele><time>2026-08-04T22:04:11Z</time></trkpt>
<trkpt lat="35.090086" lon="-85.112694"><ele>303.3</ele><time>2026-08-04T22:04:13Z</time></trkpt>
<trkpt lat="35.090109" lon="-85.112672"><ele>303.0</ele><time>2026-08-04T22:04:15Z</time></trkpt>
<trkpt lat="35.090136" lon="-85.112652"><ele>303.3</ele><time>2026-08-04T22:04:17Z</time></trkpt>
<trkpt lat="35.090164" lon="-85.112643"><ele>303.6</ele><time>2026-08-04T22:04:19Z</time></trkpt>
<trkpt lat="35.090192" lon="-85.112637"><ele>303.0</ele><time>2026-08-04T22:04:21Z</time></trkpt>
<trkpt lat="35.090223" lon="-85.112631"><ele>303.0</ele><time>2026-08-04T22:04:23Z</time></trkpt>
<trkpt lat="35.090252" lon="-85.112623"><ele>302.4</ele><time>2026-08-04T22:04:25Z</time></trkpt>
<trkpt lat="35.090281" lon="-85.112605"><ele>302.1</ele><time>2026-08-04T22:04:27Z</time></trkpt>
<trkpt lat="35.090304" lon="-85.112584"><ele>301.8</ele><time>2026-08-04T22:04:29Z</time></trkpt>
<trkpt lat="35.090326" lon="-85.112564"><ele>301.8</ele><time>2026-08-04T22:04:31Z</time></trkpt>
<trkpt lat="35.090351" lon="-85.112541"><ele>300.8</ele><time>2026-08-04T22:04:33Z</time></trkpt>
<trkpt lat="35.090373" lon="-85.112515"><ele>300.2</ele><time>2026-08-04T22:04:35Z</time></trkpt>
<trkpt lat="35.090385" lon="-85.112481"><ele>299.6</ele><time>2026-08-04T22:04:37Z</time></trkpt>
<trkpt lat="35.090408" lon="-85.112443"><ele>301.4</ele><time>2026-08-04T22:04:40Z</time></trkpt>
<trkpt lat="35.090424" lon="-85.112415"><ele>300.8</ele><time>2026-08-04T22:04:42Z</time></trkpt>
<trkpt lat="35.090441" lon="-85.112388"><ele>299.9</ele><time>2026-08-04T22:04:44Z</time></trkpt>
<trkpt lat="35.090463" lon="-85.112361"><ele>299.6</ele><time>2026-08-04T22:04:46Z</time></trkpt>
<trkpt lat="35.090488" lon="-85.112334"><ele>298.4</ele><time>2026-08-04T22:04:48Z</time></trkpt>
<trkpt lat="35.090507" lon="-85.112308"><ele>298.1</ele><time>2026-08-04T22:04:50Z</time></trkpt>
<trkpt lat="35.090532" lon="-85.112285"><ele>299.0</ele><time>2026-08-04T22:04:52Z</time></trkpt>
<trkpt lat="35.090558" lon="-85.112263"><ele>298.4</ele><time>2026-08-04T22:04:54Z</time></trkpt>
<trkpt lat="35.09059" lon="-85.112249"><ele>298.1</ele><time>2026-08-04T22:04:56Z</time></trkpt>
<trkpt lat="35.090622" lon="-85.112243"><ele>298.1</ele><time>2026-08-04T22:04:58Z</time></trkpt>
<trkpt lat="35.090655" lon="-85.112254"><ele>298.7</ele><time>2026-08-04T22:05:00Z</time></trkpt>
<trkpt lat="35.090685" lon="-85.112261"><ele>300.2</ele><time>2026-08-04T22:05:02Z</time></trkpt>
<trkpt lat="35.090715" lon="-85.11226"><ele>301.1</ele><time>2026-08-04T22:05:04Z</time></trkpt>
<trkpt lat="35.090744" lon="-85.11225"><ele>300.8</ele><time>2026-08-04T22:05:06Z</time></trkpt>
<trkpt lat="35.09078" lon="-85.112227"><ele>301.4</ele><time>2026-08-04T22:05:09Z</time></trkpt>
<trkpt lat="35.090799" lon="-85.112201"><ele>301.8</ele><time>2026-08-04T22:05:11Z</time></trkpt>
<trkpt lat="35.090825" lon="-85.112162"><ele>301.1</ele><time>2026-08-04T22:05:14Z</time></trkpt>
<trkpt lat="35.090834" lon="-85.112113"><ele>300.5</ele><time>2026-08-04T22:05:17Z</time></trkpt>
<trkpt lat="35.090842" lon="-85.112077"><ele>300.5</ele><time>2026-08-04T22:05:19Z</time></trkpt>
<trkpt lat="35.090838" lon="-85.112041"><ele>300.8</ele><time>2026-08-04T22:05:21Z</time></trkpt>
<trkpt lat="35.09082" lon="-85.112007"><ele>301.4</ele><time>2026-08-04T22:05:23Z</time></trkpt>
<trkpt lat="35.090786" lon="-85.111978"><ele>301.1</ele><time>2026-08-04T22:05:26Z</time></trkpt>
<trkpt lat="35.090756" lon="-85.111945"><ele>298.7</ele><time>2026-08-04T22:05:29Z</time></trkpt>
<trkpt lat="35.090734" lon="-85.111908"><ele>296.6</ele><time>2026-08-04T22:05:32Z</time></trkpt>
<trkpt lat="35.090719" lon="-85.111878"><ele>296.6</ele><time>2026-08-04T22:05:34Z</time></trkpt>
<trkpt lat="35.090712" lon="-85.111841"><ele>297.8</ele><time>2026-08-04T22:05:36Z</time></trkpt>
<trkpt lat="35.090708" lon="-85.111797"><ele>297.8</ele><time>2026-08-04T22:05:38Z</time></trkpt>
<trkpt lat="35.090711" lon="-85.111748"><ele>298.1</ele><time>2026-08-04T22:05:40Z</time></trkpt>
<trkpt lat="35.090724" lon="-85.111705"><ele>297.8</ele><time>2026-08-04T22:05:42Z</time></trkpt>
<trkpt lat="35.090745" lon="-85.111678"><ele>297.8</ele><time>2026-08-04T22:05:44Z</time></trkpt>
<trkpt lat="35.09077" lon="-85.111662"><ele>297.2</ele><time>2026-08-04T22:05:46Z</time></trkpt>
<trkpt lat="35.090796" lon="-85.111645"><ele>296.6</ele><time>2026-08-04T22:05:48Z</time></trkpt>
<trkpt lat="35.090823" lon="-85.111632"><ele>295.0</ele><time>2026-08-04T22:05:50Z</time></trkpt>
<trkpt lat="35.090862" lon="-85.111621"><ele>294.7</ele><time>2026-08-04T22:05:53Z</time></trkpt>
<trkpt lat="35.090889" lon="-85.111611"><ele>294.1</ele><time>2026-08-04T22:05:55Z</time></trkpt>
<trkpt lat="35.090921" lon="-85.111606"><ele>293.8</ele><time>2026-08-04T22:05:57Z</time></trkpt>
<trkpt lat="35.09095" lon="-85.111592"><ele>292.6</ele><time>2026-08-04T22:05:59Z</time></trkpt>
<trkpt lat="35.090976" lon="-85.111574"><ele>293.2</ele><time>2026-08-04T22:06:01Z</time></trkpt>
<trkpt lat="35.09101" lon="-85.111549"><ele>294.1</ele><time>2026-08-04T22:06:04Z</time></trkpt>
<trkpt lat="35.091041" lon="-85.111521"><ele>293.8</ele><time>2026-08-04T22:06:07Z</time></trkpt>
<trkpt lat="35.091071" lon="-85.111489"><ele>295.0</ele><time>2026-08-04T22:06:10Z</time></trkpt>
<trkpt lat="35.091093" lon="-85.111468"><ele>295.0</ele><time>2026-08-04T22:06:12Z</time></trkpt>
<trkpt lat="35.091116" lon="-85.111435"><ele>294.7</ele><time>2026-08-04T22:06:15Z</time></trkpt>
<trkpt lat="35.091137" lon="-85.111413"><ele>294.7</ele><time>2026-08-04T22:06:17Z</time></trkpt>
<trkpt lat="35.091166" lon="-85.111378"><ele>295.0</ele><time>2026-08-04T22:06:20Z</time></trkpt>
<trkpt lat="35.091194" lon="-85.111341"><ele>295.4</ele><time>2026-08-04T22:06:23Z</time></trkpt>
<trkpt lat="35.091222" lon="-85.111309"><ele>295.4</ele><time>2026-08-04T22:06:26Z</time></trkpt>
<trkpt lat="35.091247" lon="-85.111275"><ele>295.4</ele><time>2026-08-04T22:06:29Z</time></trkpt>
<trkpt lat="35.091274" lon="-85.111246"><ele>295.4</ele><time>2026-08-04T22:06:32Z</time></trkpt>
<trkpt lat="35.09131" lon="-85.111229"><ele>295.7</ele><time>2026-08-04T22:06:35Z</time></trkpt>
<trkpt lat="35.091347" lon="-85.111218"><ele>296.0</ele><time>2026-08-04T22:06:38Z</time></trkpt>
<trkpt lat="35.091384" lon="-85.111214"><ele>295.4</ele><time>2026-08-04T22:06:41Z</time></trkpt>
<trkpt lat="35.091411" lon="-85.111223"><ele>295.0</ele><time>2026-08-04T22:06:43Z</time></trkpt>
<trkpt lat="35.091446" lon="-85.111244"><ele>294.7</ele><time>2026-08-04T22:06:46Z</time></trkpt>
<trkpt lat="35.091463" lon="-85.11127"><ele>294.4</ele><time>2026-08-04T22:06:48Z</time></trkpt>
<trkpt lat="35.091482" lon="-85.111311"><ele>294.4</ele><time>2026-08-04T22:06:51Z</time></trkpt>
<trkpt lat="35.091504" lon="-85.111354"><ele>294.7</ele><time>2026-08-04T22:06:54Z</time></trkpt>
<trkpt lat="35.091522" lon="-85.11138"><ele>294.4</ele><time>2026-08-04T22:06:56Z</time></trkpt>
<trkpt lat="35.091549" lon="-85.111414"><ele>295.0</ele><time>2026-08-04T22:06:59Z</time></trkpt>
<trkpt lat="35.091582" lon="-85.111436"><ele>295.7</ele><time>2026-08-04T22:07:02Z</time></trkpt>
<trkpt lat="35.091621" lon="-85.111448"><ele>295.7</ele><time>2026-08-04T22:07:05Z</time></trkpt>
<trkpt lat="35.091662" lon="-85.111455"><ele>295.7</ele><time>2026-08-04T22:07:08Z</time></trkpt>
<trkpt lat="35.091691" lon="-85.111459"><ele>296.6</ele><time>2026-08-04T22:07:10Z</time></trkpt>
<trkpt lat="35.091719" lon="-85.111465"><ele>296.9</ele><time>2026-08-04T22:07:12Z</time></trkpt>
<trkpt lat="35.09176" lon="-85.111471"><ele>297.8</ele><time>2026-08-04T22:07:15Z</time></trkpt>
<trkpt lat="35.091789" lon="-85.111466"><ele>296.9</ele><time>2026-08-04T22:07:17Z</time></trkpt>
<trkpt lat="35.091828" lon="-85.111454"><ele>296.3</ele><time>2026-08-04T22:07:20Z</time></trkpt>
<trkpt lat="35.091851" lon="-85.111436"><ele>295.7</ele><time>2026-08-04T22:07:22Z</time></trkpt>
<trkpt lat="35.091876" lon="-85.111414"><ele>294.4</ele><time>2026-08-04T22:07:24Z</time></trkpt>
<trkpt lat="35.0919" lon="-85.111388"><ele>293.8</ele><time>2026-08-04T22:07:26Z</time></trkpt>
<trkpt lat="35.091917" lon="-85.111357"><ele>292.0</ele><time>2026-08-04T22:07:28Z</time></trkpt>
<trkpt lat="35.091937" lon="-85.111329"><ele>292.0</ele><time>2026-08-04T22:07:30Z</time></trkpt>
<trkpt lat="35.091952" lon="-85.111297"><ele>292.3</ele><time>2026-08-04T22:07:32Z</time></trkpt>
<trkpt lat="35.091967" lon="-85.111264"><ele>292.3</ele><time>2026-08-04T22:07:34Z</time></trkpt>
<trkpt lat="35.09198" lon="-85.11123"><ele>293.5</ele><time>2026-08-04T22:07:36Z</time></trkpt>
<trkpt lat="35.091995" lon="-85.111198"><ele>293.5</ele><time>2026-08-04T22:07:38Z</time></trkpt>
<trkpt lat="35.092004" lon="-85.111165"><ele>294.4</ele><time>2026-08-04T22:07:40Z</time></trkpt>
<trkpt lat="35.092022" lon="-85.111118"><ele>295.7</ele><time>2026-08-04T22:07:43Z</time></trkpt>
<trkpt lat="35.092032" lon="-85.111085"><ele>295.7</ele><time>2026-08-04T22:07:45Z</time></trkpt>
<trkpt lat="35.092047" lon="-85.111057"><ele>295.7</ele><time>2026-08-04T22:07:47Z</time></trkpt>
<trkpt lat="35.092065" lon="-85.111031"><ele>296.0</ele><time>2026-08-04T22:07:49Z</time></trkpt>
<trkpt lat="35.092088" lon="-85.111012"><ele>294.7</ele><time>2026-08-04T22:07:51Z</time></trkpt>
<trkpt lat="35.09211" lon="-85.11099"><ele>295.7</ele><time>2026-08-04T22:07:53Z</time></trkpt>
<trkpt lat="35.092132" lon="-85.110969"><ele>297.2</ele><time>2026-08-04T22:07:55Z</time></trkpt>
<trkpt lat="35.092155" lon="-85.110946"><ele>296.6</ele><time>2026-08-04T22:07:57Z</time></trkpt>
<trkpt lat="35.092186" lon="-85.110916"><ele>297.8</ele><time>2026-08-04T22:08:00Z</time></trkpt>
<trkpt lat="35.092205" lon="-85.110891"><ele>298.4</ele><time>2026-08-04T22:08:02Z</time></trkpt>
<trkpt lat="35.092228" lon="-85.110863"><ele>297.2</ele><time>2026-08-04T22:08:04Z</time></trkpt>
<trkpt lat="35.092247" lon="-85.110838"><ele>299.3</ele><time>2026-08-04T22:08:06Z</time></trkpt>
<trkpt lat="35.092256" lon="-85.11079"><ele>299.6</ele><time>2026-08-04T22:08:09Z</time></trkpt>
<trkpt lat="35.092247" lon="-85.110753"><ele>299.6</ele><time>2026-08-04T22:08:11Z</time></trkpt>
<trkpt lat="35.092221" lon="-85.110728"><ele>298.4</ele><time>2026-08-04T22:08:13Z</time></trkpt>
<trkpt lat="35.092197" lon="-85.110707"><ele>299.6</ele><time>2026-08-04T22:08:15Z</time></trkpt>
<trkpt lat="35.092177" lon="-85.110682"><ele>299.0</ele><time>2026-08-04T22:08:17Z</time></trkpt>
<trkpt lat="35.092165" lon="-85.110646"><ele>299.6</ele><time>2026-08-04T22:08:19Z</time></trkpt>
<trkpt lat="35.092168" lon="-85.110607"><ele>299.6</ele><time>2026-08-04T22:08:21Z</time></trkpt>
<trkpt lat="35.092165" lon="-85.110569"><ele>299.9</ele><time>2026-08-04T22:08:23Z</time></trkpt>
<trkpt lat="35.092153" lon="-85.110537"><ele>300.2</ele><time>2026-08-04T22:08:25Z</time></trkpt>
<trkpt lat="35.092137" lon="-85.110509"><ele>299.0</ele><time>2026-08-04T22:08:27Z</time></trkpt>
<trkpt lat="35.092117" lon="-85.110486"><ele>299.0</ele><time>2026-08-04T22:08:29Z</time></trkpt>
<trkpt lat="35.092098" lon="-85.110461"><ele>299.6</ele><time>2026-08-04T22:08:31Z</time></trkpt>
<trkpt lat="35.092087" lon="-85.110428"><ele>299.9</ele><time>2026-08-04T22:08:33Z</time></trkpt>
<trkpt lat="35.092076" lon="-85.110397"><ele>299.3</ele><time>2026-08-04T22:08:35Z</time></trkpt>
<trkpt lat="35.092073" lon="-85.110363"><ele>299.3</ele><time>2026-08-04T22:08:37Z</time></trkpt>
<trkpt lat="35.092086" lon="-85.110318"><ele>299.3</ele><time>2026-08-04T22:08:40Z</time></trkpt>
<trkpt lat="35.092106" lon="-85.110289"><ele>299.0</ele><time>2026-08-04T22:08:42Z</time></trkpt>
<trkpt lat="35.09213" lon="-85.110266"><ele>298.1</ele><time>2026-08-04T22:08:44Z</time></trkpt>
<trkpt lat="35.09215" lon="-85.110242"><ele>298.7</ele><time>2026-08-04T22:08:46Z</time></trkpt>
<trkpt lat="35.092154" lon="-85.110208"><ele>300.5</ele><time>2026-08-04T22:08:48Z</time></trkpt>
<trkpt lat="35.092134" lon="-85.110178"><ele>301.1</ele><time>2026-08-04T22:08:50Z</time></trkpt>
<trkpt lat="35.092104" lon="-85.110163"><ele>301.1</ele><time>2026-08-04T22:08:52Z</time></trkpt>
<trkpt lat="35.092076" lon="-85.110152"><ele>299.9</ele><time>2026-08-04T22:08:54Z</time></trkpt>
<trkpt lat="35.092049" lon="-85.110141"><ele>298.7</ele><time>2026-08-04T22:08:56Z</time></trkpt>
<trkpt lat="35.092019" lon="-85.110138"><ele>298.7</ele><time>2026-08-04T22:08:58Z</time></trkpt>
<trkpt lat="35.091989" lon="-85.110126"><ele>297.8</ele><time>2026-08-04T22:09:00Z</time></trkpt>
<trkpt lat="35.091964" lon="-85.110108"><ele>296.6</ele><time>2026-08-04T22:09:02Z</time></trkpt>
<trkpt lat="35.091943" lon="-85.110081"><ele>296.3</ele><time>2026-08-04T22:09:04Z</time></trkpt>
<trkpt lat="35.091924" lon="-85.110054"><ele>296.0</ele><time>2026-08-04T22:09:06Z</time></trkpt>
<trkpt lat="35.091902" lon="-85.11003"><ele>297.8</ele><time>2026-08-04T22:09:08Z</time></trkpt>
<trkpt lat="35.091876" lon="-85.110013"><ele>297.8</ele><time>2026-08-04T22:09:10Z</time></trkpt>
<trkpt lat="35.091852" lon="-85.109991"><ele>299.0</ele><time>2026-08-04T22:09:12Z</time></trkpt>
<trkpt lat="35.091825" lon="-85.109972"><ele>298.1</ele><time>2026-08-04T22:09:14Z</time></trkpt>
<trkpt lat="35.0918" lon="-85.109951"><ele>298.1</ele><time>2026-08-04T22:09:16Z</time></trkpt>
<trkpt lat="35.091778" lon="-85.109924"><ele>297.8</ele><time>2026-08-04T22:09:18Z</time></trkpt>
<trkpt lat="35.091756" lon="-85.109896"><ele>297.2</ele><time>2026-08-04T22:09:20Z</time></trkpt>
<trkpt lat="35.091733" lon="-85.109874"><ele>295.7</ele><time>2026-08-04T22:09:22Z</time></trkpt>
<trkpt lat="35.091706" lon="-85.109862"><ele>296.0</ele><time>2026-08-04T22:09:24Z</time></trkpt>
<trkpt lat="35.09168" lon="-85.109849"><ele>294.4</ele><time>2026-08-04T22:09:26Z</time></trkpt>
<trkpt lat="35.091654" lon="-85.109835"><ele>292.9</ele><time>2026-08-04T22:09:28Z</time></trkpt>
<trkpt lat="35.091633" lon="-85.109811"><ele>292.0</ele><time>2026-08-04T22:09:30Z</time></trkpt>
<trkpt lat="35.091611" lon="-85.109786"><ele>290.2</ele><time>2026-08-04T22:09:32Z</time></trkpt>
<trkpt lat="35.091594" lon="-85.109755"><ele>290.8</ele><time>2026-08-04T22:09:34Z</time></trkpt>
<trkpt lat="35.091577" lon="-85.109722"><ele>291.4</ele><time>2026-08-04T22:09:36Z</time></trkpt>
<trkpt lat="35.091557" lon="-85.109696"><ele>292.3</ele><time>2026-08-04T22:09:38Z</time></trkpt>
<trkpt lat="35.09153" lon="-85.109685"><ele>292.3</ele><time>2026-08-04T22:09:40Z</time></trkpt>
<trkpt lat="35.09149" lon="-85.109693"><ele>292.6</ele><time>2026-08-04T22:09:43Z</time></trkpt>
<trkpt lat="35.091466" lon="-85.109712"><ele>292.0</ele><time>2026-08-04T22:09:45Z</time></trkpt>
<trkpt lat="35.091444" lon="-85.109732"><ele>291.4</ele><time>2026-08-04T22:09:47Z</time></trkpt>
<trkpt lat="35.091424" lon="-85.109757"><ele>291.1</ele><time>2026-08-04T22:09:49Z</time></trkpt>
<trkpt lat="35.091389" lon="-85.109783"><ele>290.2</ele><time>2026-08-04T22:09:52Z</time></trkpt>
<trkpt lat="35.091361" lon="-85.109792"><ele>289.9</ele><time>2026-08-04T22:09:54Z</time></trkpt>
<trkpt lat="35.091334" lon="-85.109804"><ele>289.3</ele><time>2026-08-04T22:09:56Z</time></trkpt>
<trkpt lat="35.091304" lon="-85.109814"><ele>289.0</ele><time>2026-08-04T22:09:58Z</time></trkpt>
<trkpt lat="35.091276" lon="-85.109829"><ele>291.7</ele><time>2026-08-04T22:10:00Z</time></trkpt>
<trkpt lat="35.091249" lon="-85.109843"><ele>292.6</ele><time>2026-08-04T22:10:02Z</time></trkpt>
<trkpt lat="35.091221" lon="-85.109859"><ele>293.2</ele><time>2026-08-04T22:10:04Z</time></trkpt>
<trkpt lat="35.0912" lon="-85.109884"><ele>293.2</ele><time>2026-08-04T22:10:06Z</time></trkpt>
<trkpt lat="35.091176" lon="-85.109904"><ele>293.8</ele><time>2026-08-04T22:10:08Z</time></trkpt>
<trkpt lat="35.091149" lon="-85.109921"><ele>294.1</ele><time>2026-08-04T22:10:10Z</time></trkpt>
<trkpt lat="35.091123" lon="-85.109938"><ele>294.7</ele><time>2026-08-04T22:10:12Z</time></trkpt>
<trkpt lat="35.0911" lon="-85.10996"><ele>295.0</ele><time>2026-08-04T22:10:14Z</time></trkpt>
<trkpt lat="35.091076" lon="-85.10998"><ele>295.4</ele><time>2026-08-04T22:10:16Z</time></trkpt>
<trkpt lat="35.091054" lon="-85.110005"><ele>296.3</ele><time>2026-08-04T22:10:18Z</time></trkpt>
<trkpt lat="35.091031" lon="-85.110027"><ele>296.9</ele><time>2026-08-04T22:10:20Z</time></trkpt>
<trkpt lat="35.091008" lon="-85.110046"><ele>297.8</ele><time>2026-08-04T22:10:22Z</time></trkpt>
<trkpt lat="35.090988" lon="-85.11007"><ele>297.5</ele><time>2026-08-04T22:10:24Z</time></trkpt>
<trkpt lat="35.090959" lon="-85.110103"><ele>298.4</ele><time>2026-08-04T22:10:27Z</time></trkpt>
<trkpt lat="35.090941" lon="-85.11013"><ele>298.7</ele><time>2026-08-04T22:10:29Z</time></trkpt>
<trkpt lat="35.090921" lon="-85.110155"><ele>298.7</ele><time>2026-08-04T22:10:31Z</time></trkpt>
<trkpt lat="35.090908" lon="-85.110188"><ele>299.6</ele><time>2026-08-04T22:10:33Z</time></trkpt>
<trkpt lat="35.090887" lon="-85.110214"><ele>299.6</ele><time>2026-08-04T22:10:35Z</time></trkpt>
<trkpt lat="35.090867" lon="-85.110238"><ele>297.2</ele><time>2026-08-04T22:10:37Z</time></trkpt>
<trkpt lat="35.090849" lon="-85.110268"><ele>297.5</ele><time>2026-08-04T22:10:39Z</time></trkpt>
<trkpt lat="35.090831" lon="-85.110295"><ele>298.1</ele><time>2026-08-04T22:10:41Z</time></trkpt>
<trkpt lat="35.090808" lon="-85.11032"><ele>298.1</ele><time>2026-08-04T22:10:43Z</time></trkpt>
<trkpt lat="35.090772" lon="-85.110338"><ele>299.0</ele><time>2026-08-04T22:10:46Z</time></trkpt>
<trkpt lat="35.090745" lon="-85.110346"><ele>300.5</ele><time>2026-08-04T22:10:48Z</time></trkpt>
<trkpt lat="35.090707" lon="-85.110361"><ele>301.1</ele><time>2026-08-04T22:10:51Z</time></trkpt>
<trkpt lat="35.090684" lon="-85.11038"><ele>301.4</ele><time>2026-08-04T22:10:53Z</time></trkpt>
<trkpt lat="35.090663" lon="-85.110407"><ele>300.8</ele><time>2026-08-04T22:10:55Z</time></trkpt>
<trkpt lat="35.090651" lon="-85.110442"><ele>302.4</ele><time>2026-08-04T22:10:57Z</time></trkpt>
<trkpt lat="35.090628" lon="-85.110483"><ele>302.7</ele><time>2026-08-04T22:11:00Z</time></trkpt>
<trkpt lat="35.090611" lon="-85.110513"><ele>300.8</ele><time>2026-08-04T22:11:02Z</time></trkpt>
<trkpt lat="35.090578" lon="-85.110537"><ele>301.4</ele><time>2026-08-04T22:11:05Z</time></trkpt>
<trkpt lat="35.09054" lon="-85.110533"><ele>299.0</ele><time>2026-08-04T22:11:08Z</time></trkpt>
<trkpt lat="35.090506" lon="-85.110521"><ele>299.9</ele><time>2026-08-04T22:11:11Z</time></trkpt>
<trkpt lat="35.090469" lon="-85.110502"><ele>300.8</ele><time>2026-08-04T22:11:14Z</time></trkpt>
<trkpt lat="35.09043" lon="-85.110497"><ele>302.4</ele><time>2026-08-04T22:11:17Z</time></trkpt>
<trkpt lat="35.090392" lon="-85.110512"><ele>302.4</ele><time>2026-08-04T22:11:20Z</time></trkpt>
<trkpt lat="35.090374" lon="-85.110536"><ele>303.0</ele><time>2026-08-04T22:11:22Z</time></trkpt>
<trkpt lat="35.090352" lon="-85.110559"><ele>301.4</ele><time>2026-08-04T22:11:24Z</time></trkpt>
<trkpt lat="35.09032" lon="-85.11059"><ele>301.8</ele><time>2026-08-04T22:11:27Z</time></trkpt>
<trkpt lat="35.090298" lon="-85.110613"><ele>302.7</ele><time>2026-08-04T22:11:29Z</time></trkpt>
<trkpt lat="35.090281" lon="-85.110643"><ele>303.6</ele><time>2026-08-04T22:11:31Z</time></trkpt>
<trkpt lat="35.090268" lon="-85.110674"><ele>304.2</ele><time>2026-08-04T22:11:33Z</time></trkpt>
<trkpt lat="35.090256" lon="-85.110705"><ele>305.1</ele><time>2026-08-04T22:11:35Z</time></trkpt>
<trkpt lat="35.090235" lon="-85.11073"><ele>306.9</ele><time>2026-08-04T22:11:37Z</time></trkpt>
<trkpt lat="35.090218" lon="-85.110756"><ele>306.6</ele><time>2026-08-04T22:11:39Z</time></trkpt>
<trkpt lat="35.090196" lon="-85.11078"><ele>306.9</ele><time>2026-08-04T22:11:41Z</time></trkpt>
<trkpt lat="35.090169" lon="-85.110809"><ele>307.2</ele><time>2026-08-04T22:11:44Z</time></trkpt>
<trkpt lat="35.090155" lon="-85.110857"><ele>306.6</ele><time>2026-08-04T22:11:47Z</time></trkpt>
<trkpt lat="35.090153" lon="-85.110897"><ele>303.9</ele><time>2026-08-04T22:11:49Z</time></trkpt>
<trkpt lat="35.090156" lon="-85.110935"><ele>304.2</ele><time>2026-08-04T22:11:51Z</time></trkpt>
<trkpt lat="35.090154" lon="-85.110972"><ele>305.7</ele><time>2026-08-04T22:11:53Z</time></trkpt>
<trkpt lat="35.090138" lon="-85.111015"><ele>305.1</ele><time>2026-08-04T22:11:56Z</time></trkpt>
<trkpt lat="35.090129" lon="-85.111046"><ele>304.5</ele><time>2026-08-04T22:11:58Z</time></trkpt>
<trkpt lat="35.090113" lon="-85.111091"><ele>306.6</ele><time>2026-08-04T22:12:01Z</time></trkpt>
<trkpt lat="35.090113" lon="-85.111128"><ele>306.6</ele><time>2026-08-04T22:12:03Z</time></trkpt>
<trkpt lat="35.090115" lon="-85.111164"><ele>307.8</ele><time>2026-08-04T22:12:05Z</time></trkpt>
<trkpt lat="35.090123" lon="-85.111198"><ele>307.8</ele><time>2026-08-04T22:12:07Z</time></trkpt>
<trkpt lat="35.090141" lon="-85.111228"><ele>309.1</ele><time>2026-08-04T22:12:09Z</time></trkpt>
<trkpt lat="35.090161" lon="-85.111259"><ele>309.4</ele><time>2026-08-04T22:12:11Z</time></trkpt>
<trkpt lat="35.090177" lon="-85.111291"><ele>310.3</ele><time>2026-08-04T22:12:13Z</time></trkpt>
<trkpt lat="35.090184" lon="-85.111332"><ele>310.6</ele><time>2026-08-04T22:12:15Z</time></trkpt>
<trkpt lat="35.090195" lon="-85.111367"><ele>311.2</ele><time>2026-08-04T22:12:17Z</time></trkpt>
<trkpt lat="35.090203" lon="-85.111406"><ele>310.0</ele><time>2026-08-04T22:12:19Z</time></trkpt>
<trkpt lat="35.090209" lon="-85.111441"><ele>310.0</ele><time>2026-08-04T22:12:21Z</time></trkpt>
<trkpt lat="35.090212" lon="-85.111475"><ele>310.3</ele><time>2026-08-04T22:12:23Z</time></trkpt>
<trkpt lat="35.09021" lon="-85.111511"><ele>310.3</ele><time>2026-08-04T22:12:25Z</time></trkpt>
<trkpt lat="35.090216" lon="-85.111559"><ele>306.9</ele><time>2026-08-04T22:12:28Z</time></trkpt>
<trkpt lat="35.09023" lon="-85.111592"><ele>304.8</ele><time>2026-08-04T22:12:30Z</time></trkpt>
<trkpt lat="35.090242" lon="-85.111625"><ele>306.3</ele><time>2026-08-04T22:12:32Z</time></trkpt>
<trkpt lat="35.090253" lon="-85.111674"><ele>306.0</ele><time>2026-08-04T22:12:35Z</time></trkpt>
<trkpt lat="35.090265" lon="-85.111709"><ele>305.7</ele><time>2026-08-04T22:12:37Z</time></trkpt>
<trkpt lat="35.090268" lon="-85.111742"><ele>304.5</ele><time>2026-08-04T22:12:39Z</time></trkpt>
<trkpt lat="35.090276" lon="-85.111786"><ele>304.2</ele><time>2026-08-04T22:12:42Z</time></trkpt>
<trkpt lat="35.090284" lon="-85.11183"><ele>305.1</ele><time>2026-08-04T22:12:45Z</time></trkpt>
<trkpt lat="35.090291" lon="-85.111862"><ele>304.8</ele><time>2026-08-04T22:12:47Z</time></trkpt>
<trkpt lat="35.090292" lon="-85.111911"><ele>305.7</ele><time>2026-08-04T22:12:50Z</time></trkpt>
<trkpt lat="35.090294" lon="-85.111945"><ele>306.0</ele><time>2026-08-04T22:12:52Z</time></trkpt>
<trkpt lat="35.0903" lon="-85.11198"><ele>305.4</ele><time>2026-08-04T22:12:54Z</time></trkpt>
<trkpt lat="35.0903" lon="-85.112018"><ele>305.4</ele><time>2026-08-04T22:12:56Z</time></trkpt>
<trkpt lat="35.090304" lon="-85.112053"><ele>304.8</ele><time>2026-08-04T22:12:58Z</time></trkpt>
<trkpt lat="35.090305" lon="-85.112088"><ele>304.5</ele><time>2026-08-04T22:13:00Z</time></trkpt>
<trkpt lat="35.090311" lon="-85.112125"><ele>305.7</ele><time>2026-08-04T22:13:02Z</time></trkpt>
<trkpt lat="35.090321" lon="-85.112158"><ele>304.8</ele><time>2026-08-04T22:13:04Z</time></trkpt>
<trkpt lat="35.090333" lon="-85.112192"><ele>306.3</ele><time>2026-08-04T22:13:06Z</time></trkpt>
<trkpt lat="35.090335" lon="-85.112226"><ele>304.5</ele><time>2026-08-04T22:13:08Z</time></trkpt>
<trkpt lat="35.090343" lon="-85.112259"><ele>306.3</ele><time>2026-08-04T22:13:10Z</time></trkpt>
<trkpt lat="35.090352" lon="-85.112304"><ele>305.1</ele><time>2026-08-04T22:13:13Z</time></trkpt>
<trkpt lat="35.090352" lon="-85.112349"><ele>305.4</ele><time>2026-08-04T22:13:16Z</time></trkpt>
<trkpt lat="35.090349" lon="-85.112395"><ele>303.9</ele><time>2026-08-04T22:13:19Z</time></trkpt>
<trkpt lat="35.090357" lon="-85.11243"><ele>304.2</ele><time>2026-08-04T22:13:21Z</time></trkpt>
<trkpt lat="35.090371" lon="-85.112463"><ele>303.9</ele><time>2026-08-04T22:13:23Z</time></trkpt>
<trkpt lat="35.090378" lon="-85.1125"><ele>304.2</ele><time>2026-08-04T22:13:25Z</time></trkpt>
<trkpt lat="35.090378" lon="-85.112536"><ele>305.1</ele><time>2026-08-04T22:13:27Z</time></trkpt>
<trkpt lat="35.090357" lon="-85.112569"><ele>304.2</ele><time>2026-08-04T22:13:30Z</time></trkpt>
<trkpt lat="35.090332" lon="-85.112593"><ele>301.8</ele><time>2026-08-04T22:13:33Z</time></trkpt>
<trkpt lat="35.090304" lon="-85.112616"><ele>299.3</ele><time>2026-08-04T22:13:36Z</time></trkpt>
<trkpt lat="35.09027" lon="-85.11264"><ele>298.7</ele><time>2026-08-04T22:13:39Z</time></trkpt>
<trkpt lat="35.090237" lon="-85.11266"><ele>295.0</ele><time>2026-08-04T22:13:42Z</time></trkpt>
<trkpt lat="35.090197" lon="-85.112665"><ele>295.4</ele><time>2026-08-04T22:13:45Z</time></trkpt>
<trkpt lat="35.090161" lon="-85.112679"><ele>295.0</ele><time>2026-08-04T22:13:48Z</time></trkpt>
<trkpt lat="35.090125" lon="-85.112689"><ele>296.6</ele><time>2026-08-04T22:13:51Z</time></trkpt>
<trkpt lat="35.090094" lon="-85.112709"><ele>299.9</ele><time>2026-08-04T22:13:54Z</time></trkpt>
<trkpt lat="35.090071" lon="-85.112743"><ele>302.1</ele><time>2026-08-04T22:13:57Z</time></trkpt>
<trkpt lat="35.090049" lon="-85.112777"><ele>305.1</ele><time>2026-08-04T22:14:00Z</time></trkpt>
<trkpt lat="35.090038" lon="-85.112824"><ele>305.4</ele><time>2026-08-04T22:14:03Z</time></trkpt>
<trkpt lat="35.090021" lon="-85.112864"><ele>305.4</ele><time>2026-08-04T22:14:06Z</time></trkpt>
<trkpt lat="35.089989" lon="-85.112893"><ele>304.8</ele><time>2026-08-04T22:14:09Z</time></trkpt>
<trkpt lat="35.089955" lon="-85.112911"><ele>303.6</ele><time>2026-08-04T22:14:12Z</time></trkpt>
<trkpt lat="35.089915" lon="-85.112914"><ele>303.9</ele><time>2026-08-04T22:14:15Z</time></trkpt>
<trkpt lat="35.089879" lon="-85.112899"><ele>305.1</ele><time>2026-08-04T22:14:18Z</time></trkpt>
<trkpt lat="35.089855" lon="-85.112861"><ele>305.4</ele><time>2026-08-04T22:14:21Z</time></trkpt>
<trkpt lat="35.089838" lon="-85.112818"><ele>306.3</ele><time>2026-08-04T22:14:24Z</time></trkpt>
<trkpt lat="35.089817" lon="-85.112797"><ele>307.5</ele><time>2026-08-04T22:14:26Z</time></trkpt>
<trkpt lat="35.089787" lon="-85.11279"><ele>308.2</ele><time>2026-08-04T22:14:28Z</time></trkpt>
<trkpt lat="35.089754" lon="-85.112796"><ele>307.5</ele><time>2026-08-04T22:14:30Z</time></trkpt>
<trkpt lat="35.089726" lon="-85.11281"><ele>308.2</ele><time>2026-08-04T22:14:32Z</time></trkpt>
<trkpt lat="35.089696" lon="-85.112819"><ele>307.5</ele><time>2026-08-04T22:14:34Z</time></trkpt>
<trkpt lat="35.089667" lon="-85.112822"><ele>307.2</ele><time>2026-08-04T22:14:36Z</time></trkpt>
<trkpt lat="35.089639" lon="-85.112822"><ele>307.2</ele><time>2026-08-04T22:14:38Z</time></trkpt>
<trkpt lat="35.089615" lon="-85.112804"><ele>307.8</ele><time>2026-08-04T22:14:40Z</time></trkpt>
<trkpt lat="35.089583" lon="-85.11278"><ele>308.8</ele><time>2026-08-04T22:14:43Z</time></trkpt>
<trkpt lat="35.089555" lon="-85.112749"><ele>307.5</ele><time>2026-08-04T22:14:46Z</time></trkpt>
<trkpt lat="35.08952" lon="-85.112731"><ele>307.5</ele><time>2026-08-04T22:14:49Z</time></trkpt>
<trkpt lat="35.08948" lon="-85.11273"><ele>309.7</ele><time>2026-08-04T22:14:52Z</time></trkpt>
<trkpt lat="35.08945" lon="-85.112736"><ele>307.2</ele><time>2026-08-04T22:14:54Z</time></trkpt>
<trkpt lat="35.089409" lon="-85.112734"><ele>306.0</ele><time>2026-08-04T22:14:57Z</time></trkpt>
<trkpt lat="35.089384" lon="-85.112721"><ele>306.0</ele><time>2026-08-04T22:14:59Z</time></trkpt>
<trkpt lat="35.089361" lon="-85.112699"><ele>305.1</ele><time>2026-08-04T22:15:01Z</time></trkpt>
<trkpt lat="35.089324" lon="-85.112681"><ele>303.6</ele><time>2026-08-04T22:15:04Z</time></trkpt>
<trkpt lat="35.089297" lon="-85.112699"><ele>303.3</ele><time>2026-08-04T22:15:06Z</time></trkpt>
<trkpt lat="35.089282" lon="-85.112737"><ele>303.0</ele><time>2026-08-04T22:15:08Z</time></trkpt>
<trkpt lat="35.089263" lon="-85.112764"><ele>303.3</ele><time>2026-08-04T22:15:10Z</time></trkpt>
<trkpt lat="35.089241" lon="-85.112789"><ele>302.4</ele><time>2026-08-04T22:15:12Z</time></trkpt>
<trkpt lat="35.089224" lon="-85.112817"><ele>303.6</ele><time>2026-08-04T22:15:14Z</time></trkpt>
<trkpt lat="35.089206" lon="-85.112846"><ele>302.7</ele><time>2026-08-04T22:15:16Z</time></trkpt>
<trkpt lat="35.089194" lon="-85.112879"><ele>303.3</ele><time>2026-08-04T22:15:18Z</time></trkpt>
<trkpt lat="35.089187" lon="-85.112915"><ele>303.6</ele><time>2026-08-04T22:15:20Z</time></trkpt>
<trkpt lat="35.089196" lon="-85.112954"><ele>304.5</ele><time>2026-08-04T22:15:22Z</time></trkpt>
<trkpt lat="35.089204" lon="-85.112995"><ele>303.9</ele><time>2026-08-04T22:15:24Z</time></trkpt>
<trkpt lat="35.089208" lon="-85.113035"><ele>303.3</ele><time>2026-08-04T22:15:26Z</time></trkpt>
<trkpt lat="35.089201" lon="-85.113073"><ele>303.0</ele><time>2026-08-04T22:15:28Z</time></trkpt>
<trkpt lat="35.089188" lon="-85.113106"><ele>302.1</ele><time>2026-08-04T22:15:30Z</time></trkpt>
<trkpt lat="35.089165" lon="-85.113126"><ele>302.1</ele><time>2026-08-04T22:15:32Z</time></trkpt>
<trkpt lat="35.089138" lon="-85.113137"><ele>301.8</ele><time>2026-08-04T22:15:34Z</time></trkpt>
<trkpt lat="35.089097" lon="-85.11314"><ele>300.2</ele><time>2026-08-04T22:15:37Z</time></trkpt>
<trkpt lat="35.089067" lon="-85.113139"><ele>300.8</ele><time>2026-08-04T22:15:39Z</time></trkpt>
<trkpt lat="35.089036" lon="-85.113139"><ele>301.1</ele><time>2026-08-04T22:15:41Z</time></trkpt>
<trkpt lat="35.089008" lon="-85.113136"><ele>300.8</ele><time>2026-08-04T22:15:43Z</time></trkpt>
<trkpt lat="35.088979" lon="-85.113128"><ele>300.5</ele><time>2026-08-04T22:15:45Z</time></trkpt>
<trkpt lat="35.088952" lon="-85.113109"><ele>300.2</ele><time>2026-08-04T22:15:47Z</time></trkpt>
<trkpt lat="35.088927" lon="-85.113094"><ele>300.5</ele><time>2026-08-04T22:15:49Z</time></trkpt>
<trkpt lat="35.088887" lon="-85.113088"><ele>302.1</ele><time>2026-08-04T22:15:52Z</time></trkpt>
<trkpt lat="35.088856" lon="-85.113062"><ele>306.3</ele><time>2026-08-04T22:15:54Z</time></trkpt>
<trkpt lat="35.088833" lon="-85.113024"><ele>306.3</ele><time>2026-08-04T22:15:57Z</time></trkpt>
<trkpt lat="35.088799" lon="-85.113001"><ele>304.2</ele><time>2026-08-04T22:16:00Z</time></trkpt>
<trkpt lat="35.088775" lon="-85.112967"><ele>303.3</ele><time>2026-08-04T22:16:03Z</time></trkpt>
<trkpt lat="35.088749" lon="-85.112939"><ele>302.1</ele><time>2026-08-04T22:16:06Z</time></trkpt>
<trkpt lat="35.088724" lon="-85.11292"><ele>302.1</ele><time>2026-08-04T22:16:08Z</time></trkpt>
<trkpt lat="35.088698" lon="-85.112888"><ele>305.1</ele><time>2026-08-04T22:16:10Z</time></trkpt>
<trkpt lat="35.088673" lon="-85.112863"><ele>302.1</ele><time>2026-08-04T22:16:13Z</time></trkpt>
<trkpt lat="35.088645" lon="-85.11285"><ele>300.8</ele><time>2026-08-04T22:16:15Z</time></trkpt>
<trkpt lat="35.088615" lon="-85.112843"><ele>301.8</ele><time>2026-08-04T22:16:17Z</time></trkpt>
<trkpt lat="35.088589" lon="-85.112828"><ele>301.8</ele><time>2026-08-04T22:16:19Z</time></trkpt>
<trkpt lat="35.088564" lon="-85.112814"><ele>301.4</ele><time>2026-08-04T22:16:21Z</time></trkpt>
<trkpt lat="35.08853" lon="-85.112791"><ele>299.9</ele><time>2026-08-04T22:16:24Z</time></trkpt>
<trkpt lat="35.088491" lon="-85.112775"><ele>300.8</ele><time>2026-08-04T22:16:27Z</time></trkpt>
<trkpt lat="35.088463" lon="-85.112763"><ele>299.6</ele><time>2026-08-04T22:16:29Z</time></trkpt>
<trkpt lat="35.088426" lon="-85.11275"><ele>296.3</ele><time>2026-08-04T22:16:32Z</time></trkpt>
<trkpt lat="35.08839" lon="-85.112758"><ele>296.9</ele><time>2026-08-04T22:16:35Z</time></trkpt>
<trkpt lat="35.088351" lon="-85.112775"><ele>297.8</ele><time>2026-08-04T22:16:38Z</time></trkpt>
<trkpt lat="35.088323" lon="-85.112797"><ele>297.5</ele><time>2026-08-04T22:16:40Z</time></trkpt>
<trkpt lat="35.088291" lon="-85.112808"><ele>297.2</ele><time>2026-08-04T22:16:42Z</time></trkpt>
<trkpt lat="35.088264" lon="-85.112819"><ele>296.9</ele><time>2026-08-04T22:16:44Z</time></trkpt>
<trkpt lat="35.088235" lon="-85.112829"><ele>296.0</ele><time>2026-08-04T22:16:46Z</time></trkpt>
<trkpt lat="35.088207" lon="-85.112846"><ele>295.4</ele><time>2026-08-04T22:16:48Z</time></trkpt>
<trkpt lat="35.088194" lon="-85.112884"><ele>294.7</ele><time>2026-08-04T22:16:50Z</time></trkpt>
<trkpt lat="35.08819" lon="-85.112922"><ele>293.2</ele><time>2026-08-04T22:16:52Z</time></trkpt>
<trkpt lat="35.088186" lon="-85.112964"><ele>291.4</ele><time>2026-08-04T22:16:54Z</time></trkpt>
<trkpt lat="35.088184" lon="-85.113007"><ele>290.2</ele><time>2026-08-04T22:16:56Z</time></trkpt>
<trkpt lat="35.088182" lon="-85.113049"><ele>290.2</ele><time>2026-08-04T22:16:58Z</time></trkpt>
<trkpt lat="35.088177" lon="-85.113085"><ele>290.2</ele><time>2026-08-04T22:17:00Z</time></trkpt>
<trkpt lat="35.088162" lon="-85.113118"><ele>290.2</ele><time>2026-08-04T22:17:02Z</time></trkpt>
<trkpt lat="35.088145" lon="-85.113147"><ele>290.2</ele><time>2026-08-04T22:17:04Z</time></trkpt>
<trkpt lat="35.088128" lon="-85.113177"><ele>289.9</ele><time>2026-08-04T22:17:06Z</time></trkpt>
<trkpt lat="35.088095" lon="-85.113207"><ele>290.8</ele><time>2026-08-04T22:17:09Z</time></trkpt>
<trkpt lat="35.088065" lon="-85.11321"><ele>290.8</ele><time>2026-08-04T22:17:11Z</time></trkpt>
<trkpt lat="35.088035" lon="-85.113213"><ele>290.5</ele><time>2026-08-04T22:17:13Z</time></trkpt>
<trkpt lat="35.088005" lon="-85.113212"><ele>290.8</ele><time>2026-08-04T22:17:15Z</time></trkpt>
<trkpt lat="35.087978" lon="-85.113201"><ele>289.9</ele><time>2026-08-04T22:17:17Z</time></trkpt>
<trkpt lat="35.08794" lon="-85.113208"><ele>290.2</ele><time>2026-08-04T22:17:20Z</time></trkpt>
<trkpt lat="35.087912" lon="-85.113212"><ele>292.0</ele><time>2026-08-04T22:17:22Z</time></trkpt>
<trkpt lat="35.087877" lon="-85.113233"><ele>290.5</ele><time>2026-08-04T22:17:25Z</time></trkpt>
<trkpt lat="35.087876" lon="-85.113282"><ele>288.3</ele><time>2026-08-04T22:17:27Z</time></trkpt>
<trkpt lat="35.087887" lon="-85.113328"><ele>287.1</ele><time>2026-08-04T22:17:29Z</time></trkpt>
<trkpt lat="35.087899" lon="-85.113371"><ele>286.5</ele><time>2026-08-04T22:17:31Z</time></trkpt>
<trkpt lat="35.087903" lon="-85.113411"><ele>285.9</ele><time>2026-08-04T22:17:33Z</time></trkpt>
<trkpt lat="35.087905" lon="-85.113446"><ele>284.7</ele><time>2026-08-04T22:17:35Z</time></trkpt>
<trkpt lat="35.087906" lon="-85.113483"><ele>284.4</ele><time>2026-08-04T22:17:37Z</time></trkpt>
<trkpt lat="35.087902" lon="-85.11352"><ele>285.6</ele><time>2026-08-04T22:17:39Z</time></trkpt>
<trkpt lat="35.087892" lon="-85.113552"><ele>286.2</ele><time>2026-08-04T22:17:41Z</time></trkpt>
<trkpt lat="35.087872" lon="-85.113583"><ele>285.3</ele><time>2026-08-04T22:17:43Z</time></trkpt>
<trkpt lat="35.087847" lon="-85.113606"><ele>283.2</ele><time>2026-08-04T22:17:45Z</time></trkpt>
<trkpt lat="35.087834" lon="-85.113653"><ele>280.1</ele><time>2026-08-04T22:17:47Z</time></trkpt>
<trkpt lat="35.08784" lon="-85.113686"><ele>280.7</ele><time>2026-08-04T22:17:48Z</time></trkpt>
<trkpt lat="35.087849" lon="-85.113738"><ele>282.5</ele><time>2026-08-04T22:17:50Z</time></trkpt>
<trkpt lat="35.08786" lon="-85.113769"><ele>283.2</ele><time>2026-08-04T22:17:52Z</time></trkpt>
<trkpt lat="35.08788" lon="-85.113796"><ele>284.1</ele><time>2026-08-04T22:17:54Z</time></trkpt>
<trkpt lat="35.087896" lon="-85.113825"><ele>286.5</ele><time>2026-08-04T22:17:56Z</time></trkpt>
<trkpt lat="35.087913" lon="-85.113852"><ele>287.4</ele><time>2026-08-04T22:17:58Z</time></trkpt>
<trkpt lat="35.087926" lon="-85.113882"><ele>289.0</ele><time>2026-08-04T22:18:00Z</time></trkpt>
<trkpt lat="35.087934" lon="-85.113915"><ele>289.6</ele><time>2026-08-04T22:18:02Z</time></trkpt>
<trkpt lat="35.087946" lon="-85.113945"><ele>288.6</ele><time>2026-08-04T22:18:04Z</time></trkpt>
<trkpt lat="35.087961" lon="-85.113986"><ele>287.7</ele><time>2026-08-04T22:18:07Z</time></trkpt>
<trkpt lat="35.087971" lon="-85.11403"><ele>285.6</ele><time>2026-08-04T22:18:10Z</time></trkpt>
<trkpt lat="35.087988" lon="-85.114074"><ele>286.5</ele><time>2026-08-04T22:18:13Z</time></trkpt>
<trkpt lat="35.088002" lon="-85.114103"><ele>285.3</ele><time>2026-08-04T22:18:15Z</time></trkpt>
<trkpt lat="35.088001" lon="-85.11414"><ele>286.5</ele><time>2026-08-04T22:18:17Z</time></trkpt>
<trkpt lat="35.087997" lon="-85.114174"><ele>286.8</ele><time>2026-08-04T22:18:19Z</time></trkpt>
<trkpt lat="35.087988" lon="-85.114219"><ele>286.5</ele><time>2026-08-04T22:18:22Z</time></trkpt>
<trkpt lat="35.087979" lon="-85.114251"><ele>286.8</ele><time>2026-08-04T22:18:24Z</time></trkpt>
<trkpt lat="35.08797" lon="-85.114293"><ele>285.0</ele><time>2026-08-04T22:18:26Z</time></trkpt>
<trkpt lat="35.087952" lon="-85.114348"><ele>285.9</ele><time>2026-08-04T22:18:28Z</time></trkpt>
<trkpt lat="35.087945" lon="-85.114408"><ele>287.7</ele><time>2026-08-04T22:18:30Z</time></trkpt>
<trkpt lat="35.087938" lon="-85.114451"><ele>289.0</ele><time>2026-08-04T22:18:32Z</time></trkpt>
<trkpt lat="35.087958" lon="-85.114487"><ele>283.8</ele><time>2026-08-04T22:18:38Z</time></trkpt>
<trkpt lat="35.087941" lon="-85.114523"><ele>282.9</ele><time>2026-08-04T22:18:41Z</time></trkpt>
<trkpt lat="35.087932" lon="-85.114557"><ele>284.7</ele><time>2026-08-04T22:18:44Z</time></trkpt>
<trkpt lat="35.08791" lon="-85.114593"><ele>286.2</ele><time>2026-08-04T22:18:47Z</time></trkpt>
<trkpt lat="35.087893" lon="-85.114628"><ele>283.2</ele><time>2026-08-04T22:18:50Z</time></trkpt>
<trkpt lat="35.087867" lon="-85.11466"><ele>282.9</ele><time>2026-08-04T22:18:53Z</time></trkpt>
<trkpt lat="35.087835" lon="-85.114684"><ele>282.5</ele><time>2026-08-04T22:18:56Z</time></trkpt>
<trkpt lat="35.087814" lon="-85.114718"><ele>282.2</ele><time>2026-08-04T22:18:59Z</time></trkpt>
<trkpt lat="35.087802" lon="-85.114762"><ele>282.2</ele><time>2026-08-04T22:19:02Z</time></trkpt>
<trkpt lat="35.08779" lon="-85.114805"><ele>282.5</ele><time>2026-08-04T22:19:05Z</time></trkpt>
<trkpt lat="35.087786" lon="-85.11485"><ele>280.4</ele><time>2026-08-04T22:19:08Z</time></trkpt>
<trkpt lat="35.087784" lon="-85.114897"><ele>279.8</ele><time>2026-08-04T22:19:11Z</time></trkpt>
<trkpt lat="35.087794" lon="-85.114943"><ele>280.7</ele><time>2026-08-04T22:19:14Z</time></trkpt>
<trkpt lat="35.08781" lon="-85.114971"><ele>280.1</ele><time>2026-08-04T22:19:16Z</time></trkpt>
<trkpt lat="35.087828" lon="-85.115009"><ele>279.5</ele><time>2026-08-04T22:19:19Z</time></trkpt>
<trkpt lat="35.087845" lon="-85.115053"><ele>280.7</ele><time>2026-08-04T22:19:22Z</time></trkpt>
<trkpt lat="35.087854" lon="-85.115087"><ele>281.0</ele><time>2026-08-04T22:19:24Z</time></trkpt>
<trkpt lat="35.087858" lon="-85.11512"><ele>281.6</ele><time>2026-08-04T22:19:26Z</time></trkpt>
<trkpt lat="35.087847" lon="-85.115168"><ele>279.8</ele><time>2026-08-04T22:19:29Z</time></trkpt>
<trkpt lat="35.087832" lon="-85.11521"><ele>281.9</ele><time>2026-08-04T22:19:32Z</time></trkpt>
<trkpt lat="35.087815" lon="-85.115236"><ele>281.9</ele><time>2026-08-04T22:19:34Z</time></trkpt>
<trkpt lat="35.08779" lon="-85.115267"><ele>280.4</ele><time>2026-08-04T22:19:37Z</time></trkpt>
<trkpt lat="35.087773" lon="-85.115309"><ele>280.1</ele><time>2026-08-04T22:19:40Z</time></trkpt>
<trkpt lat="35.08775" lon="-85.115348"><ele>280.7</ele><time>2026-08-04T22:19:43Z</time></trkpt>
<trkpt lat="35.087724" lon="-85.115377"><ele>280.7</ele><time>2026-08-04T22:19:46Z</time></trkpt>
<trkpt lat="35.087716" lon="-85.115426"><ele>278.9</ele><time>2026-08-04T22:19:49Z</time></trkpt>
<trkpt lat="35.087698" lon="-85.115471"><ele>279.2</ele><time>2026-08-04T22:19:52Z</time></trkpt>
<trkpt lat="35.087675" lon="-85.115491"><ele>278.0</ele><time>2026-08-04T22:19:54Z</time></trkpt>
<trkpt lat="35.087643" lon="-85.115514"><ele>278.3</ele><time>2026-08-04T22:19:57Z</time></trkpt>
<trkpt lat="35.087615" lon="-85.115535"><ele>280.1</ele><time>2026-08-04T22:20:00Z</time></trkpt>
<trkpt lat="35.087593" lon="-85.115566"><ele>282.2</ele><time>2026-08-04T22:20:03Z</time></trkpt>
<trkpt lat="35.087584" lon="-85.115611"><ele>281.9</ele><time>2026-08-04T22:20:05Z</time></trkpt>
<trkpt lat="35.08758" lon="-85.115647"><ele>281.9</ele><time>2026-08-04T22:20:07Z</time></trkpt>
<trkpt lat="35.087558" lon="-85.115669"><ele>283.5</ele><time>2026-08-04T22:20:09Z</time></trkpt>
<trkpt lat="35.087531" lon="-85.115672"><ele>283.8</ele><time>2026-08-04T22:20:11Z</time></trkpt>
<trkpt lat="35.087506" lon="-85.115686"><ele>281.0</ele><time>2026-08-04T22:20:14Z</time></trkpt>
<trkpt lat="35.087484" lon="-85.115722"><ele>281.6</ele><time>2026-08-04T22:20:17Z</time></trkpt>
<trkpt lat="35.087465" lon="-85.115747"><ele>281.3</ele><time>2026-08-04T22:20:19Z</time></trkpt>
<trkpt lat="35.087443" lon="-85.11577"><ele>279.2</ele><time>2026-08-04T22:20:22Z</time></trkpt>
<trkpt lat="35.087418" lon="-85.115805"><ele>279.8</ele><time>2026-08-04T22:20:25Z</time></trkpt>
<trkpt lat="35.087389" lon="-85.115838"><ele>280.1</ele><time>2026-08-04T22:20:28Z</time></trkpt>
<trkpt lat="35.087364" lon="-85.115872"><ele>280.1</ele><time>2026-08-04T22:20:31Z</time></trkpt>
<trkpt lat="35.087357" lon="-85.115908"><ele>279.2</ele><time>2026-08-04T22:20:33Z</time></trkpt>
<trkpt lat="35.087337" lon="-85.115935"><ele>278.0</ele><time>2026-08-04T22:20:35Z</time></trkpt>
<trkpt lat="35.087311" lon="-85.115954"><ele>276.1</ele><time>2026-08-04T22:20:37Z</time></trkpt>
<trkpt lat="35.087288" lon="-85.115982"><ele>276.1</ele><time>2026-08-04T22:20:39Z</time></trkpt>
<trkpt lat="35.087264" lon="-85.116007"><ele>275.5</ele><time>2026-08-04T22:20:41Z</time></trkpt>
<trkpt lat="35.087238" lon="-85.116027"><ele>274.6</ele><time>2026-08-04T22:20:43Z</time></trkpt>
<trkpt lat="35.087214" lon="-85.116049"><ele>274.6</ele><time>2026-08-04T22:20:45Z</time></trkpt>
<trkpt lat="35.087193" lon="-85.116077"><ele>276.5</ele><time>2026-08-04T22:20:47Z</time></trkpt>
<trkpt lat="35.087171" lon="-85.116112"><ele>276.1</ele><time>2026-08-04T22:20:50Z</time></trkpt>
<trkpt lat="35.08715" lon="-85.11614"><ele>277.1</ele><time>2026-08-04T22:20:52Z</time></trkpt>
<trkpt lat="35.087125" lon="-85.116166"><ele>277.7</ele><time>2026-08-04T22:20:54Z</time></trkpt>
<trkpt lat="35.087097" lon="-85.116184"><ele>277.1</ele><time>2026-08-04T22:20:56Z</time></trkpt>
<trkpt lat="35.087066" lon="-85.116199"><ele>277.4</ele><time>2026-08-04T22:20:58Z</time></trkpt>
<trkpt lat="35.087042" lon="-85.116216"><ele>277.7</ele><time>2026-08-04T22:21:00Z</time></trkpt>
<trkpt lat="35.087017" lon="-85.116233"><ele>278.9</ele><time>2026-08-04T22:21:02Z</time></trkpt>
<trkpt lat="35.08699" lon="-85.116249"><ele>278.3</ele><time>2026-08-04T22:21:04Z</time></trkpt>
<trkpt lat="35.086954" lon="-85.116259"><ele>277.4</ele><time>2026-08-04T22:21:07Z</time></trkpt>
<trkpt lat="35.086929" lon="-85.116278"><ele>276.8</ele><time>2026-08-04T22:21:09Z</time></trkpt>
<trkpt lat="35.086904" lon="-85.116294"><ele>277.1</ele><time>2026-08-04T22:21:11Z</time></trkpt>
<trkpt lat="35.086869" lon="-85.116313"><ele>277.4</ele><time>2026-08-04T22:21:14Z</time></trkpt>
<trkpt lat="35.086829" lon="-85.116332"><ele>277.7</ele><time>2026-08-04T22:21:17Z</time></trkpt>
<trkpt lat="35.086794" lon="-85.116352"><ele>275.8</ele><time>2026-08-04T22:21:20Z</time></trkpt>
<trkpt lat="35.086768" lon="-85.116361"><ele>277.7</ele><time>2026-08-04T22:21:22Z</time></trkpt>
<trkpt lat="35.086737" lon="-85.116376"><ele>277.7</ele><time>2026-08-04T22:21:25Z</time></trkpt>
<trkpt lat="35.086702" lon="-85.116388"><ele>279.8</ele><time>2026-08-04T22:21:28Z</time></trkpt>
<trkpt lat="35.086665" lon="-85.116401"><ele>280.7</ele><time>2026-08-04T22:21:31Z</time></trkpt>
<trkpt lat="35.086636" lon="-85.116413"><ele>281.0</ele><time>2026-08-04T22:21:33Z</time></trkpt>
<trkpt lat="35.086609" lon="-85.116424"><ele>281.0</ele><time>2026-08-04T22:21:35Z</time></trkpt>
<trkpt lat="35.08658" lon="-85.116433"><ele>280.7</ele><time>2026-08-04T22:21:37Z</time></trkpt>
<trkpt lat="35.086545" lon="-85.116461"><ele>281.6</ele><time>2026-08-04T22:21:40Z</time></trkpt>
<trkpt lat="35.086519" lon="-85.116475"><ele>280.4</ele><time>2026-08-04T22:21:42Z</time></trkpt>
<trkpt lat="35.086486" lon="-85.116494"><ele>283.2</ele><time>2026-08-04T22:21:45Z</time></trkpt>
<trkpt lat="35.086453" lon="-85.116526"><ele>283.5</ele><time>2026-08-04T22:21:48Z</time></trkpt>
<trkpt lat="35.086428" lon="-85.116551"><ele>283.5</ele><time>2026-08-04T22:21:50Z</time></trkpt>
<trkpt lat="35.086403" lon="-85.116571"><ele>284.4</ele><time>2026-08-04T22:21:52Z</time></trkpt>
<trkpt lat="35.086377" lon="-85.116589"><ele>285.3</ele><time>2026-08-04T22:21:54Z</time></trkpt>
<trkpt lat="35.086353" lon="-85.116612"><ele>284.7</ele><time>2026-08-04T22:21:56Z</time></trkpt>
<trkpt lat="35.08633" lon="-85.116632"><ele>286.8</ele><time>2026-08-04T22:21:58Z</time></trkpt>
<trkpt lat="35.086309" lon="-85.116654"><ele>287.1</ele><time>2026-08-04T22:22:00Z</time></trkpt>
<trkpt lat="35.08628" lon="-85.116689"><ele>282.2</ele><time>2026-08-04T22:22:03Z</time></trkpt>
<trkpt lat="35.086262" lon="-85.116715"><ele>281.3</ele><time>2026-08-04T22:22:05Z</time></trkpt>
<trkpt lat="35.086234" lon="-85.11675"><ele>281.0</ele><time>2026-08-04T22:22:08Z</time></trkpt>
<trkpt lat="35.086206" lon="-85.116757"><ele>281.9</ele><time>2026-08-04T22:22:10Z</time></trkpt>
<trkpt lat="35.086171" lon="-85.116748"><ele>281.0</ele><time>2026-08-04T22:22:12Z</time></trkpt>
<trkpt lat="35.08614" lon="-85.116725"><ele>279.5</ele><time>2026-08-04T22:22:14Z</time></trkpt>
<trkpt lat="35.086114" lon="-85.116704"><ele>279.8</ele><time>2026-08-04T22:22:16Z</time></trkpt>
<trkpt lat="35.086087" lon="-85.116688"><ele>279.5</ele><time>2026-08-04T22:22:18Z</time></trkpt>
<trkpt lat="35.086054" lon="-85.116666"><ele>280.1</ele><time>2026-08-04T22:22:21Z</time></trkpt>
<trkpt lat="35.086015" lon="-85.116653"><ele>280.7</ele><time>2026-08-04T22:22:24Z</time></trkpt>
<trkpt lat="35.085977" lon="-85.116647"><ele>281.3</ele><time>2026-08-04T22:22:27Z</time></trkpt>
<trkpt lat="35.085942" lon="-85.116641"><ele>284.7</ele><time>2026-08-04T22:22:30Z</time></trkpt>
<trkpt lat="35.085909" lon="-85.116615"><ele>286.5</ele><time>2026-08-04T22:22:33Z</time></trkpt>
<trkpt lat="35.085887" lon="-85.116574"><ele>285.3</ele><time>2026-08-04T22:22:36Z</time></trkpt>
<trkpt lat="35.085883" lon="-85.116535"><ele>282.9</ele><time>2026-08-04T22:22:38Z</time></trkpt>
<trkpt lat="35.085883" lon="-85.1165"><ele>281.3</ele><time>2026-08-04T22:22:40Z</time></trkpt>
<trkpt lat="35.085859" lon="-85.116468"><ele>281.9</ele><time>2026-08-04T22:22:42Z</time></trkpt>
<trkpt lat="35.085812" lon="-85.116464"><ele>281.3</ele><time>2026-08-04T22:22:44Z</time></trkpt>
<trkpt lat="35.08578" lon="-85.116467"><ele>282.9</ele><time>2026-08-04T22:22:46Z</time></trkpt>
<trkpt lat="35.085758" lon="-85.116502"><ele>282.9</ele><time>2026-08-04T22:22:48Z</time></trkpt>
<trkpt lat="35.08575" lon="-85.116535"><ele>281.6</ele><time>2026-08-04T22:22:49Z</time></trkpt>
<trkpt lat="35.085739" lon="-85.116582"><ele>279.5</ele><time>2026-08-04T22:22:51Z</time></trkpt>
<trkpt lat="35.085735" lon="-85.116615"><ele>278.0</ele><time>2026-08-04T22:22:54Z</time></trkpt>
<trkpt lat="35.08574" lon="-85.116652"><ele>279.5</ele><time>2026-08-04T22:22:57Z</time></trkpt>
<trkpt lat="35.085713" lon="-85.116685"><ele>280.1</ele><time>2026-08-04T22:23:00Z</time></trkpt>
<trkpt lat="35.085676" lon="-85.116703"><ele>278.9</ele><time>2026-08-04T22:23:03Z</time></trkpt>
<trkpt lat="35.085641" lon="-85.116718"><ele>278.0</ele><time>2026-08-04T22:23:05Z</time></trkpt>
<trkpt lat="35.085603" lon="-85.116715"><ele>279.2</ele><time>2026-08-04T22:23:08Z</time></trkpt>
<trkpt lat="35.085574" lon="-85.116711"><ele>280.4</ele><time>2026-08-04T22:23:10Z</time></trkpt>
<trkpt lat="35.085537" lon="-85.116717"><ele>280.1</ele><time>2026-08-04T22:23:12Z</time></trkpt>
<trkpt lat="35.085499" lon="-85.116709"><ele>278.0</ele><time>2026-08-04T22:23:14Z</time></trkpt>
<trkpt lat="35.085455" lon="-85.116702"><ele>275.8</ele><time>2026-08-04T22:23:16Z</time></trkpt>
<trkpt lat="35.085416" lon="-85.116707"><ele>275.2</ele><time>2026-08-04T22:23:18Z</time></trkpt>
<trkpt lat="35.085386" lon="-85.116724"><ele>275.5</ele><time>2026-08-04T22:23:20Z</time></trkpt>
<trkpt lat="35.085354" lon="-85.116746"><ele>277.7</ele><time>2026-08-04T22:23:22Z</time></trkpt>
<trkpt lat="35.085326" lon="-85.116768"><ele>280.4</ele><time>2026-08-04T22:23:25Z</time></trkpt>
<trkpt lat="35.085305" lon="-85.116799"><ele>279.5</ele><time>2026-08-04T22:23:28Z</time></trkpt>
<trkpt lat="35.085282" lon="-85.11682"><ele>280.1</ele><time>2026-08-04T22:23:30Z</time></trkpt>
<trkpt lat="35.085256" lon="-85.116842"><ele>280.4</ele><time>2026-08-04T22:23:32Z</time></trkpt>
<trkpt lat="35.085227" lon="-85.116859"><ele>278.3</ele><time>2026-08-04T22:23:34Z</time></trkpt>
<trkpt lat="35.085201" lon="-85.116875"><ele>278.0</ele><time>2026-08-04T22:23:36Z</time></trkpt>
<trkpt lat="35.085179" lon="-85.116897"><ele>276.5</ele><time>2026-08-04T22:23:38Z</time></trkpt>
<trkpt lat="35.085146" lon="-85.116917"><ele>276.1</ele><time>2026-08-04T22:23:41Z</time></trkpt>
<trkpt lat="35.085111" lon="-85.116939"><ele>274.3</ele><time>2026-08-04T22:23:44Z</time></trkpt>
<trkpt lat="35.08508" lon="-85.116962"><ele>270.4</ele><time>2026-08-04T22:23:47Z</time></trkpt>
<trkpt lat="35.085051" lon="-85.116975"><ele>269.7</ele><time>2026-08-04T22:23:49Z</time></trkpt>
<trkpt lat="35.08502" lon="-85.116975"><ele>269.7</ele><time>2026-08-04T22:23:51Z</time></trkpt>
<trkpt lat="35.084991" lon="-85.116971"><ele>271.3</ele><time>2026-08-04T22:23:53Z</time></trkpt>
<trkpt lat="35.084962" lon="-85.116965"><ele>272.8</ele><time>2026-08-04T22:23:55Z</time></trkpt>
<trkpt lat="35.084931" lon="-85.11697"><ele>272.5</ele><time>2026-08-04T22:23:57Z</time></trkpt>
<trkpt lat="35.084904" lon="-85.116981"><ele>272.5</ele><time>2026-08-04T22:23:59Z</time></trkpt>
<trkpt lat="35.084867" lon="-85.116995"><ele>275.5</ele><time>2026-08-04T22:24:02Z</time></trkpt>
<trkpt lat="35.084837" lon="-85.117022"><ele>276.8</ele><time>2026-08-04T22:24:05Z</time></trkpt>
<trkpt lat="35.084811" lon="-85.117053"><ele>276.5</ele><time>2026-08-04T22:24:08Z</time></trkpt>
<trkpt lat="35.084778" lon="-85.117077"><ele>276.1</ele><time>2026-08-04T22:24:11Z</time></trkpt>
<trkpt lat="35.084738" lon="-85.117089"><ele>273.7</ele><time>2026-08-04T22:24:14Z</time></trkpt>
<trkpt lat="35.084698" lon="-85.117079"><ele>271.9</ele><time>2026-08-04T22:24:17Z</time></trkpt>
<trkpt lat="35.084671" lon="-85.117067"><ele>270.7</ele><time>2026-08-04T22:24:19Z</time></trkpt>
<trkpt lat="35.084633" lon="-85.117067"><ele>268.8</ele><time>2026-08-04T22:24:22Z</time></trkpt>
<trkpt lat="35.084601" lon="-85.117061"><ele>267.9</ele><time>2026-08-04T22:24:25Z</time></trkpt>
<trkpt lat="35.084572" lon="-85.117061"><ele>267.0</ele><time>2026-08-04T22:24:27Z</time></trkpt>
<trkpt lat="35.084544" lon="-85.117069"><ele>268.8</ele><time>2026-08-04T22:24:29Z</time></trkpt>
<trkpt lat="35.084514" lon="-85.117091"><ele>270.1</ele><time>2026-08-04T22:24:32Z</time></trkpt>
<trkpt lat="35.084498" lon="-85.117123"><ele>270.1</ele><time>2026-08-04T22:24:34Z</time></trkpt>
<trkpt lat="35.084476" lon="-85.117162"><ele>270.4</ele><time>2026-08-04T22:24:37Z</time></trkpt>
<trkpt lat="35.084437" lon="-85.117186"><ele>270.7</ele><time>2026-08-04T22:24:40Z</time></trkpt>
<trkpt lat="35.084405" lon="-85.117207"><ele>270.1</ele><time>2026-08-04T22:24:43Z</time></trkpt>
<trkpt lat="35.084378" lon="-85.117233"><ele>270.1</ele><time>2026-08-04T22:24:46Z</time></trkpt>
<trkpt lat="35.08434" lon="-85.117256"><ele>270.7</ele><time>2026-08-04T22:24:49Z</time></trkpt>
<trkpt lat="35.084304" lon="-85.117258"><ele>269.4</ele><time>2026-08-04T22:24:51Z</time></trkpt>
<trkpt lat="35.084273" lon="-85.117262"><ele>269.1</ele><time>2026-08-04T22:24:53Z</time></trkpt>
<trkpt lat="35.084242" lon="-85.117263"><ele>269.7</ele><time>2026-08-04T22:24:55Z</time></trkpt>
<trkpt lat="35.084212" lon="-85.117258"><ele>269.7</ele><time>2026-08-04T22:24:57Z</time></trkpt>
<trkpt lat="35.084182" lon="-85.117255"><ele>268.8</ele><time>2026-08-04T22:24:59Z</time></trkpt>
<trkpt lat="35.084154" lon="-85.117256"><ele>266.7</ele><time>2026-08-04T22:25:01Z</time></trkpt>
<trkpt lat="35.084128" lon="-85.117267"><ele>267.3</ele><time>2026-08-04T22:25:03Z</time></trkpt>
<trkpt lat="35.084101" lon="-85.117281"><ele>268.2</ele><time>2026-08-04T22:25:05Z</time></trkpt>
<trkpt lat="35.08407" lon="-85.117313"><ele>269.7</ele><time>2026-08-04T22:25:08Z</time></trkpt>
<trkpt lat="35.084043" lon="-85.117346"><ele>271.9</ele><time>2026-08-04T22:25:11Z</time></trkpt>
<trkpt lat="35.084013" lon="-85.11737"><ele>273.7</ele><time>2026-08-04T22:25:14Z</time></trkpt>
<trkpt lat="35.083987" lon="-85.1174"><ele>272.5</ele><time>2026-08-04T22:25:17Z</time></trkpt>
<trkpt lat="35.083967" lon="-85.117425"><ele>268.8</ele><time>2026-08-04T22:25:20Z</time></trkpt>
<trkpt lat="35.083948" lon="-85.117461"><ele>267.9</ele><time>2026-08-04T22:25:23Z</time></trkpt>
<trkpt lat="35.083921" lon="-85.117495"><ele>267.6</ele><time>2026-08-04T22:25:26Z</time></trkpt>
<trkpt lat="35.083886" lon="-85.117502"><ele>268.2</ele><time>2026-08-04T22:25:28Z</time></trkpt>
<trkpt lat="35.083857" lon="-85.117507"><ele>269.4</ele><time>2026-08-04T22:25:30Z</time></trkpt>
<trkpt lat="35.083832" lon="-85.117526"><ele>270.1</ele><time>2026-08-04T22:25:32Z</time></trkpt>
<trkpt lat="35.083804" lon="-85.117535"><ele>270.7</ele><time>2026-08-04T22:25:34Z</time></trkpt>
<trkpt lat="35.083769" lon="-85.117526"><ele>271.3</ele><time>2026-08-04T22:25:36Z</time></trkpt>
<trkpt lat="35.083734" lon="-85.117515"><ele>272.2</ele><time>2026-08-04T22:25:39Z</time></trkpt>
<trkpt lat="35.083704" lon="-85.117518"><ele>271.6</ele><time>2026-08-04T22:25:41Z</time></trkpt>
<trkpt lat="35.083664" lon="-85.11752"><ele>272.2</ele><time>2026-08-04T22:25:44Z</time></trkpt>
<trkpt lat="35.083635" lon="-85.117531"><ele>273.1</ele><time>2026-08-04T22:25:46Z</time></trkpt>
<trkpt lat="35.083608" lon="-85.117542"><ele>273.1</ele><time>2026-08-04T22:25:48Z</time></trkpt>
<trkpt lat="35.08358" lon="-85.117557"><ele>273.4</ele><time>2026-08-04T22:25:50Z</time></trkpt>
<trkpt lat="35.083548" lon="-85.117582"><ele>271.6</ele><time>2026-08-04T22:25:53Z</time></trkpt>
<trkpt lat="35.083519" lon="-85.117601"><ele>270.4</ele><time>2026-08-04T22:25:55Z</time></trkpt>
<trkpt lat="35.083488" lon="-85.117608"><ele>269.1</ele><time>2026-08-04T22:25:57Z</time></trkpt>
<trkpt lat="35.083456" lon="-85.117609"><ele>267.6</ele><time>2026-08-04T22:25:59Z</time></trkpt>
<trkpt lat="35.083421" lon="-85.117625"><ele>267.6</ele><time>2026-08-04T22:26:02Z</time></trkpt>
<trkpt lat="35.083397" lon="-85.117641"><ele>268.5</ele><time>2026-08-04T22:26:04Z</time></trkpt>
<trkpt lat="35.083364" lon="-85.117656"><ele>271.0</ele><time>2026-08-04T22:26:07Z</time></trkpt>
<trkpt lat="35.083345" lon="-85.117695"><ele>268.5</ele><time>2026-08-04T22:26:10Z</time></trkpt>
<trkpt lat="35.083322" lon="-85.117732"><ele>265.8</ele><time>2026-08-04T22:26:13Z</time></trkpt>
<trkpt lat="35.083295" lon="-85.11777"><ele>265.8</ele><time>2026-08-04T22:26:16Z</time></trkpt>
<trkpt lat="35.083274" lon="-85.117798"><ele>267.6</ele><time>2026-08-04T22:26:18Z</time></trkpt>
<trkpt lat="35.083252" lon="-85.117821"><ele>269.1</ele><time>2026-08-04T22:26:20Z</time></trkpt>
<trkpt lat="35.083229" lon="-85.117843"><ele>270.7</ele><time>2026-08-04T22:26:22Z</time></trkpt>
<trkpt lat="35.083204" lon="-85.117858"><ele>271.9</ele><time>2026-08-04T22:26:24Z</time></trkpt>
<trkpt lat="35.08317" lon="-85.117858"><ele>269.4</ele><time>2026-08-04T22:26:26Z</time></trkpt>
<trkpt lat="35.083139" lon="-85.11785"><ele>271.3</ele><time>2026-08-04T22:26:28Z</time></trkpt>
<trkpt lat="35.083111" lon="-85.117832"><ele>271.3</ele><time>2026-08-04T22:26:30Z</time></trkpt>
<trkpt lat="35.083082" lon="-85.117816"><ele>271.6</ele><time>2026-08-04T22:26:32Z</time></trkpt>
<trkpt lat="35.083051" lon="-85.117809"><ele>271.3</ele><time>2026-08-04T22:26:34Z</time></trkpt>
<trkpt lat="35.083018" lon="-85.117812"><ele>270.4</ele><time>2026-08-04T22:26:36Z</time></trkpt>
<trkpt lat="35.082988" lon="-85.117824"><ele>270.1</ele><time>2026-08-04T22:26:38Z</time></trkpt>
<trkpt lat="35.082962" lon="-85.117839"><ele>269.7</ele><time>2026-08-04T22:26:40Z</time></trkpt>
<trkpt lat="35.082937" lon="-85.117856"><ele>268.8</ele><time>2026-08-04T22:26:42Z</time></trkpt>
<trkpt lat="35.082911" lon="-85.117872"><ele>269.4</ele><time>2026-08-04T22:26:44Z</time></trkpt>
<trkpt lat="35.082884" lon="-85.117888"><ele>271.0</ele><time>2026-08-04T22:26:46Z</time></trkpt>
<trkpt lat="35.082848" lon="-85.117902"><ele>272.2</ele><time>2026-08-04T22:26:49Z</time></trkpt>
<trkpt lat="35.082812" lon="-85.117921"><ele>274.9</ele><time>2026-08-04T22:26:52Z</time></trkpt>
<trkpt lat="35.082787" lon="-85.117937"><ele>274.9</ele><time>2026-08-04T22:26:54Z</time></trkpt>
<trkpt lat="35.082754" lon="-85.117963"><ele>273.1</ele><time>2026-08-04T22:26:57Z</time></trkpt>
<trkpt lat="35.082728" lon="-85.117977"><ele>271.6</ele><time>2026-08-04T22:26:59Z</time></trkpt>
<trkpt lat="35.082702" lon="-85.117993"><ele>272.2</ele><time>2026-08-04T22:27:01Z</time></trkpt>
<trkpt lat="35.08268" lon="-85.118013"><ele>272.2</ele><time>2026-08-04T22:27:03Z</time></trkpt>
<trkpt lat="35.08266" lon="-85.118039"><ele>271.9</ele><time>2026-08-04T22:27:05Z</time></trkpt>
<trkpt lat="35.08263" lon="-85.11807"><ele>270.4</ele><time>2026-08-04T22:27:08Z</time></trkpt>
<trkpt lat="35.082596" lon="-85.118097"><ele>268.5</ele><time>2026-08-04T22:27:11Z</time></trkpt>
<trkpt lat="35.082571" lon="-85.118115"><ele>268.8</ele><time>2026-08-04T22:27:13Z</time></trkpt>
<trkpt lat="35.082545" lon="-85.118136"><ele>266.7</ele><time>2026-08-04T22:27:15Z</time></trkpt>
<trkpt lat="35.082522" lon="-85.118159"><ele>266.4</ele><time>2026-08-04T22:27:17Z</time></trkpt>
<trkpt lat="35.082498" lon="-85.118178"><ele>266.4</ele><time>2026-08-04T22:27:19Z</time></trkpt>
<trkpt lat="35.082479" lon="-85.118222"><ele>267.3</ele><time>2026-08-04T22:27:22Z</time></trkpt>
<trkpt lat="35.082462" lon="-85.118251"><ele>267.6</ele><time>2026-08-04T22:27:24Z</time></trkpt>
<trkpt lat="35.082445" lon="-85.118278"><ele>267.6</ele><time>2026-08-04T22:27:26Z</time></trkpt>
<trkpt lat="35.082425" lon="-85.118301"><ele>266.7</ele><time>2026-08-04T22:27:28Z</time></trkpt>
<trkpt lat="35.082405" lon="-85.118325"><ele>265.2</ele><time>2026-08-04T22:27:30Z</time></trkpt>
<trkpt lat="35.08238" lon="-85.118359"><ele>266.4</ele><time>2026-08-04T22:27:33Z</time></trkpt>
<trkpt lat="35.082345" lon="-85.118385"><ele>266.4</ele><time>2026-08-04T22:27:36Z</time></trkpt>
<trkpt lat="35.082316" lon="-85.118401"><ele>266.7</ele><time>2026-08-04T22:27:38Z</time></trkpt>
<trkpt lat="35.082282" lon="-85.118408"><ele>267.0</ele><time>2026-08-04T22:27:40Z</time></trkpt>
<trkpt lat="35.082254" lon="-85.118425"><ele>267.9</ele><time>2026-08-04T22:27:42Z</time></trkpt>
<trkpt lat="35.082232" lon="-85.118449"><ele>268.2</ele><time>2026-08-04T22:27:44Z</time></trkpt>
<trkpt lat="35.082214" lon="-85.118477"><ele>269.7</ele><time>2026-08-04T22:27:46Z</time></trkpt>
<trkpt lat="35.08219" lon="-85.118518"><ele>269.1</ele><time>2026-08-04T22:27:49Z</time></trkpt>
<trkpt lat="35.08217" lon="-85.11855"><ele>268.2</ele><time>2026-08-04T22:27:52Z</time></trkpt>
<trkpt lat="35.082142" lon="-85.118572"><ele>268.5</ele><time>2026-08-04T22:27:54Z</time></trkpt>
<trkpt lat="35.082117" lon="-85.118594"><ele>268.8</ele><time>2026-08-04T22:27:56Z</time></trkpt>
<trkpt lat="35.082095" lon="-85.118617"><ele>267.9</ele><time>2026-08-04T22:27:58Z</time></trkpt>
<trkpt lat="35.082071" lon="-85.118637"><ele>267.6</ele><time>2026-08-04T22:28:00Z</time></trkpt>
<trkpt lat="35.082034" lon="-85.118661"><ele>269.1</ele><time>2026-08-04T22:28:03Z</time></trkpt>
<trkpt lat="35.08201" lon="-85.118682"><ele>270.7</ele><time>2026-08-04T22:28:05Z</time></trkpt>
<trkpt lat="35.081989" lon="-85.118705"><ele>269.4</ele><time>2026-08-04T22:28:07Z</time></trkpt>
<trkpt lat="35.081971" lon="-85.118733"><ele>268.8</ele><time>2026-08-04T22:28:09Z</time></trkpt>
<trkpt lat="35.081955" lon="-85.118766"><ele>270.1</ele><time>2026-08-04T22:28:11Z</time></trkpt>
<trkpt lat="35.081939" lon="-85.118798"><ele>269.4</ele><time>2026-08-04T22:28:13Z</time></trkpt>
<trkpt lat="35.081929" lon="-85.118834"><ele>268.2</ele><time>2026-08-04T22:28:15Z</time></trkpt>
<trkpt lat="35.081918" lon="-85.118867"><ele>267.6</ele><time>2026-08-04T22:28:17Z</time></trkpt>
<trkpt lat="35.081905" lon="-85.118899"><ele>267.3</ele><time>2026-08-04T22:28:19Z</time></trkpt>
<trkpt lat="35.081878" lon="-85.118939"><ele>266.4</ele><time>2026-08-04T22:28:22Z</time></trkpt>
<trkpt lat="35.081864" lon="-85.118971"><ele>266.7</ele><time>2026-08-04T22:28:24Z</time></trkpt>
<trkpt lat="35.08185" lon="-85.119011"><ele>267.6</ele><time>2026-08-04T22:28:27Z</time></trkpt>
<trkpt lat="35.081825" lon="-85.119052"><ele>267.0</ele><time>2026-08-04T22:28:30Z</time></trkpt>
<trkpt lat="35.081806" lon="-85.119081"><ele>267.0</ele><time>2026-08-04T22:28:32Z</time></trkpt>
<trkpt lat="35.081785" lon="-85.119108"><ele>266.7</ele><time>2026-08-04T22:28:34Z</time></trkpt>
<trkpt lat="35.081758" lon="-85.11914"><ele>267.6</ele><time>2026-08-04T22:28:37Z</time></trkpt>
<trkpt lat="35.081723" lon="-85.119169"><ele>268.5</ele><time>2026-08-04T22:28:40Z</time></trkpt>
<trkpt lat="35.081691" lon="-85.119204"><ele>268.5</ele><time>2026-08-04T22:28:43Z</time></trkpt>
<trkpt lat="35.08167" lon="-85.119244"><ele>267.6</ele><time>2026-08-04T22:28:45Z</time></trkpt>
<trkpt lat="35.081654" lon="-85.119278"><ele>268.2</ele><time>2026-08-04T22:28:47Z</time></trkpt>
<trkpt lat="35.08164" lon="-85.119325"><ele>267.9</ele><time>2026-08-04T22:28:50Z</time></trkpt>
<trkpt lat="35.081615" lon="-85.119356"><ele>270.1</ele><time>2026-08-04T22:28:53Z</time></trkpt>
<trkpt lat="35.081587" lon="-85.119364"><ele>271.0</ele><time>2026-08-04T22:28:55Z</time></trkpt>
<trkpt lat="35.081566" lon="-85.119392"><ele>270.4</ele><time>2026-08-04T22:28:57Z</time></trkpt>
<trkpt lat="35.081549" lon="-85.119422"><ele>270.7</ele><time>2026-08-04T22:28:59Z</time></trkpt>
<trkpt lat="35.081526" lon="-85.119445"><ele>271.6</ele><time>2026-08-04T22:29:01Z</time></trkpt>
<trkpt lat="35.081503" lon="-85.119466"><ele>272.2</ele><time>2026-08-04T22:29:03Z</time></trkpt>
<trkpt lat="35.081479" lon="-85.119485"><ele>269.7</ele><time>2026-08-04T22:29:05Z</time></trkpt>
<trkpt lat="35.08146" lon="-85.119516"><ele>267.3</ele><time>2026-08-04T22:29:07Z</time></trkpt>
<trkpt lat="35.081431" lon="-85.119547"><ele>266.7</ele><time>2026-08-04T22:29:10Z</time></trkpt>
<trkpt lat="35.081399" lon="-85.119566"><ele>267.3</ele><time>2026-08-04T22:29:14Z</time></trkpt>
<trkpt lat="35.08138" lon="-85.119594"><ele>264.3</ele><time>2026-08-04T22:29:16Z</time></trkpt>
<trkpt lat="35.081367" lon="-85.11963"><ele>264.0</ele><time>2026-08-04T22:29:18Z</time></trkpt>
<trkpt lat="35.081341" lon="-85.119669"><ele>264.9</ele><time>2026-08-04T22:29:21Z</time></trkpt>
<trkpt lat="35.081312" lon="-85.119689"><ele>264.6</ele><time>2026-08-04T22:29:23Z</time></trkpt>
<trkpt lat="35.081289" lon="-85.119711"><ele>264.3</ele><time>2026-08-04T22:29:25Z</time></trkpt>
<trkpt lat="35.081265" lon="-85.119733"><ele>263.3</ele><time>2026-08-04T22:29:27Z</time></trkpt>
<trkpt lat="35.081245" lon="-85.119761"><ele>264.0</ele><time>2026-08-04T22:29:29Z</time></trkpt>
<trkpt lat="35.081224" lon="-85.119789"><ele>262.1</ele><time>2026-08-04T22:29:31Z</time></trkpt>
<trkpt lat="35.081199" lon="-85.119809"><ele>262.1</ele><time>2026-08-04T22:29:33Z</time></trkpt>
<trkpt lat="35.081175" lon="-85.119826"><ele>263.0</ele><time>2026-08-04T22:29:35Z</time></trkpt>
<trkpt lat="35.081137" lon="-85.119842"><ele>264.3</ele><time>2026-08-04T22:29:38Z</time></trkpt>
<trkpt lat="35.081109" lon="-85.119851"><ele>261.2</ele><time>2026-08-04T22:29:40Z</time></trkpt>
<trkpt lat="35.081081" lon="-85.11986"><ele>260.6</ele><time>2026-08-04T22:29:42Z</time></trkpt>
<trkpt lat="35.081041" lon="-85.119868"><ele>260.3</ele><time>2026-08-04T22:29:45Z</time></trkpt>
<trkpt lat="35.081018" lon="-85.11989"><ele>260.3</ele><time>2026-08-04T22:29:47Z</time></trkpt>
<trkpt lat="35.081007" lon="-85.119928"><ele>262.7</ele><time>2026-08-04T22:29:49Z</time></trkpt>
<trkpt lat="35.080997" lon="-85.119961"><ele>261.2</ele><time>2026-08-04T22:29:51Z</time></trkpt>
<trkpt lat="35.080974" lon="-85.120001"><ele>260.3</ele><time>2026-08-04T22:29:54Z</time></trkpt>
<trkpt lat="35.080954" lon="-85.120029"><ele>260.3</ele><time>2026-08-04T22:29:56Z</time></trkpt>
<trkpt lat="35.080929" lon="-85.120066"><ele>260.9</ele><time>2026-08-04T22:29:59Z</time></trkpt>
<trkpt lat="35.080918" lon="-85.1201"><ele>260.0</ele><time>2026-08-04T22:30:01Z</time></trkpt>
<trkpt lat="35.080901" lon="-85.120145"><ele>259.4</ele><time>2026-08-04T22:30:04Z</time></trkpt>
<trkpt lat="35.080883" lon="-85.120171"><ele>259.1</ele><time>2026-08-04T22:30:06Z</time></trkpt>
<trkpt lat="35.080864" lon="-85.120196"><ele>260.6</ele><time>2026-08-04T22:30:08Z</time></trkpt>
<trkpt lat="35.08084" lon="-85.120215"><ele>260.3</ele><time>2026-08-04T22:30:10Z</time></trkpt>
<trkpt lat="35.080814" lon="-85.120232"><ele>260.9</ele><time>2026-08-04T22:30:12Z</time></trkpt>
<trkpt lat="35.080776" lon="-85.120245"><ele>262.1</ele><time>2026-08-04T22:30:15Z</time></trkpt>
<trkpt lat="35.080741" lon="-85.120264"><ele>262.7</ele><time>2026-08-04T22:30:18Z</time></trkpt>
<trkpt lat="35.080709" lon="-85.12029"><ele>264.3</ele><time>2026-08-04T22:30:21Z</time></trkpt>
<trkpt lat="35.080683" lon="-85.120325"><ele>266.7</ele><time>2026-08-04T22:30:24Z</time></trkpt>
<trkpt lat="35.08066" lon="-85.120348"><ele>265.5</ele><time>2026-08-04T22:30:26Z</time></trkpt>
<trkpt lat="35.080637" lon="-85.120371"><ele>265.8</ele><time>2026-08-04T22:30:28Z</time></trkpt>
<trkpt lat="35.080615" lon="-85.120396"><ele>266.4</ele><time>2026-08-04T22:30:30Z</time></trkpt>
<trkpt lat="35.080615" lon="-85.120396"><ele>266.1</ele><time>2026-08-04T22:30:31Z</time></trkpt>
<trkpt lat="35.080608" lon="-85.120406"><ele>265.2</ele><time>2026-08-04T22:30:32Z</time></trkpt>
<trkpt lat="35.080585" lon="-85.120427"><ele>265.8</ele><time>2026-08-04T22:30:34Z</time></trkpt>
<trkpt lat="35.080558" lon="-85.120443"><ele>266.1</ele><time>2026-08-04T22:30:36Z</time></trkpt>
<trkpt lat="35.080545" lon="-85.120478"><ele>266.4</ele><time>2026-08-04T22:30:38Z</time></trkpt>
<trkpt lat="35.080523" lon="-85.120518"><ele>266.4</ele><time>2026-08-04T22:30:41Z</time></trkpt>
<trkpt lat="35.080506" lon="-85.120547"><ele>268.2</ele><time>2026-08-04T22:30:43Z</time></trkpt>
<trkpt lat="35.080483" lon="-85.120571"><ele>266.7</ele><time>2026-08-04T22:30:45Z</time></trkpt>
<trkpt lat="35.080454" lon="-85.120593"><ele>263.3</ele><time>2026-08-04T22:30:47Z</time></trkpt>
<trkpt lat="35.080428" lon="-85.120602"><ele>266.4</ele><time>2026-08-04T22:30:49Z</time></trkpt>
<trkpt lat="35.080397" lon="-85.120616"><ele>267.0</ele><time>2026-08-04T22:30:52Z</time></trkpt>
<trkpt lat="35.080385" lon="-85.120647"><ele>266.7</ele><time>2026-08-04T22:30:54Z</time></trkpt>
<trkpt lat="35.080411" lon="-85.120672"><ele>267.0</ele><time>2026-08-04T22:30:57Z</time></trkpt>
<trkpt lat="35.08043" lon="-85.1207"><ele>265.5</ele><time>2026-08-04T22:30:59Z</time></trkpt>
<trkpt lat="35.080441" lon="-85.120735"><ele>264.6</ele><time>2026-08-04T22:31:01Z</time></trkpt>
<trkpt lat="35.080439" lon="-85.120773"><ele>264.0</ele><time>2026-08-04T22:31:03Z</time></trkpt>
<trkpt lat="35.080439" lon="-85.120816"><ele>263.0</ele><time>2026-08-04T22:31:05Z</time></trkpt>
<trkpt lat="35.080427" lon="-85.120852"><ele>262.4</ele><time>2026-08-04T22:31:07Z</time></trkpt>
<trkpt lat="35.080415" lon="-85.120884"><ele>262.7</ele><time>2026-08-04T22:31:09Z</time></trkpt>
<trkpt lat="35.080395" lon="-85.120914"><ele>265.8</ele><time>2026-08-04T22:31:11Z</time></trkpt>
<trkpt lat="35.080372" lon="-85.120946"><ele>266.4</ele><time>2026-08-04T22:31:13Z</time></trkpt>
<trkpt lat="35.080344" lon="-85.120972"><ele>266.7</ele><time>2026-08-04T22:31:15Z</time></trkpt>
<trkpt lat="35.080312" lon="-85.120993"><ele>265.5</ele><time>2026-08-04T22:31:17Z</time></trkpt>
<trkpt lat="35.080285" lon="-85.121011"><ele>265.5</ele><time>2026-08-04T22:31:19Z</time></trkpt>
<trkpt lat="35.080249" lon="-85.121028"><ele>265.5</ele><time>2026-08-04T22:31:22Z</time></trkpt>
<trkpt lat="35.080225" lon="-85.121045"><ele>264.6</ele><time>2026-08-04T22:31:24Z</time></trkpt>
<trkpt lat="35.080194" lon="-85.121073"><ele>267.0</ele><time>2026-08-04T22:31:27Z</time></trkpt>
<trkpt lat="35.08017" lon="-85.121091"><ele>266.4</ele><time>2026-08-04T22:31:29Z</time></trkpt>
<trkpt lat="35.080144" lon="-85.121113"><ele>264.9</ele><time>2026-08-04T22:31:31Z</time></trkpt>
<trkpt lat="35.080117" lon="-85.121137"><ele>263.3</ele><time>2026-08-04T22:31:33Z</time></trkpt>
<trkpt lat="35.080095" lon="-85.121166"><ele>263.0</ele><time>2026-08-04T22:31:35Z</time></trkpt>
<trkpt lat="35.080072" lon="-85.121192"><ele>263.3</ele><time>2026-08-04T22:31:37Z</time></trkpt>
<trkpt lat="35.080046" lon="-85.121205"><ele>263.7</ele><time>2026-08-04T22:31:39Z</time></trkpt>
<trkpt lat="35.08002" lon="-85.121221"><ele>263.7</ele><time>2026-08-04T22:31:41Z</time></trkpt>
<trkpt lat="35.079999" lon="-85.121242"><ele>264.3</ele><time>2026-08-04T22:31:43Z</time></trkpt>
<trkpt lat="35.07997" lon="-85.121252"><ele>262.4</ele><time>2026-08-04T22:31:45Z</time></trkpt>
<trkpt lat="35.079938" lon="-85.121264"><ele>261.2</ele><time>2026-08-04T22:31:47Z</time></trkpt>
<trkpt lat="35.079914" lon="-85.121282"><ele>260.3</ele><time>2026-08-04T22:31:49Z</time></trkpt>
<trkpt lat="35.079893" lon="-85.121324"><ele>261.2</ele><time>2026-08-04T22:31:52Z</time></trkpt>
<trkpt lat="35.079886" lon="-85.121356"><ele>262.1</ele><time>2026-08-04T22:31:54Z</time></trkpt>
<trkpt lat="35.079875" lon="-85.121387"><ele>261.5</ele><time>2026-08-04T22:31:56Z</time></trkpt>
<trkpt lat="35.079852" lon="-85.121411"><ele>262.4</ele><time>2026-08-04T22:31:58Z</time></trkpt>
<trkpt lat="35.079825" lon="-85.121421"><ele>264.0</ele><time>2026-08-04T22:32:00Z</time></trkpt>
<trkpt lat="35.079799" lon="-85.121447"><ele>265.8</ele><time>2026-08-04T22:32:03Z</time></trkpt>
<trkpt lat="35.079779" lon="-85.121472"><ele>264.6</ele><time>2026-08-04T22:32:05Z</time></trkpt>
<trkpt lat="35.079751" lon="-85.121492"><ele>264.0</ele><time>2026-08-04T22:32:07Z</time></trkpt>
<trkpt lat="35.07972" lon="-85.121502"><ele>264.6</ele><time>2026-08-04T22:32:09Z</time></trkpt>
<trkpt lat="35.07969" lon="-85.121519"><ele>263.7</ele><time>2026-08-04T22:32:11Z</time></trkpt>
<trkpt lat="35.079665" lon="-85.121536"><ele>263.0</ele><time>2026-08-04T22:32:13Z</time></trkpt>
<trkpt lat="35.079639" lon="-85.121548"><ele>263.0</ele><time>2026-08-04T22:32:15Z</time></trkpt>
<trkpt lat="35.079614" lon="-85.121569"><ele>262.7</ele><time>2026-08-04T22:32:17Z</time></trkpt>
<trkpt lat="35.079591" lon="-85.121588"><ele>262.7</ele><time>2026-08-04T22:32:19Z</time></trkpt>
<trkpt lat="35.079565" lon="-85.121604"><ele>263.3</ele><time>2026-08-04T22:32:21Z</time></trkpt>
<trkpt lat="35.079541" lon="-85.121621"><ele>261.2</ele><time>2026-08-04T22:32:23Z</time></trkpt>
<trkpt lat="35.079515" lon="-85.121636"><ele>260.9</ele><time>2026-08-04T22:32:25Z</time></trkpt>
<trkpt lat="35.079492" lon="-85.121656"><ele>259.1</ele><time>2026-08-04T22:32:27Z</time></trkpt>
<trkpt lat="35.079473" lon="-85.121685"><ele>259.4</ele><time>2026-08-04T22:32:29Z</time></trkpt>
<trkpt lat="35.079459" lon="-85.121714"><ele>260.3</ele><time>2026-08-04T22:32:31Z</time></trkpt>
<trkpt lat="35.079432" lon="-85.121747"><ele>259.7</ele><time>2026-08-04T22:32:34Z</time></trkpt>
<trkpt lat="35.079412" lon="-85.121771"><ele>259.4</ele><time>2026-08-04T22:32:36Z</time></trkpt>
<trkpt lat="35.079403" lon="-85.121805"><ele>260.6</ele><time>2026-08-04T22:32:38Z</time></trkpt>
<trkpt lat="35.079395" lon="-85.121838"><ele>258.5</ele><time>2026-08-04T22:32:40Z</time></trkpt>
<trkpt lat="35.079386" lon="-85.12188"><ele>257.6</ele><time>2026-08-04T22:32:43Z</time></trkpt>
<trkpt lat="35.079369" lon="-85.12192"><ele>257.6</ele><time>2026-08-04T22:32:46Z</time></trkpt>
<trkpt lat="35.079379" lon="-85.121967"><ele>256.6</ele><time>2026-08-04T22:32:49Z</time></trkpt>
<trkpt lat="35.079364" lon="-85.12201"><ele>255.7</ele><time>2026-08-04T22:32:52Z</time></trkpt>
<trkpt lat="35.079342" lon="-85.122049"><ele>256.3</ele><time>2026-08-04T22:32:55Z</time></trkpt>
<trkpt lat="35.079325" lon="-85.122092"><ele>255.7</ele><time>2026-08-04T22:32:58Z</time></trkpt>
<trkpt lat="35.079312" lon="-85.122137"><ele>254.8</ele><time>2026-08-04T22:33:01Z</time></trkpt>
<trkpt lat="35.0793" lon="-85.122175"><ele>254.8</ele><time>2026-08-04T22:33:04Z</time></trkpt>
<trkpt lat="35.079296" lon="-85.122224"><ele>256.9</ele><time>2026-08-04T22:33:07Z</time></trkpt>
<trkpt lat="35.079293" lon="-85.122258"><ele>257.6</ele><time>2026-08-04T22:33:09Z</time></trkpt>
<trkpt lat="35.079289" lon="-85.122294"><ele>256.0</ele><time>2026-08-04T22:33:11Z</time></trkpt>
<trkpt lat="35.079283" lon="-85.122328"><ele>255.1</ele><time>2026-08-04T22:33:13Z</time></trkpt>
<trkpt lat="35.079282" lon="-85.122362"><ele>254.5</ele><time>2026-08-04T22:33:15Z</time></trkpt>
<trkpt lat="35.079273" lon="-85.122406"><ele>254.8</ele><time>2026-08-04T22:33:18Z</time></trkpt>
<trkpt lat="35.079259" lon="-85.122436"><ele>254.2</ele><time>2026-08-04T22:33:20Z</time></trkpt>
<trkpt lat="35.079254" lon="-85.122472"><ele>255.4</ele><time>2026-08-04T22:33:22Z</time></trkpt>
<trkpt lat="35.079258" lon="-85.122506"><ele>255.4</ele><time>2026-08-04T22:33:24Z</time></trkpt>
<trkpt lat="35.079267" lon="-85.122541"><ele>255.7</ele><time>2026-08-04T22:33:26Z</time></trkpt>
<trkpt lat="35.079268" lon="-85.122574"><ele>254.2</ele><time>2026-08-04T22:33:28Z</time></trkpt>
<trkpt lat="35.079265" lon="-85.122611"><ele>254.8</ele><time>2026-08-04T22:33:30Z</time></trkpt>
<trkpt lat="35.079264" lon="-85.122649"><ele>255.1</ele><time>2026-08-04T22:33:32Z</time></trkpt>
<trkpt lat="35.079264" lon="-85.122685"><ele>255.1</ele><time>2026-08-04T22:33:34Z</time></trkpt>
<trkpt lat="35.079269" lon="-85.122718"><ele>255.4</ele><time>2026-08-04T22:33:36Z</time></trkpt>
<trkpt lat="35.079263" lon="-85.122751"><ele>256.0</ele><time>2026-08-04T22:33:38Z</time></trkpt>
<trkpt lat="35.079261" lon="-85.122784"><ele>255.7</ele><time>2026-08-04T22:33:40Z</time></trkpt>
<trkpt lat="35.079258" lon="-85.12282"><ele>258.2</ele><time>2026-08-04T22:33:42Z</time></trkpt>
<trkpt lat="35.079254" lon="-85.122859"><ele>256.6</ele><time>2026-08-04T22:33:44Z</time></trkpt>
<trkpt lat="35.079249" lon="-85.1229"><ele>257.3</ele><time>2026-08-04T22:33:46Z</time></trkpt>
<trkpt lat="35.079244" lon="-85.122935"><ele>257.3</ele><time>2026-08-04T22:33:48Z</time></trkpt>
<trkpt lat="35.079228" lon="-85.12297"><ele>257.3</ele><time>2026-08-04T22:33:50Z</time></trkpt>
<trkpt lat="35.079212" lon="-85.123007"><ele>254.5</ele><time>2026-08-04T22:33:52Z</time></trkpt>
<trkpt lat="35.079192" lon="-85.123034"><ele>254.2</ele><time>2026-08-04T22:33:54Z</time></trkpt>
<trkpt lat="35.079179" lon="-85.123067"><ele>254.2</ele><time>2026-08-04T22:33:56Z</time></trkpt>
<trkpt lat="35.079171" lon="-85.1231"><ele>255.4</ele><time>2026-08-04T22:33:58Z</time></trkpt>
<trkpt lat="35.079162" lon="-85.123135"><ele>256.3</ele><time>2026-08-04T22:34:00Z</time></trkpt>
<trkpt lat="35.079171" lon="-85.12318"><ele>255.7</ele><time>2026-08-04T22:34:02Z</time></trkpt>
<trkpt lat="35.079167" lon="-85.123228"><ele>255.7</ele><time>2026-08-04T22:34:04Z</time></trkpt>
<trkpt lat="35.079147" lon="-85.123264"><ele>255.1</ele><time>2026-08-04T22:34:06Z</time></trkpt>
<trkpt lat="35.079116" lon="-85.123296"><ele>255.4</ele><time>2026-08-04T22:34:08Z</time></trkpt>
<trkpt lat="35.079095" lon="-85.123333"><ele>256.3</ele><time>2026-08-04T22:34:10Z</time></trkpt>
<trkpt lat="35.079079" lon="-85.123367"><ele>256.3</ele><time>2026-08-04T22:34:12Z</time></trkpt>
<trkpt lat="35.07908" lon="-85.123402"><ele>256.0</ele><time>2026-08-04T22:34:14Z</time></trkpt>
<trkpt lat="35.079083" lon="-85.123454"><ele>254.8</ele><time>2026-08-04T22:34:17Z</time></trkpt>
<trkpt lat="35.079072" lon="-85.123496"><ele>254.8</ele><time>2026-08-04T22:34:19Z</time></trkpt>
<trkpt lat="35.079066" lon="-85.123533"><ele>257.3</ele><time>2026-08-04T22:34:21Z</time></trkpt>
<trkpt lat="35.079073" lon="-85.123569"><ele>256.9</ele><time>2026-08-04T22:34:23Z</time></trkpt>
<trkpt lat="35.079073" lon="-85.123606"><ele>257.6</ele><time>2026-08-04T22:34:25Z</time></trkpt>
<trkpt lat="35.079069" lon="-85.123643"><ele>256.9</ele><time>2026-08-04T22:34:27Z</time></trkpt>
<trkpt lat="35.079065" lon="-85.123679"><ele>256.3</ele><time>2026-08-04T22:34:29Z</time></trkpt>
<trkpt lat="35.079055" lon="-85.123717"><ele>257.9</ele><time>2026-08-04T22:34:31Z</time></trkpt>
<trkpt lat="35.07905" lon="-85.123756"><ele>257.9</ele><time>2026-08-04T22:34:33Z</time></trkpt>
<trkpt lat="35.07905" lon="-85.123798"><ele>257.6</ele><time>2026-08-04T22:34:36Z</time></trkpt>
<trkpt lat="35.079047" lon="-85.123832"><ele>256.6</ele><time>2026-08-04T22:34:38Z</time></trkpt>
<trkpt lat="35.07904" lon="-85.123866"><ele>257.3</ele><time>2026-08-04T22:34:40Z</time></trkpt>
<trkpt lat="35.079027" lon="-85.123905"><ele>261.8</ele><time>2026-08-04T22:34:43Z</time></trkpt>
<trkpt lat="35.079019" lon="-85.123939"><ele>262.4</ele><time>2026-08-04T22:34:45Z</time></trkpt>
<trkpt lat="35.079007" lon="-85.12397"><ele>262.4</ele><time>2026-08-04T22:34:47Z</time></trkpt>
<trkpt lat="35.07899" lon="-85.124005"><ele>262.7</ele><time>2026-08-04T22:34:49Z</time></trkpt>
<trkpt lat="35.078977" lon="-85.124041"><ele>260.9</ele><time>2026-08-04T22:34:51Z</time></trkpt>
<trkpt lat="35.078965" lon="-85.124073"><ele>262.1</ele><time>2026-08-04T22:34:53Z</time></trkpt>
<trkpt lat="35.078951" lon="-85.124106"><ele>261.8</ele><time>2026-08-04T22:34:55Z</time></trkpt>
<trkpt lat="35.078946" lon="-85.124152"><ele>263.0</ele><time>2026-08-04T22:34:58Z</time></trkpt>
<trkpt lat="35.078924" lon="-85.12419"><ele>260.3</ele><time>2026-08-04T22:35:00Z</time></trkpt>
<trkpt lat="35.078915" lon="-85.124228"><ele>260.6</ele><time>2026-08-04T22:35:02Z</time></trkpt>
<trkpt lat="35.078905" lon="-85.12426"><ele>260.0</ele><time>2026-08-04T22:35:04Z</time></trkpt>
<trkpt lat="35.078891" lon="-85.124293"><ele>258.8</ele><time>2026-08-04T22:35:06Z</time></trkpt>
<trkpt lat="35.078878" lon="-85.124331"><ele>257.3</ele><time>2026-08-04T22:35:08Z</time></trkpt>
<trkpt lat="35.078872" lon="-85.124364"><ele>256.6</ele><time>2026-08-04T22:35:10Z</time></trkpt>
<trkpt lat="35.07886" lon="-85.124396"><ele>256.3</ele><time>2026-08-04T22:35:12Z</time></trkpt>
<trkpt lat="35.078842" lon="-85.124423"><ele>255.7</ele><time>2026-08-04T22:35:14Z</time></trkpt>
<trkpt lat="35.078816" lon="-85.124448"><ele>255.7</ele><time>2026-08-04T22:35:16Z</time></trkpt>
<trkpt lat="35.07879" lon="-85.124471"><ele>256.6</ele><time>2026-08-04T22:35:18Z</time></trkpt>
<trkpt lat="35.078764" lon="-85.124495"><ele>258.8</ele><time>2026-08-04T22:35:20Z</time></trkpt>
<trkpt lat="35.07874" lon="-85.124517"><ele>260.9</ele><time>2026-08-04T22:35:22Z</time></trkpt>
<trkpt lat="35.078716" lon="-85.12454"><ele>263.0</ele><time>2026-08-04T22:35:24Z</time></trkpt>
<trkpt lat="35.078694" lon="-85.124563"><ele>262.7</ele><time>2026-08-04T22:35:26Z</time></trkpt>
<trkpt lat="35.078667" lon="-85.12458"><ele>263.7</ele><time>2026-08-04T22:35:28Z</time></trkpt>
<trkpt lat="35.078639" lon="-85.124593"><ele>263.3</ele><time>2026-08-04T22:35:30Z</time></trkpt>
<trkpt lat="35.078609" lon="-85.124606"><ele>261.5</ele><time>2026-08-04T22:35:32Z</time></trkpt>
<trkpt lat="35.078575" lon="-85.124613"><ele>259.4</ele><time>2026-08-04T22:35:34Z</time></trkpt>
<trkpt lat="35.078541" lon="-85.124619"><ele>256.9</ele><time>2026-08-04T22:35:36Z</time></trkpt>
<trkpt lat="35.078508" lon="-85.124626"><ele>257.3</ele><time>2026-08-04T22:35:38Z</time></trkpt>
<trkpt lat="35.078482" lon="-85.124642"><ele>256.9</ele><time>2026-08-04T22:35:40Z</time></trkpt>
<trkpt lat="35.078456" lon="-85.124657"><ele>256.0</ele><time>2026-08-04T22:35:42Z</time></trkpt>
<trkpt lat="35.078438" lon="-85.124689"><ele>255.7</ele><time>2026-08-04T22:35:44Z</time></trkpt>
<trkpt lat="35.078412" lon="-85.124713"><ele>255.4</ele><time>2026-08-04T22:35:46Z</time></trkpt>
<trkpt lat="35.078384" lon="-85.124731"><ele>255.4</ele><time>2026-08-04T22:35:48Z</time></trkpt>
<trkpt lat="35.078354" lon="-85.124745"><ele>254.5</ele><time>2026-08-04T22:35:50Z</time></trkpt>
<trkpt lat="35.078328" lon="-85.124763"><ele>253.0</ele><time>2026-08-04T22:35:52Z</time></trkpt>
<trkpt lat="35.078306" lon="-85.124784"><ele>253.0</ele><time>2026-08-04T22:35:54Z</time></trkpt>
<trkpt lat="35.07829" lon="-85.124827"><ele>251.5</ele><time>2026-08-04T22:35:57Z</time></trkpt>
<trkpt lat="35.078284" lon="-85.124871"><ele>251.8</ele><time>2026-08-04T22:36:00Z</time></trkpt>
<trkpt lat="35.07828" lon="-85.124916"><ele>251.2</ele><time>2026-08-04T22:36:03Z</time></trkpt>
<trkpt lat="35.07829" lon="-85.124951"><ele>251.2</ele><time>2026-08-04T22:36:05Z</time></trkpt>
<trkpt lat="35.078314" lon="-85.12498"><ele>251.2</ele><time>2026-08-04T22:36:07Z</time></trkpt>
<trkpt lat="35.078334" lon="-85.125007"><ele>250.5</ele><time>2026-08-04T22:36:09Z</time></trkpt>
<trkpt lat="35.078342" lon="-85.125043"><ele>249.0</ele><time>2026-08-04T22:36:11Z</time></trkpt>
<trkpt lat="35.078349" lon="-85.125078"><ele>248.7</ele><time>2026-08-04T22:36:13Z</time></trkpt>
<trkpt lat="35.078357" lon="-85.125113"><ele>249.9</ele><time>2026-08-04T22:36:15Z</time></trkpt>
<trkpt lat="35.078359" lon="-85.125149"><ele>249.3</ele><time>2026-08-04T22:36:17Z</time></trkpt>
<trkpt lat="35.078366" lon="-85.125187"><ele>250.2</ele><time>2026-08-04T22:36:19Z</time></trkpt>
<trkpt lat="35.078366" lon="-85.125234"><ele>249.9</ele><time>2026-08-04T22:36:22Z</time></trkpt>
<trkpt lat="35.078378" lon="-85.125283"><ele>249.0</ele><time>2026-08-04T22:36:25Z</time></trkpt>
<trkpt lat="35.078397" lon="-85.125311"><ele>248.1</ele><time>2026-08-04T22:36:27Z</time></trkpt>
<trkpt lat="35.078411" lon="-85.125344"><ele>249.0</ele><time>2026-08-04T22:36:29Z</time></trkpt>
<trkpt lat="35.078424" lon="-85.125378"><ele>248.1</ele><time>2026-08-04T22:36:31Z</time></trkpt>
<trkpt lat="35.078428" lon="-85.125414"><ele>249.6</ele><time>2026-08-04T22:36:33Z</time></trkpt>
<trkpt lat="35.07843" lon="-85.125451"><ele>250.5</ele><time>2026-08-04T22:36:35Z</time></trkpt>
<trkpt lat="35.078437" lon="-85.125488"><ele>252.1</ele><time>2026-08-04T22:36:37Z</time></trkpt>
<trkpt lat="35.07846" lon="-85.125526"><ele>252.7</ele><time>2026-08-04T22:36:40Z</time></trkpt>
<trkpt lat="35.078474" lon="-85.125562"><ele>252.7</ele><time>2026-08-04T22:36:42Z</time></trkpt>
<trkpt lat="35.078471" lon="-85.125599"><ele>254.8</ele><time>2026-08-04T22:36:44Z</time></trkpt>
<trkpt lat="35.078472" lon="-85.125641"><ele>253.0</ele><time>2026-08-04T22:36:47Z</time></trkpt>
<trkpt lat="35.078494" lon="-85.125682"><ele>251.5</ele><time>2026-08-04T22:36:49Z</time></trkpt>
<trkpt lat="35.078521" lon="-85.125715"><ele>251.2</ele><time>2026-08-04T22:36:51Z</time></trkpt>
<trkpt lat="35.078545" lon="-85.125747"><ele>250.5</ele><time>2026-08-04T22:36:53Z</time></trkpt>
<trkpt lat="35.078566" lon="-85.125781"><ele>249.9</ele><time>2026-08-04T22:36:55Z</time></trkpt>
<trkpt lat="35.07857" lon="-85.125815"><ele>252.7</ele><time>2026-08-04T22:36:57Z</time></trkpt>
<trkpt lat="35.07854" lon="-85.125813"><ele>251.2</ele><time>2026-08-04T22:36:59Z</time></trkpt>
<trkpt lat="35.078537" lon="-85.125751"><ele>243.2</ele><time>2026-08-04T22:37:00Z</time></trkpt>
<trkpt lat="35.07856" lon="-85.125801"><ele>253.0</ele><time>2026-08-04T22:37:01Z</time></trkpt>
</trkseg></trk></gpx>